<?xml version="1.0" encoding="UTF-8" standalone="no" ?>
<gpx xmlns="http://www.topografix.com/GPX/1/1" xmlns:xsi="http://www.w3.org/2001/XMLSchema-instance" xsi:schemaLocation="http://www.topografix.com/GPX/1/1 http://www.topografix.com/GPX/1/1/gpx.xsd" version="1.1" creator="VisuGPX - https://www.visugpx.com">
  <metadata>
    <name>Rando à coté de Saint Guilhem le Désert (34)</name>
    <desc><![CDATA[Belle rando, beaux paysages, pas trop difficile, départ au bord de l\'Hérault, après St Guilhem en venant de Gignac ou St Jean de Fos.]]></desc>
  </metadata>
  <trk>
    <name><![CDATA[St Guilhem-2011-12-18]]></name>
    <trkseg>
      <trkpt lat="43.74368" lon="3.56648">
        <ele>73.3</ele>
        <time>2011-12-18T07:46:44Z</time>
      </trkpt>
      <trkpt lat="43.74367" lon="3.56655">
        <ele>72.2</ele>
        <time>2011-12-18T07:48:16Z</time>
      </trkpt>
      <trkpt lat="43.74367" lon="3.56655">
        <ele>72.2</ele>
        <time>2011-12-18T07:48:17Z</time>
      </trkpt>
      <trkpt lat="43.74359" lon="3.56651">
        <ele>71.2</ele>
        <time>2011-12-18T07:48:56Z</time>
      </trkpt>
      <trkpt lat="43.74363" lon="3.56651">
        <ele>70.9</ele>
        <time>2011-12-18T07:50:46Z</time>
      </trkpt>
      <trkpt lat="43.74363" lon="3.56651">
        <ele>70.8</ele>
        <time>2011-12-18T07:50:47Z</time>
      </trkpt>
      <trkpt lat="43.74363" lon="3.56647">
        <ele>71.5</ele>
        <time>2011-12-18T07:54:14Z</time>
      </trkpt>
      <trkpt lat="43.74363" lon="3.56647">
        <ele>71.4</ele>
        <time>2011-12-18T07:54:15Z</time>
      </trkpt>
      <trkpt lat="43.74367" lon="3.56649">
        <ele>70</ele>
        <time>2011-12-18T07:57:21Z</time>
      </trkpt>
      <trkpt lat="43.74371" lon="3.56645">
        <ele>68.9</ele>
        <time>2011-12-18T07:58:38Z</time>
      </trkpt>
      <trkpt lat="43.7437" lon="3.56645">
        <ele>69</ele>
        <time>2011-12-18T07:58:39Z</time>
      </trkpt>
      <trkpt lat="43.74362" lon="3.56644">
        <ele>70.8</ele>
        <time>2011-12-18T07:59:21Z</time>
      </trkpt>
      <trkpt lat="43.74364" lon="3.56649">
        <ele>69.9</ele>
        <time>2011-12-18T08:00:11Z</time>
      </trkpt>
      <trkpt lat="43.74364" lon="3.56649">
        <ele>70.1</ele>
        <time>2011-12-18T08:00:12Z</time>
      </trkpt>
      <trkpt lat="43.7436" lon="3.56646">
        <ele>70</ele>
        <time>2011-12-18T08:05:19Z</time>
      </trkpt>
      <trkpt lat="43.74355" lon="3.56638">
        <ele>70.7</ele>
        <time>2011-12-18T08:06:33Z</time>
      </trkpt>
      <trkpt lat="43.74355" lon="3.56638">
        <ele>70.6</ele>
        <time>2011-12-18T08:06:34Z</time>
      </trkpt>
      <trkpt lat="43.7435" lon="3.56629">
        <ele>69.6</ele>
        <time>2011-12-18T08:07:03Z</time>
      </trkpt>
      <trkpt lat="43.74354" lon="3.56633">
        <ele>69.4</ele>
        <time>2011-12-18T08:07:34Z</time>
      </trkpt>
      <trkpt lat="43.74354" lon="3.56634">
        <ele>69.1</ele>
        <time>2011-12-18T08:07:35Z</time>
      </trkpt>
      <trkpt lat="43.7436" lon="3.56639">
        <ele>68</ele>
        <time>2011-12-18T08:07:44Z</time>
      </trkpt>
      <trkpt lat="43.74362" lon="3.56643">
        <ele>67.9</ele>
        <time>2011-12-18T08:07:48Z</time>
      </trkpt>
      <trkpt lat="43.74366" lon="3.56647">
        <ele>68.8</ele>
        <time>2011-12-18T08:07:58Z</time>
      </trkpt>
      <trkpt lat="43.74362" lon="3.56645">
        <ele>68.6</ele>
        <time>2011-12-18T08:08:42Z</time>
      </trkpt>
      <trkpt lat="43.74361" lon="3.56645">
        <ele>68.7</ele>
        <time>2011-12-18T08:08:43Z</time>
      </trkpt>
      <trkpt lat="43.74362" lon="3.56649">
        <ele>68.9</ele>
        <time>2011-12-18T08:09:27Z</time>
      </trkpt>
      <trkpt lat="43.74364" lon="3.56654">
        <ele>69</ele>
        <time>2011-12-18T08:10:57Z</time>
      </trkpt>
      <trkpt lat="43.74364" lon="3.56655">
        <ele>68.8</ele>
        <time>2011-12-18T08:10:58Z</time>
      </trkpt>
      <trkpt lat="43.74369" lon="3.56653">
        <ele>70.3</ele>
        <time>2011-12-18T08:12:57Z</time>
      </trkpt>
      <trkpt lat="43.7436" lon="3.56655">
        <ele>71.7</ele>
        <time>2011-12-18T08:13:54Z</time>
      </trkpt>
      <trkpt lat="43.74356" lon="3.56653">
        <ele>71.1</ele>
        <time>2011-12-18T08:14:29Z</time>
      </trkpt>
      <trkpt lat="43.74356" lon="3.56653">
        <ele>70.7</ele>
        <time>2011-12-18T08:14:30Z</time>
      </trkpt>
      <trkpt lat="43.74355" lon="3.56643">
        <ele>70</ele>
        <time>2011-12-18T08:15:10Z</time>
      </trkpt>
      <trkpt lat="43.74355" lon="3.56637">
        <ele>70.1</ele>
        <time>2011-12-18T08:15:16Z</time>
      </trkpt>
      <trkpt lat="43.74353" lon="3.56632">
        <ele>70.4</ele>
        <time>2011-12-18T08:15:23Z</time>
      </trkpt>
      <trkpt lat="43.7435" lon="3.56628">
        <ele>71.2</ele>
        <time>2011-12-18T08:15:29Z</time>
      </trkpt>
      <trkpt lat="43.74347" lon="3.56624">
        <ele>71.1</ele>
        <time>2011-12-18T08:15:34Z</time>
      </trkpt>
      <trkpt lat="43.74347" lon="3.56623">
        <ele>71.3</ele>
        <time>2011-12-18T08:15:35Z</time>
      </trkpt>
      <trkpt lat="43.74344" lon="3.56613">
        <ele>71.2</ele>
        <time>2011-12-18T08:16:00Z</time>
      </trkpt>
      <trkpt lat="43.74341" lon="3.56609">
        <ele>68.7</ele>
        <time>2011-12-18T08:16:45Z</time>
      </trkpt>
      <trkpt lat="43.74341" lon="3.56609">
        <ele>68.8</ele>
        <time>2011-12-18T08:16:46Z</time>
      </trkpt>
      <trkpt lat="43.7434" lon="3.56613">
        <ele>70.1</ele>
        <time>2011-12-18T08:18:35Z</time>
      </trkpt>
      <trkpt lat="43.7434" lon="3.56613">
        <ele>70.4</ele>
        <time>2011-12-18T08:18:36Z</time>
      </trkpt>
      <trkpt lat="43.74346" lon="3.56609">
        <ele>69.5</ele>
        <time>2011-12-18T08:19:16Z</time>
      </trkpt>
      <trkpt lat="43.74349" lon="3.56607">
        <ele>69.2</ele>
        <time>2011-12-18T08:19:19Z</time>
      </trkpt>
      <trkpt lat="43.74353" lon="3.56604">
        <ele>69.9</ele>
        <time>2011-12-18T08:19:25Z</time>
      </trkpt>
      <trkpt lat="43.74355" lon="3.56599">
        <ele>68.4</ele>
        <time>2011-12-18T08:19:34Z</time>
      </trkpt>
      <trkpt lat="43.74353" lon="3.56593">
        <ele>69</ele>
        <time>2011-12-18T08:19:41Z</time>
      </trkpt>
      <trkpt lat="43.74353" lon="3.56593">
        <ele>69.5</ele>
        <time>2011-12-18T08:19:42Z</time>
      </trkpt>
      <trkpt lat="43.7435" lon="3.56582">
        <ele>69.3</ele>
        <time>2011-12-18T08:19:51Z</time>
      </trkpt>
      <trkpt lat="43.74349" lon="3.56577">
        <ele>69.3</ele>
        <time>2011-12-18T08:19:55Z</time>
      </trkpt>
      <trkpt lat="43.74348" lon="3.56572">
        <ele>69.7</ele>
        <time>2011-12-18T08:19:58Z</time>
      </trkpt>
      <trkpt lat="43.74347" lon="3.56568">
        <ele>70.3</ele>
        <time>2011-12-18T08:20:01Z</time>
      </trkpt>
      <trkpt lat="43.74345" lon="3.56564">
        <ele>70.3</ele>
        <time>2011-12-18T08:20:04Z</time>
      </trkpt>
      <trkpt lat="43.74344" lon="3.56559">
        <ele>70.4</ele>
        <time>2011-12-18T08:20:07Z</time>
      </trkpt>
      <trkpt lat="43.74343" lon="3.56554">
        <ele>69.7</ele>
        <time>2011-12-18T08:20:10Z</time>
      </trkpt>
      <trkpt lat="43.74343" lon="3.56549">
        <ele>69.3</ele>
        <time>2011-12-18T08:20:14Z</time>
      </trkpt>
      <trkpt lat="43.74343" lon="3.56544">
        <ele>69.3</ele>
        <time>2011-12-18T08:20:17Z</time>
      </trkpt>
      <trkpt lat="43.74343" lon="3.56539">
        <ele>68.6</ele>
        <time>2011-12-18T08:20:20Z</time>
      </trkpt>
      <trkpt lat="43.74344" lon="3.56534">
        <ele>68.3</ele>
        <time>2011-12-18T08:20:23Z</time>
      </trkpt>
      <trkpt lat="43.74344" lon="3.56529">
        <ele>68.5</ele>
        <time>2011-12-18T08:20:26Z</time>
      </trkpt>
      <trkpt lat="43.74346" lon="3.56524">
        <ele>68.8</ele>
        <time>2011-12-18T08:20:29Z</time>
      </trkpt>
      <trkpt lat="43.74348" lon="3.5652">
        <ele>69.4</ele>
        <time>2011-12-18T08:20:32Z</time>
      </trkpt>
      <trkpt lat="43.74351" lon="3.56516">
        <ele>69.7</ele>
        <time>2011-12-18T08:20:35Z</time>
      </trkpt>
      <trkpt lat="43.74353" lon="3.56513">
        <ele>70.2</ele>
        <time>2011-12-18T08:20:38Z</time>
      </trkpt>
      <trkpt lat="43.74356" lon="3.5651">
        <ele>70.1</ele>
        <time>2011-12-18T08:20:41Z</time>
      </trkpt>
      <trkpt lat="43.74359" lon="3.56506">
        <ele>70</ele>
        <time>2011-12-18T08:20:45Z</time>
      </trkpt>
      <trkpt lat="43.7436" lon="3.56505">
        <ele>69.9</ele>
        <time>2011-12-18T08:20:46Z</time>
      </trkpt>
      <trkpt lat="43.74366" lon="3.565">
        <ele>70</ele>
        <time>2011-12-18T08:20:51Z</time>
      </trkpt>
      <trkpt lat="43.74369" lon="3.56498">
        <ele>70.4</ele>
        <time>2011-12-18T08:20:54Z</time>
      </trkpt>
      <trkpt lat="43.74372" lon="3.56496">
        <ele>69.4</ele>
        <time>2011-12-18T08:20:57Z</time>
      </trkpt>
      <trkpt lat="43.74375" lon="3.56494">
        <ele>69.4</ele>
        <time>2011-12-18T08:21:00Z</time>
      </trkpt>
      <trkpt lat="43.74378" lon="3.56491">
        <ele>69.9</ele>
        <time>2011-12-18T08:21:03Z</time>
      </trkpt>
      <trkpt lat="43.74381" lon="3.56488">
        <ele>70.4</ele>
        <time>2011-12-18T08:21:06Z</time>
      </trkpt>
      <trkpt lat="43.74385" lon="3.56486">
        <ele>70.1</ele>
        <time>2011-12-18T08:21:09Z</time>
      </trkpt>
      <trkpt lat="43.74388" lon="3.56484">
        <ele>69.6</ele>
        <time>2011-12-18T08:21:12Z</time>
      </trkpt>
      <trkpt lat="43.74391" lon="3.5648">
        <ele>70.1</ele>
        <time>2011-12-18T08:21:16Z</time>
      </trkpt>
      <trkpt lat="43.74393" lon="3.56475">
        <ele>69.9</ele>
        <time>2011-12-18T08:21:20Z</time>
      </trkpt>
      <trkpt lat="43.74397" lon="3.56471">
        <ele>70.7</ele>
        <time>2011-12-18T08:21:23Z</time>
      </trkpt>
      <trkpt lat="43.744" lon="3.56467">
        <ele>70.5</ele>
        <time>2011-12-18T08:21:26Z</time>
      </trkpt>
      <trkpt lat="43.74403" lon="3.56464">
        <ele>70.7</ele>
        <time>2011-12-18T08:21:29Z</time>
      </trkpt>
      <trkpt lat="43.74405" lon="3.5646">
        <ele>70.4</ele>
        <time>2011-12-18T08:21:32Z</time>
      </trkpt>
      <trkpt lat="43.74407" lon="3.56456">
        <ele>70.1</ele>
        <time>2011-12-18T08:21:35Z</time>
      </trkpt>
      <trkpt lat="43.7441" lon="3.56452">
        <ele>69.8</ele>
        <time>2011-12-18T08:21:38Z</time>
      </trkpt>
      <trkpt lat="43.74412" lon="3.56447">
        <ele>70.5</ele>
        <time>2011-12-18T08:21:41Z</time>
      </trkpt>
      <trkpt lat="43.74412" lon="3.56441">
        <ele>70.2</ele>
        <time>2011-12-18T08:21:44Z</time>
      </trkpt>
      <trkpt lat="43.74414" lon="3.56436">
        <ele>70.8</ele>
        <time>2011-12-18T08:21:47Z</time>
      </trkpt>
      <trkpt lat="43.74414" lon="3.56435">
        <ele>71.1</ele>
        <time>2011-12-18T08:21:48Z</time>
      </trkpt>
      <trkpt lat="43.74416" lon="3.56427">
        <ele>70.7</ele>
        <time>2011-12-18T08:21:53Z</time>
      </trkpt>
      <trkpt lat="43.74417" lon="3.56421">
        <ele>70.8</ele>
        <time>2011-12-18T08:21:56Z</time>
      </trkpt>
      <trkpt lat="43.74418" lon="3.56416">
        <ele>71.1</ele>
        <time>2011-12-18T08:21:59Z</time>
      </trkpt>
      <trkpt lat="43.74418" lon="3.5641">
        <ele>71.1</ele>
        <time>2011-12-18T08:22:02Z</time>
      </trkpt>
      <trkpt lat="43.74419" lon="3.56405">
        <ele>70.9</ele>
        <time>2011-12-18T08:22:05Z</time>
      </trkpt>
      <trkpt lat="43.7442" lon="3.564">
        <ele>70.3</ele>
        <time>2011-12-18T08:22:08Z</time>
      </trkpt>
      <trkpt lat="43.74421" lon="3.56395">
        <ele>69.8</ele>
        <time>2011-12-18T08:22:11Z</time>
      </trkpt>
      <trkpt lat="43.74422" lon="3.5639">
        <ele>69.4</ele>
        <time>2011-12-18T08:22:14Z</time>
      </trkpt>
      <trkpt lat="43.74423" lon="3.56384">
        <ele>69.1</ele>
        <time>2011-12-18T08:22:17Z</time>
      </trkpt>
      <trkpt lat="43.74423" lon="3.56379">
        <ele>68.5</ele>
        <time>2011-12-18T08:22:20Z</time>
      </trkpt>
      <trkpt lat="43.74424" lon="3.56372">
        <ele>69.1</ele>
        <time>2011-12-18T08:22:23Z</time>
      </trkpt>
      <trkpt lat="43.74424" lon="3.56366">
        <ele>68.8</ele>
        <time>2011-12-18T08:22:26Z</time>
      </trkpt>
      <trkpt lat="43.74425" lon="3.5636">
        <ele>68.2</ele>
        <time>2011-12-18T08:22:29Z</time>
      </trkpt>
      <trkpt lat="43.74426" lon="3.56354">
        <ele>67.5</ele>
        <time>2011-12-18T08:22:32Z</time>
      </trkpt>
      <trkpt lat="43.74428" lon="3.5635">
        <ele>67.7</ele>
        <time>2011-12-18T08:22:36Z</time>
      </trkpt>
      <trkpt lat="43.74429" lon="3.56345">
        <ele>68.3</ele>
        <time>2011-12-18T08:22:39Z</time>
      </trkpt>
      <trkpt lat="43.7443" lon="3.56339">
        <ele>68.6</ele>
        <time>2011-12-18T08:22:42Z</time>
      </trkpt>
      <trkpt lat="43.74431" lon="3.56334">
        <ele>68.8</ele>
        <time>2011-12-18T08:22:45Z</time>
      </trkpt>
      <trkpt lat="43.74433" lon="3.56329">
        <ele>68.7</ele>
        <time>2011-12-18T08:22:49Z</time>
      </trkpt>
      <trkpt lat="43.74434" lon="3.56329">
        <ele>68.3</ele>
        <time>2011-12-18T08:22:50Z</time>
      </trkpt>
      <trkpt lat="43.7444" lon="3.56327">
        <ele>67.3</ele>
        <time>2011-12-18T08:22:58Z</time>
      </trkpt>
      <trkpt lat="43.74444" lon="3.56327">
        <ele>67.5</ele>
        <time>2011-12-18T08:23:02Z</time>
      </trkpt>
      <trkpt lat="43.74448" lon="3.56327">
        <ele>66.8</ele>
        <time>2011-12-18T08:23:05Z</time>
      </trkpt>
      <trkpt lat="43.74452" lon="3.56326">
        <ele>66</ele>
        <time>2011-12-18T08:23:10Z</time>
      </trkpt>
      <trkpt lat="43.74456" lon="3.56325">
        <ele>65.3</ele>
        <time>2011-12-18T08:23:13Z</time>
      </trkpt>
      <trkpt lat="43.7446" lon="3.56324">
        <ele>64.9</ele>
        <time>2011-12-18T08:23:17Z</time>
      </trkpt>
      <trkpt lat="43.74464" lon="3.56324">
        <ele>65.4</ele>
        <time>2011-12-18T08:23:20Z</time>
      </trkpt>
      <trkpt lat="43.74467" lon="3.56323">
        <ele>66.1</ele>
        <time>2011-12-18T08:23:23Z</time>
      </trkpt>
      <trkpt lat="43.74472" lon="3.56323">
        <ele>66.2</ele>
        <time>2011-12-18T08:23:26Z</time>
      </trkpt>
      <trkpt lat="43.74476" lon="3.56322">
        <ele>66.9</ele>
        <time>2011-12-18T08:23:29Z</time>
      </trkpt>
      <trkpt lat="43.7448" lon="3.56322">
        <ele>66.1</ele>
        <time>2011-12-18T08:23:33Z</time>
      </trkpt>
      <trkpt lat="43.74484" lon="3.56321">
        <ele>66.2</ele>
        <time>2011-12-18T08:23:37Z</time>
      </trkpt>
      <trkpt lat="43.74488" lon="3.56321">
        <ele>65.9</ele>
        <time>2011-12-18T08:23:40Z</time>
      </trkpt>
      <trkpt lat="43.74492" lon="3.56321">
        <ele>67.4</ele>
        <time>2011-12-18T08:23:43Z</time>
      </trkpt>
      <trkpt lat="43.74496" lon="3.56321">
        <ele>66.9</ele>
        <time>2011-12-18T08:23:46Z</time>
      </trkpt>
      <trkpt lat="43.745" lon="3.56321">
        <ele>67.9</ele>
        <time>2011-12-18T08:23:49Z</time>
      </trkpt>
      <trkpt lat="43.74504" lon="3.5632">
        <ele>68</ele>
        <time>2011-12-18T08:23:53Z</time>
      </trkpt>
      <trkpt lat="43.74505" lon="3.5632">
        <ele>68</ele>
        <time>2011-12-18T08:23:54Z</time>
      </trkpt>
      <trkpt lat="43.74512" lon="3.56316">
        <ele>69.1</ele>
        <time>2011-12-18T08:24:05Z</time>
      </trkpt>
      <trkpt lat="43.74517" lon="3.56315">
        <ele>68.6</ele>
        <time>2011-12-18T08:24:09Z</time>
      </trkpt>
      <trkpt lat="43.7452" lon="3.56315">
        <ele>69.3</ele>
        <time>2011-12-18T08:24:12Z</time>
      </trkpt>
      <trkpt lat="43.74524" lon="3.56313">
        <ele>70.4</ele>
        <time>2011-12-18T08:24:16Z</time>
      </trkpt>
      <trkpt lat="43.74528" lon="3.56312">
        <ele>70.7</ele>
        <time>2011-12-18T08:24:19Z</time>
      </trkpt>
      <trkpt lat="43.74531" lon="3.56311">
        <ele>70.6</ele>
        <time>2011-12-18T08:24:22Z</time>
      </trkpt>
      <trkpt lat="43.74534" lon="3.56309">
        <ele>70.4</ele>
        <time>2011-12-18T08:24:25Z</time>
      </trkpt>
      <trkpt lat="43.74539" lon="3.56308">
        <ele>71.3</ele>
        <time>2011-12-18T08:24:29Z</time>
      </trkpt>
      <trkpt lat="43.74543" lon="3.56307">
        <ele>71.4</ele>
        <time>2011-12-18T08:24:32Z</time>
      </trkpt>
      <trkpt lat="43.74546" lon="3.56307">
        <ele>71.7</ele>
        <time>2011-12-18T08:24:34Z</time>
      </trkpt>
      <trkpt lat="43.74549" lon="3.56306">
        <ele>71.8</ele>
        <time>2011-12-18T08:24:36Z</time>
      </trkpt>
      <trkpt lat="43.74552" lon="3.56305">
        <ele>72.4</ele>
        <time>2011-12-18T08:24:38Z</time>
      </trkpt>
      <trkpt lat="43.74555" lon="3.56305">
        <ele>72.9</ele>
        <time>2011-12-18T08:24:40Z</time>
      </trkpt>
      <trkpt lat="43.74559" lon="3.56305">
        <ele>72.8</ele>
        <time>2011-12-18T08:24:43Z</time>
      </trkpt>
      <trkpt lat="43.74564" lon="3.56305">
        <ele>73</ele>
        <time>2011-12-18T08:24:46Z</time>
      </trkpt>
      <trkpt lat="43.74567" lon="3.56305">
        <ele>73</ele>
        <time>2011-12-18T08:24:49Z</time>
      </trkpt>
      <trkpt lat="43.74572" lon="3.56307">
        <ele>72.2</ele>
        <time>2011-12-18T08:24:53Z</time>
      </trkpt>
      <trkpt lat="43.74575" lon="3.56309">
        <ele>72.4</ele>
        <time>2011-12-18T08:24:56Z</time>
      </trkpt>
      <trkpt lat="43.74576" lon="3.5631">
        <ele>72.4</ele>
        <time>2011-12-18T08:24:57Z</time>
      </trkpt>
      <trkpt lat="43.74582" lon="3.56314">
        <ele>73.5</ele>
        <time>2011-12-18T08:25:02Z</time>
      </trkpt>
      <trkpt lat="43.74585" lon="3.56317">
        <ele>73.2</ele>
        <time>2011-12-18T08:25:05Z</time>
      </trkpt>
      <trkpt lat="43.74588" lon="3.5632">
        <ele>72.6</ele>
        <time>2011-12-18T08:25:08Z</time>
      </trkpt>
      <trkpt lat="43.74592" lon="3.56322">
        <ele>72</ele>
        <time>2011-12-18T08:25:11Z</time>
      </trkpt>
      <trkpt lat="43.74595" lon="3.56324">
        <ele>71.7</ele>
        <time>2011-12-18T08:25:13Z</time>
      </trkpt>
      <trkpt lat="43.74599" lon="3.56327">
        <ele>72.8</ele>
        <time>2011-12-18T08:25:17Z</time>
      </trkpt>
      <trkpt lat="43.74603" lon="3.56329">
        <ele>73.3</ele>
        <time>2011-12-18T08:25:20Z</time>
      </trkpt>
      <trkpt lat="43.74606" lon="3.56332">
        <ele>73.2</ele>
        <time>2011-12-18T08:25:23Z</time>
      </trkpt>
      <trkpt lat="43.7461" lon="3.56334">
        <ele>73.3</ele>
        <time>2011-12-18T08:25:26Z</time>
      </trkpt>
      <trkpt lat="43.74615" lon="3.56336">
        <ele>73.6</ele>
        <time>2011-12-18T08:25:29Z</time>
      </trkpt>
      <trkpt lat="43.74619" lon="3.56337">
        <ele>74.4</ele>
        <time>2011-12-18T08:25:32Z</time>
      </trkpt>
      <trkpt lat="43.74622" lon="3.56338">
        <ele>73.8</ele>
        <time>2011-12-18T08:25:34Z</time>
      </trkpt>
      <trkpt lat="43.74626" lon="3.56338">
        <ele>73.7</ele>
        <time>2011-12-18T08:25:36Z</time>
      </trkpt>
      <trkpt lat="43.74629" lon="3.56338">
        <ele>73.7</ele>
        <time>2011-12-18T08:25:38Z</time>
      </trkpt>
      <trkpt lat="43.74633" lon="3.56336">
        <ele>74</ele>
        <time>2011-12-18T08:25:41Z</time>
      </trkpt>
      <trkpt lat="43.74637" lon="3.56333">
        <ele>73.6</ele>
        <time>2011-12-18T08:25:44Z</time>
      </trkpt>
      <trkpt lat="43.7464" lon="3.5633">
        <ele>74.6</ele>
        <time>2011-12-18T08:25:47Z</time>
      </trkpt>
      <trkpt lat="43.74643" lon="3.56327">
        <ele>73.9</ele>
        <time>2011-12-18T08:25:50Z</time>
      </trkpt>
      <trkpt lat="43.74645" lon="3.56323">
        <ele>73.5</ele>
        <time>2011-12-18T08:25:53Z</time>
      </trkpt>
      <trkpt lat="43.74646" lon="3.56318">
        <ele>73.8</ele>
        <time>2011-12-18T08:25:56Z</time>
      </trkpt>
      <trkpt lat="43.74648" lon="3.56312">
        <ele>74.5</ele>
        <time>2011-12-18T08:26:00Z</time>
      </trkpt>
      <trkpt lat="43.74648" lon="3.5631">
        <ele>74.6</ele>
        <time>2011-12-18T08:26:01Z</time>
      </trkpt>
      <trkpt lat="43.74646" lon="3.56302">
        <ele>74.6</ele>
        <time>2011-12-18T08:26:06Z</time>
      </trkpt>
      <trkpt lat="43.74645" lon="3.56297">
        <ele>73.9</ele>
        <time>2011-12-18T08:26:09Z</time>
      </trkpt>
      <trkpt lat="43.74644" lon="3.56291">
        <ele>73.4</ele>
        <time>2011-12-18T08:26:13Z</time>
      </trkpt>
      <trkpt lat="43.74642" lon="3.56286">
        <ele>73.4</ele>
        <time>2011-12-18T08:26:16Z</time>
      </trkpt>
      <trkpt lat="43.74641" lon="3.56282">
        <ele>73.9</ele>
        <time>2011-12-18T08:26:19Z</time>
      </trkpt>
      <trkpt lat="43.74639" lon="3.56277">
        <ele>74.4</ele>
        <time>2011-12-18T08:26:22Z</time>
      </trkpt>
      <trkpt lat="43.74639" lon="3.56271">
        <ele>74.5</ele>
        <time>2011-12-18T08:26:25Z</time>
      </trkpt>
      <trkpt lat="43.74638" lon="3.56267">
        <ele>74.6</ele>
        <time>2011-12-18T08:26:28Z</time>
      </trkpt>
      <trkpt lat="43.74637" lon="3.56262">
        <ele>75.1</ele>
        <time>2011-12-18T08:26:31Z</time>
      </trkpt>
      <trkpt lat="43.74636" lon="3.56256">
        <ele>75.6</ele>
        <time>2011-12-18T08:26:34Z</time>
      </trkpt>
      <trkpt lat="43.74635" lon="3.56251">
        <ele>75.5</ele>
        <time>2011-12-18T08:26:37Z</time>
      </trkpt>
      <trkpt lat="43.74634" lon="3.56247">
        <ele>75.1</ele>
        <time>2011-12-18T08:26:39Z</time>
      </trkpt>
      <trkpt lat="43.74634" lon="3.56241">
        <ele>75.8</ele>
        <time>2011-12-18T08:26:42Z</time>
      </trkpt>
      <trkpt lat="43.74634" lon="3.56236">
        <ele>75.7</ele>
        <time>2011-12-18T08:26:45Z</time>
      </trkpt>
      <trkpt lat="43.74634" lon="3.56231">
        <ele>76.2</ele>
        <time>2011-12-18T08:26:48Z</time>
      </trkpt>
      <trkpt lat="43.74633" lon="3.56226">
        <ele>77</ele>
        <time>2011-12-18T08:26:50Z</time>
      </trkpt>
      <trkpt lat="43.74634" lon="3.56221">
        <ele>77.4</ele>
        <time>2011-12-18T08:26:53Z</time>
      </trkpt>
      <trkpt lat="43.74636" lon="3.56216">
        <ele>77.4</ele>
        <time>2011-12-18T08:26:56Z</time>
      </trkpt>
      <trkpt lat="43.74638" lon="3.56211">
        <ele>77.5</ele>
        <time>2011-12-18T08:26:59Z</time>
      </trkpt>
      <trkpt lat="43.7464" lon="3.56207">
        <ele>77.7</ele>
        <time>2011-12-18T08:27:02Z</time>
      </trkpt>
      <trkpt lat="43.74641" lon="3.56206">
        <ele>77.9</ele>
        <time>2011-12-18T08:27:03Z</time>
      </trkpt>
      <trkpt lat="43.74653" lon="3.56191">
        <ele>77.9</ele>
        <time>2011-12-18T08:27:17Z</time>
      </trkpt>
      <trkpt lat="43.74654" lon="3.56187">
        <ele>77.4</ele>
        <time>2011-12-18T08:27:20Z</time>
      </trkpt>
      <trkpt lat="43.74657" lon="3.56183">
        <ele>77.1</ele>
        <time>2011-12-18T08:27:23Z</time>
      </trkpt>
      <trkpt lat="43.74659" lon="3.56179">
        <ele>76.6</ele>
        <time>2011-12-18T08:27:26Z</time>
      </trkpt>
      <trkpt lat="43.74662" lon="3.56176">
        <ele>76.3</ele>
        <time>2011-12-18T08:27:29Z</time>
      </trkpt>
      <trkpt lat="43.74665" lon="3.56172">
        <ele>76</ele>
        <time>2011-12-18T08:27:32Z</time>
      </trkpt>
      <trkpt lat="43.74669" lon="3.56169">
        <ele>76.6</ele>
        <time>2011-12-18T08:27:35Z</time>
      </trkpt>
      <trkpt lat="43.74672" lon="3.56166">
        <ele>76.7</ele>
        <time>2011-12-18T08:27:38Z</time>
      </trkpt>
      <trkpt lat="43.74675" lon="3.56163">
        <ele>77.4</ele>
        <time>2011-12-18T08:27:41Z</time>
      </trkpt>
      <trkpt lat="43.74677" lon="3.56158">
        <ele>77.6</ele>
        <time>2011-12-18T08:27:44Z</time>
      </trkpt>
      <trkpt lat="43.7468" lon="3.56154">
        <ele>77.6</ele>
        <time>2011-12-18T08:27:47Z</time>
      </trkpt>
      <trkpt lat="43.74682" lon="3.56151">
        <ele>78.1</ele>
        <time>2011-12-18T08:27:50Z</time>
      </trkpt>
      <trkpt lat="43.74686" lon="3.56147">
        <ele>78.5</ele>
        <time>2011-12-18T08:27:54Z</time>
      </trkpt>
      <trkpt lat="43.74688" lon="3.56143">
        <ele>78.4</ele>
        <time>2011-12-18T08:27:57Z</time>
      </trkpt>
      <trkpt lat="43.74691" lon="3.5614">
        <ele>78.7</ele>
        <time>2011-12-18T08:28:00Z</time>
      </trkpt>
      <trkpt lat="43.74693" lon="3.56135">
        <ele>79.4</ele>
        <time>2011-12-18T08:28:03Z</time>
      </trkpt>
      <trkpt lat="43.74693" lon="3.56134">
        <ele>79.7</ele>
        <time>2011-12-18T08:28:04Z</time>
      </trkpt>
      <trkpt lat="43.74697" lon="3.56126">
        <ele>81.7</ele>
        <time>2011-12-18T08:28:11Z</time>
      </trkpt>
      <trkpt lat="43.747" lon="3.56122">
        <ele>81.2</ele>
        <time>2011-12-18T08:28:15Z</time>
      </trkpt>
      <trkpt lat="43.74703" lon="3.56118">
        <ele>80.8</ele>
        <time>2011-12-18T08:28:18Z</time>
      </trkpt>
      <trkpt lat="43.74706" lon="3.56115">
        <ele>81.9</ele>
        <time>2011-12-18T08:28:21Z</time>
      </trkpt>
      <trkpt lat="43.7471" lon="3.56112">
        <ele>82.6</ele>
        <time>2011-12-18T08:28:24Z</time>
      </trkpt>
      <trkpt lat="43.74713" lon="3.5611">
        <ele>82</ele>
        <time>2011-12-18T08:28:27Z</time>
      </trkpt>
      <trkpt lat="43.74717" lon="3.56108">
        <ele>82.5</ele>
        <time>2011-12-18T08:28:30Z</time>
      </trkpt>
      <trkpt lat="43.74721" lon="3.56105">
        <ele>82.4</ele>
        <time>2011-12-18T08:28:33Z</time>
      </trkpt>
      <trkpt lat="43.74725" lon="3.56103">
        <ele>82.4</ele>
        <time>2011-12-18T08:28:36Z</time>
      </trkpt>
      <trkpt lat="43.74728" lon="3.56102">
        <ele>82.7</ele>
        <time>2011-12-18T08:28:39Z</time>
      </trkpt>
      <trkpt lat="43.74732" lon="3.561">
        <ele>82.3</ele>
        <time>2011-12-18T08:28:42Z</time>
      </trkpt>
      <trkpt lat="43.74736" lon="3.56099">
        <ele>81.5</ele>
        <time>2011-12-18T08:28:45Z</time>
      </trkpt>
      <trkpt lat="43.7474" lon="3.56097">
        <ele>81.4</ele>
        <time>2011-12-18T08:28:48Z</time>
      </trkpt>
      <trkpt lat="43.74742" lon="3.56095">
        <ele>81.6</ele>
        <time>2011-12-18T08:28:51Z</time>
      </trkpt>
      <trkpt lat="43.74746" lon="3.56093">
        <ele>81.9</ele>
        <time>2011-12-18T08:28:54Z</time>
      </trkpt>
      <trkpt lat="43.7475" lon="3.56092">
        <ele>81.7</ele>
        <time>2011-12-18T08:28:57Z</time>
      </trkpt>
      <trkpt lat="43.74754" lon="3.56091">
        <ele>81</ele>
        <time>2011-12-18T08:29:00Z</time>
      </trkpt>
      <trkpt lat="43.74757" lon="3.56089">
        <ele>81.2</ele>
        <time>2011-12-18T08:29:04Z</time>
      </trkpt>
      <trkpt lat="43.74758" lon="3.56088">
        <ele>81.4</ele>
        <time>2011-12-18T08:29:05Z</time>
      </trkpt>
      <trkpt lat="43.74765" lon="3.56085">
        <ele>81.9</ele>
        <time>2011-12-18T08:29:16Z</time>
      </trkpt>
      <trkpt lat="43.74769" lon="3.56082">
        <ele>82.1</ele>
        <time>2011-12-18T08:29:25Z</time>
      </trkpt>
      <trkpt lat="43.74773" lon="3.56082">
        <ele>82.2</ele>
        <time>2011-12-18T08:29:44Z</time>
      </trkpt>
      <trkpt lat="43.7477" lon="3.56086">
        <ele>78.9</ele>
        <time>2011-12-18T08:30:34Z</time>
      </trkpt>
      <trkpt lat="43.74769" lon="3.56086">
        <ele>79.2</ele>
        <time>2011-12-18T08:30:37Z</time>
      </trkpt>
      <trkpt lat="43.74777" lon="3.56079">
        <ele>81.8</ele>
        <time>2011-12-18T08:31:16Z</time>
      </trkpt>
      <trkpt lat="43.74781" lon="3.56079">
        <ele>82.4</ele>
        <time>2011-12-18T08:31:21Z</time>
      </trkpt>
      <trkpt lat="43.74785" lon="3.5608">
        <ele>82.9</ele>
        <time>2011-12-18T08:31:26Z</time>
      </trkpt>
      <trkpt lat="43.74789" lon="3.56081">
        <ele>82.6</ele>
        <time>2011-12-18T08:31:31Z</time>
      </trkpt>
      <trkpt lat="43.74793" lon="3.56082">
        <ele>83.4</ele>
        <time>2011-12-18T08:31:37Z</time>
      </trkpt>
      <trkpt lat="43.74794" lon="3.56082">
        <ele>83.5</ele>
        <time>2011-12-18T08:31:38Z</time>
      </trkpt>
      <trkpt lat="43.74801" lon="3.56086">
        <ele>82.8</ele>
        <time>2011-12-18T08:31:46Z</time>
      </trkpt>
      <trkpt lat="43.74805" lon="3.56088">
        <ele>82.9</ele>
        <time>2011-12-18T08:31:50Z</time>
      </trkpt>
      <trkpt lat="43.74808" lon="3.56091">
        <ele>83.6</ele>
        <time>2011-12-18T08:31:54Z</time>
      </trkpt>
      <trkpt lat="43.74811" lon="3.56093">
        <ele>83.2</ele>
        <time>2011-12-18T08:31:58Z</time>
      </trkpt>
      <trkpt lat="43.74815" lon="3.56096">
        <ele>82.8</ele>
        <time>2011-12-18T08:32:02Z</time>
      </trkpt>
      <trkpt lat="43.74818" lon="3.56097">
        <ele>83.2</ele>
        <time>2011-12-18T08:32:05Z</time>
      </trkpt>
      <trkpt lat="43.74821" lon="3.56099">
        <ele>82.7</ele>
        <time>2011-12-18T08:32:08Z</time>
      </trkpt>
      <trkpt lat="43.74824" lon="3.56101">
        <ele>83.8</ele>
        <time>2011-12-18T08:32:11Z</time>
      </trkpt>
      <trkpt lat="43.74828" lon="3.56104">
        <ele>83.2</ele>
        <time>2011-12-18T08:32:15Z</time>
      </trkpt>
      <trkpt lat="43.74832" lon="3.56106">
        <ele>84.3</ele>
        <time>2011-12-18T08:32:19Z</time>
      </trkpt>
      <trkpt lat="43.74835" lon="3.56107">
        <ele>84.5</ele>
        <time>2011-12-18T08:32:22Z</time>
      </trkpt>
      <trkpt lat="43.74838" lon="3.5611">
        <ele>84.6</ele>
        <time>2011-12-18T08:32:25Z</time>
      </trkpt>
      <trkpt lat="43.74841" lon="3.56112">
        <ele>85.2</ele>
        <time>2011-12-18T08:32:29Z</time>
      </trkpt>
      <trkpt lat="43.74845" lon="3.56114">
        <ele>85.4</ele>
        <time>2011-12-18T08:32:34Z</time>
      </trkpt>
      <trkpt lat="43.74848" lon="3.56117">
        <ele>84.7</ele>
        <time>2011-12-18T08:32:39Z</time>
      </trkpt>
      <trkpt lat="43.74849" lon="3.56118">
        <ele>84.9</ele>
        <time>2011-12-18T08:32:40Z</time>
      </trkpt>
      <trkpt lat="43.74855" lon="3.56123">
        <ele>85.5</ele>
        <time>2011-12-18T08:32:48Z</time>
      </trkpt>
      <trkpt lat="43.74859" lon="3.56127">
        <ele>85.7</ele>
        <time>2011-12-18T08:32:54Z</time>
      </trkpt>
      <trkpt lat="43.74862" lon="3.5613">
        <ele>85.8</ele>
        <time>2011-12-18T08:33:00Z</time>
      </trkpt>
      <trkpt lat="43.74865" lon="3.56133">
        <ele>87</ele>
        <time>2011-12-18T08:33:05Z</time>
      </trkpt>
      <trkpt lat="43.74868" lon="3.56136">
        <ele>87.3</ele>
        <time>2011-12-18T08:33:10Z</time>
      </trkpt>
      <trkpt lat="43.74871" lon="3.56139">
        <ele>87.3</ele>
        <time>2011-12-18T08:33:14Z</time>
      </trkpt>
      <trkpt lat="43.74874" lon="3.56144">
        <ele>87.7</ele>
        <time>2011-12-18T08:33:19Z</time>
      </trkpt>
      <trkpt lat="43.74876" lon="3.56148">
        <ele>88.1</ele>
        <time>2011-12-18T08:33:24Z</time>
      </trkpt>
      <trkpt lat="43.74878" lon="3.56152">
        <ele>88.3</ele>
        <time>2011-12-18T08:33:28Z</time>
      </trkpt>
      <trkpt lat="43.74882" lon="3.56155">
        <ele>88.4</ele>
        <time>2011-12-18T08:33:32Z</time>
      </trkpt>
      <trkpt lat="43.74884" lon="3.56159">
        <ele>88.9</ele>
        <time>2011-12-18T08:33:35Z</time>
      </trkpt>
      <trkpt lat="43.74888" lon="3.56162">
        <ele>88.2</ele>
        <time>2011-12-18T08:33:39Z</time>
      </trkpt>
      <trkpt lat="43.74891" lon="3.56166">
        <ele>88.1</ele>
        <time>2011-12-18T08:33:43Z</time>
      </trkpt>
      <trkpt lat="43.74892" lon="3.56167">
        <ele>88.4</ele>
        <time>2011-12-18T08:33:44Z</time>
      </trkpt>
      <trkpt lat="43.74897" lon="3.56174">
        <ele>89.3</ele>
        <time>2011-12-18T08:33:51Z</time>
      </trkpt>
      <trkpt lat="43.749" lon="3.56178">
        <ele>89.7</ele>
        <time>2011-12-18T08:33:55Z</time>
      </trkpt>
      <trkpt lat="43.74904" lon="3.5618">
        <ele>90.5</ele>
        <time>2011-12-18T08:33:59Z</time>
      </trkpt>
      <trkpt lat="43.74907" lon="3.56183">
        <ele>90.5</ele>
        <time>2011-12-18T08:34:03Z</time>
      </trkpt>
      <trkpt lat="43.7491" lon="3.56185">
        <ele>90.8</ele>
        <time>2011-12-18T08:34:06Z</time>
      </trkpt>
      <trkpt lat="43.74913" lon="3.56186">
        <ele>89.9</ele>
        <time>2011-12-18T08:34:09Z</time>
      </trkpt>
      <trkpt lat="43.74918" lon="3.56187">
        <ele>90.3</ele>
        <time>2011-12-18T08:34:13Z</time>
      </trkpt>
      <trkpt lat="43.74921" lon="3.56187">
        <ele>91</ele>
        <time>2011-12-18T08:34:16Z</time>
      </trkpt>
      <trkpt lat="43.74925" lon="3.56188">
        <ele>91.5</ele>
        <time>2011-12-18T08:34:19Z</time>
      </trkpt>
      <trkpt lat="43.74929" lon="3.5619">
        <ele>91.4</ele>
        <time>2011-12-18T08:34:23Z</time>
      </trkpt>
      <trkpt lat="43.74933" lon="3.56192">
        <ele>91</ele>
        <time>2011-12-18T08:34:26Z</time>
      </trkpt>
      <trkpt lat="43.74936" lon="3.56195">
        <ele>91.2</ele>
        <time>2011-12-18T08:34:30Z</time>
      </trkpt>
      <trkpt lat="43.74939" lon="3.56198">
        <ele>91.8</ele>
        <time>2011-12-18T08:34:35Z</time>
      </trkpt>
      <trkpt lat="43.74943" lon="3.562">
        <ele>92.3</ele>
        <time>2011-12-18T08:34:39Z</time>
      </trkpt>
      <trkpt lat="43.74947" lon="3.56203">
        <ele>92.8</ele>
        <time>2011-12-18T08:34:43Z</time>
      </trkpt>
      <trkpt lat="43.74951" lon="3.56205">
        <ele>92.6</ele>
        <time>2011-12-18T08:34:47Z</time>
      </trkpt>
      <trkpt lat="43.74952" lon="3.56205">
        <ele>92.9</ele>
        <time>2011-12-18T08:34:48Z</time>
      </trkpt>
      <trkpt lat="43.74959" lon="3.56207">
        <ele>93.3</ele>
        <time>2011-12-18T08:34:55Z</time>
      </trkpt>
      <trkpt lat="43.74963" lon="3.56208">
        <ele>94.3</ele>
        <time>2011-12-18T08:34:59Z</time>
      </trkpt>
      <trkpt lat="43.74967" lon="3.56208">
        <ele>95.2</ele>
        <time>2011-12-18T08:35:04Z</time>
      </trkpt>
      <trkpt lat="43.74971" lon="3.56206">
        <ele>95.2</ele>
        <time>2011-12-18T08:35:08Z</time>
      </trkpt>
      <trkpt lat="43.74975" lon="3.56205">
        <ele>95</ele>
        <time>2011-12-18T08:35:12Z</time>
      </trkpt>
      <trkpt lat="43.74979" lon="3.56204">
        <ele>94.5</ele>
        <time>2011-12-18T08:35:16Z</time>
      </trkpt>
      <trkpt lat="43.74983" lon="3.56203">
        <ele>94.5</ele>
        <time>2011-12-18T08:35:21Z</time>
      </trkpt>
      <trkpt lat="43.74987" lon="3.56201">
        <ele>95.2</ele>
        <time>2011-12-18T08:35:27Z</time>
      </trkpt>
      <trkpt lat="43.74991" lon="3.562">
        <ele>94.6</ele>
        <time>2011-12-18T08:35:31Z</time>
      </trkpt>
      <trkpt lat="43.74994" lon="3.56198">
        <ele>94.9</ele>
        <time>2011-12-18T08:35:36Z</time>
      </trkpt>
      <trkpt lat="43.74998" lon="3.56194">
        <ele>95.2</ele>
        <time>2011-12-18T08:35:42Z</time>
      </trkpt>
      <trkpt lat="43.75001" lon="3.56192">
        <ele>95.6</ele>
        <time>2011-12-18T08:35:47Z</time>
      </trkpt>
      <trkpt lat="43.75002" lon="3.56191">
        <ele>95.8</ele>
        <time>2011-12-18T08:35:48Z</time>
      </trkpt>
      <trkpt lat="43.75047" lon="3.56118">
        <ele>101.5</ele>
        <time>2011-12-18T08:38:54Z</time>
      </trkpt>
      <trkpt lat="43.75048" lon="3.56124">
        <ele>117</ele>
        <time>2011-12-18T08:39:01Z</time>
      </trkpt>
      <trkpt lat="43.75049" lon="3.56129">
        <ele>120.1</ele>
        <time>2011-12-18T08:39:07Z</time>
      </trkpt>
      <trkpt lat="43.75051" lon="3.56134">
        <ele>121.5</ele>
        <time>2011-12-18T08:39:13Z</time>
      </trkpt>
      <trkpt lat="43.75052" lon="3.5614">
        <ele>122.7</ele>
        <time>2011-12-18T08:39:18Z</time>
      </trkpt>
      <trkpt lat="43.75056" lon="3.56138">
        <ele>125.1</ele>
        <time>2011-12-18T08:39:31Z</time>
      </trkpt>
      <trkpt lat="43.75059" lon="3.56134">
        <ele>126.6</ele>
        <time>2011-12-18T08:39:40Z</time>
      </trkpt>
      <trkpt lat="43.75062" lon="3.5613">
        <ele>128</ele>
        <time>2011-12-18T08:39:46Z</time>
      </trkpt>
      <trkpt lat="43.75066" lon="3.5613">
        <ele>128.3</ele>
        <time>2011-12-18T08:39:52Z</time>
      </trkpt>
      <trkpt lat="43.7507" lon="3.56131">
        <ele>129.4</ele>
        <time>2011-12-18T08:39:58Z</time>
      </trkpt>
      <trkpt lat="43.75071" lon="3.56131">
        <ele>129.4</ele>
        <time>2011-12-18T08:39:59Z</time>
      </trkpt>
      <trkpt lat="43.75077" lon="3.56133">
        <ele>130.3</ele>
        <time>2011-12-18T08:40:08Z</time>
      </trkpt>
      <trkpt lat="43.75081" lon="3.56136">
        <ele>130.2</ele>
        <time>2011-12-18T08:40:13Z</time>
      </trkpt>
      <trkpt lat="43.75085" lon="3.56139">
        <ele>131.8</ele>
        <time>2011-12-18T08:40:18Z</time>
      </trkpt>
      <trkpt lat="43.75089" lon="3.56141">
        <ele>132.2</ele>
        <time>2011-12-18T08:40:24Z</time>
      </trkpt>
      <trkpt lat="43.75093" lon="3.56142">
        <ele>133.1</ele>
        <time>2011-12-18T08:40:29Z</time>
      </trkpt>
      <trkpt lat="43.75097" lon="3.56144">
        <ele>133.9</ele>
        <time>2011-12-18T08:40:35Z</time>
      </trkpt>
      <trkpt lat="43.75101" lon="3.56146">
        <ele>134.5</ele>
        <time>2011-12-18T08:40:40Z</time>
      </trkpt>
      <trkpt lat="43.75104" lon="3.56147">
        <ele>134.4</ele>
        <time>2011-12-18T08:40:44Z</time>
      </trkpt>
      <trkpt lat="43.75108" lon="3.56149">
        <ele>134.9</ele>
        <time>2011-12-18T08:40:48Z</time>
      </trkpt>
      <trkpt lat="43.75111" lon="3.5615">
        <ele>135.2</ele>
        <time>2011-12-18T08:40:52Z</time>
      </trkpt>
      <trkpt lat="43.75115" lon="3.56153">
        <ele>134.3</ele>
        <time>2011-12-18T08:40:57Z</time>
      </trkpt>
      <trkpt lat="43.75119" lon="3.56154">
        <ele>135.3</ele>
        <time>2011-12-18T08:41:02Z</time>
      </trkpt>
      <trkpt lat="43.7512" lon="3.56154">
        <ele>135.3</ele>
        <time>2011-12-18T08:41:03Z</time>
      </trkpt>
      <trkpt lat="43.75127" lon="3.56153">
        <ele>136.5</ele>
        <time>2011-12-18T08:41:14Z</time>
      </trkpt>
      <trkpt lat="43.75131" lon="3.56153">
        <ele>136.1</ele>
        <time>2011-12-18T08:41:18Z</time>
      </trkpt>
      <trkpt lat="43.75135" lon="3.56155">
        <ele>136.5</ele>
        <time>2011-12-18T08:41:22Z</time>
      </trkpt>
      <trkpt lat="43.75139" lon="3.56158">
        <ele>136.9</ele>
        <time>2011-12-18T08:41:27Z</time>
      </trkpt>
      <trkpt lat="43.75143" lon="3.5616">
        <ele>137</ele>
        <time>2011-12-18T08:41:32Z</time>
      </trkpt>
      <trkpt lat="43.75147" lon="3.56161">
        <ele>136.2</ele>
        <time>2011-12-18T08:41:36Z</time>
      </trkpt>
      <trkpt lat="43.75151" lon="3.56164">
        <ele>136.7</ele>
        <time>2011-12-18T08:41:41Z</time>
      </trkpt>
      <trkpt lat="43.75154" lon="3.56166">
        <ele>138</ele>
        <time>2011-12-18T08:41:45Z</time>
      </trkpt>
      <trkpt lat="43.75158" lon="3.56168">
        <ele>139.7</ele>
        <time>2011-12-18T08:41:49Z</time>
      </trkpt>
      <trkpt lat="43.75161" lon="3.5617">
        <ele>139</ele>
        <time>2011-12-18T08:41:54Z</time>
      </trkpt>
      <trkpt lat="43.75165" lon="3.56172">
        <ele>140</ele>
        <time>2011-12-18T08:41:59Z</time>
      </trkpt>
      <trkpt lat="43.75169" lon="3.56175">
        <ele>140.7</ele>
        <time>2011-12-18T08:42:05Z</time>
      </trkpt>
      <trkpt lat="43.7517" lon="3.56175">
        <ele>140.9</ele>
        <time>2011-12-18T08:42:06Z</time>
      </trkpt>
      <trkpt lat="43.75176" lon="3.56178">
        <ele>141.4</ele>
        <time>2011-12-18T08:42:14Z</time>
      </trkpt>
      <trkpt lat="43.7518" lon="3.56181">
        <ele>143.4</ele>
        <time>2011-12-18T08:42:18Z</time>
      </trkpt>
      <trkpt lat="43.75183" lon="3.56185">
        <ele>144</ele>
        <time>2011-12-18T08:42:24Z</time>
      </trkpt>
      <trkpt lat="43.75186" lon="3.56188">
        <ele>144.2</ele>
        <time>2011-12-18T08:42:29Z</time>
      </trkpt>
      <trkpt lat="43.75189" lon="3.56192">
        <ele>145.2</ele>
        <time>2011-12-18T08:42:35Z</time>
      </trkpt>
      <trkpt lat="43.75192" lon="3.56196">
        <ele>145.7</ele>
        <time>2011-12-18T08:42:41Z</time>
      </trkpt>
      <trkpt lat="43.75196" lon="3.56199">
        <ele>145.9</ele>
        <time>2011-12-18T08:42:46Z</time>
      </trkpt>
      <trkpt lat="43.75199" lon="3.56202">
        <ele>146.5</ele>
        <time>2011-12-18T08:42:51Z</time>
      </trkpt>
      <trkpt lat="43.75202" lon="3.56205">
        <ele>147.6</ele>
        <time>2011-12-18T08:42:55Z</time>
      </trkpt>
      <trkpt lat="43.75205" lon="3.5621">
        <ele>148.3</ele>
        <time>2011-12-18T08:43:02Z</time>
      </trkpt>
      <trkpt lat="43.75207" lon="3.56215">
        <ele>149.4</ele>
        <time>2011-12-18T08:43:09Z</time>
      </trkpt>
      <trkpt lat="43.75208" lon="3.56215">
        <ele>149.7</ele>
        <time>2011-12-18T08:43:10Z</time>
      </trkpt>
      <trkpt lat="43.75213" lon="3.56224">
        <ele>153.2</ele>
        <time>2011-12-18T08:43:23Z</time>
      </trkpt>
      <trkpt lat="43.75215" lon="3.56229">
        <ele>154.8</ele>
        <time>2011-12-18T08:43:32Z</time>
      </trkpt>
      <trkpt lat="43.75219" lon="3.56232">
        <ele>155.2</ele>
        <time>2011-12-18T08:43:37Z</time>
      </trkpt>
      <trkpt lat="43.75222" lon="3.56235">
        <ele>155.6</ele>
        <time>2011-12-18T08:43:44Z</time>
      </trkpt>
      <trkpt lat="43.75225" lon="3.56237">
        <ele>156.5</ele>
        <time>2011-12-18T08:43:50Z</time>
      </trkpt>
      <trkpt lat="43.75228" lon="3.56239">
        <ele>156.5</ele>
        <time>2011-12-18T08:43:55Z</time>
      </trkpt>
      <trkpt lat="43.75232" lon="3.56242">
        <ele>158.1</ele>
        <time>2011-12-18T08:43:59Z</time>
      </trkpt>
      <trkpt lat="43.75235" lon="3.56245">
        <ele>158.4</ele>
        <time>2011-12-18T08:44:05Z</time>
      </trkpt>
      <trkpt lat="43.75239" lon="3.56248">
        <ele>158.6</ele>
        <time>2011-12-18T08:44:12Z</time>
      </trkpt>
      <trkpt lat="43.7524" lon="3.56249">
        <ele>158.4</ele>
        <time>2011-12-18T08:44:13Z</time>
      </trkpt>
      <trkpt lat="43.75246" lon="3.56255">
        <ele>160</ele>
        <time>2011-12-18T08:44:25Z</time>
      </trkpt>
      <trkpt lat="43.75249" lon="3.56258">
        <ele>161.4</ele>
        <time>2011-12-18T08:44:29Z</time>
      </trkpt>
      <trkpt lat="43.75252" lon="3.56261">
        <ele>161.6</ele>
        <time>2011-12-18T08:44:34Z</time>
      </trkpt>
      <trkpt lat="43.75255" lon="3.56265">
        <ele>162</ele>
        <time>2011-12-18T08:44:41Z</time>
      </trkpt>
      <trkpt lat="43.75259" lon="3.5627">
        <ele>163.5</ele>
        <time>2011-12-18T08:44:47Z</time>
      </trkpt>
      <trkpt lat="43.75262" lon="3.56274">
        <ele>162.6</ele>
        <time>2011-12-18T08:44:54Z</time>
      </trkpt>
      <trkpt lat="43.75264" lon="3.56278">
        <ele>164.1</ele>
        <time>2011-12-18T08:45:01Z</time>
      </trkpt>
      <trkpt lat="43.75267" lon="3.56282">
        <ele>166.9</ele>
        <time>2011-12-18T08:45:11Z</time>
      </trkpt>
      <trkpt lat="43.75271" lon="3.56283">
        <ele>168.3</ele>
        <time>2011-12-18T08:45:19Z</time>
      </trkpt>
      <trkpt lat="43.75272" lon="3.56284">
        <ele>168.1</ele>
        <time>2011-12-18T08:45:20Z</time>
      </trkpt>
      <trkpt lat="43.75279" lon="3.56286">
        <ele>169.9</ele>
        <time>2011-12-18T08:45:36Z</time>
      </trkpt>
      <trkpt lat="43.75283" lon="3.56286">
        <ele>171.1</ele>
        <time>2011-12-18T08:45:47Z</time>
      </trkpt>
      <trkpt lat="43.75287" lon="3.56284">
        <ele>174</ele>
        <time>2011-12-18T08:46:08Z</time>
      </trkpt>
      <trkpt lat="43.75291" lon="3.56287">
        <ele>175</ele>
        <time>2011-12-18T08:46:18Z</time>
      </trkpt>
      <trkpt lat="43.75294" lon="3.56289">
        <ele>175.6</ele>
        <time>2011-12-18T08:46:25Z</time>
      </trkpt>
      <trkpt lat="43.75299" lon="3.56288">
        <ele>175.3</ele>
        <time>2011-12-18T08:46:46Z</time>
      </trkpt>
      <trkpt lat="43.75297" lon="3.56284">
        <ele>173.5</ele>
        <time>2011-12-18T08:47:03Z</time>
      </trkpt>
      <trkpt lat="43.753" lon="3.56288">
        <ele>175</ele>
        <time>2011-12-18T08:47:32Z</time>
      </trkpt>
      <trkpt lat="43.75297" lon="3.56285">
        <ele>174.3</ele>
        <time>2011-12-18T08:47:43Z</time>
      </trkpt>
      <trkpt lat="43.75293" lon="3.56282">
        <ele>174.4</ele>
        <time>2011-12-18T08:47:51Z</time>
      </trkpt>
      <trkpt lat="43.75293" lon="3.56281">
        <ele>174.2</ele>
        <time>2011-12-18T08:47:52Z</time>
      </trkpt>
      <trkpt lat="43.75294" lon="3.56274">
        <ele>174.9</ele>
        <time>2011-12-18T08:48:41Z</time>
      </trkpt>
      <trkpt lat="43.75298" lon="3.56276">
        <ele>174.9</ele>
        <time>2011-12-18T08:48:47Z</time>
      </trkpt>
      <trkpt lat="43.75301" lon="3.56278">
        <ele>175.7</ele>
        <time>2011-12-18T08:48:52Z</time>
      </trkpt>
      <trkpt lat="43.75302" lon="3.56278">
        <ele>175.8</ele>
        <time>2011-12-18T08:48:53Z</time>
      </trkpt>
      <trkpt lat="43.7531" lon="3.56277">
        <ele>177.8</ele>
        <time>2011-12-18T08:49:06Z</time>
      </trkpt>
      <trkpt lat="43.75314" lon="3.56276">
        <ele>178</ele>
        <time>2011-12-18T08:49:11Z</time>
      </trkpt>
      <trkpt lat="43.75318" lon="3.56276">
        <ele>178.7</ele>
        <time>2011-12-18T08:49:16Z</time>
      </trkpt>
      <trkpt lat="43.75322" lon="3.56277">
        <ele>179.3</ele>
        <time>2011-12-18T08:49:20Z</time>
      </trkpt>
      <trkpt lat="43.75326" lon="3.56279">
        <ele>180.5</ele>
        <time>2011-12-18T08:49:25Z</time>
      </trkpt>
      <trkpt lat="43.75329" lon="3.56281">
        <ele>181.2</ele>
        <time>2011-12-18T08:49:29Z</time>
      </trkpt>
      <trkpt lat="43.75332" lon="3.56285">
        <ele>181.4</ele>
        <time>2011-12-18T08:49:34Z</time>
      </trkpt>
      <trkpt lat="43.75335" lon="3.56289">
        <ele>181.6</ele>
        <time>2011-12-18T08:49:40Z</time>
      </trkpt>
      <trkpt lat="43.75336" lon="3.56295">
        <ele>181.9</ele>
        <time>2011-12-18T08:49:48Z</time>
      </trkpt>
      <trkpt lat="43.75338" lon="3.563">
        <ele>184.1</ele>
        <time>2011-12-18T08:49:54Z</time>
      </trkpt>
      <trkpt lat="43.75339" lon="3.56301">
        <ele>183.9</ele>
        <time>2011-12-18T08:49:55Z</time>
      </trkpt>
      <trkpt lat="43.75344" lon="3.56308">
        <ele>183.5</ele>
        <time>2011-12-18T08:50:03Z</time>
      </trkpt>
      <trkpt lat="43.75346" lon="3.56312">
        <ele>183.6</ele>
        <time>2011-12-18T08:50:07Z</time>
      </trkpt>
      <trkpt lat="43.75348" lon="3.56318">
        <ele>183.5</ele>
        <time>2011-12-18T08:50:12Z</time>
      </trkpt>
      <trkpt lat="43.7535" lon="3.56322">
        <ele>183.5</ele>
        <time>2011-12-18T08:50:16Z</time>
      </trkpt>
      <trkpt lat="43.75352" lon="3.56328">
        <ele>183.9</ele>
        <time>2011-12-18T08:50:21Z</time>
      </trkpt>
      <trkpt lat="43.75354" lon="3.56333">
        <ele>183.7</ele>
        <time>2011-12-18T08:50:27Z</time>
      </trkpt>
      <trkpt lat="43.75356" lon="3.56338">
        <ele>183.1</ele>
        <time>2011-12-18T08:50:31Z</time>
      </trkpt>
      <trkpt lat="43.75359" lon="3.56342">
        <ele>183.3</ele>
        <time>2011-12-18T08:50:35Z</time>
      </trkpt>
      <trkpt lat="43.75362" lon="3.56347">
        <ele>183.6</ele>
        <time>2011-12-18T08:50:42Z</time>
      </trkpt>
      <trkpt lat="43.75365" lon="3.56349">
        <ele>183.5</ele>
        <time>2011-12-18T08:50:47Z</time>
      </trkpt>
      <trkpt lat="43.7537" lon="3.56351">
        <ele>184.4</ele>
        <time>2011-12-18T08:50:53Z</time>
      </trkpt>
      <trkpt lat="43.75374" lon="3.5635">
        <ele>184</ele>
        <time>2011-12-18T08:50:59Z</time>
      </trkpt>
      <trkpt lat="43.75375" lon="3.5635">
        <ele>184.1</ele>
        <time>2011-12-18T08:51:00Z</time>
      </trkpt>
      <trkpt lat="43.75382" lon="3.56351">
        <ele>183.9</ele>
        <time>2011-12-18T08:51:07Z</time>
      </trkpt>
      <trkpt lat="43.75386" lon="3.56353">
        <ele>185</ele>
        <time>2011-12-18T08:51:13Z</time>
      </trkpt>
      <trkpt lat="43.75389" lon="3.56355">
        <ele>185.1</ele>
        <time>2011-12-18T08:51:18Z</time>
      </trkpt>
      <trkpt lat="43.75393" lon="3.56357">
        <ele>185.2</ele>
        <time>2011-12-18T08:51:22Z</time>
      </trkpt>
      <trkpt lat="43.75397" lon="3.5636">
        <ele>186.5</ele>
        <time>2011-12-18T08:51:27Z</time>
      </trkpt>
      <trkpt lat="43.754" lon="3.56362">
        <ele>187.9</ele>
        <time>2011-12-18T08:51:32Z</time>
      </trkpt>
      <trkpt lat="43.75404" lon="3.56365">
        <ele>188.4</ele>
        <time>2011-12-18T08:51:37Z</time>
      </trkpt>
      <trkpt lat="43.75408" lon="3.56367">
        <ele>188.8</ele>
        <time>2011-12-18T08:51:41Z</time>
      </trkpt>
      <trkpt lat="43.75412" lon="3.5637">
        <ele>188.7</ele>
        <time>2011-12-18T08:51:46Z</time>
      </trkpt>
      <trkpt lat="43.75415" lon="3.56373">
        <ele>189</ele>
        <time>2011-12-18T08:51:50Z</time>
      </trkpt>
      <trkpt lat="43.75419" lon="3.56376">
        <ele>188.5</ele>
        <time>2011-12-18T08:51:54Z</time>
      </trkpt>
      <trkpt lat="43.75423" lon="3.56379">
        <ele>188.6</ele>
        <time>2011-12-18T08:51:58Z</time>
      </trkpt>
      <trkpt lat="43.75426" lon="3.56383">
        <ele>187.6</ele>
        <time>2011-12-18T08:52:02Z</time>
      </trkpt>
      <trkpt lat="43.75427" lon="3.56384">
        <ele>187.3</ele>
        <time>2011-12-18T08:52:03Z</time>
      </trkpt>
      <trkpt lat="43.75432" lon="3.56389">
        <ele>186.8</ele>
        <time>2011-12-18T08:52:09Z</time>
      </trkpt>
      <trkpt lat="43.75435" lon="3.56393">
        <ele>187.1</ele>
        <time>2011-12-18T08:52:13Z</time>
      </trkpt>
      <trkpt lat="43.75438" lon="3.56396">
        <ele>186</ele>
        <time>2011-12-18T08:52:17Z</time>
      </trkpt>
      <trkpt lat="43.75441" lon="3.56399">
        <ele>186.1</ele>
        <time>2011-12-18T08:52:21Z</time>
      </trkpt>
      <trkpt lat="43.75444" lon="3.56402">
        <ele>186.3</ele>
        <time>2011-12-18T08:52:25Z</time>
      </trkpt>
      <trkpt lat="43.75447" lon="3.56407">
        <ele>187.3</ele>
        <time>2011-12-18T08:52:30Z</time>
      </trkpt>
      <trkpt lat="43.75449" lon="3.56412">
        <ele>188.6</ele>
        <time>2011-12-18T08:52:34Z</time>
      </trkpt>
      <trkpt lat="43.7545" lon="3.56417">
        <ele>189.9</ele>
        <time>2011-12-18T08:52:40Z</time>
      </trkpt>
      <trkpt lat="43.75452" lon="3.56422">
        <ele>188.7</ele>
        <time>2011-12-18T08:52:45Z</time>
      </trkpt>
      <trkpt lat="43.75454" lon="3.56427">
        <ele>188.8</ele>
        <time>2011-12-18T08:52:50Z</time>
      </trkpt>
      <trkpt lat="43.75457" lon="3.56431">
        <ele>189.5</ele>
        <time>2011-12-18T08:52:55Z</time>
      </trkpt>
      <trkpt lat="43.7546" lon="3.56436">
        <ele>190</ele>
        <time>2011-12-18T08:53:02Z</time>
      </trkpt>
      <trkpt lat="43.75462" lon="3.56441">
        <ele>191.1</ele>
        <time>2011-12-18T08:53:06Z</time>
      </trkpt>
      <trkpt lat="43.75463" lon="3.56441">
        <ele>191.3</ele>
        <time>2011-12-18T08:53:07Z</time>
      </trkpt>
      <trkpt lat="43.75468" lon="3.56447">
        <ele>191.6</ele>
        <time>2011-12-18T08:53:15Z</time>
      </trkpt>
      <trkpt lat="43.75472" lon="3.5645">
        <ele>192.6</ele>
        <time>2011-12-18T08:53:19Z</time>
      </trkpt>
      <trkpt lat="43.75475" lon="3.56453">
        <ele>192.5</ele>
        <time>2011-12-18T08:53:23Z</time>
      </trkpt>
      <trkpt lat="43.75479" lon="3.56456">
        <ele>192.8</ele>
        <time>2011-12-18T08:53:27Z</time>
      </trkpt>
      <trkpt lat="43.75482" lon="3.56459">
        <ele>193.1</ele>
        <time>2011-12-18T08:53:31Z</time>
      </trkpt>
      <trkpt lat="43.75485" lon="3.56463">
        <ele>192.7</ele>
        <time>2011-12-18T08:53:35Z</time>
      </trkpt>
      <trkpt lat="43.75488" lon="3.56467">
        <ele>193.3</ele>
        <time>2011-12-18T08:53:40Z</time>
      </trkpt>
      <trkpt lat="43.75491" lon="3.56471">
        <ele>194</ele>
        <time>2011-12-18T08:53:44Z</time>
      </trkpt>
      <trkpt lat="43.75494" lon="3.56475">
        <ele>193.9</ele>
        <time>2011-12-18T08:53:48Z</time>
      </trkpt>
      <trkpt lat="43.75497" lon="3.56478">
        <ele>194.8</ele>
        <time>2011-12-18T08:53:52Z</time>
      </trkpt>
      <trkpt lat="43.755" lon="3.56482">
        <ele>196.1</ele>
        <time>2011-12-18T08:53:58Z</time>
      </trkpt>
      <trkpt lat="43.75504" lon="3.56485">
        <ele>196</ele>
        <time>2011-12-18T08:54:02Z</time>
      </trkpt>
      <trkpt lat="43.75507" lon="3.56488">
        <ele>197</ele>
        <time>2011-12-18T08:54:07Z</time>
      </trkpt>
      <trkpt lat="43.75508" lon="3.56489">
        <ele>197</ele>
        <time>2011-12-18T08:54:08Z</time>
      </trkpt>
      <trkpt lat="43.75513" lon="3.56495">
        <ele>197.5</ele>
        <time>2011-12-18T08:54:16Z</time>
      </trkpt>
      <trkpt lat="43.75515" lon="3.565">
        <ele>198.5</ele>
        <time>2011-12-18T08:54:22Z</time>
      </trkpt>
      <trkpt lat="43.75518" lon="3.56505">
        <ele>199.6</ele>
        <time>2011-12-18T08:54:30Z</time>
      </trkpt>
      <trkpt lat="43.75521" lon="3.5651">
        <ele>200.4</ele>
        <time>2011-12-18T08:54:36Z</time>
      </trkpt>
      <trkpt lat="43.75523" lon="3.56514">
        <ele>201</ele>
        <time>2011-12-18T08:54:42Z</time>
      </trkpt>
      <trkpt lat="43.75526" lon="3.56519">
        <ele>201.5</ele>
        <time>2011-12-18T08:54:48Z</time>
      </trkpt>
      <trkpt lat="43.75528" lon="3.56523">
        <ele>201.7</ele>
        <time>2011-12-18T08:54:53Z</time>
      </trkpt>
      <trkpt lat="43.7553" lon="3.56528">
        <ele>202.4</ele>
        <time>2011-12-18T08:54:58Z</time>
      </trkpt>
      <trkpt lat="43.75533" lon="3.56532">
        <ele>203.7</ele>
        <time>2011-12-18T08:55:04Z</time>
      </trkpt>
      <trkpt lat="43.75536" lon="3.56536">
        <ele>203.3</ele>
        <time>2011-12-18T08:55:11Z</time>
      </trkpt>
      <trkpt lat="43.75537" lon="3.56536">
        <ele>202.9</ele>
        <time>2011-12-18T08:55:12Z</time>
      </trkpt>
      <trkpt lat="43.75541" lon="3.56534">
        <ele>206.6</ele>
        <time>2011-12-18T08:55:33Z</time>
      </trkpt>
      <trkpt lat="43.75542" lon="3.56528">
        <ele>208.3</ele>
        <time>2011-12-18T08:55:44Z</time>
      </trkpt>
      <trkpt lat="43.75541" lon="3.56523">
        <ele>209.2</ele>
        <time>2011-12-18T08:55:51Z</time>
      </trkpt>
      <trkpt lat="43.7554" lon="3.56517">
        <ele>209.6</ele>
        <time>2011-12-18T08:55:57Z</time>
      </trkpt>
      <trkpt lat="43.75539" lon="3.56512">
        <ele>209.8</ele>
        <time>2011-12-18T08:56:02Z</time>
      </trkpt>
      <trkpt lat="43.75538" lon="3.56506">
        <ele>209.5</ele>
        <time>2011-12-18T08:56:08Z</time>
      </trkpt>
      <trkpt lat="43.75539" lon="3.565">
        <ele>209</ele>
        <time>2011-12-18T08:56:14Z</time>
      </trkpt>
      <trkpt lat="43.75539" lon="3.56499">
        <ele>208.9</ele>
        <time>2011-12-18T08:56:15Z</time>
      </trkpt>
      <trkpt lat="43.7554" lon="3.56492">
        <ele>209.4</ele>
        <time>2011-12-18T08:56:23Z</time>
      </trkpt>
      <trkpt lat="43.75553" lon="3.56475">
        <ele>212.9</ele>
        <time>2011-12-18T08:57:38Z</time>
      </trkpt>
      <trkpt lat="43.75556" lon="3.5648">
        <ele>221.8</ele>
        <time>2011-12-18T08:57:46Z</time>
      </trkpt>
      <trkpt lat="43.75558" lon="3.56485">
        <ele>223</ele>
        <time>2011-12-18T08:57:53Z</time>
      </trkpt>
      <trkpt lat="43.75559" lon="3.5649">
        <ele>224.9</ele>
        <time>2011-12-18T08:57:58Z</time>
      </trkpt>
      <trkpt lat="43.7556" lon="3.56496">
        <ele>225.7</ele>
        <time>2011-12-18T08:58:03Z</time>
      </trkpt>
      <trkpt lat="43.75562" lon="3.56491">
        <ele>226.8</ele>
        <time>2011-12-18T08:58:17Z</time>
      </trkpt>
      <trkpt lat="43.75564" lon="3.56486">
        <ele>227.5</ele>
        <time>2011-12-18T08:58:24Z</time>
      </trkpt>
      <trkpt lat="43.75565" lon="3.56481">
        <ele>228.3</ele>
        <time>2011-12-18T08:58:30Z</time>
      </trkpt>
      <trkpt lat="43.75566" lon="3.56479">
        <ele>229.1</ele>
        <time>2011-12-18T08:58:33Z</time>
      </trkpt>
      <trkpt lat="43.75569" lon="3.56454">
        <ele>230.6</ele>
        <time>2011-12-18T08:59:21Z</time>
      </trkpt>
      <trkpt lat="43.7557" lon="3.56455">
        <ele>232.9</ele>
        <time>2011-12-18T08:59:25Z</time>
      </trkpt>
      <trkpt lat="43.75575" lon="3.56459">
        <ele>234.3</ele>
        <time>2011-12-18T08:59:40Z</time>
      </trkpt>
      <trkpt lat="43.75577" lon="3.5646">
        <ele>238.2</ele>
        <time>2011-12-18T08:59:45Z</time>
      </trkpt>
      <trkpt lat="43.75579" lon="3.56445">
        <ele>239</ele>
        <time>2011-12-18T09:00:09Z</time>
      </trkpt>
      <trkpt lat="43.75577" lon="3.5644">
        <ele>241.6</ele>
        <time>2011-12-18T09:00:16Z</time>
      </trkpt>
      <trkpt lat="43.75575" lon="3.56437">
        <ele>241.7</ele>
        <time>2011-12-18T09:00:20Z</time>
      </trkpt>
      <trkpt lat="43.75565" lon="3.56421">
        <ele>243</ele>
        <time>2011-12-18T09:00:40Z</time>
      </trkpt>
      <trkpt lat="43.75569" lon="3.56418">
        <ele>246.8</ele>
        <time>2011-12-18T09:00:55Z</time>
      </trkpt>
      <trkpt lat="43.75573" lon="3.56421">
        <ele>246.8</ele>
        <time>2011-12-18T09:01:01Z</time>
      </trkpt>
      <trkpt lat="43.75577" lon="3.56422">
        <ele>248.6</ele>
        <time>2011-12-18T09:01:08Z</time>
      </trkpt>
      <trkpt lat="43.7558" lon="3.56424">
        <ele>249.1</ele>
        <time>2011-12-18T09:01:14Z</time>
      </trkpt>
      <trkpt lat="43.75584" lon="3.56427">
        <ele>248.9</ele>
        <time>2011-12-18T09:01:20Z</time>
      </trkpt>
      <trkpt lat="43.75588" lon="3.56429">
        <ele>249.8</ele>
        <time>2011-12-18T09:01:27Z</time>
      </trkpt>
      <trkpt lat="43.75592" lon="3.56432">
        <ele>250.3</ele>
        <time>2011-12-18T09:01:34Z</time>
      </trkpt>
      <trkpt lat="43.75595" lon="3.56436">
        <ele>251.1</ele>
        <time>2011-12-18T09:01:40Z</time>
      </trkpt>
      <trkpt lat="43.75596" lon="3.56436">
        <ele>251.4</ele>
        <time>2011-12-18T09:01:41Z</time>
      </trkpt>
      <trkpt lat="43.756" lon="3.56441">
        <ele>253</ele>
        <time>2011-12-18T09:02:00Z</time>
      </trkpt>
      <trkpt lat="43.75591" lon="3.56417">
        <ele>253.9</ele>
        <time>2011-12-18T09:02:32Z</time>
      </trkpt>
      <trkpt lat="43.75587" lon="3.56413">
        <ele>256.6</ele>
        <time>2011-12-18T09:02:36Z</time>
      </trkpt>
      <trkpt lat="43.75584" lon="3.5641">
        <ele>256.8</ele>
        <time>2011-12-18T09:02:41Z</time>
      </trkpt>
      <trkpt lat="43.75584" lon="3.56409">
        <ele>257.2</ele>
        <time>2011-12-18T09:02:42Z</time>
      </trkpt>
      <trkpt lat="43.75577" lon="3.56404">
        <ele>258.6</ele>
        <time>2011-12-18T09:02:52Z</time>
      </trkpt>
      <trkpt lat="43.75574" lon="3.564">
        <ele>259.5</ele>
        <time>2011-12-18T09:02:57Z</time>
      </trkpt>
      <trkpt lat="43.75572" lon="3.56395">
        <ele>259.7</ele>
        <time>2011-12-18T09:03:03Z</time>
      </trkpt>
      <trkpt lat="43.75569" lon="3.5639">
        <ele>259.8</ele>
        <time>2011-12-18T09:03:11Z</time>
      </trkpt>
      <trkpt lat="43.75567" lon="3.56385">
        <ele>260.8</ele>
        <time>2011-12-18T09:03:24Z</time>
      </trkpt>
      <trkpt lat="43.75565" lon="3.5638">
        <ele>261.2</ele>
        <time>2011-12-18T09:05:35Z</time>
      </trkpt>
      <trkpt lat="43.75565" lon="3.56379">
        <ele>261.4</ele>
        <time>2011-12-18T09:05:36Z</time>
      </trkpt>
      <trkpt lat="43.75569" lon="3.56377">
        <ele>262.3</ele>
        <time>2011-12-18T09:05:56Z</time>
      </trkpt>
      <trkpt lat="43.75572" lon="3.5638">
        <ele>263.8</ele>
        <time>2011-12-18T09:06:10Z</time>
      </trkpt>
      <trkpt lat="43.75575" lon="3.56376">
        <ele>265.3</ele>
        <time>2011-12-18T09:06:27Z</time>
      </trkpt>
      <trkpt lat="43.75576" lon="3.5637">
        <ele>266.1</ele>
        <time>2011-12-18T09:06:33Z</time>
      </trkpt>
      <trkpt lat="43.75579" lon="3.56366">
        <ele>269.1</ele>
        <time>2011-12-18T09:06:44Z</time>
      </trkpt>
      <trkpt lat="43.75579" lon="3.56366">
        <ele>269.2</ele>
        <time>2011-12-18T09:06:45Z</time>
      </trkpt>
      <trkpt lat="43.75587" lon="3.56369">
        <ele>272</ele>
        <time>2011-12-18T09:07:08Z</time>
      </trkpt>
      <trkpt lat="43.75591" lon="3.56372">
        <ele>273.4</ele>
        <time>2011-12-18T09:07:16Z</time>
      </trkpt>
      <trkpt lat="43.75594" lon="3.56375">
        <ele>273.6</ele>
        <time>2011-12-18T09:07:23Z</time>
      </trkpt>
      <trkpt lat="43.75598" lon="3.56377">
        <ele>275.7</ele>
        <time>2011-12-18T09:07:31Z</time>
      </trkpt>
      <trkpt lat="43.75601" lon="3.56381">
        <ele>275.3</ele>
        <time>2011-12-18T09:07:39Z</time>
      </trkpt>
      <trkpt lat="43.75605" lon="3.56385">
        <ele>277.3</ele>
        <time>2011-12-18T09:07:46Z</time>
      </trkpt>
      <trkpt lat="43.75605" lon="3.56386">
        <ele>277.5</ele>
        <time>2011-12-18T09:07:47Z</time>
      </trkpt>
      <trkpt lat="43.75611" lon="3.56393">
        <ele>279.1</ele>
        <time>2011-12-18T09:07:56Z</time>
      </trkpt>
      <trkpt lat="43.75613" lon="3.56388">
        <ele>277.8</ele>
        <time>2011-12-18T09:08:06Z</time>
      </trkpt>
      <trkpt lat="43.75612" lon="3.56382">
        <ele>279.2</ele>
        <time>2011-12-18T09:08:12Z</time>
      </trkpt>
      <trkpt lat="43.75611" lon="3.56377">
        <ele>278.8</ele>
        <time>2011-12-18T09:08:18Z</time>
      </trkpt>
      <trkpt lat="43.75611" lon="3.56371">
        <ele>282.1</ele>
        <time>2011-12-18T09:08:25Z</time>
      </trkpt>
      <trkpt lat="43.75614" lon="3.56367">
        <ele>281.3</ele>
        <time>2011-12-18T09:08:30Z</time>
      </trkpt>
      <trkpt lat="43.75617" lon="3.56363">
        <ele>283.1</ele>
        <time>2011-12-18T09:08:37Z</time>
      </trkpt>
      <trkpt lat="43.75617" lon="3.56357">
        <ele>284.3</ele>
        <time>2011-12-18T09:08:45Z</time>
      </trkpt>
      <trkpt lat="43.75619" lon="3.56351">
        <ele>285.1</ele>
        <time>2011-12-18T09:08:51Z</time>
      </trkpt>
      <trkpt lat="43.75619" lon="3.5635">
        <ele>285.2</ele>
        <time>2011-12-18T09:08:52Z</time>
      </trkpt>
      <trkpt lat="43.75622" lon="3.56341">
        <ele>284.9</ele>
        <time>2011-12-18T09:09:02Z</time>
      </trkpt>
      <trkpt lat="43.75624" lon="3.56336">
        <ele>285.1</ele>
        <time>2011-12-18T09:09:07Z</time>
      </trkpt>
      <trkpt lat="43.75626" lon="3.56331">
        <ele>285.1</ele>
        <time>2011-12-18T09:09:12Z</time>
      </trkpt>
      <trkpt lat="43.75627" lon="3.56326">
        <ele>285.6</ele>
        <time>2011-12-18T09:09:17Z</time>
      </trkpt>
      <trkpt lat="43.75629" lon="3.56321">
        <ele>285.9</ele>
        <time>2011-12-18T09:09:22Z</time>
      </trkpt>
      <trkpt lat="43.75632" lon="3.56317">
        <ele>286.6</ele>
        <time>2011-12-18T09:09:27Z</time>
      </trkpt>
      <trkpt lat="43.75635" lon="3.56313">
        <ele>287.4</ele>
        <time>2011-12-18T09:09:31Z</time>
      </trkpt>
      <trkpt lat="43.75637" lon="3.5631">
        <ele>287.9</ele>
        <time>2011-12-18T09:09:35Z</time>
      </trkpt>
      <trkpt lat="43.75639" lon="3.56305">
        <ele>287.4</ele>
        <time>2011-12-18T09:09:39Z</time>
      </trkpt>
      <trkpt lat="43.75642" lon="3.56301">
        <ele>288.1</ele>
        <time>2011-12-18T09:09:43Z</time>
      </trkpt>
      <trkpt lat="43.75644" lon="3.56296">
        <ele>288.5</ele>
        <time>2011-12-18T09:09:47Z</time>
      </trkpt>
      <trkpt lat="43.75645" lon="3.56291">
        <ele>288.8</ele>
        <time>2011-12-18T09:09:51Z</time>
      </trkpt>
      <trkpt lat="43.75646" lon="3.56286">
        <ele>289.6</ele>
        <time>2011-12-18T09:09:56Z</time>
      </trkpt>
      <trkpt lat="43.75646" lon="3.56285">
        <ele>289.7</ele>
        <time>2011-12-18T09:09:57Z</time>
      </trkpt>
      <trkpt lat="43.75644" lon="3.56275">
        <ele>291.1</ele>
        <time>2011-12-18T09:10:09Z</time>
      </trkpt>
      <trkpt lat="43.75642" lon="3.56271">
        <ele>292.3</ele>
        <time>2011-12-18T09:10:15Z</time>
      </trkpt>
      <trkpt lat="43.75639" lon="3.56266">
        <ele>292.8</ele>
        <time>2011-12-18T09:10:21Z</time>
      </trkpt>
      <trkpt lat="43.75636" lon="3.56262">
        <ele>293.5</ele>
        <time>2011-12-18T09:10:25Z</time>
      </trkpt>
      <trkpt lat="43.75634" lon="3.56257">
        <ele>293.2</ele>
        <time>2011-12-18T09:10:30Z</time>
      </trkpt>
      <trkpt lat="43.75633" lon="3.56252">
        <ele>293</ele>
        <time>2011-12-18T09:10:34Z</time>
      </trkpt>
      <trkpt lat="43.75632" lon="3.56247">
        <ele>292.4</ele>
        <time>2011-12-18T09:10:38Z</time>
      </trkpt>
      <trkpt lat="43.75634" lon="3.56241">
        <ele>294.3</ele>
        <time>2011-12-18T09:10:44Z</time>
      </trkpt>
      <trkpt lat="43.75637" lon="3.56237">
        <ele>294.8</ele>
        <time>2011-12-18T09:10:52Z</time>
      </trkpt>
      <trkpt lat="43.7564" lon="3.56233">
        <ele>295.1</ele>
        <time>2011-12-18T09:10:59Z</time>
      </trkpt>
      <trkpt lat="43.7564" lon="3.56233">
        <ele>295.3</ele>
        <time>2011-12-18T09:11:00Z</time>
      </trkpt>
      <trkpt lat="43.75647" lon="3.56228">
        <ele>298.7</ele>
        <time>2011-12-18T09:11:16Z</time>
      </trkpt>
      <trkpt lat="43.75651" lon="3.56226">
        <ele>301.4</ele>
        <time>2011-12-18T09:11:25Z</time>
      </trkpt>
      <trkpt lat="43.75655" lon="3.56225">
        <ele>300.5</ele>
        <time>2011-12-18T09:11:31Z</time>
      </trkpt>
      <trkpt lat="43.7566" lon="3.56224">
        <ele>301</ele>
        <time>2011-12-18T09:11:36Z</time>
      </trkpt>
      <trkpt lat="43.75663" lon="3.56222">
        <ele>300.8</ele>
        <time>2011-12-18T09:11:40Z</time>
      </trkpt>
      <trkpt lat="43.75667" lon="3.56221">
        <ele>301.4</ele>
        <time>2011-12-18T09:11:45Z</time>
      </trkpt>
      <trkpt lat="43.75671" lon="3.56221">
        <ele>301.7</ele>
        <time>2011-12-18T09:11:51Z</time>
      </trkpt>
      <trkpt lat="43.75675" lon="3.5622">
        <ele>301.7</ele>
        <time>2011-12-18T09:11:56Z</time>
      </trkpt>
      <trkpt lat="43.75679" lon="3.56218">
        <ele>303</ele>
        <time>2011-12-18T09:12:01Z</time>
      </trkpt>
      <trkpt lat="43.7568" lon="3.56218">
        <ele>303.6</ele>
        <time>2011-12-18T09:12:02Z</time>
      </trkpt>
      <trkpt lat="43.75687" lon="3.56218">
        <ele>304.3</ele>
        <time>2011-12-18T09:12:12Z</time>
      </trkpt>
      <trkpt lat="43.75692" lon="3.56219">
        <ele>304.2</ele>
        <time>2011-12-18T09:12:18Z</time>
      </trkpt>
      <trkpt lat="43.75695" lon="3.56221">
        <ele>304.6</ele>
        <time>2011-12-18T09:12:22Z</time>
      </trkpt>
      <trkpt lat="43.75699" lon="3.56223">
        <ele>306</ele>
        <time>2011-12-18T09:12:27Z</time>
      </trkpt>
      <trkpt lat="43.75703" lon="3.56224">
        <ele>306.5</ele>
        <time>2011-12-18T09:12:31Z</time>
      </trkpt>
      <trkpt lat="43.75706" lon="3.56227">
        <ele>308.2</ele>
        <time>2011-12-18T09:12:36Z</time>
      </trkpt>
      <trkpt lat="43.75708" lon="3.5623">
        <ele>308.4</ele>
        <time>2011-12-18T09:12:39Z</time>
      </trkpt>
      <trkpt lat="43.75711" lon="3.56234">
        <ele>308.4</ele>
        <time>2011-12-18T09:12:43Z</time>
      </trkpt>
      <trkpt lat="43.75713" lon="3.5624">
        <ele>309.4</ele>
        <time>2011-12-18T09:12:48Z</time>
      </trkpt>
      <trkpt lat="43.75715" lon="3.56245">
        <ele>308</ele>
        <time>2011-12-18T09:12:53Z</time>
      </trkpt>
      <trkpt lat="43.75717" lon="3.5625">
        <ele>308.1</ele>
        <time>2011-12-18T09:12:58Z</time>
      </trkpt>
      <trkpt lat="43.75718" lon="3.56255">
        <ele>307.8</ele>
        <time>2011-12-18T09:13:02Z</time>
      </trkpt>
      <trkpt lat="43.75718" lon="3.56256">
        <ele>307.8</ele>
        <time>2011-12-18T09:13:03Z</time>
      </trkpt>
      <trkpt lat="43.75721" lon="3.56265">
        <ele>307.9</ele>
        <time>2011-12-18T09:13:10Z</time>
      </trkpt>
      <trkpt lat="43.75722" lon="3.5627">
        <ele>308.3</ele>
        <time>2011-12-18T09:13:14Z</time>
      </trkpt>
      <trkpt lat="43.75725" lon="3.56275">
        <ele>309.4</ele>
        <time>2011-12-18T09:13:19Z</time>
      </trkpt>
      <trkpt lat="43.75729" lon="3.56274">
        <ele>309.8</ele>
        <time>2011-12-18T09:13:28Z</time>
      </trkpt>
      <trkpt lat="43.75733" lon="3.56272">
        <ele>311.4</ele>
        <time>2011-12-18T09:13:35Z</time>
      </trkpt>
      <trkpt lat="43.75737" lon="3.56269">
        <ele>312.6</ele>
        <time>2011-12-18T09:13:42Z</time>
      </trkpt>
      <trkpt lat="43.75741" lon="3.56267">
        <ele>313.4</ele>
        <time>2011-12-18T09:13:48Z</time>
      </trkpt>
      <trkpt lat="43.75745" lon="3.56268">
        <ele>313.5</ele>
        <time>2011-12-18T09:13:54Z</time>
      </trkpt>
      <trkpt lat="43.75749" lon="3.5627">
        <ele>314.7</ele>
        <time>2011-12-18T09:14:01Z</time>
      </trkpt>
      <trkpt lat="43.75753" lon="3.56271">
        <ele>315.5</ele>
        <time>2011-12-18T09:14:07Z</time>
      </trkpt>
      <trkpt lat="43.75754" lon="3.56272">
        <ele>315.7</ele>
        <time>2011-12-18T09:14:08Z</time>
      </trkpt>
      <trkpt lat="43.75762" lon="3.56273">
        <ele>316.7</ele>
        <time>2011-12-18T09:14:17Z</time>
      </trkpt>
      <trkpt lat="43.75766" lon="3.56272">
        <ele>316.4</ele>
        <time>2011-12-18T09:14:23Z</time>
      </trkpt>
      <trkpt lat="43.75769" lon="3.56268">
        <ele>315.9</ele>
        <time>2011-12-18T09:14:28Z</time>
      </trkpt>
      <trkpt lat="43.75773" lon="3.56266">
        <ele>317</ele>
        <time>2011-12-18T09:14:33Z</time>
      </trkpt>
      <trkpt lat="43.75777" lon="3.56264">
        <ele>316.3</ele>
        <time>2011-12-18T09:14:38Z</time>
      </trkpt>
      <trkpt lat="43.75781" lon="3.56261">
        <ele>317</ele>
        <time>2011-12-18T09:14:42Z</time>
      </trkpt>
      <trkpt lat="43.75785" lon="3.56258">
        <ele>317.1</ele>
        <time>2011-12-18T09:14:46Z</time>
      </trkpt>
      <trkpt lat="43.75788" lon="3.56255">
        <ele>318</ele>
        <time>2011-12-18T09:14:50Z</time>
      </trkpt>
      <trkpt lat="43.75792" lon="3.56252">
        <ele>319.5</ele>
        <time>2011-12-18T09:14:54Z</time>
      </trkpt>
      <trkpt lat="43.75795" lon="3.56248">
        <ele>320.7</ele>
        <time>2011-12-18T09:14:58Z</time>
      </trkpt>
      <trkpt lat="43.75798" lon="3.56245">
        <ele>321.9</ele>
        <time>2011-12-18T09:15:02Z</time>
      </trkpt>
      <trkpt lat="43.75802" lon="3.56241">
        <ele>322</ele>
        <time>2011-12-18T09:15:06Z</time>
      </trkpt>
      <trkpt lat="43.75805" lon="3.56236">
        <ele>322.5</ele>
        <time>2011-12-18T09:15:10Z</time>
      </trkpt>
      <trkpt lat="43.75805" lon="3.56235">
        <ele>322.6</ele>
        <time>2011-12-18T09:15:11Z</time>
      </trkpt>
      <trkpt lat="43.75811" lon="3.56228">
        <ele>321.8</ele>
        <time>2011-12-18T09:15:18Z</time>
      </trkpt>
      <trkpt lat="43.75814" lon="3.56224">
        <ele>322.4</ele>
        <time>2011-12-18T09:15:24Z</time>
      </trkpt>
      <trkpt lat="43.75816" lon="3.56219">
        <ele>323.1</ele>
        <time>2011-12-18T09:15:36Z</time>
      </trkpt>
      <trkpt lat="43.75816" lon="3.56213">
        <ele>322.5</ele>
        <time>2011-12-18T09:15:56Z</time>
      </trkpt>
      <trkpt lat="43.75821" lon="3.56214">
        <ele>321.7</ele>
        <time>2011-12-18T09:16:39Z</time>
      </trkpt>
      <trkpt lat="43.75821" lon="3.56214">
        <ele>321.2</ele>
        <time>2011-12-18T09:16:40Z</time>
      </trkpt>
      <trkpt lat="43.75818" lon="3.56209">
        <ele>321.1</ele>
        <time>2011-12-18T09:20:50Z</time>
      </trkpt>
      <trkpt lat="43.7582" lon="3.56198">
        <ele>323.2</ele>
        <time>2011-12-18T09:21:45Z</time>
      </trkpt>
      <trkpt lat="43.7582" lon="3.56192">
        <ele>324.8</ele>
        <time>2011-12-18T09:21:50Z</time>
      </trkpt>
      <trkpt lat="43.7582" lon="3.56191">
        <ele>324.9</ele>
        <time>2011-12-18T09:21:51Z</time>
      </trkpt>
      <trkpt lat="43.75823" lon="3.56181">
        <ele>324.8</ele>
        <time>2011-12-18T09:22:03Z</time>
      </trkpt>
      <trkpt lat="43.75822" lon="3.56175">
        <ele>324.8</ele>
        <time>2011-12-18T09:22:07Z</time>
      </trkpt>
      <trkpt lat="43.75822" lon="3.5617">
        <ele>324.1</ele>
        <time>2011-12-18T09:22:11Z</time>
      </trkpt>
      <trkpt lat="43.75821" lon="3.56164">
        <ele>325.2</ele>
        <time>2011-12-18T09:22:16Z</time>
      </trkpt>
      <trkpt lat="43.7582" lon="3.56158">
        <ele>324.8</ele>
        <time>2011-12-18T09:22:21Z</time>
      </trkpt>
      <trkpt lat="43.7582" lon="3.56153">
        <ele>325.2</ele>
        <time>2011-12-18T09:22:25Z</time>
      </trkpt>
      <trkpt lat="43.75819" lon="3.56148">
        <ele>325.6</ele>
        <time>2011-12-18T09:22:29Z</time>
      </trkpt>
      <trkpt lat="43.75818" lon="3.56142">
        <ele>326.8</ele>
        <time>2011-12-18T09:22:34Z</time>
      </trkpt>
      <trkpt lat="43.75816" lon="3.56136">
        <ele>327.8</ele>
        <time>2011-12-18T09:22:38Z</time>
      </trkpt>
      <trkpt lat="43.75815" lon="3.56131">
        <ele>329.1</ele>
        <time>2011-12-18T09:22:42Z</time>
      </trkpt>
      <trkpt lat="43.75815" lon="3.56126">
        <ele>328.9</ele>
        <time>2011-12-18T09:22:46Z</time>
      </trkpt>
      <trkpt lat="43.75813" lon="3.5612">
        <ele>329.2</ele>
        <time>2011-12-18T09:22:51Z</time>
      </trkpt>
      <trkpt lat="43.75813" lon="3.56119">
        <ele>329.2</ele>
        <time>2011-12-18T09:22:52Z</time>
      </trkpt>
      <trkpt lat="43.75811" lon="3.56109">
        <ele>330</ele>
        <time>2011-12-18T09:22:59Z</time>
      </trkpt>
      <trkpt lat="43.7581" lon="3.56104">
        <ele>330.5</ele>
        <time>2011-12-18T09:23:03Z</time>
      </trkpt>
      <trkpt lat="43.75809" lon="3.56099">
        <ele>331.2</ele>
        <time>2011-12-18T09:23:07Z</time>
      </trkpt>
      <trkpt lat="43.75808" lon="3.56094">
        <ele>330.7</ele>
        <time>2011-12-18T09:23:10Z</time>
      </trkpt>
      <trkpt lat="43.75808" lon="3.56089">
        <ele>330.5</ele>
        <time>2011-12-18T09:23:13Z</time>
      </trkpt>
      <trkpt lat="43.75807" lon="3.56084">
        <ele>329.8</ele>
        <time>2011-12-18T09:23:17Z</time>
      </trkpt>
      <trkpt lat="43.75807" lon="3.56078">
        <ele>328.8</ele>
        <time>2011-12-18T09:23:21Z</time>
      </trkpt>
      <trkpt lat="43.75805" lon="3.56074">
        <ele>328.3</ele>
        <time>2011-12-18T09:23:24Z</time>
      </trkpt>
      <trkpt lat="43.75804" lon="3.56068">
        <ele>328.4</ele>
        <time>2011-12-18T09:23:28Z</time>
      </trkpt>
      <trkpt lat="43.75802" lon="3.56063">
        <ele>329.5</ele>
        <time>2011-12-18T09:23:32Z</time>
      </trkpt>
      <trkpt lat="43.75801" lon="3.56057">
        <ele>329.3</ele>
        <time>2011-12-18T09:23:36Z</time>
      </trkpt>
      <trkpt lat="43.75799" lon="3.56052">
        <ele>329.4</ele>
        <time>2011-12-18T09:23:39Z</time>
      </trkpt>
      <trkpt lat="43.75798" lon="3.56046">
        <ele>329.5</ele>
        <time>2011-12-18T09:23:42Z</time>
      </trkpt>
      <trkpt lat="43.75797" lon="3.56042">
        <ele>328.9</ele>
        <time>2011-12-18T09:23:45Z</time>
      </trkpt>
      <trkpt lat="43.75795" lon="3.56037">
        <ele>328.7</ele>
        <time>2011-12-18T09:23:48Z</time>
      </trkpt>
      <trkpt lat="43.75792" lon="3.56033">
        <ele>328.9</ele>
        <time>2011-12-18T09:23:52Z</time>
      </trkpt>
      <trkpt lat="43.75792" lon="3.56031">
        <ele>329</ele>
        <time>2011-12-18T09:23:53Z</time>
      </trkpt>
      <trkpt lat="43.75789" lon="3.56024">
        <ele>328.8</ele>
        <time>2011-12-18T09:23:58Z</time>
      </trkpt>
      <trkpt lat="43.75787" lon="3.56019">
        <ele>328.9</ele>
        <time>2011-12-18T09:24:01Z</time>
      </trkpt>
      <trkpt lat="43.75785" lon="3.56015">
        <ele>329.1</ele>
        <time>2011-12-18T09:24:04Z</time>
      </trkpt>
      <trkpt lat="43.75783" lon="3.56011">
        <ele>328.6</ele>
        <time>2011-12-18T09:24:08Z</time>
      </trkpt>
      <trkpt lat="43.7578" lon="3.56006">
        <ele>328.8</ele>
        <time>2011-12-18T09:24:13Z</time>
      </trkpt>
      <trkpt lat="43.75778" lon="3.56002">
        <ele>328.9</ele>
        <time>2011-12-18T09:24:17Z</time>
      </trkpt>
      <trkpt lat="43.75776" lon="3.55999">
        <ele>329</ele>
        <time>2011-12-18T09:24:20Z</time>
      </trkpt>
      <trkpt lat="43.75773" lon="3.55994">
        <ele>329.4</ele>
        <time>2011-12-18T09:24:24Z</time>
      </trkpt>
      <trkpt lat="43.75771" lon="3.5599">
        <ele>330</ele>
        <time>2011-12-18T09:24:28Z</time>
      </trkpt>
      <trkpt lat="43.75768" lon="3.55986">
        <ele>331</ele>
        <time>2011-12-18T09:24:33Z</time>
      </trkpt>
      <trkpt lat="43.75767" lon="3.55981">
        <ele>332</ele>
        <time>2011-12-18T09:24:37Z</time>
      </trkpt>
      <trkpt lat="43.75765" lon="3.55976">
        <ele>332.2</ele>
        <time>2011-12-18T09:24:41Z</time>
      </trkpt>
      <trkpt lat="43.75762" lon="3.55971">
        <ele>332.7</ele>
        <time>2011-12-18T09:24:45Z</time>
      </trkpt>
      <trkpt lat="43.7576" lon="3.55967">
        <ele>333.2</ele>
        <time>2011-12-18T09:24:49Z</time>
      </trkpt>
      <trkpt lat="43.75757" lon="3.55963">
        <ele>333.2</ele>
        <time>2011-12-18T09:24:52Z</time>
      </trkpt>
      <trkpt lat="43.75755" lon="3.55959">
        <ele>333.6</ele>
        <time>2011-12-18T09:24:55Z</time>
      </trkpt>
      <trkpt lat="43.75755" lon="3.55958">
        <ele>333.9</ele>
        <time>2011-12-18T09:24:56Z</time>
      </trkpt>
      <trkpt lat="43.75751" lon="3.55951">
        <ele>333.4</ele>
        <time>2011-12-18T09:25:03Z</time>
      </trkpt>
      <trkpt lat="43.75749" lon="3.55946">
        <ele>333.8</ele>
        <time>2011-12-18T09:25:07Z</time>
      </trkpt>
      <trkpt lat="43.75746" lon="3.55942">
        <ele>334.8</ele>
        <time>2011-12-18T09:25:11Z</time>
      </trkpt>
      <trkpt lat="43.75744" lon="3.55939">
        <ele>334.2</ele>
        <time>2011-12-18T09:25:15Z</time>
      </trkpt>
      <trkpt lat="43.75741" lon="3.55935">
        <ele>333</ele>
        <time>2011-12-18T09:25:18Z</time>
      </trkpt>
      <trkpt lat="43.75739" lon="3.5593">
        <ele>332.8</ele>
        <time>2011-12-18T09:25:22Z</time>
      </trkpt>
      <trkpt lat="43.75737" lon="3.55926">
        <ele>333.2</ele>
        <time>2011-12-18T09:25:25Z</time>
      </trkpt>
      <trkpt lat="43.75734" lon="3.55921">
        <ele>334.8</ele>
        <time>2011-12-18T09:25:29Z</time>
      </trkpt>
      <trkpt lat="43.75732" lon="3.55916">
        <ele>334.5</ele>
        <time>2011-12-18T09:25:33Z</time>
      </trkpt>
      <trkpt lat="43.7573" lon="3.55912">
        <ele>334.3</ele>
        <time>2011-12-18T09:25:36Z</time>
      </trkpt>
      <trkpt lat="43.75728" lon="3.55907">
        <ele>334.1</ele>
        <time>2011-12-18T09:25:40Z</time>
      </trkpt>
      <trkpt lat="43.75726" lon="3.55903">
        <ele>333.4</ele>
        <time>2011-12-18T09:25:43Z</time>
      </trkpt>
      <trkpt lat="43.75724" lon="3.55898">
        <ele>332.3</ele>
        <time>2011-12-18T09:25:47Z</time>
      </trkpt>
      <trkpt lat="43.75722" lon="3.55893">
        <ele>332.7</ele>
        <time>2011-12-18T09:25:52Z</time>
      </trkpt>
      <trkpt lat="43.7572" lon="3.55887">
        <ele>332.9</ele>
        <time>2011-12-18T09:25:57Z</time>
      </trkpt>
      <trkpt lat="43.7572" lon="3.55886">
        <ele>332.8</ele>
        <time>2011-12-18T09:25:58Z</time>
      </trkpt>
      <trkpt lat="43.75715" lon="3.55878">
        <ele>334.6</ele>
        <time>2011-12-18T09:26:06Z</time>
      </trkpt>
      <trkpt lat="43.75713" lon="3.55873">
        <ele>335.2</ele>
        <time>2011-12-18T09:26:10Z</time>
      </trkpt>
      <trkpt lat="43.7571" lon="3.5587">
        <ele>336.2</ele>
        <time>2011-12-18T09:26:14Z</time>
      </trkpt>
      <trkpt lat="43.75708" lon="3.55866">
        <ele>336.9</ele>
        <time>2011-12-18T09:26:17Z</time>
      </trkpt>
      <trkpt lat="43.75706" lon="3.55861">
        <ele>336.6</ele>
        <time>2011-12-18T09:26:21Z</time>
      </trkpt>
      <trkpt lat="43.75704" lon="3.55855">
        <ele>336.3</ele>
        <time>2011-12-18T09:26:25Z</time>
      </trkpt>
      <trkpt lat="43.75703" lon="3.55849">
        <ele>336.7</ele>
        <time>2011-12-18T09:26:30Z</time>
      </trkpt>
      <trkpt lat="43.75703" lon="3.55844">
        <ele>337.3</ele>
        <time>2011-12-18T09:26:34Z</time>
      </trkpt>
      <trkpt lat="43.75702" lon="3.55838">
        <ele>338.2</ele>
        <time>2011-12-18T09:26:38Z</time>
      </trkpt>
      <trkpt lat="43.75702" lon="3.55832">
        <ele>338.8</ele>
        <time>2011-12-18T09:26:42Z</time>
      </trkpt>
      <trkpt lat="43.75703" lon="3.55827">
        <ele>338.2</ele>
        <time>2011-12-18T09:26:46Z</time>
      </trkpt>
      <trkpt lat="43.75702" lon="3.55822">
        <ele>338.9</ele>
        <time>2011-12-18T09:26:49Z</time>
      </trkpt>
      <trkpt lat="43.75701" lon="3.55816">
        <ele>339</ele>
        <time>2011-12-18T09:26:54Z</time>
      </trkpt>
      <trkpt lat="43.75702" lon="3.55811">
        <ele>338.9</ele>
        <time>2011-12-18T09:26:57Z</time>
      </trkpt>
      <trkpt lat="43.75701" lon="3.55806">
        <ele>338.8</ele>
        <time>2011-12-18T09:27:00Z</time>
      </trkpt>
      <trkpt lat="43.75702" lon="3.55805">
        <ele>338.7</ele>
        <time>2011-12-18T09:27:01Z</time>
      </trkpt>
      <trkpt lat="43.75702" lon="3.55795">
        <ele>339</ele>
        <time>2011-12-18T09:27:07Z</time>
      </trkpt>
      <trkpt lat="43.75704" lon="3.55789">
        <ele>339.3</ele>
        <time>2011-12-18T09:27:11Z</time>
      </trkpt>
      <trkpt lat="43.75705" lon="3.55783">
        <ele>339.9</ele>
        <time>2011-12-18T09:27:15Z</time>
      </trkpt>
      <trkpt lat="43.75706" lon="3.55778">
        <ele>339.6</ele>
        <time>2011-12-18T09:27:19Z</time>
      </trkpt>
      <trkpt lat="43.75706" lon="3.55772">
        <ele>339.6</ele>
        <time>2011-12-18T09:27:23Z</time>
      </trkpt>
      <trkpt lat="43.75706" lon="3.55766">
        <ele>339.1</ele>
        <time>2011-12-18T09:27:27Z</time>
      </trkpt>
      <trkpt lat="43.75706" lon="3.55761">
        <ele>338.3</ele>
        <time>2011-12-18T09:27:31Z</time>
      </trkpt>
      <trkpt lat="43.75705" lon="3.55755">
        <ele>338.7</ele>
        <time>2011-12-18T09:27:35Z</time>
      </trkpt>
      <trkpt lat="43.75704" lon="3.5575">
        <ele>338.8</ele>
        <time>2011-12-18T09:27:39Z</time>
      </trkpt>
      <trkpt lat="43.75704" lon="3.55745">
        <ele>338.9</ele>
        <time>2011-12-18T09:27:43Z</time>
      </trkpt>
      <trkpt lat="43.75702" lon="3.55739">
        <ele>339.5</ele>
        <time>2011-12-18T09:27:47Z</time>
      </trkpt>
      <trkpt lat="43.75701" lon="3.55735">
        <ele>340.1</ele>
        <time>2011-12-18T09:27:50Z</time>
      </trkpt>
      <trkpt lat="43.757" lon="3.5573">
        <ele>339.9</ele>
        <time>2011-12-18T09:27:53Z</time>
      </trkpt>
      <trkpt lat="43.75698" lon="3.55725">
        <ele>341</ele>
        <time>2011-12-18T09:27:57Z</time>
      </trkpt>
      <trkpt lat="43.75696" lon="3.55721">
        <ele>341.8</ele>
        <time>2011-12-18T09:28:00Z</time>
      </trkpt>
      <trkpt lat="43.75694" lon="3.55716">
        <ele>342.3</ele>
        <time>2011-12-18T09:28:03Z</time>
      </trkpt>
      <trkpt lat="43.75694" lon="3.55715">
        <ele>342.4</ele>
        <time>2011-12-18T09:28:04Z</time>
      </trkpt>
      <trkpt lat="43.7569" lon="3.55707">
        <ele>342.3</ele>
        <time>2011-12-18T09:28:09Z</time>
      </trkpt>
      <trkpt lat="43.75689" lon="3.55703">
        <ele>341.8</ele>
        <time>2011-12-18T09:28:12Z</time>
      </trkpt>
      <trkpt lat="43.75689" lon="3.55697">
        <ele>342.1</ele>
        <time>2011-12-18T09:28:16Z</time>
      </trkpt>
      <trkpt lat="43.75688" lon="3.55691">
        <ele>342.1</ele>
        <time>2011-12-18T09:28:21Z</time>
      </trkpt>
      <trkpt lat="43.75687" lon="3.55685">
        <ele>342.5</ele>
        <time>2011-12-18T09:28:26Z</time>
      </trkpt>
      <trkpt lat="43.75687" lon="3.5568">
        <ele>342</ele>
        <time>2011-12-18T09:28:32Z</time>
      </trkpt>
      <trkpt lat="43.75686" lon="3.55674">
        <ele>343.9</ele>
        <time>2011-12-18T09:28:39Z</time>
      </trkpt>
      <trkpt lat="43.75684" lon="3.55669">
        <ele>344.8</ele>
        <time>2011-12-18T09:28:56Z</time>
      </trkpt>
      <trkpt lat="43.75684" lon="3.55662">
        <ele>344.9</ele>
        <time>2011-12-18T09:29:07Z</time>
      </trkpt>
      <trkpt lat="43.75683" lon="3.55662">
        <ele>344.8</ele>
        <time>2011-12-18T09:29:08Z</time>
      </trkpt>
      <trkpt lat="43.75684" lon="3.55651">
        <ele>342.7</ele>
        <time>2011-12-18T09:29:30Z</time>
      </trkpt>
      <trkpt lat="43.75684" lon="3.55646">
        <ele>342.3</ele>
        <time>2011-12-18T09:29:35Z</time>
      </trkpt>
      <trkpt lat="43.75685" lon="3.55641">
        <ele>341.3</ele>
        <time>2011-12-18T09:29:39Z</time>
      </trkpt>
      <trkpt lat="43.75687" lon="3.55636">
        <ele>341.1</ele>
        <time>2011-12-18T09:29:44Z</time>
      </trkpt>
      <trkpt lat="43.75688" lon="3.55631">
        <ele>341.3</ele>
        <time>2011-12-18T09:29:48Z</time>
      </trkpt>
      <trkpt lat="43.75689" lon="3.55626">
        <ele>341.8</ele>
        <time>2011-12-18T09:29:53Z</time>
      </trkpt>
      <trkpt lat="43.75688" lon="3.55621">
        <ele>340.5</ele>
        <time>2011-12-18T09:29:58Z</time>
      </trkpt>
      <trkpt lat="43.75688" lon="3.55615">
        <ele>339.5</ele>
        <time>2011-12-18T09:30:03Z</time>
      </trkpt>
      <trkpt lat="43.75687" lon="3.5561">
        <ele>339.1</ele>
        <time>2011-12-18T09:30:09Z</time>
      </trkpt>
      <trkpt lat="43.75687" lon="3.55609">
        <ele>339</ele>
        <time>2011-12-18T09:30:10Z</time>
      </trkpt>
      <trkpt lat="43.75687" lon="3.55599">
        <ele>338.4</ele>
        <time>2011-12-18T09:30:19Z</time>
      </trkpt>
      <trkpt lat="43.75686" lon="3.55594">
        <ele>339.1</ele>
        <time>2011-12-18T09:30:23Z</time>
      </trkpt>
      <trkpt lat="43.75686" lon="3.55588">
        <ele>337.7</ele>
        <time>2011-12-18T09:30:28Z</time>
      </trkpt>
      <trkpt lat="43.75686" lon="3.55583">
        <ele>337.3</ele>
        <time>2011-12-18T09:30:35Z</time>
      </trkpt>
      <trkpt lat="43.75686" lon="3.55577">
        <ele>337</ele>
        <time>2011-12-18T09:30:42Z</time>
      </trkpt>
      <trkpt lat="43.75687" lon="3.55571">
        <ele>335.7</ele>
        <time>2011-12-18T09:30:49Z</time>
      </trkpt>
      <trkpt lat="43.75687" lon="3.55566">
        <ele>334</ele>
        <time>2011-12-18T09:30:55Z</time>
      </trkpt>
      <trkpt lat="43.75687" lon="3.5556">
        <ele>333.6</ele>
        <time>2011-12-18T09:31:00Z</time>
      </trkpt>
      <trkpt lat="43.75686" lon="3.55555">
        <ele>332.9</ele>
        <time>2011-12-18T09:31:05Z</time>
      </trkpt>
      <trkpt lat="43.75685" lon="3.55549">
        <ele>332.4</ele>
        <time>2011-12-18T09:31:11Z</time>
      </trkpt>
      <trkpt lat="43.75685" lon="3.55548">
        <ele>332.7</ele>
        <time>2011-12-18T09:31:12Z</time>
      </trkpt>
      <trkpt lat="43.75684" lon="3.55539">
        <ele>331.8</ele>
        <time>2011-12-18T09:31:22Z</time>
      </trkpt>
      <trkpt lat="43.75684" lon="3.55533">
        <ele>331.7</ele>
        <time>2011-12-18T09:31:27Z</time>
      </trkpt>
      <trkpt lat="43.75683" lon="3.55527">
        <ele>330.6</ele>
        <time>2011-12-18T09:31:33Z</time>
      </trkpt>
      <trkpt lat="43.75681" lon="3.55522">
        <ele>330.4</ele>
        <time>2011-12-18T09:31:39Z</time>
      </trkpt>
      <trkpt lat="43.75679" lon="3.55518">
        <ele>329.7</ele>
        <time>2011-12-18T09:31:44Z</time>
      </trkpt>
      <trkpt lat="43.75676" lon="3.55514">
        <ele>330.3</ele>
        <time>2011-12-18T09:31:48Z</time>
      </trkpt>
      <trkpt lat="43.75674" lon="3.5551">
        <ele>331</ele>
        <time>2011-12-18T09:31:53Z</time>
      </trkpt>
      <trkpt lat="43.75669" lon="3.55508">
        <ele>331.3</ele>
        <time>2011-12-18T09:32:03Z</time>
      </trkpt>
      <trkpt lat="43.75665" lon="3.55506">
        <ele>331.9</ele>
        <time>2011-12-18T09:32:17Z</time>
      </trkpt>
      <trkpt lat="43.75665" lon="3.55506">
        <ele>331.9</ele>
        <time>2011-12-18T09:32:18Z</time>
      </trkpt>
      <trkpt lat="43.75661" lon="3.55509">
        <ele>333.8</ele>
        <time>2011-12-18T09:33:31Z</time>
      </trkpt>
      <trkpt lat="43.75666" lon="3.55499">
        <ele>332.2</ele>
        <time>2011-12-18T09:34:22Z</time>
      </trkpt>
      <trkpt lat="43.75668" lon="3.55493">
        <ele>330.9</ele>
        <time>2011-12-18T09:34:34Z</time>
      </trkpt>
      <trkpt lat="43.75668" lon="3.55492">
        <ele>330.9</ele>
        <time>2011-12-18T09:34:35Z</time>
      </trkpt>
      <trkpt lat="43.75671" lon="3.55482">
        <ele>329.4</ele>
        <time>2011-12-18T09:35:08Z</time>
      </trkpt>
      <trkpt lat="43.75672" lon="3.55477">
        <ele>330.2</ele>
        <time>2011-12-18T09:35:27Z</time>
      </trkpt>
      <trkpt lat="43.75675" lon="3.55472">
        <ele>329</ele>
        <time>2011-12-18T09:35:34Z</time>
      </trkpt>
      <trkpt lat="43.75676" lon="3.55466">
        <ele>326.8</ele>
        <time>2011-12-18T09:35:43Z</time>
      </trkpt>
      <trkpt lat="43.75676" lon="3.55465">
        <ele>326.5</ele>
        <time>2011-12-18T09:35:44Z</time>
      </trkpt>
      <trkpt lat="43.75678" lon="3.55455">
        <ele>326</ele>
        <time>2011-12-18T09:35:53Z</time>
      </trkpt>
      <trkpt lat="43.75678" lon="3.5545">
        <ele>325.4</ele>
        <time>2011-12-18T09:35:58Z</time>
      </trkpt>
      <trkpt lat="43.75679" lon="3.55445">
        <ele>323.8</ele>
        <time>2011-12-18T09:36:03Z</time>
      </trkpt>
      <trkpt lat="43.7568" lon="3.55439">
        <ele>323.4</ele>
        <time>2011-12-18T09:36:08Z</time>
      </trkpt>
      <trkpt lat="43.7568" lon="3.55434">
        <ele>322.5</ele>
        <time>2011-12-18T09:36:13Z</time>
      </trkpt>
      <trkpt lat="43.7568" lon="3.55428">
        <ele>322.1</ele>
        <time>2011-12-18T09:36:18Z</time>
      </trkpt>
      <trkpt lat="43.7568" lon="3.55422">
        <ele>321.8</ele>
        <time>2011-12-18T09:36:24Z</time>
      </trkpt>
      <trkpt lat="43.75679" lon="3.55418">
        <ele>321.6</ele>
        <time>2011-12-18T09:36:28Z</time>
      </trkpt>
      <trkpt lat="43.75678" lon="3.55412">
        <ele>320.7</ele>
        <time>2011-12-18T09:36:32Z</time>
      </trkpt>
      <trkpt lat="43.75678" lon="3.55407">
        <ele>320.7</ele>
        <time>2011-12-18T09:36:36Z</time>
      </trkpt>
      <trkpt lat="43.75678" lon="3.55401">
        <ele>320</ele>
        <time>2011-12-18T09:36:40Z</time>
      </trkpt>
      <trkpt lat="43.75678" lon="3.55396">
        <ele>319</ele>
        <time>2011-12-18T09:36:44Z</time>
      </trkpt>
      <trkpt lat="43.75678" lon="3.55395">
        <ele>319.2</ele>
        <time>2011-12-18T09:36:45Z</time>
      </trkpt>
      <trkpt lat="43.75676" lon="3.55385">
        <ele>318.3</ele>
        <time>2011-12-18T09:36:54Z</time>
      </trkpt>
      <trkpt lat="43.75676" lon="3.55379">
        <ele>317.8</ele>
        <time>2011-12-18T09:36:58Z</time>
      </trkpt>
      <trkpt lat="43.75675" lon="3.55373">
        <ele>318.8</ele>
        <time>2011-12-18T09:37:04Z</time>
      </trkpt>
      <trkpt lat="43.75673" lon="3.55368">
        <ele>318.8</ele>
        <time>2011-12-18T09:37:09Z</time>
      </trkpt>
      <trkpt lat="43.7567" lon="3.55365">
        <ele>319.2</ele>
        <time>2011-12-18T09:37:14Z</time>
      </trkpt>
      <trkpt lat="43.75666" lon="3.55363">
        <ele>318.9</ele>
        <time>2011-12-18T09:37:19Z</time>
      </trkpt>
      <trkpt lat="43.75662" lon="3.55359">
        <ele>318.9</ele>
        <time>2011-12-18T09:37:24Z</time>
      </trkpt>
      <trkpt lat="43.75658" lon="3.55358">
        <ele>318.9</ele>
        <time>2011-12-18T09:37:29Z</time>
      </trkpt>
      <trkpt lat="43.75655" lon="3.55356">
        <ele>319.4</ele>
        <time>2011-12-18T09:37:33Z</time>
      </trkpt>
      <trkpt lat="43.75651" lon="3.55355">
        <ele>319.8</ele>
        <time>2011-12-18T09:37:37Z</time>
      </trkpt>
      <trkpt lat="43.75647" lon="3.55354">
        <ele>321.6</ele>
        <time>2011-12-18T09:37:42Z</time>
      </trkpt>
      <trkpt lat="43.75642" lon="3.55355">
        <ele>322.3</ele>
        <time>2011-12-18T09:37:47Z</time>
      </trkpt>
      <trkpt lat="43.75641" lon="3.55354">
        <ele>321.9</ele>
        <time>2011-12-18T09:37:48Z</time>
      </trkpt>
      <trkpt lat="43.75634" lon="3.55353">
        <ele>322.6</ele>
        <time>2011-12-18T09:37:56Z</time>
      </trkpt>
      <trkpt lat="43.7563" lon="3.55351">
        <ele>322.9</ele>
        <time>2011-12-18T09:38:01Z</time>
      </trkpt>
      <trkpt lat="43.75626" lon="3.55351">
        <ele>322.4</ele>
        <time>2011-12-18T09:38:06Z</time>
      </trkpt>
      <trkpt lat="43.75622" lon="3.55352">
        <ele>321.2</ele>
        <time>2011-12-18T09:38:11Z</time>
      </trkpt>
      <trkpt lat="43.75618" lon="3.55351">
        <ele>319.5</ele>
        <time>2011-12-18T09:38:15Z</time>
      </trkpt>
      <trkpt lat="43.75614" lon="3.5535">
        <ele>319.5</ele>
        <time>2011-12-18T09:38:20Z</time>
      </trkpt>
      <trkpt lat="43.75609" lon="3.5535">
        <ele>319.3</ele>
        <time>2011-12-18T09:38:25Z</time>
      </trkpt>
      <trkpt lat="43.75605" lon="3.5535">
        <ele>319.7</ele>
        <time>2011-12-18T09:38:30Z</time>
      </trkpt>
      <trkpt lat="43.75601" lon="3.5535">
        <ele>320.9</ele>
        <time>2011-12-18T09:38:35Z</time>
      </trkpt>
      <trkpt lat="43.75597" lon="3.55351">
        <ele>320.5</ele>
        <time>2011-12-18T09:38:44Z</time>
      </trkpt>
      <trkpt lat="43.75592" lon="3.55351">
        <ele>320.5</ele>
        <time>2011-12-18T09:38:49Z</time>
      </trkpt>
      <trkpt lat="43.75592" lon="3.55351">
        <ele>320.5</ele>
        <time>2011-12-18T09:38:50Z</time>
      </trkpt>
      <trkpt lat="43.75585" lon="3.55351">
        <ele>322</ele>
        <time>2011-12-18T09:39:00Z</time>
      </trkpt>
      <trkpt lat="43.7558" lon="3.55352">
        <ele>322.1</ele>
        <time>2011-12-18T09:39:07Z</time>
      </trkpt>
      <trkpt lat="43.75576" lon="3.55354">
        <ele>323.1</ele>
        <time>2011-12-18T09:39:14Z</time>
      </trkpt>
      <trkpt lat="43.75573" lon="3.55356">
        <ele>323.3</ele>
        <time>2011-12-18T09:39:18Z</time>
      </trkpt>
      <trkpt lat="43.75569" lon="3.55359">
        <ele>324.2</ele>
        <time>2011-12-18T09:39:23Z</time>
      </trkpt>
      <trkpt lat="43.75567" lon="3.55363">
        <ele>324.5</ele>
        <time>2011-12-18T09:39:26Z</time>
      </trkpt>
      <trkpt lat="43.75563" lon="3.55366">
        <ele>324</ele>
        <time>2011-12-18T09:39:31Z</time>
      </trkpt>
      <trkpt lat="43.7556" lon="3.55368">
        <ele>325.2</ele>
        <time>2011-12-18T09:39:38Z</time>
      </trkpt>
      <trkpt lat="43.75557" lon="3.55373">
        <ele>325.6</ele>
        <time>2011-12-18T09:39:44Z</time>
      </trkpt>
      <trkpt lat="43.75553" lon="3.55374">
        <ele>326.2</ele>
        <time>2011-12-18T09:39:49Z</time>
      </trkpt>
      <trkpt lat="43.75549" lon="3.55374">
        <ele>326.6</ele>
        <time>2011-12-18T09:39:54Z</time>
      </trkpt>
      <trkpt lat="43.75548" lon="3.55374">
        <ele>326.4</ele>
        <time>2011-12-18T09:39:55Z</time>
      </trkpt>
      <trkpt lat="43.75541" lon="3.55377">
        <ele>327.5</ele>
        <time>2011-12-18T09:40:08Z</time>
      </trkpt>
      <trkpt lat="43.75537" lon="3.55379">
        <ele>328.2</ele>
        <time>2011-12-18T09:40:16Z</time>
      </trkpt>
      <trkpt lat="43.75534" lon="3.55382">
        <ele>327.4</ele>
        <time>2011-12-18T09:40:24Z</time>
      </trkpt>
      <trkpt lat="43.7553" lon="3.55383">
        <ele>328.2</ele>
        <time>2011-12-18T09:40:33Z</time>
      </trkpt>
      <trkpt lat="43.75526" lon="3.55382">
        <ele>328.6</ele>
        <time>2011-12-18T09:40:41Z</time>
      </trkpt>
      <trkpt lat="43.75522" lon="3.5538">
        <ele>329.2</ele>
        <time>2011-12-18T09:40:49Z</time>
      </trkpt>
      <trkpt lat="43.75518" lon="3.55379">
        <ele>328.2</ele>
        <time>2011-12-18T09:40:55Z</time>
      </trkpt>
      <trkpt lat="43.75517" lon="3.55379">
        <ele>328.1</ele>
        <time>2011-12-18T09:40:56Z</time>
      </trkpt>
      <trkpt lat="43.7551" lon="3.55381">
        <ele>329.8</ele>
        <time>2011-12-18T09:41:07Z</time>
      </trkpt>
      <trkpt lat="43.75506" lon="3.55382">
        <ele>330.2</ele>
        <time>2011-12-18T09:41:13Z</time>
      </trkpt>
      <trkpt lat="43.75502" lon="3.55383">
        <ele>330.2</ele>
        <time>2011-12-18T09:41:18Z</time>
      </trkpt>
      <trkpt lat="43.75498" lon="3.55385">
        <ele>329.9</ele>
        <time>2011-12-18T09:41:22Z</time>
      </trkpt>
      <trkpt lat="43.75495" lon="3.55386">
        <ele>330.2</ele>
        <time>2011-12-18T09:41:26Z</time>
      </trkpt>
      <trkpt lat="43.75492" lon="3.55389">
        <ele>330</ele>
        <time>2011-12-18T09:41:29Z</time>
      </trkpt>
      <trkpt lat="43.75488" lon="3.55391">
        <ele>329.2</ele>
        <time>2011-12-18T09:41:33Z</time>
      </trkpt>
      <trkpt lat="43.75485" lon="3.55393">
        <ele>328.3</ele>
        <time>2011-12-18T09:41:37Z</time>
      </trkpt>
      <trkpt lat="43.75481" lon="3.55395">
        <ele>328.6</ele>
        <time>2011-12-18T09:41:42Z</time>
      </trkpt>
      <trkpt lat="43.75476" lon="3.55395">
        <ele>328.8</ele>
        <time>2011-12-18T09:41:47Z</time>
      </trkpt>
      <trkpt lat="43.75473" lon="3.55396">
        <ele>327.9</ele>
        <time>2011-12-18T09:41:52Z</time>
      </trkpt>
      <trkpt lat="43.75469" lon="3.55396">
        <ele>327.8</ele>
        <time>2011-12-18T09:41:56Z</time>
      </trkpt>
      <trkpt lat="43.75468" lon="3.55396">
        <ele>328.1</ele>
        <time>2011-12-18T09:41:57Z</time>
      </trkpt>
      <trkpt lat="43.75461" lon="3.55395">
        <ele>326.1</ele>
        <time>2011-12-18T09:42:08Z</time>
      </trkpt>
      <trkpt lat="43.75457" lon="3.55394">
        <ele>325.8</ele>
        <time>2011-12-18T09:42:12Z</time>
      </trkpt>
      <trkpt lat="43.75453" lon="3.55393">
        <ele>326.8</ele>
        <time>2011-12-18T09:42:17Z</time>
      </trkpt>
      <trkpt lat="43.75449" lon="3.55392">
        <ele>327.3</ele>
        <time>2011-12-18T09:42:21Z</time>
      </trkpt>
      <trkpt lat="43.75446" lon="3.55389">
        <ele>327.8</ele>
        <time>2011-12-18T09:42:25Z</time>
      </trkpt>
      <trkpt lat="43.75442" lon="3.55386">
        <ele>327.6</ele>
        <time>2011-12-18T09:42:29Z</time>
      </trkpt>
      <trkpt lat="43.75438" lon="3.55384">
        <ele>327.4</ele>
        <time>2011-12-18T09:42:34Z</time>
      </trkpt>
      <trkpt lat="43.75434" lon="3.55382">
        <ele>325</ele>
        <time>2011-12-18T09:42:39Z</time>
      </trkpt>
      <trkpt lat="43.75431" lon="3.55379">
        <ele>326</ele>
        <time>2011-12-18T09:42:43Z</time>
      </trkpt>
      <trkpt lat="43.75427" lon="3.55376">
        <ele>325.7</ele>
        <time>2011-12-18T09:42:48Z</time>
      </trkpt>
      <trkpt lat="43.75424" lon="3.55374">
        <ele>324.7</ele>
        <time>2011-12-18T09:42:52Z</time>
      </trkpt>
      <trkpt lat="43.75421" lon="3.55371">
        <ele>324.1</ele>
        <time>2011-12-18T09:42:56Z</time>
      </trkpt>
      <trkpt lat="43.75417" lon="3.5537">
        <ele>324.4</ele>
        <time>2011-12-18T09:43:00Z</time>
      </trkpt>
      <trkpt lat="43.75416" lon="3.5537">
        <ele>324.1</ele>
        <time>2011-12-18T09:43:01Z</time>
      </trkpt>
      <trkpt lat="43.75409" lon="3.55367">
        <ele>323.9</ele>
        <time>2011-12-18T09:43:07Z</time>
      </trkpt>
      <trkpt lat="43.75405" lon="3.55366">
        <ele>324.1</ele>
        <time>2011-12-18T09:43:10Z</time>
      </trkpt>
      <trkpt lat="43.75402" lon="3.55366">
        <ele>323.7</ele>
        <time>2011-12-18T09:43:13Z</time>
      </trkpt>
      <trkpt lat="43.75397" lon="3.55365">
        <ele>324</ele>
        <time>2011-12-18T09:43:17Z</time>
      </trkpt>
      <trkpt lat="43.75393" lon="3.55364">
        <ele>323.2</ele>
        <time>2011-12-18T09:43:22Z</time>
      </trkpt>
      <trkpt lat="43.7539" lon="3.55362">
        <ele>322</ele>
        <time>2011-12-18T09:43:25Z</time>
      </trkpt>
      <trkpt lat="43.75386" lon="3.5536">
        <ele>321.5</ele>
        <time>2011-12-18T09:43:29Z</time>
      </trkpt>
      <trkpt lat="43.75383" lon="3.55356">
        <ele>321.9</ele>
        <time>2011-12-18T09:43:34Z</time>
      </trkpt>
      <trkpt lat="43.75378" lon="3.55355">
        <ele>323.1</ele>
        <time>2011-12-18T09:43:45Z</time>
      </trkpt>
      <trkpt lat="43.75376" lon="3.55351">
        <ele>322.3</ele>
        <time>2011-12-18T09:43:49Z</time>
      </trkpt>
      <trkpt lat="43.75373" lon="3.55347">
        <ele>321.9</ele>
        <time>2011-12-18T09:43:54Z</time>
      </trkpt>
      <trkpt lat="43.75371" lon="3.55342">
        <ele>319.7</ele>
        <time>2011-12-18T09:44:04Z</time>
      </trkpt>
      <trkpt lat="43.7537" lon="3.55342">
        <ele>319.7</ele>
        <time>2011-12-18T09:44:05Z</time>
      </trkpt>
      <trkpt lat="43.75366" lon="3.55333">
        <ele>318.2</ele>
        <time>2011-12-18T09:44:24Z</time>
      </trkpt>
      <trkpt lat="43.75363" lon="3.55328">
        <ele>317.7</ele>
        <time>2011-12-18T09:44:33Z</time>
      </trkpt>
      <trkpt lat="43.7536" lon="3.55324">
        <ele>316.7</ele>
        <time>2011-12-18T09:44:42Z</time>
      </trkpt>
      <trkpt lat="43.75357" lon="3.5532">
        <ele>316.1</ele>
        <time>2011-12-18T09:44:55Z</time>
      </trkpt>
      <trkpt lat="43.75354" lon="3.55316">
        <ele>315.5</ele>
        <time>2011-12-18T09:45:05Z</time>
      </trkpt>
      <trkpt lat="43.75354" lon="3.55316">
        <ele>315.2</ele>
        <time>2011-12-18T09:45:06Z</time>
      </trkpt>
      <trkpt lat="43.7535" lon="3.55306">
        <ele>311.2</ele>
        <time>2011-12-18T09:45:33Z</time>
      </trkpt>
      <trkpt lat="43.75349" lon="3.553">
        <ele>309.5</ele>
        <time>2011-12-18T09:45:43Z</time>
      </trkpt>
      <trkpt lat="43.75347" lon="3.55295">
        <ele>306.6</ele>
        <time>2011-12-18T09:45:53Z</time>
      </trkpt>
      <trkpt lat="43.75345" lon="3.5529">
        <ele>304.8</ele>
        <time>2011-12-18T09:45:58Z</time>
      </trkpt>
      <trkpt lat="43.75344" lon="3.55285">
        <ele>304.7</ele>
        <time>2011-12-18T09:46:02Z</time>
      </trkpt>
      <trkpt lat="43.75343" lon="3.5528">
        <ele>304.3</ele>
        <time>2011-12-18T09:46:06Z</time>
      </trkpt>
      <trkpt lat="43.75343" lon="3.55278">
        <ele>304.4</ele>
        <time>2011-12-18T09:46:07Z</time>
      </trkpt>
      <trkpt lat="43.75339" lon="3.55271">
        <ele>302.2</ele>
        <time>2011-12-18T09:46:16Z</time>
      </trkpt>
      <trkpt lat="43.75337" lon="3.55266">
        <ele>301.9</ele>
        <time>2011-12-18T09:46:19Z</time>
      </trkpt>
      <trkpt lat="43.75335" lon="3.55261">
        <ele>301.5</ele>
        <time>2011-12-18T09:46:23Z</time>
      </trkpt>
      <trkpt lat="43.75333" lon="3.55256">
        <ele>301</ele>
        <time>2011-12-18T09:46:27Z</time>
      </trkpt>
      <trkpt lat="43.75332" lon="3.5525">
        <ele>300.4</ele>
        <time>2011-12-18T09:46:32Z</time>
      </trkpt>
      <trkpt lat="43.75332" lon="3.55244">
        <ele>299.5</ele>
        <time>2011-12-18T09:46:37Z</time>
      </trkpt>
      <trkpt lat="43.75329" lon="3.55241">
        <ele>299.8</ele>
        <time>2011-12-18T09:46:41Z</time>
      </trkpt>
      <trkpt lat="43.75326" lon="3.55237">
        <ele>299.5</ele>
        <time>2011-12-18T09:46:45Z</time>
      </trkpt>
      <trkpt lat="43.75323" lon="3.55233">
        <ele>298.6</ele>
        <time>2011-12-18T09:46:49Z</time>
      </trkpt>
      <trkpt lat="43.7532" lon="3.55229">
        <ele>298.3</ele>
        <time>2011-12-18T09:46:53Z</time>
      </trkpt>
      <trkpt lat="43.75316" lon="3.55226">
        <ele>299</ele>
        <time>2011-12-18T09:46:58Z</time>
      </trkpt>
      <trkpt lat="43.75312" lon="3.55224">
        <ele>299.1</ele>
        <time>2011-12-18T09:47:02Z</time>
      </trkpt>
      <trkpt lat="43.75309" lon="3.5522">
        <ele>298.7</ele>
        <time>2011-12-18T09:47:06Z</time>
      </trkpt>
      <trkpt lat="43.75306" lon="3.55218">
        <ele>298.6</ele>
        <time>2011-12-18T09:47:10Z</time>
      </trkpt>
      <trkpt lat="43.75305" lon="3.55218">
        <ele>298.4</ele>
        <time>2011-12-18T09:47:11Z</time>
      </trkpt>
      <trkpt lat="43.75298" lon="3.55215">
        <ele>298.3</ele>
        <time>2011-12-18T09:47:21Z</time>
      </trkpt>
      <trkpt lat="43.75294" lon="3.55214">
        <ele>300.5</ele>
        <time>2011-12-18T09:47:26Z</time>
      </trkpt>
      <trkpt lat="43.7529" lon="3.55212">
        <ele>300.9</ele>
        <time>2011-12-18T09:47:34Z</time>
      </trkpt>
      <trkpt lat="43.75286" lon="3.5521">
        <ele>301.9</ele>
        <time>2011-12-18T09:47:43Z</time>
      </trkpt>
      <trkpt lat="43.75282" lon="3.5521">
        <ele>302.2</ele>
        <time>2011-12-18T09:47:54Z</time>
      </trkpt>
      <trkpt lat="43.75278" lon="3.55212">
        <ele>301.9</ele>
        <time>2011-12-18T09:48:04Z</time>
      </trkpt>
      <trkpt lat="43.75274" lon="3.55214">
        <ele>302.3</ele>
        <time>2011-12-18T09:48:14Z</time>
      </trkpt>
      <trkpt lat="43.75273" lon="3.55214">
        <ele>302.2</ele>
        <time>2011-12-18T09:48:15Z</time>
      </trkpt>
      <trkpt lat="43.75266" lon="3.55219">
        <ele>304.2</ele>
        <time>2011-12-18T09:48:37Z</time>
      </trkpt>
      <trkpt lat="43.75264" lon="3.55224">
        <ele>304.1</ele>
        <time>2011-12-18T09:48:50Z</time>
      </trkpt>
      <trkpt lat="43.75263" lon="3.5523">
        <ele>304.2</ele>
        <time>2011-12-18T09:49:01Z</time>
      </trkpt>
      <trkpt lat="43.7526" lon="3.55234">
        <ele>303.2</ele>
        <time>2011-12-18T09:49:10Z</time>
      </trkpt>
      <trkpt lat="43.75256" lon="3.55237">
        <ele>303.4</ele>
        <time>2011-12-18T09:49:16Z</time>
      </trkpt>
      <trkpt lat="43.75255" lon="3.55237">
        <ele>303.7</ele>
        <time>2011-12-18T09:49:17Z</time>
      </trkpt>
      <trkpt lat="43.75249" lon="3.55242">
        <ele>304.2</ele>
        <time>2011-12-18T09:49:24Z</time>
      </trkpt>
      <trkpt lat="43.75246" lon="3.55243">
        <ele>303.6</ele>
        <time>2011-12-18T09:49:28Z</time>
      </trkpt>
      <trkpt lat="43.75242" lon="3.55244">
        <ele>303.9</ele>
        <time>2011-12-18T09:49:32Z</time>
      </trkpt>
      <trkpt lat="43.75238" lon="3.55245">
        <ele>304.5</ele>
        <time>2011-12-18T09:49:36Z</time>
      </trkpt>
      <trkpt lat="43.75234" lon="3.55245">
        <ele>304.8</ele>
        <time>2011-12-18T09:49:41Z</time>
      </trkpt>
      <trkpt lat="43.7523" lon="3.55245">
        <ele>304.5</ele>
        <time>2011-12-18T09:49:47Z</time>
      </trkpt>
      <trkpt lat="43.75226" lon="3.55245">
        <ele>304</ele>
        <time>2011-12-18T09:49:52Z</time>
      </trkpt>
      <trkpt lat="43.75222" lon="3.55246">
        <ele>303.9</ele>
        <time>2011-12-18T09:49:56Z</time>
      </trkpt>
      <trkpt lat="43.75218" lon="3.55245">
        <ele>303.8</ele>
        <time>2011-12-18T09:50:00Z</time>
      </trkpt>
      <trkpt lat="43.75214" lon="3.55245">
        <ele>304.3</ele>
        <time>2011-12-18T09:50:04Z</time>
      </trkpt>
      <trkpt lat="43.7521" lon="3.55247">
        <ele>304.3</ele>
        <time>2011-12-18T09:50:08Z</time>
      </trkpt>
      <trkpt lat="43.75207" lon="3.55251">
        <ele>303.5</ele>
        <time>2011-12-18T09:50:13Z</time>
      </trkpt>
      <trkpt lat="43.75204" lon="3.55255">
        <ele>301.9</ele>
        <time>2011-12-18T09:50:19Z</time>
      </trkpt>
      <trkpt lat="43.75203" lon="3.55255">
        <ele>301.9</ele>
        <time>2011-12-18T09:50:20Z</time>
      </trkpt>
      <trkpt lat="43.75197" lon="3.55259">
        <ele>301.9</ele>
        <time>2011-12-18T09:50:29Z</time>
      </trkpt>
      <trkpt lat="43.75193" lon="3.55261">
        <ele>301.6</ele>
        <time>2011-12-18T09:50:34Z</time>
      </trkpt>
      <trkpt lat="43.75189" lon="3.55262">
        <ele>301.1</ele>
        <time>2011-12-18T09:50:39Z</time>
      </trkpt>
      <trkpt lat="43.75185" lon="3.55264">
        <ele>301.4</ele>
        <time>2011-12-18T09:50:44Z</time>
      </trkpt>
      <trkpt lat="43.75181" lon="3.55265">
        <ele>302.2</ele>
        <time>2011-12-18T09:50:48Z</time>
      </trkpt>
      <trkpt lat="43.75177" lon="3.55266">
        <ele>303.6</ele>
        <time>2011-12-18T09:50:53Z</time>
      </trkpt>
      <trkpt lat="43.75173" lon="3.55267">
        <ele>303.4</ele>
        <time>2011-12-18T09:50:58Z</time>
      </trkpt>
      <trkpt lat="43.75168" lon="3.55267">
        <ele>304.1</ele>
        <time>2011-12-18T09:51:03Z</time>
      </trkpt>
      <trkpt lat="43.75164" lon="3.55266">
        <ele>304.8</ele>
        <time>2011-12-18T09:51:09Z</time>
      </trkpt>
      <trkpt lat="43.7516" lon="3.55264">
        <ele>304.6</ele>
        <time>2011-12-18T09:51:16Z</time>
      </trkpt>
      <trkpt lat="43.75156" lon="3.55264">
        <ele>303</ele>
        <time>2011-12-18T09:51:22Z</time>
      </trkpt>
      <trkpt lat="43.75155" lon="3.55264">
        <ele>302.9</ele>
        <time>2011-12-18T09:51:23Z</time>
      </trkpt>
      <trkpt lat="43.75149" lon="3.5526">
        <ele>303.5</ele>
        <time>2011-12-18T09:51:33Z</time>
      </trkpt>
      <trkpt lat="43.75145" lon="3.55258">
        <ele>303.8</ele>
        <time>2011-12-18T09:51:38Z</time>
      </trkpt>
      <trkpt lat="43.75141" lon="3.55256">
        <ele>302.9</ele>
        <time>2011-12-18T09:51:42Z</time>
      </trkpt>
      <trkpt lat="43.75138" lon="3.55253">
        <ele>302.7</ele>
        <time>2011-12-18T09:51:46Z</time>
      </trkpt>
      <trkpt lat="43.75134" lon="3.5525">
        <ele>302.2</ele>
        <time>2011-12-18T09:51:50Z</time>
      </trkpt>
      <trkpt lat="43.7513" lon="3.55248">
        <ele>302.3</ele>
        <time>2011-12-18T09:51:54Z</time>
      </trkpt>
      <trkpt lat="43.75125" lon="3.55246">
        <ele>301.9</ele>
        <time>2011-12-18T09:51:58Z</time>
      </trkpt>
      <trkpt lat="43.75122" lon="3.55245">
        <ele>302.2</ele>
        <time>2011-12-18T09:52:01Z</time>
      </trkpt>
      <trkpt lat="43.75118" lon="3.55245">
        <ele>302.2</ele>
        <time>2011-12-18T09:52:04Z</time>
      </trkpt>
      <trkpt lat="43.75113" lon="3.55245">
        <ele>302.1</ele>
        <time>2011-12-18T09:52:08Z</time>
      </trkpt>
      <trkpt lat="43.75109" lon="3.55244">
        <ele>300.8</ele>
        <time>2011-12-18T09:52:15Z</time>
      </trkpt>
      <trkpt lat="43.75105" lon="3.55241">
        <ele>302.5</ele>
        <time>2011-12-18T09:52:22Z</time>
      </trkpt>
      <trkpt lat="43.75101" lon="3.55238">
        <ele>302.1</ele>
        <time>2011-12-18T09:52:34Z</time>
      </trkpt>
      <trkpt lat="43.75101" lon="3.55238">
        <ele>302.6</ele>
        <time>2011-12-18T09:52:35Z</time>
      </trkpt>
      <trkpt lat="43.75095" lon="3.5523">
        <ele>301.6</ele>
        <time>2011-12-18T09:52:53Z</time>
      </trkpt>
      <trkpt lat="43.75093" lon="3.55226">
        <ele>301</ele>
        <time>2011-12-18T09:53:00Z</time>
      </trkpt>
      <trkpt lat="43.75094" lon="3.5522">
        <ele>299.7</ele>
        <time>2011-12-18T09:53:14Z</time>
      </trkpt>
      <trkpt lat="43.75094" lon="3.55214">
        <ele>300.1</ele>
        <time>2011-12-18T09:53:32Z</time>
      </trkpt>
      <trkpt lat="43.75091" lon="3.5521">
        <ele>299.1</ele>
        <time>2011-12-18T09:54:03Z</time>
      </trkpt>
      <trkpt lat="43.7509" lon="3.55209">
        <ele>299.7</ele>
        <time>2011-12-18T09:54:04Z</time>
      </trkpt>
      <trkpt lat="43.75093" lon="3.55199">
        <ele>300.2</ele>
        <time>2011-12-18T09:54:17Z</time>
      </trkpt>
      <trkpt lat="43.75095" lon="3.55193">
        <ele>298.8</ele>
        <time>2011-12-18T09:54:25Z</time>
      </trkpt>
      <trkpt lat="43.75095" lon="3.55188">
        <ele>295.8</ele>
        <time>2011-12-18T09:54:34Z</time>
      </trkpt>
      <trkpt lat="43.75093" lon="3.55183">
        <ele>293.7</ele>
        <time>2011-12-18T09:54:45Z</time>
      </trkpt>
      <trkpt lat="43.75091" lon="3.55179">
        <ele>293.8</ele>
        <time>2011-12-18T09:54:51Z</time>
      </trkpt>
      <trkpt lat="43.7509" lon="3.55173">
        <ele>294.6</ele>
        <time>2011-12-18T09:54:59Z</time>
      </trkpt>
      <trkpt lat="43.75087" lon="3.55169">
        <ele>292.1</ele>
        <time>2011-12-18T09:55:14Z</time>
      </trkpt>
      <trkpt lat="43.75086" lon="3.55169">
        <ele>292.1</ele>
        <time>2011-12-18T09:55:15Z</time>
      </trkpt>
      <trkpt lat="43.75083" lon="3.5516">
        <ele>293.2</ele>
        <time>2011-12-18T09:55:23Z</time>
      </trkpt>
      <trkpt lat="43.75081" lon="3.55155">
        <ele>291.6</ele>
        <time>2011-12-18T09:55:27Z</time>
      </trkpt>
      <trkpt lat="43.75079" lon="3.5515">
        <ele>290.7</ele>
        <time>2011-12-18T09:55:32Z</time>
      </trkpt>
      <trkpt lat="43.75076" lon="3.55145">
        <ele>290.1</ele>
        <time>2011-12-18T09:55:39Z</time>
      </trkpt>
      <trkpt lat="43.75073" lon="3.55141">
        <ele>291.4</ele>
        <time>2011-12-18T09:55:48Z</time>
      </trkpt>
      <trkpt lat="43.75072" lon="3.55136">
        <ele>291.6</ele>
        <time>2011-12-18T09:55:54Z</time>
      </trkpt>
      <trkpt lat="43.75072" lon="3.5513">
        <ele>293.3</ele>
        <time>2011-12-18T09:56:07Z</time>
      </trkpt>
      <trkpt lat="43.75075" lon="3.55125">
        <ele>294.7</ele>
        <time>2011-12-18T09:56:53Z</time>
      </trkpt>
      <trkpt lat="43.75075" lon="3.55125">
        <ele>294.8</ele>
        <time>2011-12-18T09:56:54Z</time>
      </trkpt>
      <trkpt lat="43.75071" lon="3.5513">
        <ele>294.1</ele>
        <time>2011-12-18T09:58:20Z</time>
      </trkpt>
      <trkpt lat="43.75071" lon="3.5513">
        <ele>294.1</ele>
        <time>2011-12-18T09:58:21Z</time>
      </trkpt>
      <trkpt lat="43.75076" lon="3.5512">
        <ele>294.7</ele>
        <time>2011-12-18T09:58:53Z</time>
      </trkpt>
      <trkpt lat="43.75072" lon="3.55123">
        <ele>294.1</ele>
        <time>2011-12-18T09:59:34Z</time>
      </trkpt>
      <trkpt lat="43.75072" lon="3.55124">
        <ele>294.1</ele>
        <time>2011-12-18T09:59:35Z</time>
      </trkpt>
      <trkpt lat="43.75064" lon="3.55124">
        <ele>292.9</ele>
        <time>2011-12-18T09:59:55Z</time>
      </trkpt>
      <trkpt lat="43.75065" lon="3.55118">
        <ele>291</ele>
        <time>2011-12-18T10:00:02Z</time>
      </trkpt>
      <trkpt lat="43.75061" lon="3.55115">
        <ele>290.4</ele>
        <time>2011-12-18T10:00:16Z</time>
      </trkpt>
      <trkpt lat="43.75061" lon="3.55115">
        <ele>290.6</ele>
        <time>2011-12-18T10:00:17Z</time>
      </trkpt>
      <trkpt lat="43.75071" lon="3.55108">
        <ele>290.8</ele>
        <time>2011-12-18T10:06:57Z</time>
      </trkpt>
      <trkpt lat="43.75067" lon="3.55111">
        <ele>291.2</ele>
        <time>2011-12-18T10:07:05Z</time>
      </trkpt>
      <trkpt lat="43.75063" lon="3.55111">
        <ele>292.3</ele>
        <time>2011-12-18T10:07:18Z</time>
      </trkpt>
      <trkpt lat="43.75063" lon="3.55106">
        <ele>288.9</ele>
        <time>2011-12-18T10:07:45Z</time>
      </trkpt>
      <trkpt lat="43.75059" lon="3.55105">
        <ele>284.8</ele>
        <time>2011-12-18T10:08:06Z</time>
      </trkpt>
      <trkpt lat="43.75058" lon="3.55105">
        <ele>284.6</ele>
        <time>2011-12-18T10:08:07Z</time>
      </trkpt>
      <trkpt lat="43.75052" lon="3.55098">
        <ele>285</ele>
        <time>2011-12-18T10:08:20Z</time>
      </trkpt>
      <trkpt lat="43.75054" lon="3.55093">
        <ele>282.3</ele>
        <time>2011-12-18T10:08:52Z</time>
      </trkpt>
      <trkpt lat="43.75053" lon="3.55087">
        <ele>283.5</ele>
        <time>2011-12-18T10:08:58Z</time>
      </trkpt>
      <trkpt lat="43.7505" lon="3.55086">
        <ele>282.8</ele>
        <time>2011-12-18T10:09:08Z</time>
      </trkpt>
      <trkpt lat="43.75049" lon="3.55086">
        <ele>282.9</ele>
        <time>2011-12-18T10:09:09Z</time>
      </trkpt>
      <trkpt lat="43.75041" lon="3.55083">
        <ele>284.1</ele>
        <time>2011-12-18T10:09:24Z</time>
      </trkpt>
      <trkpt lat="43.75038" lon="3.55084">
        <ele>284.3</ele>
        <time>2011-12-18T10:09:33Z</time>
      </trkpt>
      <trkpt lat="43.75035" lon="3.55079">
        <ele>284.5</ele>
        <time>2011-12-18T10:09:45Z</time>
      </trkpt>
      <trkpt lat="43.75034" lon="3.55073">
        <ele>283.8</ele>
        <time>2011-12-18T10:09:55Z</time>
      </trkpt>
      <trkpt lat="43.7503" lon="3.55071">
        <ele>283.1</ele>
        <time>2011-12-18T10:10:05Z</time>
      </trkpt>
      <trkpt lat="43.75026" lon="3.55068">
        <ele>283.1</ele>
        <time>2011-12-18T10:10:11Z</time>
      </trkpt>
      <trkpt lat="43.75026" lon="3.55067">
        <ele>282.3</ele>
        <time>2011-12-18T10:10:12Z</time>
      </trkpt>
      <trkpt lat="43.75024" lon="3.55057">
        <ele>279.9</ele>
        <time>2011-12-18T10:10:23Z</time>
      </trkpt>
      <trkpt lat="43.75021" lon="3.55053">
        <ele>280</ele>
        <time>2011-12-18T10:10:30Z</time>
      </trkpt>
      <trkpt lat="43.75017" lon="3.55054">
        <ele>280.7</ele>
        <time>2011-12-18T10:10:35Z</time>
      </trkpt>
      <trkpt lat="43.75013" lon="3.55052">
        <ele>281.1</ele>
        <time>2011-12-18T10:10:41Z</time>
      </trkpt>
      <trkpt lat="43.75009" lon="3.55049">
        <ele>281.1</ele>
        <time>2011-12-18T10:10:47Z</time>
      </trkpt>
      <trkpt lat="43.75007" lon="3.55045">
        <ele>280.9</ele>
        <time>2011-12-18T10:10:53Z</time>
      </trkpt>
      <trkpt lat="43.75004" lon="3.55042">
        <ele>280.2</ele>
        <time>2011-12-18T10:10:58Z</time>
      </trkpt>
      <trkpt lat="43.75" lon="3.55038">
        <ele>280.2</ele>
        <time>2011-12-18T10:11:04Z</time>
      </trkpt>
      <trkpt lat="43.74996" lon="3.55036">
        <ele>278.5</ele>
        <time>2011-12-18T10:11:10Z</time>
      </trkpt>
      <trkpt lat="43.74993" lon="3.55034">
        <ele>277.7</ele>
        <time>2011-12-18T10:11:15Z</time>
      </trkpt>
      <trkpt lat="43.74992" lon="3.55034">
        <ele>277.6</ele>
        <time>2011-12-18T10:11:16Z</time>
      </trkpt>
      <trkpt lat="43.7499" lon="3.55024">
        <ele>275.1</ele>
        <time>2011-12-18T10:11:30Z</time>
      </trkpt>
      <trkpt lat="43.74989" lon="3.55018">
        <ele>273.6</ele>
        <time>2011-12-18T10:11:36Z</time>
      </trkpt>
      <trkpt lat="43.74989" lon="3.55012">
        <ele>273</ele>
        <time>2011-12-18T10:11:44Z</time>
      </trkpt>
      <trkpt lat="43.74991" lon="3.55006">
        <ele>274.3</ele>
        <time>2011-12-18T10:11:53Z</time>
      </trkpt>
      <trkpt lat="43.74991" lon="3.55">
        <ele>273.6</ele>
        <time>2011-12-18T10:12:01Z</time>
      </trkpt>
      <trkpt lat="43.74992" lon="3.54995">
        <ele>272.8</ele>
        <time>2011-12-18T10:12:08Z</time>
      </trkpt>
      <trkpt lat="43.74994" lon="3.5499">
        <ele>272.3</ele>
        <time>2011-12-18T10:12:16Z</time>
      </trkpt>
      <trkpt lat="43.74994" lon="3.54989">
        <ele>272</ele>
        <time>2011-12-18T10:12:17Z</time>
      </trkpt>
      <trkpt lat="43.74997" lon="3.54978">
        <ele>271.1</ele>
        <time>2011-12-18T10:12:27Z</time>
      </trkpt>
      <trkpt lat="43.74997" lon="3.54972">
        <ele>270.9</ele>
        <time>2011-12-18T10:12:35Z</time>
      </trkpt>
      <trkpt lat="43.74998" lon="3.54967">
        <ele>271.2</ele>
        <time>2011-12-18T10:12:42Z</time>
      </trkpt>
      <trkpt lat="43.74994" lon="3.54963">
        <ele>270.8</ele>
        <time>2011-12-18T10:12:50Z</time>
      </trkpt>
      <trkpt lat="43.74991" lon="3.54959">
        <ele>271.5</ele>
        <time>2011-12-18T10:12:58Z</time>
      </trkpt>
      <trkpt lat="43.7499" lon="3.54953">
        <ele>274.1</ele>
        <time>2011-12-18T10:13:10Z</time>
      </trkpt>
      <trkpt lat="43.74986" lon="3.54952">
        <ele>273.9</ele>
        <time>2011-12-18T10:13:18Z</time>
      </trkpt>
      <trkpt lat="43.74985" lon="3.54952">
        <ele>273.9</ele>
        <time>2011-12-18T10:13:19Z</time>
      </trkpt>
      <trkpt lat="43.74978" lon="3.54954">
        <ele>275.3</ele>
        <time>2011-12-18T10:13:29Z</time>
      </trkpt>
      <trkpt lat="43.74975" lon="3.54956">
        <ele>276.1</ele>
        <time>2011-12-18T10:13:33Z</time>
      </trkpt>
      <trkpt lat="43.74971" lon="3.54959">
        <ele>275.9</ele>
        <time>2011-12-18T10:13:38Z</time>
      </trkpt>
      <trkpt lat="43.74967" lon="3.54961">
        <ele>276.2</ele>
        <time>2011-12-18T10:13:42Z</time>
      </trkpt>
      <trkpt lat="43.74964" lon="3.54964">
        <ele>276.4</ele>
        <time>2011-12-18T10:13:47Z</time>
      </trkpt>
      <trkpt lat="43.7496" lon="3.54966">
        <ele>277</ele>
        <time>2011-12-18T10:13:54Z</time>
      </trkpt>
      <trkpt lat="43.74956" lon="3.54968">
        <ele>275.7</ele>
        <time>2011-12-18T10:13:58Z</time>
      </trkpt>
      <trkpt lat="43.74953" lon="3.54968">
        <ele>275.4</ele>
        <time>2011-12-18T10:14:02Z</time>
      </trkpt>
      <trkpt lat="43.74949" lon="3.54968">
        <ele>275.7</ele>
        <time>2011-12-18T10:14:06Z</time>
      </trkpt>
      <trkpt lat="43.74945" lon="3.54968">
        <ele>276.1</ele>
        <time>2011-12-18T10:14:12Z</time>
      </trkpt>
      <trkpt lat="43.74941" lon="3.54969">
        <ele>275.6</ele>
        <time>2011-12-18T10:14:18Z</time>
      </trkpt>
      <trkpt lat="43.74937" lon="3.54967">
        <ele>276.5</ele>
        <time>2011-12-18T10:14:25Z</time>
      </trkpt>
      <trkpt lat="43.74937" lon="3.54966">
        <ele>276.5</ele>
        <time>2011-12-18T10:14:26Z</time>
      </trkpt>
      <trkpt lat="43.7493" lon="3.54961">
        <ele>277</ele>
        <time>2011-12-18T10:14:40Z</time>
      </trkpt>
      <trkpt lat="43.74927" lon="3.54957">
        <ele>277.6</ele>
        <time>2011-12-18T10:14:47Z</time>
      </trkpt>
      <trkpt lat="43.74925" lon="3.54951">
        <ele>278.5</ele>
        <time>2011-12-18T10:14:52Z</time>
      </trkpt>
      <trkpt lat="43.74924" lon="3.54946">
        <ele>279</ele>
        <time>2011-12-18T10:14:58Z</time>
      </trkpt>
      <trkpt lat="43.74921" lon="3.54943">
        <ele>279.3</ele>
        <time>2011-12-18T10:15:03Z</time>
      </trkpt>
      <trkpt lat="43.74917" lon="3.54941">
        <ele>279.2</ele>
        <time>2011-12-18T10:15:08Z</time>
      </trkpt>
      <trkpt lat="43.74914" lon="3.54938">
        <ele>280</ele>
        <time>2011-12-18T10:15:12Z</time>
      </trkpt>
      <trkpt lat="43.74911" lon="3.54934">
        <ele>280.2</ele>
        <time>2011-12-18T10:15:16Z</time>
      </trkpt>
      <trkpt lat="43.74908" lon="3.5493">
        <ele>281.3</ele>
        <time>2011-12-18T10:15:22Z</time>
      </trkpt>
      <trkpt lat="43.74905" lon="3.54926">
        <ele>282.1</ele>
        <time>2011-12-18T10:15:27Z</time>
      </trkpt>
      <trkpt lat="43.74904" lon="3.54925">
        <ele>282.4</ele>
        <time>2011-12-18T10:15:28Z</time>
      </trkpt>
      <trkpt lat="43.74897" lon="3.54922">
        <ele>283.2</ele>
        <time>2011-12-18T10:15:35Z</time>
      </trkpt>
      <trkpt lat="43.74894" lon="3.54917">
        <ele>282.9</ele>
        <time>2011-12-18T10:15:39Z</time>
      </trkpt>
      <trkpt lat="43.74891" lon="3.54914">
        <ele>283.3</ele>
        <time>2011-12-18T10:15:44Z</time>
      </trkpt>
      <trkpt lat="43.74887" lon="3.54911">
        <ele>282.5</ele>
        <time>2011-12-18T10:15:49Z</time>
      </trkpt>
      <trkpt lat="43.74884" lon="3.54908">
        <ele>283.3</ele>
        <time>2011-12-18T10:15:54Z</time>
      </trkpt>
      <trkpt lat="43.7488" lon="3.54906">
        <ele>284.7</ele>
        <time>2011-12-18T10:15:59Z</time>
      </trkpt>
      <trkpt lat="43.74876" lon="3.54903">
        <ele>284.6</ele>
        <time>2011-12-18T10:16:07Z</time>
      </trkpt>
      <trkpt lat="43.74872" lon="3.54902">
        <ele>285.7</ele>
        <time>2011-12-18T10:16:13Z</time>
      </trkpt>
      <trkpt lat="43.74869" lon="3.54901">
        <ele>284.9</ele>
        <time>2011-12-18T10:16:19Z</time>
      </trkpt>
      <trkpt lat="43.74865" lon="3.54899">
        <ele>285.5</ele>
        <time>2011-12-18T10:16:26Z</time>
      </trkpt>
      <trkpt lat="43.7486" lon="3.54899">
        <ele>286.8</ele>
        <time>2011-12-18T10:16:34Z</time>
      </trkpt>
      <trkpt lat="43.7486" lon="3.54899">
        <ele>286.6</ele>
        <time>2011-12-18T10:16:35Z</time>
      </trkpt>
      <trkpt lat="43.74852" lon="3.54897">
        <ele>289</ele>
        <time>2011-12-18T10:16:48Z</time>
      </trkpt>
      <trkpt lat="43.74848" lon="3.54895">
        <ele>291.4</ele>
        <time>2011-12-18T10:16:57Z</time>
      </trkpt>
      <trkpt lat="43.74844" lon="3.54896">
        <ele>291.8</ele>
        <time>2011-12-18T10:17:03Z</time>
      </trkpt>
      <trkpt lat="43.7484" lon="3.54896">
        <ele>294.3</ele>
        <time>2011-12-18T10:17:09Z</time>
      </trkpt>
      <trkpt lat="43.74835" lon="3.54895">
        <ele>294.7</ele>
        <time>2011-12-18T10:17:18Z</time>
      </trkpt>
      <trkpt lat="43.74832" lon="3.54896">
        <ele>293.4</ele>
        <time>2011-12-18T10:17:24Z</time>
      </trkpt>
      <trkpt lat="43.74828" lon="3.54895">
        <ele>296.4</ele>
        <time>2011-12-18T10:17:31Z</time>
      </trkpt>
      <trkpt lat="43.74823" lon="3.54896">
        <ele>298</ele>
        <time>2011-12-18T10:17:38Z</time>
      </trkpt>
      <trkpt lat="43.74823" lon="3.54896">
        <ele>297.7</ele>
        <time>2011-12-18T10:17:39Z</time>
      </trkpt>
      <trkpt lat="43.74816" lon="3.54893">
        <ele>298.8</ele>
        <time>2011-12-18T10:17:55Z</time>
      </trkpt>
      <trkpt lat="43.74812" lon="3.54891">
        <ele>300.4</ele>
        <time>2011-12-18T10:18:00Z</time>
      </trkpt>
      <trkpt lat="43.74807" lon="3.54892">
        <ele>300.4</ele>
        <time>2011-12-18T10:18:05Z</time>
      </trkpt>
      <trkpt lat="43.74804" lon="3.54892">
        <ele>302.1</ele>
        <time>2011-12-18T10:18:09Z</time>
      </trkpt>
      <trkpt lat="43.748" lon="3.54891">
        <ele>303.3</ele>
        <time>2011-12-18T10:18:13Z</time>
      </trkpt>
      <trkpt lat="43.74796" lon="3.54892">
        <ele>302.9</ele>
        <time>2011-12-18T10:18:18Z</time>
      </trkpt>
      <trkpt lat="43.74792" lon="3.54892">
        <ele>302.2</ele>
        <time>2011-12-18T10:18:23Z</time>
      </trkpt>
      <trkpt lat="43.74788" lon="3.54892">
        <ele>302.4</ele>
        <time>2011-12-18T10:18:29Z</time>
      </trkpt>
      <trkpt lat="43.74784" lon="3.54891">
        <ele>302.8</ele>
        <time>2011-12-18T10:18:34Z</time>
      </trkpt>
      <trkpt lat="43.7478" lon="3.54892">
        <ele>303.4</ele>
        <time>2011-12-18T10:18:37Z</time>
      </trkpt>
      <trkpt lat="43.74777" lon="3.54892">
        <ele>303</ele>
        <time>2011-12-18T10:18:40Z</time>
      </trkpt>
      <trkpt lat="43.74776" lon="3.54892">
        <ele>302.9</ele>
        <time>2011-12-18T10:18:41Z</time>
      </trkpt>
      <trkpt lat="43.74769" lon="3.54891">
        <ele>302.8</ele>
        <time>2011-12-18T10:18:48Z</time>
      </trkpt>
      <trkpt lat="43.74765" lon="3.54892">
        <ele>302.7</ele>
        <time>2011-12-18T10:18:52Z</time>
      </trkpt>
      <trkpt lat="43.74761" lon="3.5489">
        <ele>302.8</ele>
        <time>2011-12-18T10:18:56Z</time>
      </trkpt>
      <trkpt lat="43.74757" lon="3.54889">
        <ele>301.1</ele>
        <time>2011-12-18T10:19:00Z</time>
      </trkpt>
      <trkpt lat="43.74753" lon="3.54889">
        <ele>301.6</ele>
        <time>2011-12-18T10:19:05Z</time>
      </trkpt>
      <trkpt lat="43.74749" lon="3.5489">
        <ele>301.9</ele>
        <time>2011-12-18T10:19:09Z</time>
      </trkpt>
      <trkpt lat="43.74746" lon="3.54891">
        <ele>301.1</ele>
        <time>2011-12-18T10:19:13Z</time>
      </trkpt>
      <trkpt lat="43.74742" lon="3.54892">
        <ele>300.6</ele>
        <time>2011-12-18T10:19:18Z</time>
      </trkpt>
      <trkpt lat="43.74737" lon="3.54892">
        <ele>299.6</ele>
        <time>2011-12-18T10:19:26Z</time>
      </trkpt>
      <trkpt lat="43.74733" lon="3.54892">
        <ele>300.7</ele>
        <time>2011-12-18T10:19:33Z</time>
      </trkpt>
      <trkpt lat="43.74729" lon="3.54893">
        <ele>299.1</ele>
        <time>2011-12-18T10:19:38Z</time>
      </trkpt>
      <trkpt lat="43.74725" lon="3.54894">
        <ele>297.9</ele>
        <time>2011-12-18T10:19:44Z</time>
      </trkpt>
      <trkpt lat="43.74725" lon="3.54894">
        <ele>297.7</ele>
        <time>2011-12-18T10:19:45Z</time>
      </trkpt>
      <trkpt lat="43.74718" lon="3.54901">
        <ele>295.4</ele>
        <time>2011-12-18T10:20:03Z</time>
      </trkpt>
      <trkpt lat="43.74714" lon="3.54902">
        <ele>294.8</ele>
        <time>2011-12-18T10:20:08Z</time>
      </trkpt>
      <trkpt lat="43.7471" lon="3.54902">
        <ele>294.8</ele>
        <time>2011-12-18T10:20:12Z</time>
      </trkpt>
      <trkpt lat="43.74706" lon="3.54902">
        <ele>294.2</ele>
        <time>2011-12-18T10:20:17Z</time>
      </trkpt>
      <trkpt lat="43.74702" lon="3.54904">
        <ele>293.8</ele>
        <time>2011-12-18T10:20:22Z</time>
      </trkpt>
      <trkpt lat="43.74698" lon="3.54903">
        <ele>293.9</ele>
        <time>2011-12-18T10:20:26Z</time>
      </trkpt>
      <trkpt lat="43.74694" lon="3.54904">
        <ele>293.5</ele>
        <time>2011-12-18T10:20:31Z</time>
      </trkpt>
      <trkpt lat="43.7469" lon="3.54905">
        <ele>292.8</ele>
        <time>2011-12-18T10:20:36Z</time>
      </trkpt>
      <trkpt lat="43.74686" lon="3.54906">
        <ele>292.2</ele>
        <time>2011-12-18T10:20:41Z</time>
      </trkpt>
      <trkpt lat="43.74681" lon="3.54906">
        <ele>291.8</ele>
        <time>2011-12-18T10:20:46Z</time>
      </trkpt>
      <trkpt lat="43.7468" lon="3.54907">
        <ele>291.4</ele>
        <time>2011-12-18T10:20:47Z</time>
      </trkpt>
      <trkpt lat="43.74674" lon="3.54908">
        <ele>290.7</ele>
        <time>2011-12-18T10:20:55Z</time>
      </trkpt>
      <trkpt lat="43.74669" lon="3.54909">
        <ele>289.2</ele>
        <time>2011-12-18T10:21:01Z</time>
      </trkpt>
      <trkpt lat="43.74666" lon="3.5491">
        <ele>289.5</ele>
        <time>2011-12-18T10:21:07Z</time>
      </trkpt>
      <trkpt lat="43.74662" lon="3.54912">
        <ele>288.5</ele>
        <time>2011-12-18T10:21:14Z</time>
      </trkpt>
      <trkpt lat="43.74657" lon="3.54913">
        <ele>288.5</ele>
        <time>2011-12-18T10:21:24Z</time>
      </trkpt>
      <trkpt lat="43.74653" lon="3.54915">
        <ele>287.1</ele>
        <time>2011-12-18T10:21:31Z</time>
      </trkpt>
      <trkpt lat="43.74649" lon="3.54915">
        <ele>286.1</ele>
        <time>2011-12-18T10:21:38Z</time>
      </trkpt>
      <trkpt lat="43.74645" lon="3.54913">
        <ele>285.1</ele>
        <time>2011-12-18T10:21:45Z</time>
      </trkpt>
      <trkpt lat="43.74642" lon="3.54911">
        <ele>283.8</ele>
        <time>2011-12-18T10:21:50Z</time>
      </trkpt>
      <trkpt lat="43.74641" lon="3.5491">
        <ele>283.3</ele>
        <time>2011-12-18T10:21:51Z</time>
      </trkpt>
      <trkpt lat="43.74633" lon="3.54908">
        <ele>282</ele>
        <time>2011-12-18T10:22:04Z</time>
      </trkpt>
      <trkpt lat="43.7463" lon="3.54904">
        <ele>280.4</ele>
        <time>2011-12-18T10:22:14Z</time>
      </trkpt>
      <trkpt lat="43.74627" lon="3.54901">
        <ele>280.8</ele>
        <time>2011-12-18T10:22:27Z</time>
      </trkpt>
      <trkpt lat="43.74622" lon="3.549">
        <ele>279.9</ele>
        <time>2011-12-18T10:22:36Z</time>
      </trkpt>
      <trkpt lat="43.7462" lon="3.54895">
        <ele>277</ele>
        <time>2011-12-18T10:22:47Z</time>
      </trkpt>
      <trkpt lat="43.74617" lon="3.5489">
        <ele>275.2</ele>
        <time>2011-12-18T10:22:53Z</time>
      </trkpt>
      <trkpt lat="43.74616" lon="3.54889">
        <ele>274.9</ele>
        <time>2011-12-18T10:22:54Z</time>
      </trkpt>
      <trkpt lat="43.74611" lon="3.54881">
        <ele>273.4</ele>
        <time>2011-12-18T10:23:07Z</time>
      </trkpt>
      <trkpt lat="43.74608" lon="3.54878">
        <ele>272.9</ele>
        <time>2011-12-18T10:23:13Z</time>
      </trkpt>
      <trkpt lat="43.74604" lon="3.54874">
        <ele>273.3</ele>
        <time>2011-12-18T10:23:19Z</time>
      </trkpt>
      <trkpt lat="43.746" lon="3.54873">
        <ele>272.3</ele>
        <time>2011-12-18T10:23:24Z</time>
      </trkpt>
      <trkpt lat="43.74597" lon="3.54871">
        <ele>271.8</ele>
        <time>2011-12-18T10:23:28Z</time>
      </trkpt>
      <trkpt lat="43.74593" lon="3.5487">
        <ele>273.1</ele>
        <time>2011-12-18T10:23:37Z</time>
      </trkpt>
      <trkpt lat="43.74588" lon="3.5487">
        <ele>273.7</ele>
        <time>2011-12-18T10:23:43Z</time>
      </trkpt>
      <trkpt lat="43.74584" lon="3.54871">
        <ele>274</ele>
        <time>2011-12-18T10:23:49Z</time>
      </trkpt>
      <trkpt lat="43.7458" lon="3.54872">
        <ele>273.6</ele>
        <time>2011-12-18T10:23:54Z</time>
      </trkpt>
      <trkpt lat="43.7458" lon="3.54873">
        <ele>273.4</ele>
        <time>2011-12-18T10:23:55Z</time>
      </trkpt>
      <trkpt lat="43.74573" lon="3.54875">
        <ele>274.5</ele>
        <time>2011-12-18T10:24:04Z</time>
      </trkpt>
      <trkpt lat="43.74569" lon="3.54877">
        <ele>274.3</ele>
        <time>2011-12-18T10:24:08Z</time>
      </trkpt>
      <trkpt lat="43.74565" lon="3.54878">
        <ele>275.6</ele>
        <time>2011-12-18T10:24:13Z</time>
      </trkpt>
      <trkpt lat="43.74561" lon="3.54879">
        <ele>276.7</ele>
        <time>2011-12-18T10:24:20Z</time>
      </trkpt>
      <trkpt lat="43.74557" lon="3.54879">
        <ele>276</ele>
        <time>2011-12-18T10:24:26Z</time>
      </trkpt>
      <trkpt lat="43.74553" lon="3.54878">
        <ele>277.3</ele>
        <time>2011-12-18T10:24:31Z</time>
      </trkpt>
      <trkpt lat="43.74549" lon="3.54877">
        <ele>277.7</ele>
        <time>2011-12-18T10:24:36Z</time>
      </trkpt>
      <trkpt lat="43.74544" lon="3.54876">
        <ele>277.7</ele>
        <time>2011-12-18T10:24:41Z</time>
      </trkpt>
      <trkpt lat="43.7454" lon="3.54873">
        <ele>277.4</ele>
        <time>2011-12-18T10:24:47Z</time>
      </trkpt>
      <trkpt lat="43.74537" lon="3.5487">
        <ele>277.6</ele>
        <time>2011-12-18T10:24:53Z</time>
      </trkpt>
      <trkpt lat="43.74535" lon="3.54865">
        <ele>277.7</ele>
        <time>2011-12-18T10:24:59Z</time>
      </trkpt>
      <trkpt lat="43.74535" lon="3.54864">
        <ele>278.1</ele>
        <time>2011-12-18T10:25:00Z</time>
      </trkpt>
      <trkpt lat="43.74529" lon="3.54858">
        <ele>278.5</ele>
        <time>2011-12-18T10:25:10Z</time>
      </trkpt>
      <trkpt lat="43.74526" lon="3.54856">
        <ele>277.4</ele>
        <time>2011-12-18T10:25:14Z</time>
      </trkpt>
      <trkpt lat="43.74524" lon="3.5485">
        <ele>276.4</ele>
        <time>2011-12-18T10:25:22Z</time>
      </trkpt>
      <trkpt lat="43.74522" lon="3.54845">
        <ele>276.3</ele>
        <time>2011-12-18T10:25:29Z</time>
      </trkpt>
      <trkpt lat="43.74523" lon="3.54839">
        <ele>274.7</ele>
        <time>2011-12-18T10:25:37Z</time>
      </trkpt>
      <trkpt lat="43.74523" lon="3.54833">
        <ele>273.1</ele>
        <time>2011-12-18T10:25:45Z</time>
      </trkpt>
      <trkpt lat="43.74523" lon="3.54828">
        <ele>271.5</ele>
        <time>2011-12-18T10:25:52Z</time>
      </trkpt>
      <trkpt lat="43.74523" lon="3.54822">
        <ele>271.7</ele>
        <time>2011-12-18T10:25:59Z</time>
      </trkpt>
      <trkpt lat="43.74523" lon="3.54821">
        <ele>271.4</ele>
        <time>2011-12-18T10:26:00Z</time>
      </trkpt>
      <trkpt lat="43.74522" lon="3.5481">
        <ele>270</ele>
        <time>2011-12-18T10:26:12Z</time>
      </trkpt>
      <trkpt lat="43.74524" lon="3.54805">
        <ele>270</ele>
        <time>2011-12-18T10:26:20Z</time>
      </trkpt>
      <trkpt lat="43.74523" lon="3.54799">
        <ele>269.2</ele>
        <time>2011-12-18T10:26:28Z</time>
      </trkpt>
      <trkpt lat="43.74524" lon="3.54793">
        <ele>266.3</ele>
        <time>2011-12-18T10:26:39Z</time>
      </trkpt>
      <trkpt lat="43.74525" lon="3.54788">
        <ele>265.5</ele>
        <time>2011-12-18T10:26:55Z</time>
      </trkpt>
      <trkpt lat="43.74526" lon="3.54783">
        <ele>263.8</ele>
        <time>2011-12-18T10:27:02Z</time>
      </trkpt>
      <trkpt lat="43.74526" lon="3.54782">
        <ele>263.7</ele>
        <time>2011-12-18T10:27:03Z</time>
      </trkpt>
      <trkpt lat="43.74526" lon="3.54772">
        <ele>263.5</ele>
        <time>2011-12-18T10:27:14Z</time>
      </trkpt>
      <trkpt lat="43.74525" lon="3.54766">
        <ele>263.1</ele>
        <time>2011-12-18T10:27:20Z</time>
      </trkpt>
      <trkpt lat="43.74525" lon="3.5476">
        <ele>262.8</ele>
        <time>2011-12-18T10:27:27Z</time>
      </trkpt>
      <trkpt lat="43.74525" lon="3.54754">
        <ele>261.6</ele>
        <time>2011-12-18T10:27:34Z</time>
      </trkpt>
      <trkpt lat="43.74524" lon="3.54749">
        <ele>261</ele>
        <time>2011-12-18T10:27:44Z</time>
      </trkpt>
      <trkpt lat="43.74522" lon="3.54744">
        <ele>260.1</ele>
        <time>2011-12-18T10:27:51Z</time>
      </trkpt>
      <trkpt lat="43.74519" lon="3.5474">
        <ele>258.6</ele>
        <time>2011-12-18T10:27:58Z</time>
      </trkpt>
      <trkpt lat="43.74517" lon="3.54734">
        <ele>257.3</ele>
        <time>2011-12-18T10:28:05Z</time>
      </trkpt>
      <trkpt lat="43.74517" lon="3.54734">
        <ele>257.2</ele>
        <time>2011-12-18T10:28:06Z</time>
      </trkpt>
      <trkpt lat="43.74515" lon="3.54723">
        <ele>255.8</ele>
        <time>2011-12-18T10:28:18Z</time>
      </trkpt>
      <trkpt lat="43.74513" lon="3.54718">
        <ele>255.9</ele>
        <time>2011-12-18T10:28:25Z</time>
      </trkpt>
      <trkpt lat="43.7451" lon="3.54714">
        <ele>254.9</ele>
        <time>2011-12-18T10:28:31Z</time>
      </trkpt>
      <trkpt lat="43.74507" lon="3.54709">
        <ele>252.7</ele>
        <time>2011-12-18T10:28:37Z</time>
      </trkpt>
      <trkpt lat="43.74506" lon="3.54705">
        <ele>252.5</ele>
        <time>2011-12-18T10:28:41Z</time>
      </trkpt>
      <trkpt lat="43.74503" lon="3.547">
        <ele>254.1</ele>
        <time>2011-12-18T10:28:46Z</time>
      </trkpt>
      <trkpt lat="43.74501" lon="3.54695">
        <ele>253.6</ele>
        <time>2011-12-18T10:28:52Z</time>
      </trkpt>
      <trkpt lat="43.74499" lon="3.5469">
        <ele>252.5</ele>
        <time>2011-12-18T10:28:58Z</time>
      </trkpt>
      <trkpt lat="43.74497" lon="3.54685">
        <ele>251.1</ele>
        <time>2011-12-18T10:29:04Z</time>
      </trkpt>
      <trkpt lat="43.74496" lon="3.54679">
        <ele>249.4</ele>
        <time>2011-12-18T10:29:10Z</time>
      </trkpt>
      <trkpt lat="43.74496" lon="3.54679">
        <ele>249.2</ele>
        <time>2011-12-18T10:29:11Z</time>
      </trkpt>
      <trkpt lat="43.74496" lon="3.54667">
        <ele>247.6</ele>
        <time>2011-12-18T10:29:29Z</time>
      </trkpt>
      <trkpt lat="43.74493" lon="3.54663">
        <ele>244</ele>
        <time>2011-12-18T10:29:39Z</time>
      </trkpt>
      <trkpt lat="43.74491" lon="3.54658">
        <ele>246.1</ele>
        <time>2011-12-18T10:29:52Z</time>
      </trkpt>
      <trkpt lat="43.74486" lon="3.54657">
        <ele>248</ele>
        <time>2011-12-18T10:30:01Z</time>
      </trkpt>
      <trkpt lat="43.74482" lon="3.54658">
        <ele>248.9</ele>
        <time>2011-12-18T10:30:11Z</time>
      </trkpt>
      <trkpt lat="43.74478" lon="3.54655">
        <ele>251</ele>
        <time>2011-12-18T10:30:18Z</time>
      </trkpt>
      <trkpt lat="43.74478" lon="3.54655">
        <ele>251.2</ele>
        <time>2011-12-18T10:30:19Z</time>
      </trkpt>
      <trkpt lat="43.74471" lon="3.54655">
        <ele>255.7</ele>
        <time>2011-12-18T10:30:33Z</time>
      </trkpt>
      <trkpt lat="43.74467" lon="3.54659">
        <ele>256.8</ele>
        <time>2011-12-18T10:30:40Z</time>
      </trkpt>
      <trkpt lat="43.74463" lon="3.54662">
        <ele>256.9</ele>
        <time>2011-12-18T10:30:49Z</time>
      </trkpt>
      <trkpt lat="43.7446" lon="3.54664">
        <ele>257.1</ele>
        <time>2011-12-18T10:30:54Z</time>
      </trkpt>
      <trkpt lat="43.74457" lon="3.54667">
        <ele>256</ele>
        <time>2011-12-18T10:30:58Z</time>
      </trkpt>
      <trkpt lat="43.74454" lon="3.5467">
        <ele>256.5</ele>
        <time>2011-12-18T10:31:05Z</time>
      </trkpt>
      <trkpt lat="43.74451" lon="3.54674">
        <ele>258.8</ele>
        <time>2011-12-18T10:31:13Z</time>
      </trkpt>
      <trkpt lat="43.74448" lon="3.54679">
        <ele>259.7</ele>
        <time>2011-12-18T10:31:19Z</time>
      </trkpt>
      <trkpt lat="43.74448" lon="3.54679">
        <ele>259.7</ele>
        <time>2011-12-18T10:31:20Z</time>
      </trkpt>
      <trkpt lat="43.74442" lon="3.54687">
        <ele>260.9</ele>
        <time>2011-12-18T10:31:34Z</time>
      </trkpt>
      <trkpt lat="43.74439" lon="3.5469">
        <ele>265</ele>
        <time>2011-12-18T10:31:41Z</time>
      </trkpt>
      <trkpt lat="43.74436" lon="3.54694">
        <ele>266.7</ele>
        <time>2011-12-18T10:31:48Z</time>
      </trkpt>
      <trkpt lat="43.74432" lon="3.54698">
        <ele>265.2</ele>
        <time>2011-12-18T10:31:55Z</time>
      </trkpt>
      <trkpt lat="43.74429" lon="3.54701">
        <ele>265.2</ele>
        <time>2011-12-18T10:32:00Z</time>
      </trkpt>
      <trkpt lat="43.74425" lon="3.54703">
        <ele>265.9</ele>
        <time>2011-12-18T10:32:06Z</time>
      </trkpt>
      <trkpt lat="43.74421" lon="3.54705">
        <ele>267.3</ele>
        <time>2011-12-18T10:32:11Z</time>
      </trkpt>
      <trkpt lat="43.74417" lon="3.54706">
        <ele>268.8</ele>
        <time>2011-12-18T10:32:16Z</time>
      </trkpt>
      <trkpt lat="43.74413" lon="3.54707">
        <ele>268.3</ele>
        <time>2011-12-18T10:32:22Z</time>
      </trkpt>
      <trkpt lat="43.74413" lon="3.54707">
        <ele>268.4</ele>
        <time>2011-12-18T10:32:23Z</time>
      </trkpt>
      <trkpt lat="43.74408" lon="3.54699">
        <ele>270.2</ele>
        <time>2011-12-18T10:32:53Z</time>
      </trkpt>
      <trkpt lat="43.74405" lon="3.54695">
        <ele>272.8</ele>
        <time>2011-12-18T10:33:01Z</time>
      </trkpt>
      <trkpt lat="43.74401" lon="3.54693">
        <ele>273.1</ele>
        <time>2011-12-18T10:33:07Z</time>
      </trkpt>
      <trkpt lat="43.74397" lon="3.54692">
        <ele>273.9</ele>
        <time>2011-12-18T10:33:12Z</time>
      </trkpt>
      <trkpt lat="43.74393" lon="3.5469">
        <ele>274.7</ele>
        <time>2011-12-18T10:33:16Z</time>
      </trkpt>
      <trkpt lat="43.7439" lon="3.54686">
        <ele>274.1</ele>
        <time>2011-12-18T10:33:22Z</time>
      </trkpt>
      <trkpt lat="43.74387" lon="3.54683">
        <ele>274.9</ele>
        <time>2011-12-18T10:33:27Z</time>
      </trkpt>
      <trkpt lat="43.74386" lon="3.54682">
        <ele>275</ele>
        <time>2011-12-18T10:33:28Z</time>
      </trkpt>
      <trkpt lat="43.74379" lon="3.54678">
        <ele>276.1</ele>
        <time>2011-12-18T10:33:36Z</time>
      </trkpt>
      <trkpt lat="43.74376" lon="3.54675">
        <ele>275.1</ele>
        <time>2011-12-18T10:33:41Z</time>
      </trkpt>
      <trkpt lat="43.74372" lon="3.54674">
        <ele>276.2</ele>
        <time>2011-12-18T10:33:46Z</time>
      </trkpt>
      <trkpt lat="43.74369" lon="3.54671">
        <ele>276.4</ele>
        <time>2011-12-18T10:33:50Z</time>
      </trkpt>
      <trkpt lat="43.74366" lon="3.54668">
        <ele>275.7</ele>
        <time>2011-12-18T10:33:54Z</time>
      </trkpt>
      <trkpt lat="43.74362" lon="3.54667">
        <ele>274.4</ele>
        <time>2011-12-18T10:33:59Z</time>
      </trkpt>
      <trkpt lat="43.74358" lon="3.54664">
        <ele>274.5</ele>
        <time>2011-12-18T10:34:03Z</time>
      </trkpt>
      <trkpt lat="43.74354" lon="3.54662">
        <ele>275.3</ele>
        <time>2011-12-18T10:34:08Z</time>
      </trkpt>
      <trkpt lat="43.7435" lon="3.54661">
        <ele>277.2</ele>
        <time>2011-12-18T10:34:13Z</time>
      </trkpt>
      <trkpt lat="43.74346" lon="3.5466">
        <ele>277.7</ele>
        <time>2011-12-18T10:34:18Z</time>
      </trkpt>
      <trkpt lat="43.74341" lon="3.54659">
        <ele>276.8</ele>
        <time>2011-12-18T10:34:25Z</time>
      </trkpt>
      <trkpt lat="43.74338" lon="3.54657">
        <ele>278.3</ele>
        <time>2011-12-18T10:34:31Z</time>
      </trkpt>
      <trkpt lat="43.74337" lon="3.54657">
        <ele>278.7</ele>
        <time>2011-12-18T10:34:32Z</time>
      </trkpt>
      <trkpt lat="43.7433" lon="3.54653">
        <ele>278</ele>
        <time>2011-12-18T10:34:41Z</time>
      </trkpt>
      <trkpt lat="43.74326" lon="3.54652">
        <ele>277.7</ele>
        <time>2011-12-18T10:34:46Z</time>
      </trkpt>
      <trkpt lat="43.74322" lon="3.54651">
        <ele>279.1</ele>
        <time>2011-12-18T10:34:51Z</time>
      </trkpt>
      <trkpt lat="43.74319" lon="3.54649">
        <ele>279</ele>
        <time>2011-12-18T10:34:55Z</time>
      </trkpt>
      <trkpt lat="43.74314" lon="3.54648">
        <ele>279.2</ele>
        <time>2011-12-18T10:34:59Z</time>
      </trkpt>
      <trkpt lat="43.7431" lon="3.54646">
        <ele>279.1</ele>
        <time>2011-12-18T10:35:03Z</time>
      </trkpt>
      <trkpt lat="43.74306" lon="3.54645">
        <ele>280</ele>
        <time>2011-12-18T10:35:07Z</time>
      </trkpt>
      <trkpt lat="43.74303" lon="3.54642">
        <ele>280.1</ele>
        <time>2011-12-18T10:35:11Z</time>
      </trkpt>
      <trkpt lat="43.74299" lon="3.5464">
        <ele>280.5</ele>
        <time>2011-12-18T10:35:15Z</time>
      </trkpt>
      <trkpt lat="43.74295" lon="3.54638">
        <ele>280.9</ele>
        <time>2011-12-18T10:35:19Z</time>
      </trkpt>
      <trkpt lat="43.74291" lon="3.54636">
        <ele>281.2</ele>
        <time>2011-12-18T10:35:30Z</time>
      </trkpt>
      <trkpt lat="43.74287" lon="3.54634">
        <ele>279.8</ele>
        <time>2011-12-18T10:35:38Z</time>
      </trkpt>
      <trkpt lat="43.74286" lon="3.54634">
        <ele>279.8</ele>
        <time>2011-12-18T10:35:39Z</time>
      </trkpt>
      <trkpt lat="43.74279" lon="3.54633">
        <ele>280.5</ele>
        <time>2011-12-18T10:35:50Z</time>
      </trkpt>
      <trkpt lat="43.74275" lon="3.54633">
        <ele>280.7</ele>
        <time>2011-12-18T10:35:55Z</time>
      </trkpt>
      <trkpt lat="43.74271" lon="3.54633">
        <ele>280.4</ele>
        <time>2011-12-18T10:35:59Z</time>
      </trkpt>
      <trkpt lat="43.74268" lon="3.54632">
        <ele>280.7</ele>
        <time>2011-12-18T10:36:03Z</time>
      </trkpt>
      <trkpt lat="43.74263" lon="3.54631">
        <ele>279.8</ele>
        <time>2011-12-18T10:36:09Z</time>
      </trkpt>
      <trkpt lat="43.74259" lon="3.54631">
        <ele>279.5</ele>
        <time>2011-12-18T10:36:13Z</time>
      </trkpt>
      <trkpt lat="43.74256" lon="3.54631">
        <ele>279.9</ele>
        <time>2011-12-18T10:36:18Z</time>
      </trkpt>
      <trkpt lat="43.74252" lon="3.5463">
        <ele>280.3</ele>
        <time>2011-12-18T10:36:24Z</time>
      </trkpt>
      <trkpt lat="43.74248" lon="3.5463">
        <ele>279.7</ele>
        <time>2011-12-18T10:36:28Z</time>
      </trkpt>
      <trkpt lat="43.74244" lon="3.54627">
        <ele>280</ele>
        <time>2011-12-18T10:36:33Z</time>
      </trkpt>
      <trkpt lat="43.74239" lon="3.54626">
        <ele>278.7</ele>
        <time>2011-12-18T10:36:38Z</time>
      </trkpt>
      <trkpt lat="43.74236" lon="3.54626">
        <ele>278.9</ele>
        <time>2011-12-18T10:36:42Z</time>
      </trkpt>
      <trkpt lat="43.74235" lon="3.54626">
        <ele>278.8</ele>
        <time>2011-12-18T10:36:43Z</time>
      </trkpt>
      <trkpt lat="43.74227" lon="3.54624">
        <ele>278.8</ele>
        <time>2011-12-18T10:36:52Z</time>
      </trkpt>
      <trkpt lat="43.74223" lon="3.54624">
        <ele>279</ele>
        <time>2011-12-18T10:36:56Z</time>
      </trkpt>
      <trkpt lat="43.74219" lon="3.54622">
        <ele>280.1</ele>
        <time>2011-12-18T10:37:01Z</time>
      </trkpt>
      <trkpt lat="43.74215" lon="3.5462">
        <ele>279.7</ele>
        <time>2011-12-18T10:37:06Z</time>
      </trkpt>
      <trkpt lat="43.74212" lon="3.54617">
        <ele>280.7</ele>
        <time>2011-12-18T10:37:10Z</time>
      </trkpt>
      <trkpt lat="43.74209" lon="3.54614">
        <ele>281.2</ele>
        <time>2011-12-18T10:37:16Z</time>
      </trkpt>
      <trkpt lat="43.74205" lon="3.54611">
        <ele>281.5</ele>
        <time>2011-12-18T10:37:20Z</time>
      </trkpt>
      <trkpt lat="43.74202" lon="3.54608">
        <ele>282.1</ele>
        <time>2011-12-18T10:37:24Z</time>
      </trkpt>
      <trkpt lat="43.74198" lon="3.54606">
        <ele>283.1</ele>
        <time>2011-12-18T10:37:29Z</time>
      </trkpt>
      <trkpt lat="43.74194" lon="3.54603">
        <ele>282.4</ele>
        <time>2011-12-18T10:37:34Z</time>
      </trkpt>
      <trkpt lat="43.74191" lon="3.546">
        <ele>281.7</ele>
        <time>2011-12-18T10:37:39Z</time>
      </trkpt>
      <trkpt lat="43.74188" lon="3.54596">
        <ele>280.9</ele>
        <time>2011-12-18T10:37:44Z</time>
      </trkpt>
      <trkpt lat="43.74187" lon="3.54595">
        <ele>280.9</ele>
        <time>2011-12-18T10:37:45Z</time>
      </trkpt>
      <trkpt lat="43.74182" lon="3.54589">
        <ele>278.7</ele>
        <time>2011-12-18T10:37:56Z</time>
      </trkpt>
      <trkpt lat="43.74178" lon="3.54585">
        <ele>277.9</ele>
        <time>2011-12-18T10:38:03Z</time>
      </trkpt>
      <trkpt lat="43.74175" lon="3.54582">
        <ele>277.8</ele>
        <time>2011-12-18T10:38:12Z</time>
      </trkpt>
      <trkpt lat="43.74172" lon="3.54577">
        <ele>277</ele>
        <time>2011-12-18T10:38:22Z</time>
      </trkpt>
      <trkpt lat="43.7417" lon="3.54572">
        <ele>275.8</ele>
        <time>2011-12-18T10:38:29Z</time>
      </trkpt>
      <trkpt lat="43.74168" lon="3.54567">
        <ele>277.4</ele>
        <time>2011-12-18T10:38:36Z</time>
      </trkpt>
      <trkpt lat="43.74165" lon="3.54562">
        <ele>277.1</ele>
        <time>2011-12-18T10:38:45Z</time>
      </trkpt>
      <trkpt lat="43.74164" lon="3.54562">
        <ele>277.5</ele>
        <time>2011-12-18T10:38:46Z</time>
      </trkpt>
      <trkpt lat="43.74164" lon="3.54553">
        <ele>275.7</ele>
        <time>2011-12-18T10:39:19Z</time>
      </trkpt>
      <trkpt lat="43.74162" lon="3.54549">
        <ele>275.3</ele>
        <time>2011-12-18T10:39:24Z</time>
      </trkpt>
      <trkpt lat="43.7416" lon="3.54543">
        <ele>274.8</ele>
        <time>2011-12-18T10:39:29Z</time>
      </trkpt>
      <trkpt lat="43.74159" lon="3.54539">
        <ele>274</ele>
        <time>2011-12-18T10:39:36Z</time>
      </trkpt>
      <trkpt lat="43.74156" lon="3.54535">
        <ele>272.7</ele>
        <time>2011-12-18T10:39:41Z</time>
      </trkpt>
      <trkpt lat="43.74153" lon="3.5453">
        <ele>272.2</ele>
        <time>2011-12-18T10:39:46Z</time>
      </trkpt>
      <trkpt lat="43.74152" lon="3.54525">
        <ele>271.6</ele>
        <time>2011-12-18T10:39:51Z</time>
      </trkpt>
      <trkpt lat="43.74152" lon="3.54524">
        <ele>271.3</ele>
        <time>2011-12-18T10:39:52Z</time>
      </trkpt>
      <trkpt lat="43.74154" lon="3.54514">
        <ele>270.3</ele>
        <time>2011-12-18T10:40:01Z</time>
      </trkpt>
      <trkpt lat="43.74154" lon="3.54509">
        <ele>269.5</ele>
        <time>2011-12-18T10:40:05Z</time>
      </trkpt>
      <trkpt lat="43.74155" lon="3.54503">
        <ele>268.2</ele>
        <time>2011-12-18T10:40:11Z</time>
      </trkpt>
      <trkpt lat="43.74155" lon="3.54498">
        <ele>267.2</ele>
        <time>2011-12-18T10:40:15Z</time>
      </trkpt>
      <trkpt lat="43.74154" lon="3.54492">
        <ele>267.4</ele>
        <time>2011-12-18T10:40:19Z</time>
      </trkpt>
      <trkpt lat="43.74154" lon="3.54486">
        <ele>267.2</ele>
        <time>2011-12-18T10:40:23Z</time>
      </trkpt>
      <trkpt lat="43.74154" lon="3.5448">
        <ele>267.5</ele>
        <time>2011-12-18T10:40:27Z</time>
      </trkpt>
      <trkpt lat="43.74152" lon="3.54474">
        <ele>267</ele>
        <time>2011-12-18T10:40:31Z</time>
      </trkpt>
      <trkpt lat="43.74151" lon="3.54469">
        <ele>268.2</ele>
        <time>2011-12-18T10:40:36Z</time>
      </trkpt>
      <trkpt lat="43.74149" lon="3.54465">
        <ele>267.2</ele>
        <time>2011-12-18T10:40:40Z</time>
      </trkpt>
      <trkpt lat="43.74147" lon="3.54461">
        <ele>265.4</ele>
        <time>2011-12-18T10:40:43Z</time>
      </trkpt>
      <trkpt lat="43.74145" lon="3.54455">
        <ele>266.1</ele>
        <time>2011-12-18T10:40:47Z</time>
      </trkpt>
      <trkpt lat="43.74144" lon="3.5445">
        <ele>266.2</ele>
        <time>2011-12-18T10:40:50Z</time>
      </trkpt>
      <trkpt lat="43.74145" lon="3.54445">
        <ele>265.8</ele>
        <time>2011-12-18T10:40:54Z</time>
      </trkpt>
      <trkpt lat="43.74145" lon="3.54444">
        <ele>265.5</ele>
        <time>2011-12-18T10:40:55Z</time>
      </trkpt>
      <trkpt lat="43.74144" lon="3.54435">
        <ele>266.5</ele>
        <time>2011-12-18T10:41:01Z</time>
      </trkpt>
      <trkpt lat="43.74144" lon="3.54429">
        <ele>265.8</ele>
        <time>2011-12-18T10:41:05Z</time>
      </trkpt>
      <trkpt lat="43.74143" lon="3.54423">
        <ele>266.6</ele>
        <time>2011-12-18T10:41:09Z</time>
      </trkpt>
      <trkpt lat="43.74142" lon="3.54418">
        <ele>265.9</ele>
        <time>2011-12-18T10:41:12Z</time>
      </trkpt>
      <trkpt lat="43.74142" lon="3.54413">
        <ele>266.8</ele>
        <time>2011-12-18T10:41:15Z</time>
      </trkpt>
      <trkpt lat="43.7414" lon="3.54409">
        <ele>266.6</ele>
        <time>2011-12-18T10:41:19Z</time>
      </trkpt>
      <trkpt lat="43.74139" lon="3.54403">
        <ele>266.1</ele>
        <time>2011-12-18T10:41:25Z</time>
      </trkpt>
      <trkpt lat="43.74138" lon="3.54397">
        <ele>265.3</ele>
        <time>2011-12-18T10:41:29Z</time>
      </trkpt>
      <trkpt lat="43.74138" lon="3.54392">
        <ele>265</ele>
        <time>2011-12-18T10:41:34Z</time>
      </trkpt>
      <trkpt lat="43.74138" lon="3.54386">
        <ele>265.5</ele>
        <time>2011-12-18T10:41:39Z</time>
      </trkpt>
      <trkpt lat="43.74137" lon="3.5438">
        <ele>265.4</ele>
        <time>2011-12-18T10:41:46Z</time>
      </trkpt>
      <trkpt lat="43.74137" lon="3.54375">
        <ele>263.6</ele>
        <time>2011-12-18T10:41:52Z</time>
      </trkpt>
      <trkpt lat="43.74137" lon="3.5437">
        <ele>262.2</ele>
        <time>2011-12-18T10:41:57Z</time>
      </trkpt>
      <trkpt lat="43.74137" lon="3.54369">
        <ele>262.6</ele>
        <time>2011-12-18T10:41:58Z</time>
      </trkpt>
      <trkpt lat="43.74138" lon="3.54358">
        <ele>260.3</ele>
        <time>2011-12-18T10:42:09Z</time>
      </trkpt>
      <trkpt lat="43.7414" lon="3.54353">
        <ele>259.1</ele>
        <time>2011-12-18T10:42:15Z</time>
      </trkpt>
      <trkpt lat="43.74141" lon="3.54347">
        <ele>258</ele>
        <time>2011-12-18T10:42:23Z</time>
      </trkpt>
      <trkpt lat="43.74138" lon="3.54342">
        <ele>258</ele>
        <time>2011-12-18T10:42:33Z</time>
      </trkpt>
      <trkpt lat="43.74136" lon="3.54337">
        <ele>258.3</ele>
        <time>2011-12-18T10:42:41Z</time>
      </trkpt>
      <trkpt lat="43.74137" lon="3.54331">
        <ele>256.5</ele>
        <time>2011-12-18T10:42:49Z</time>
      </trkpt>
      <trkpt lat="43.74139" lon="3.54327">
        <ele>257.9</ele>
        <time>2011-12-18T10:42:56Z</time>
      </trkpt>
      <trkpt lat="43.74144" lon="3.54328">
        <ele>259.5</ele>
        <time>2011-12-18T10:43:06Z</time>
      </trkpt>
      <trkpt lat="43.74144" lon="3.54328">
        <ele>259.6</ele>
        <time>2011-12-18T10:43:07Z</time>
      </trkpt>
      <trkpt lat="43.74148" lon="3.54338">
        <ele>259.7</ele>
        <time>2011-12-18T10:43:20Z</time>
      </trkpt>
      <trkpt lat="43.74148" lon="3.54343">
        <ele>261</ele>
        <time>2011-12-18T10:43:26Z</time>
      </trkpt>
      <trkpt lat="43.74152" lon="3.54345">
        <ele>260.3</ele>
        <time>2011-12-18T10:43:36Z</time>
      </trkpt>
      <trkpt lat="43.74155" lon="3.54341">
        <ele>261</ele>
        <time>2011-12-18T10:43:42Z</time>
      </trkpt>
      <trkpt lat="43.74159" lon="3.54338">
        <ele>264</ele>
        <time>2011-12-18T10:43:49Z</time>
      </trkpt>
      <trkpt lat="43.74162" lon="3.54334">
        <ele>264.9</ele>
        <time>2011-12-18T10:43:55Z</time>
      </trkpt>
      <trkpt lat="43.74166" lon="3.54331">
        <ele>265.1</ele>
        <time>2011-12-18T10:44:02Z</time>
      </trkpt>
      <trkpt lat="43.74168" lon="3.54325">
        <ele>267.7</ele>
        <time>2011-12-18T10:44:08Z</time>
      </trkpt>
      <trkpt lat="43.74168" lon="3.54324">
        <ele>268.1</ele>
        <time>2011-12-18T10:44:09Z</time>
      </trkpt>
      <trkpt lat="43.74173" lon="3.54315">
        <ele>268.8</ele>
        <time>2011-12-18T10:44:20Z</time>
      </trkpt>
      <trkpt lat="43.74176" lon="3.54311">
        <ele>269.5</ele>
        <time>2011-12-18T10:44:27Z</time>
      </trkpt>
      <trkpt lat="43.7418" lon="3.54309">
        <ele>270.5</ele>
        <time>2011-12-18T10:44:35Z</time>
      </trkpt>
      <trkpt lat="43.74184" lon="3.54312">
        <ele>270.2</ele>
        <time>2011-12-18T10:44:41Z</time>
      </trkpt>
      <trkpt lat="43.74186" lon="3.54317">
        <ele>270.5</ele>
        <time>2011-12-18T10:44:48Z</time>
      </trkpt>
      <trkpt lat="43.74187" lon="3.54322">
        <ele>271.1</ele>
        <time>2011-12-18T10:44:54Z</time>
      </trkpt>
      <trkpt lat="43.7419" lon="3.54327">
        <ele>271.6</ele>
        <time>2011-12-18T10:45:00Z</time>
      </trkpt>
      <trkpt lat="43.74191" lon="3.54332">
        <ele>272.5</ele>
        <time>2011-12-18T10:45:06Z</time>
      </trkpt>
      <trkpt lat="43.74192" lon="3.54337">
        <ele>273.2</ele>
        <time>2011-12-18T10:45:11Z</time>
      </trkpt>
      <trkpt lat="43.74192" lon="3.54339">
        <ele>273</ele>
        <time>2011-12-18T10:45:12Z</time>
      </trkpt>
      <trkpt lat="43.74192" lon="3.54348">
        <ele>272.9</ele>
        <time>2011-12-18T10:45:20Z</time>
      </trkpt>
      <trkpt lat="43.74194" lon="3.54353">
        <ele>273.8</ele>
        <time>2011-12-18T10:45:25Z</time>
      </trkpt>
      <trkpt lat="43.74196" lon="3.54359">
        <ele>274.3</ele>
        <time>2011-12-18T10:45:31Z</time>
      </trkpt>
      <trkpt lat="43.74198" lon="3.54364">
        <ele>274.2</ele>
        <time>2011-12-18T10:45:36Z</time>
      </trkpt>
      <trkpt lat="43.742" lon="3.54369">
        <ele>274.1</ele>
        <time>2011-12-18T10:45:41Z</time>
      </trkpt>
      <trkpt lat="43.74201" lon="3.54374">
        <ele>274.4</ele>
        <time>2011-12-18T10:45:45Z</time>
      </trkpt>
      <trkpt lat="43.74202" lon="3.54379">
        <ele>274.3</ele>
        <time>2011-12-18T10:45:49Z</time>
      </trkpt>
      <trkpt lat="43.74202" lon="3.54385">
        <ele>275.9</ele>
        <time>2011-12-18T10:45:53Z</time>
      </trkpt>
      <trkpt lat="43.74204" lon="3.5439">
        <ele>276</ele>
        <time>2011-12-18T10:45:58Z</time>
      </trkpt>
      <trkpt lat="43.74204" lon="3.54396">
        <ele>276.4</ele>
        <time>2011-12-18T10:46:03Z</time>
      </trkpt>
      <trkpt lat="43.74204" lon="3.54401">
        <ele>276.8</ele>
        <time>2011-12-18T10:46:08Z</time>
      </trkpt>
      <trkpt lat="43.74201" lon="3.54406">
        <ele>278.9</ele>
        <time>2011-12-18T10:46:13Z</time>
      </trkpt>
      <trkpt lat="43.742" lon="3.54407">
        <ele>279.1</ele>
        <time>2011-12-18T10:46:14Z</time>
      </trkpt>
      <trkpt lat="43.74198" lon="3.54416">
        <ele>279.6</ele>
        <time>2011-12-18T10:46:22Z</time>
      </trkpt>
      <trkpt lat="43.74198" lon="3.54422">
        <ele>279.1</ele>
        <time>2011-12-18T10:46:26Z</time>
      </trkpt>
      <trkpt lat="43.74198" lon="3.54428">
        <ele>278.6</ele>
        <time>2011-12-18T10:46:31Z</time>
      </trkpt>
      <trkpt lat="43.74202" lon="3.54425">
        <ele>280.5</ele>
        <time>2011-12-18T10:46:44Z</time>
      </trkpt>
      <trkpt lat="43.74204" lon="3.54421">
        <ele>280.5</ele>
        <time>2011-12-18T10:46:50Z</time>
      </trkpt>
      <trkpt lat="43.74207" lon="3.54417">
        <ele>281.6</ele>
        <time>2011-12-18T10:46:57Z</time>
      </trkpt>
      <trkpt lat="43.74211" lon="3.54414">
        <ele>282.4</ele>
        <time>2011-12-18T10:47:03Z</time>
      </trkpt>
      <trkpt lat="43.74214" lon="3.5441">
        <ele>282.4</ele>
        <time>2011-12-18T10:47:09Z</time>
      </trkpt>
      <trkpt lat="43.74216" lon="3.54406">
        <ele>283.5</ele>
        <time>2011-12-18T10:47:17Z</time>
      </trkpt>
      <trkpt lat="43.74217" lon="3.54405">
        <ele>283.8</ele>
        <time>2011-12-18T10:47:18Z</time>
      </trkpt>
      <trkpt lat="43.74222" lon="3.54397">
        <ele>285.6</ele>
        <time>2011-12-18T10:47:32Z</time>
      </trkpt>
      <trkpt lat="43.74224" lon="3.54392">
        <ele>287</ele>
        <time>2011-12-18T10:47:40Z</time>
      </trkpt>
      <trkpt lat="43.74228" lon="3.54389">
        <ele>287.3</ele>
        <time>2011-12-18T10:47:46Z</time>
      </trkpt>
      <trkpt lat="43.7423" lon="3.54384">
        <ele>287.3</ele>
        <time>2011-12-18T10:47:52Z</time>
      </trkpt>
      <trkpt lat="43.74232" lon="3.54379">
        <ele>287.5</ele>
        <time>2011-12-18T10:47:57Z</time>
      </trkpt>
      <trkpt lat="43.74233" lon="3.54374">
        <ele>289.3</ele>
        <time>2011-12-18T10:48:02Z</time>
      </trkpt>
      <trkpt lat="43.74234" lon="3.54368">
        <ele>290.6</ele>
        <time>2011-12-18T10:48:07Z</time>
      </trkpt>
      <trkpt lat="43.74235" lon="3.54363">
        <ele>289.9</ele>
        <time>2011-12-18T10:48:12Z</time>
      </trkpt>
      <trkpt lat="43.74238" lon="3.54358">
        <ele>290.3</ele>
        <time>2011-12-18T10:48:17Z</time>
      </trkpt>
      <trkpt lat="43.74239" lon="3.54353">
        <ele>291</ele>
        <time>2011-12-18T10:48:23Z</time>
      </trkpt>
      <trkpt lat="43.7424" lon="3.54353">
        <ele>291</ele>
        <time>2011-12-18T10:48:24Z</time>
      </trkpt>
      <trkpt lat="43.74244" lon="3.54344">
        <ele>292.7</ele>
        <time>2011-12-18T10:48:36Z</time>
      </trkpt>
      <trkpt lat="43.74245" lon="3.54339">
        <ele>293.2</ele>
        <time>2011-12-18T10:48:41Z</time>
      </trkpt>
      <trkpt lat="43.74247" lon="3.54334">
        <ele>293.9</ele>
        <time>2011-12-18T10:48:46Z</time>
      </trkpt>
      <trkpt lat="43.74249" lon="3.54329">
        <ele>295</ele>
        <time>2011-12-18T10:48:50Z</time>
      </trkpt>
      <trkpt lat="43.74251" lon="3.54324">
        <ele>294.3</ele>
        <time>2011-12-18T10:48:55Z</time>
      </trkpt>
      <trkpt lat="43.74253" lon="3.5432">
        <ele>296.1</ele>
        <time>2011-12-18T10:49:00Z</time>
      </trkpt>
      <trkpt lat="43.74255" lon="3.54315">
        <ele>296.5</ele>
        <time>2011-12-18T10:49:05Z</time>
      </trkpt>
      <trkpt lat="43.74257" lon="3.5431">
        <ele>296.3</ele>
        <time>2011-12-18T10:49:11Z</time>
      </trkpt>
      <trkpt lat="43.74259" lon="3.54305">
        <ele>297.4</ele>
        <time>2011-12-18T10:49:17Z</time>
      </trkpt>
      <trkpt lat="43.74261" lon="3.543">
        <ele>298.8</ele>
        <time>2011-12-18T10:49:23Z</time>
      </trkpt>
      <trkpt lat="43.74264" lon="3.54295">
        <ele>300.8</ele>
        <time>2011-12-18T10:49:28Z</time>
      </trkpt>
      <trkpt lat="43.74264" lon="3.54294">
        <ele>300.9</ele>
        <time>2011-12-18T10:49:29Z</time>
      </trkpt>
      <trkpt lat="43.74269" lon="3.54286">
        <ele>302</ele>
        <time>2011-12-18T10:49:38Z</time>
      </trkpt>
      <trkpt lat="43.74271" lon="3.54281">
        <ele>303.8</ele>
        <time>2011-12-18T10:49:43Z</time>
      </trkpt>
      <trkpt lat="43.74273" lon="3.54277">
        <ele>303.9</ele>
        <time>2011-12-18T10:49:48Z</time>
      </trkpt>
      <trkpt lat="43.74276" lon="3.54273">
        <ele>304</ele>
        <time>2011-12-18T10:49:53Z</time>
      </trkpt>
      <trkpt lat="43.74278" lon="3.54268">
        <ele>304.3</ele>
        <time>2011-12-18T10:49:58Z</time>
      </trkpt>
      <trkpt lat="43.74282" lon="3.54265">
        <ele>303.7</ele>
        <time>2011-12-18T10:50:03Z</time>
      </trkpt>
      <trkpt lat="43.74285" lon="3.54262">
        <ele>303.8</ele>
        <time>2011-12-18T10:50:08Z</time>
      </trkpt>
      <trkpt lat="43.74288" lon="3.54258">
        <ele>303.4</ele>
        <time>2011-12-18T10:50:13Z</time>
      </trkpt>
      <trkpt lat="43.7429" lon="3.54254">
        <ele>304.4</ele>
        <time>2011-12-18T10:50:18Z</time>
      </trkpt>
      <trkpt lat="43.74293" lon="3.54249">
        <ele>305.9</ele>
        <time>2011-12-18T10:50:25Z</time>
      </trkpt>
      <trkpt lat="43.74296" lon="3.54246">
        <ele>306.3</ele>
        <time>2011-12-18T10:50:31Z</time>
      </trkpt>
      <trkpt lat="43.74296" lon="3.54245">
        <ele>306.1</ele>
        <time>2011-12-18T10:50:32Z</time>
      </trkpt>
      <trkpt lat="43.74303" lon="3.5424">
        <ele>307.5</ele>
        <time>2011-12-18T10:50:44Z</time>
      </trkpt>
      <trkpt lat="43.74307" lon="3.54239">
        <ele>308.2</ele>
        <time>2011-12-18T10:50:49Z</time>
      </trkpt>
      <trkpt lat="43.74311" lon="3.54237">
        <ele>308.9</ele>
        <time>2011-12-18T10:50:55Z</time>
      </trkpt>
      <trkpt lat="43.74314" lon="3.54234">
        <ele>310.3</ele>
        <time>2011-12-18T10:51:01Z</time>
      </trkpt>
      <trkpt lat="43.74318" lon="3.54229">
        <ele>309.3</ele>
        <time>2011-12-18T10:51:08Z</time>
      </trkpt>
      <trkpt lat="43.7432" lon="3.54227">
        <ele>309.3</ele>
        <time>2011-12-18T10:51:11Z</time>
      </trkpt>
      <trkpt lat="43.74323" lon="3.54223">
        <ele>310.4</ele>
        <time>2011-12-18T10:51:14Z</time>
      </trkpt>
      <trkpt lat="43.74325" lon="3.5422">
        <ele>312.2</ele>
        <time>2011-12-18T10:51:17Z</time>
      </trkpt>
      <trkpt lat="43.74328" lon="3.54215">
        <ele>312.8</ele>
        <time>2011-12-18T10:51:21Z</time>
      </trkpt>
      <trkpt lat="43.74331" lon="3.54212">
        <ele>311.7</ele>
        <time>2011-12-18T10:51:25Z</time>
      </trkpt>
      <trkpt lat="43.74334" lon="3.54208">
        <ele>310.8</ele>
        <time>2011-12-18T10:51:29Z</time>
      </trkpt>
      <trkpt lat="43.74337" lon="3.54204">
        <ele>310.7</ele>
        <time>2011-12-18T10:51:33Z</time>
      </trkpt>
      <trkpt lat="43.74338" lon="3.54204">
        <ele>310.8</ele>
        <time>2011-12-18T10:51:34Z</time>
      </trkpt>
      <trkpt lat="43.74345" lon="3.54199">
        <ele>313.6</ele>
        <time>2011-12-18T10:51:42Z</time>
      </trkpt>
      <trkpt lat="43.74348" lon="3.54196">
        <ele>314.8</ele>
        <time>2011-12-18T10:51:47Z</time>
      </trkpt>
      <trkpt lat="43.74352" lon="3.54195">
        <ele>314.4</ele>
        <time>2011-12-18T10:51:51Z</time>
      </trkpt>
      <trkpt lat="43.74356" lon="3.54195">
        <ele>314.5</ele>
        <time>2011-12-18T10:51:56Z</time>
      </trkpt>
      <trkpt lat="43.7436" lon="3.54195">
        <ele>312.9</ele>
        <time>2011-12-18T10:52:01Z</time>
      </trkpt>
      <trkpt lat="43.74364" lon="3.54195">
        <ele>312.7</ele>
        <time>2011-12-18T10:52:06Z</time>
      </trkpt>
      <trkpt lat="43.74368" lon="3.54196">
        <ele>313.1</ele>
        <time>2011-12-18T10:52:10Z</time>
      </trkpt>
      <trkpt lat="43.74372" lon="3.54196">
        <ele>313.1</ele>
        <time>2011-12-18T10:52:15Z</time>
      </trkpt>
      <trkpt lat="43.74376" lon="3.54197">
        <ele>314.1</ele>
        <time>2011-12-18T10:52:20Z</time>
      </trkpt>
      <trkpt lat="43.7438" lon="3.54197">
        <ele>315.4</ele>
        <time>2011-12-18T10:52:25Z</time>
      </trkpt>
      <trkpt lat="43.74384" lon="3.54195">
        <ele>317</ele>
        <time>2011-12-18T10:52:30Z</time>
      </trkpt>
      <trkpt lat="43.74388" lon="3.54194">
        <ele>318.4</ele>
        <time>2011-12-18T10:52:40Z</time>
      </trkpt>
      <trkpt lat="43.74389" lon="3.54194">
        <ele>318.5</ele>
        <time>2011-12-18T10:52:41Z</time>
      </trkpt>
      <trkpt lat="43.74396" lon="3.54191">
        <ele>319.2</ele>
        <time>2011-12-18T10:53:17Z</time>
      </trkpt>
      <trkpt lat="43.744" lon="3.54188">
        <ele>318.2</ele>
        <time>2011-12-18T10:53:23Z</time>
      </trkpt>
      <trkpt lat="43.74403" lon="3.54186">
        <ele>317.2</ele>
        <time>2011-12-18T10:53:29Z</time>
      </trkpt>
      <trkpt lat="43.74407" lon="3.54184">
        <ele>317.8</ele>
        <time>2011-12-18T10:53:34Z</time>
      </trkpt>
      <trkpt lat="43.74411" lon="3.54182">
        <ele>317.7</ele>
        <time>2011-12-18T10:53:38Z</time>
      </trkpt>
      <trkpt lat="43.74416" lon="3.54181">
        <ele>317.4</ele>
        <time>2011-12-18T10:53:42Z</time>
      </trkpt>
      <trkpt lat="43.74417" lon="3.54181">
        <ele>316.9</ele>
        <time>2011-12-18T10:53:43Z</time>
      </trkpt>
      <trkpt lat="43.74424" lon="3.54178">
        <ele>315.7</ele>
        <time>2011-12-18T10:53:50Z</time>
      </trkpt>
      <trkpt lat="43.74427" lon="3.54177">
        <ele>315.8</ele>
        <time>2011-12-18T10:53:54Z</time>
      </trkpt>
      <trkpt lat="43.74431" lon="3.54176">
        <ele>317.7</ele>
        <time>2011-12-18T10:53:58Z</time>
      </trkpt>
      <trkpt lat="43.74435" lon="3.54177">
        <ele>318.9</ele>
        <time>2011-12-18T10:54:02Z</time>
      </trkpt>
      <trkpt lat="43.74439" lon="3.54179">
        <ele>319.5</ele>
        <time>2011-12-18T10:54:06Z</time>
      </trkpt>
      <trkpt lat="43.74444" lon="3.54179">
        <ele>319.8</ele>
        <time>2011-12-18T10:54:10Z</time>
      </trkpt>
      <trkpt lat="43.74448" lon="3.54177">
        <ele>320.4</ele>
        <time>2011-12-18T10:54:14Z</time>
      </trkpt>
      <trkpt lat="43.74452" lon="3.54173">
        <ele>319.9</ele>
        <time>2011-12-18T10:54:18Z</time>
      </trkpt>
      <trkpt lat="43.74455" lon="3.5417">
        <ele>319.8</ele>
        <time>2011-12-18T10:54:22Z</time>
      </trkpt>
      <trkpt lat="43.74458" lon="3.54167">
        <ele>319.1</ele>
        <time>2011-12-18T10:54:26Z</time>
      </trkpt>
      <trkpt lat="43.74462" lon="3.54166">
        <ele>318.1</ele>
        <time>2011-12-18T10:54:30Z</time>
      </trkpt>
      <trkpt lat="43.74466" lon="3.54165">
        <ele>317.4</ele>
        <time>2011-12-18T10:54:34Z</time>
      </trkpt>
      <trkpt lat="43.74469" lon="3.54162">
        <ele>317.3</ele>
        <time>2011-12-18T10:54:39Z</time>
      </trkpt>
      <trkpt lat="43.74473" lon="3.5416">
        <ele>318.5</ele>
        <time>2011-12-18T10:54:44Z</time>
      </trkpt>
      <trkpt lat="43.74474" lon="3.5416">
        <ele>318.8</ele>
        <time>2011-12-18T10:54:45Z</time>
      </trkpt>
      <trkpt lat="43.7448" lon="3.54158">
        <ele>318</ele>
        <time>2011-12-18T10:54:52Z</time>
      </trkpt>
      <trkpt lat="43.74484" lon="3.54157">
        <ele>317.6</ele>
        <time>2011-12-18T10:54:56Z</time>
      </trkpt>
      <trkpt lat="43.74488" lon="3.54157">
        <ele>317.9</ele>
        <time>2011-12-18T10:55:00Z</time>
      </trkpt>
      <trkpt lat="43.74491" lon="3.54157">
        <ele>317.8</ele>
        <time>2011-12-18T10:55:03Z</time>
      </trkpt>
      <trkpt lat="43.74495" lon="3.54157">
        <ele>318.1</ele>
        <time>2011-12-18T10:55:06Z</time>
      </trkpt>
      <trkpt lat="43.74499" lon="3.54157">
        <ele>317.9</ele>
        <time>2011-12-18T10:55:09Z</time>
      </trkpt>
      <trkpt lat="43.74502" lon="3.54157">
        <ele>317.4</ele>
        <time>2011-12-18T10:55:12Z</time>
      </trkpt>
      <trkpt lat="43.74507" lon="3.54157">
        <ele>318.5</ele>
        <time>2011-12-18T10:55:21Z</time>
      </trkpt>
      <trkpt lat="43.74511" lon="3.54157">
        <ele>318</ele>
        <time>2011-12-18T10:55:35Z</time>
      </trkpt>
      <trkpt lat="43.74515" lon="3.54156">
        <ele>318.1</ele>
        <time>2011-12-18T10:55:39Z</time>
      </trkpt>
      <trkpt lat="43.74519" lon="3.54155">
        <ele>317.3</ele>
        <time>2011-12-18T10:55:44Z</time>
      </trkpt>
      <trkpt lat="43.74522" lon="3.54152">
        <ele>316.7</ele>
        <time>2011-12-18T10:55:49Z</time>
      </trkpt>
      <trkpt lat="43.74523" lon="3.54152">
        <ele>316.8</ele>
        <time>2011-12-18T10:55:50Z</time>
      </trkpt>
      <trkpt lat="43.7453" lon="3.54149">
        <ele>317</ele>
        <time>2011-12-18T10:55:58Z</time>
      </trkpt>
      <trkpt lat="43.74533" lon="3.54147">
        <ele>317.2</ele>
        <time>2011-12-18T10:56:03Z</time>
      </trkpt>
      <trkpt lat="43.74537" lon="3.54147">
        <ele>317.4</ele>
        <time>2011-12-18T10:56:08Z</time>
      </trkpt>
      <trkpt lat="43.74542" lon="3.54146">
        <ele>316.1</ele>
        <time>2011-12-18T10:56:13Z</time>
      </trkpt>
      <trkpt lat="43.74545" lon="3.54145">
        <ele>315.8</ele>
        <time>2011-12-18T10:56:17Z</time>
      </trkpt>
      <trkpt lat="43.74549" lon="3.54145">
        <ele>316.4</ele>
        <time>2011-12-18T10:56:21Z</time>
      </trkpt>
      <trkpt lat="43.74552" lon="3.54147">
        <ele>316.7</ele>
        <time>2011-12-18T10:56:25Z</time>
      </trkpt>
      <trkpt lat="43.74556" lon="3.54149">
        <ele>317.6</ele>
        <time>2011-12-18T10:56:29Z</time>
      </trkpt>
      <trkpt lat="43.74561" lon="3.5415">
        <ele>318.5</ele>
        <time>2011-12-18T10:56:34Z</time>
      </trkpt>
      <trkpt lat="43.74564" lon="3.54148">
        <ele>318.6</ele>
        <time>2011-12-18T10:56:39Z</time>
      </trkpt>
      <trkpt lat="43.74569" lon="3.54146">
        <ele>318.5</ele>
        <time>2011-12-18T10:56:44Z</time>
      </trkpt>
      <trkpt lat="43.74572" lon="3.54144">
        <ele>319.9</ele>
        <time>2011-12-18T10:56:50Z</time>
      </trkpt>
      <trkpt lat="43.74573" lon="3.54144">
        <ele>320.4</ele>
        <time>2011-12-18T10:56:51Z</time>
      </trkpt>
      <trkpt lat="43.7458" lon="3.54143">
        <ele>321.6</ele>
        <time>2011-12-18T10:56:59Z</time>
      </trkpt>
      <trkpt lat="43.74584" lon="3.54142">
        <ele>322.2</ele>
        <time>2011-12-18T10:57:03Z</time>
      </trkpt>
      <trkpt lat="43.74588" lon="3.5414">
        <ele>323.3</ele>
        <time>2011-12-18T10:57:08Z</time>
      </trkpt>
      <trkpt lat="43.74591" lon="3.54139">
        <ele>322.5</ele>
        <time>2011-12-18T10:57:12Z</time>
      </trkpt>
      <trkpt lat="43.74595" lon="3.54138">
        <ele>324.3</ele>
        <time>2011-12-18T10:57:17Z</time>
      </trkpt>
      <trkpt lat="43.74599" lon="3.54136">
        <ele>325.3</ele>
        <time>2011-12-18T10:57:21Z</time>
      </trkpt>
      <trkpt lat="43.74603" lon="3.54135">
        <ele>324.9</ele>
        <time>2011-12-18T10:57:25Z</time>
      </trkpt>
      <trkpt lat="43.74607" lon="3.54133">
        <ele>324.5</ele>
        <time>2011-12-18T10:57:29Z</time>
      </trkpt>
      <trkpt lat="43.74611" lon="3.54132">
        <ele>324.4</ele>
        <time>2011-12-18T10:57:33Z</time>
      </trkpt>
      <trkpt lat="43.74615" lon="3.54129">
        <ele>324.5</ele>
        <time>2011-12-18T10:57:38Z</time>
      </trkpt>
      <trkpt lat="43.74618" lon="3.54126">
        <ele>323.8</ele>
        <time>2011-12-18T10:57:42Z</time>
      </trkpt>
      <trkpt lat="43.74622" lon="3.54124">
        <ele>323.2</ele>
        <time>2011-12-18T10:57:47Z</time>
      </trkpt>
      <trkpt lat="43.74625" lon="3.54121">
        <ele>323.2</ele>
        <time>2011-12-18T10:57:53Z</time>
      </trkpt>
      <trkpt lat="43.74626" lon="3.54121">
        <ele>323.4</ele>
        <time>2011-12-18T10:57:54Z</time>
      </trkpt>
      <trkpt lat="43.74633" lon="3.5412">
        <ele>324</ele>
        <time>2011-12-18T10:58:02Z</time>
      </trkpt>
      <trkpt lat="43.74637" lon="3.54119">
        <ele>323.6</ele>
        <time>2011-12-18T10:58:05Z</time>
      </trkpt>
      <trkpt lat="43.74641" lon="3.5412">
        <ele>322.8</ele>
        <time>2011-12-18T10:58:08Z</time>
      </trkpt>
      <trkpt lat="43.74644" lon="3.54122">
        <ele>322.4</ele>
        <time>2011-12-18T10:58:11Z</time>
      </trkpt>
      <trkpt lat="43.74648" lon="3.54123">
        <ele>321.9</ele>
        <time>2011-12-18T10:58:14Z</time>
      </trkpt>
      <trkpt lat="43.74651" lon="3.54124">
        <ele>322</ele>
        <time>2011-12-18T10:58:17Z</time>
      </trkpt>
      <trkpt lat="43.74655" lon="3.54124">
        <ele>322</ele>
        <time>2011-12-18T10:58:20Z</time>
      </trkpt>
      <trkpt lat="43.74659" lon="3.54123">
        <ele>322.3</ele>
        <time>2011-12-18T10:58:24Z</time>
      </trkpt>
      <trkpt lat="43.74663" lon="3.54123">
        <ele>321.3</ele>
        <time>2011-12-18T10:58:28Z</time>
      </trkpt>
      <trkpt lat="43.74667" lon="3.54123">
        <ele>321.4</ele>
        <time>2011-12-18T10:58:32Z</time>
      </trkpt>
      <trkpt lat="43.74671" lon="3.54121">
        <ele>322</ele>
        <time>2011-12-18T10:58:37Z</time>
      </trkpt>
      <trkpt lat="43.74675" lon="3.54119">
        <ele>322</ele>
        <time>2011-12-18T10:58:42Z</time>
      </trkpt>
      <trkpt lat="43.74679" lon="3.5412">
        <ele>322.9</ele>
        <time>2011-12-18T10:58:47Z</time>
      </trkpt>
      <trkpt lat="43.74682" lon="3.54121">
        <ele>323</ele>
        <time>2011-12-18T10:58:51Z</time>
      </trkpt>
      <trkpt lat="43.74687" lon="3.54122">
        <ele>322.3</ele>
        <time>2011-12-18T10:58:55Z</time>
      </trkpt>
      <trkpt lat="43.74687" lon="3.54122">
        <ele>322</ele>
        <time>2011-12-18T10:58:56Z</time>
      </trkpt>
      <trkpt lat="43.74695" lon="3.54123">
        <ele>320.3</ele>
        <time>2011-12-18T10:59:03Z</time>
      </trkpt>
      <trkpt lat="43.74699" lon="3.54124">
        <ele>318.5</ele>
        <time>2011-12-18T10:59:08Z</time>
      </trkpt>
      <trkpt lat="43.74704" lon="3.54124">
        <ele>317.8</ele>
        <time>2011-12-18T10:59:13Z</time>
      </trkpt>
      <trkpt lat="43.74708" lon="3.54125">
        <ele>317.3</ele>
        <time>2011-12-18T10:59:17Z</time>
      </trkpt>
      <trkpt lat="43.74711" lon="3.54126">
        <ele>317.1</ele>
        <time>2011-12-18T10:59:20Z</time>
      </trkpt>
      <trkpt lat="43.74715" lon="3.54125">
        <ele>316.4</ele>
        <time>2011-12-18T10:59:23Z</time>
      </trkpt>
      <trkpt lat="43.74719" lon="3.54125">
        <ele>316.1</ele>
        <time>2011-12-18T10:59:27Z</time>
      </trkpt>
      <trkpt lat="43.74723" lon="3.54125">
        <ele>315.9</ele>
        <time>2011-12-18T10:59:31Z</time>
      </trkpt>
      <trkpt lat="43.74727" lon="3.54126">
        <ele>314.4</ele>
        <time>2011-12-18T10:59:35Z</time>
      </trkpt>
      <trkpt lat="43.7473" lon="3.54129">
        <ele>314.1</ele>
        <time>2011-12-18T10:59:39Z</time>
      </trkpt>
      <trkpt lat="43.74734" lon="3.54131">
        <ele>313.3</ele>
        <time>2011-12-18T10:59:43Z</time>
      </trkpt>
      <trkpt lat="43.74738" lon="3.54132">
        <ele>313.8</ele>
        <time>2011-12-18T10:59:46Z</time>
      </trkpt>
      <trkpt lat="43.74741" lon="3.54133">
        <ele>312.9</ele>
        <time>2011-12-18T10:59:50Z</time>
      </trkpt>
      <trkpt lat="43.74746" lon="3.54135">
        <ele>312.4</ele>
        <time>2011-12-18T10:59:55Z</time>
      </trkpt>
      <trkpt lat="43.74749" lon="3.54136">
        <ele>312.6</ele>
        <time>2011-12-18T10:59:59Z</time>
      </trkpt>
      <trkpt lat="43.7475" lon="3.54136">
        <ele>312.3</ele>
        <time>2011-12-18T11:00:00Z</time>
      </trkpt>
      <trkpt lat="43.74756" lon="3.54139">
        <ele>311.3</ele>
        <time>2011-12-18T11:00:06Z</time>
      </trkpt>
      <trkpt lat="43.7476" lon="3.54142">
        <ele>310.7</ele>
        <time>2011-12-18T11:00:10Z</time>
      </trkpt>
      <trkpt lat="43.74763" lon="3.54145">
        <ele>310.7</ele>
        <time>2011-12-18T11:00:14Z</time>
      </trkpt>
      <trkpt lat="43.74763" lon="3.54151">
        <ele>311.1</ele>
        <time>2011-12-18T11:00:18Z</time>
      </trkpt>
      <trkpt lat="43.74762" lon="3.54157">
        <ele>311.1</ele>
        <time>2011-12-18T11:00:22Z</time>
      </trkpt>
      <trkpt lat="43.7476" lon="3.54162">
        <ele>311.2</ele>
        <time>2011-12-18T11:00:26Z</time>
      </trkpt>
      <trkpt lat="43.74759" lon="3.54168">
        <ele>311.4</ele>
        <time>2011-12-18T11:00:30Z</time>
      </trkpt>
      <trkpt lat="43.74757" lon="3.54173">
        <ele>311.4</ele>
        <time>2011-12-18T11:00:34Z</time>
      </trkpt>
      <trkpt lat="43.74756" lon="3.54177">
        <ele>312.6</ele>
        <time>2011-12-18T11:00:37Z</time>
      </trkpt>
      <trkpt lat="43.74756" lon="3.54182">
        <ele>310.9</ele>
        <time>2011-12-18T11:00:40Z</time>
      </trkpt>
      <trkpt lat="43.74755" lon="3.54188">
        <ele>310.9</ele>
        <time>2011-12-18T11:00:44Z</time>
      </trkpt>
      <trkpt lat="43.74754" lon="3.54193">
        <ele>311.8</ele>
        <time>2011-12-18T11:00:47Z</time>
      </trkpt>
      <trkpt lat="43.74754" lon="3.54197">
        <ele>312.1</ele>
        <time>2011-12-18T11:00:50Z</time>
      </trkpt>
      <trkpt lat="43.74753" lon="3.54202">
        <ele>312.3</ele>
        <time>2011-12-18T11:00:53Z</time>
      </trkpt>
      <trkpt lat="43.74752" lon="3.54208">
        <ele>312.1</ele>
        <time>2011-12-18T11:00:57Z</time>
      </trkpt>
      <trkpt lat="43.74753" lon="3.54214">
        <ele>312.2</ele>
        <time>2011-12-18T11:01:01Z</time>
      </trkpt>
      <trkpt lat="43.74753" lon="3.54215">
        <ele>312.4</ele>
        <time>2011-12-18T11:01:02Z</time>
      </trkpt>
      <trkpt lat="43.74754" lon="3.54224">
        <ele>313</ele>
        <time>2011-12-18T11:01:09Z</time>
      </trkpt>
      <trkpt lat="43.74755" lon="3.5423">
        <ele>313.3</ele>
        <time>2011-12-18T11:01:13Z</time>
      </trkpt>
      <trkpt lat="43.74756" lon="3.54235">
        <ele>314.3</ele>
        <time>2011-12-18T11:01:18Z</time>
      </trkpt>
      <trkpt lat="43.74757" lon="3.54241">
        <ele>314.3</ele>
        <time>2011-12-18T11:01:23Z</time>
      </trkpt>
      <trkpt lat="43.74759" lon="3.54245">
        <ele>313.8</ele>
        <time>2011-12-18T11:01:28Z</time>
      </trkpt>
      <trkpt lat="43.74761" lon="3.54251">
        <ele>313.8</ele>
        <time>2011-12-18T11:01:34Z</time>
      </trkpt>
      <trkpt lat="43.7476" lon="3.54257">
        <ele>315.4</ele>
        <time>2011-12-18T11:01:39Z</time>
      </trkpt>
      <trkpt lat="43.74759" lon="3.54262">
        <ele>314.1</ele>
        <time>2011-12-18T11:01:44Z</time>
      </trkpt>
      <trkpt lat="43.74757" lon="3.54267">
        <ele>315.6</ele>
        <time>2011-12-18T11:01:48Z</time>
      </trkpt>
      <trkpt lat="43.74756" lon="3.54273">
        <ele>315.8</ele>
        <time>2011-12-18T11:01:53Z</time>
      </trkpt>
      <trkpt lat="43.74757" lon="3.54279">
        <ele>315.7</ele>
        <time>2011-12-18T11:01:59Z</time>
      </trkpt>
      <trkpt lat="43.74756" lon="3.54285">
        <ele>317.1</ele>
        <time>2011-12-18T11:02:05Z</time>
      </trkpt>
      <trkpt lat="43.74756" lon="3.54286">
        <ele>317.3</ele>
        <time>2011-12-18T11:02:06Z</time>
      </trkpt>
      <trkpt lat="43.74756" lon="3.54295">
        <ele>319.2</ele>
        <time>2011-12-18T11:02:14Z</time>
      </trkpt>
      <trkpt lat="43.74755" lon="3.54301">
        <ele>319.4</ele>
        <time>2011-12-18T11:02:18Z</time>
      </trkpt>
      <trkpt lat="43.74754" lon="3.54306">
        <ele>319.1</ele>
        <time>2011-12-18T11:02:22Z</time>
      </trkpt>
      <trkpt lat="43.74754" lon="3.54312">
        <ele>320.1</ele>
        <time>2011-12-18T11:02:26Z</time>
      </trkpt>
      <trkpt lat="43.74755" lon="3.54318">
        <ele>319.8</ele>
        <time>2011-12-18T11:02:31Z</time>
      </trkpt>
      <trkpt lat="43.74754" lon="3.54323">
        <ele>319.2</ele>
        <time>2011-12-18T11:02:36Z</time>
      </trkpt>
      <trkpt lat="43.74754" lon="3.54329">
        <ele>320.1</ele>
        <time>2011-12-18T11:02:41Z</time>
      </trkpt>
      <trkpt lat="43.74754" lon="3.54335">
        <ele>320.8</ele>
        <time>2011-12-18T11:02:46Z</time>
      </trkpt>
      <trkpt lat="43.74754" lon="3.5434">
        <ele>322</ele>
        <time>2011-12-18T11:02:51Z</time>
      </trkpt>
      <trkpt lat="43.74754" lon="3.54346">
        <ele>321.6</ele>
        <time>2011-12-18T11:02:56Z</time>
      </trkpt>
      <trkpt lat="43.74754" lon="3.54352">
        <ele>322.2</ele>
        <time>2011-12-18T11:03:01Z</time>
      </trkpt>
      <trkpt lat="43.74754" lon="3.54358">
        <ele>321.8</ele>
        <time>2011-12-18T11:03:05Z</time>
      </trkpt>
      <trkpt lat="43.74754" lon="3.54363">
        <ele>322.3</ele>
        <time>2011-12-18T11:03:09Z</time>
      </trkpt>
      <trkpt lat="43.74754" lon="3.54365">
        <ele>322.6</ele>
        <time>2011-12-18T11:03:10Z</time>
      </trkpt>
      <trkpt lat="43.74754" lon="3.54374">
        <ele>321</ele>
        <time>2011-12-18T11:03:17Z</time>
      </trkpt>
      <trkpt lat="43.74754" lon="3.5438">
        <ele>320.6</ele>
        <time>2011-12-18T11:03:21Z</time>
      </trkpt>
      <trkpt lat="43.74755" lon="3.54385">
        <ele>320.7</ele>
        <time>2011-12-18T11:03:25Z</time>
      </trkpt>
      <trkpt lat="43.74755" lon="3.5439">
        <ele>319.5</ele>
        <time>2011-12-18T11:03:29Z</time>
      </trkpt>
      <trkpt lat="43.74754" lon="3.54395">
        <ele>318.9</ele>
        <time>2011-12-18T11:03:33Z</time>
      </trkpt>
      <trkpt lat="43.74752" lon="3.54401">
        <ele>318.1</ele>
        <time>2011-12-18T11:03:37Z</time>
      </trkpt>
      <trkpt lat="43.74752" lon="3.54407">
        <ele>320</ele>
        <time>2011-12-18T11:03:41Z</time>
      </trkpt>
      <trkpt lat="43.74751" lon="3.54412">
        <ele>321</ele>
        <time>2011-12-18T11:03:45Z</time>
      </trkpt>
      <trkpt lat="43.7475" lon="3.54418">
        <ele>321.1</ele>
        <time>2011-12-18T11:03:49Z</time>
      </trkpt>
      <trkpt lat="43.74749" lon="3.54423">
        <ele>321.5</ele>
        <time>2011-12-18T11:03:53Z</time>
      </trkpt>
      <trkpt lat="43.74749" lon="3.54428">
        <ele>321.5</ele>
        <time>2011-12-18T11:03:57Z</time>
      </trkpt>
      <trkpt lat="43.74748" lon="3.54434">
        <ele>322.1</ele>
        <time>2011-12-18T11:04:01Z</time>
      </trkpt>
      <trkpt lat="43.74747" lon="3.54439">
        <ele>321.3</ele>
        <time>2011-12-18T11:04:05Z</time>
      </trkpt>
      <trkpt lat="43.74746" lon="3.54444">
        <ele>320.3</ele>
        <time>2011-12-18T11:04:09Z</time>
      </trkpt>
      <trkpt lat="43.74744" lon="3.54448">
        <ele>320.5</ele>
        <time>2011-12-18T11:04:12Z</time>
      </trkpt>
      <trkpt lat="43.74743" lon="3.5445">
        <ele>320.3</ele>
        <time>2011-12-18T11:04:13Z</time>
      </trkpt>
      <trkpt lat="43.74739" lon="3.54458">
        <ele>321.3</ele>
        <time>2011-12-18T11:04:19Z</time>
      </trkpt>
      <trkpt lat="43.74737" lon="3.54462">
        <ele>322.3</ele>
        <time>2011-12-18T11:04:23Z</time>
      </trkpt>
      <trkpt lat="43.74735" lon="3.54467">
        <ele>321.4</ele>
        <time>2011-12-18T11:04:27Z</time>
      </trkpt>
      <trkpt lat="43.74733" lon="3.54472">
        <ele>322.2</ele>
        <time>2011-12-18T11:04:31Z</time>
      </trkpt>
      <trkpt lat="43.74731" lon="3.54477">
        <ele>323.4</ele>
        <time>2011-12-18T11:04:35Z</time>
      </trkpt>
      <trkpt lat="43.74728" lon="3.54482">
        <ele>323.8</ele>
        <time>2011-12-18T11:04:39Z</time>
      </trkpt>
      <trkpt lat="43.74727" lon="3.54487">
        <ele>324.2</ele>
        <time>2011-12-18T11:04:43Z</time>
      </trkpt>
      <trkpt lat="43.74725" lon="3.54492">
        <ele>324.7</ele>
        <time>2011-12-18T11:04:47Z</time>
      </trkpt>
      <trkpt lat="43.74722" lon="3.54497">
        <ele>325.5</ele>
        <time>2011-12-18T11:04:52Z</time>
      </trkpt>
      <trkpt lat="43.74721" lon="3.54502">
        <ele>325.8</ele>
        <time>2011-12-18T11:04:57Z</time>
      </trkpt>
      <trkpt lat="43.74718" lon="3.54507">
        <ele>326.4</ele>
        <time>2011-12-18T11:05:02Z</time>
      </trkpt>
      <trkpt lat="43.74716" lon="3.54512">
        <ele>327.2</ele>
        <time>2011-12-18T11:05:06Z</time>
      </trkpt>
      <trkpt lat="43.74714" lon="3.54517">
        <ele>328.3</ele>
        <time>2011-12-18T11:05:11Z</time>
      </trkpt>
      <trkpt lat="43.74713" lon="3.54522">
        <ele>328</ele>
        <time>2011-12-18T11:05:16Z</time>
      </trkpt>
      <trkpt lat="43.74712" lon="3.54523">
        <ele>327.9</ele>
        <time>2011-12-18T11:05:17Z</time>
      </trkpt>
      <trkpt lat="43.74711" lon="3.54533">
        <ele>329.3</ele>
        <time>2011-12-18T11:05:26Z</time>
      </trkpt>
      <trkpt lat="43.7471" lon="3.54538">
        <ele>329</ele>
        <time>2011-12-18T11:05:30Z</time>
      </trkpt>
      <trkpt lat="43.74709" lon="3.54544">
        <ele>329.2</ele>
        <time>2011-12-18T11:05:35Z</time>
      </trkpt>
      <trkpt lat="43.74711" lon="3.54549">
        <ele>329.4</ele>
        <time>2011-12-18T11:05:40Z</time>
      </trkpt>
      <trkpt lat="43.74713" lon="3.54554">
        <ele>329.5</ele>
        <time>2011-12-18T11:05:45Z</time>
      </trkpt>
      <trkpt lat="43.74715" lon="3.54559">
        <ele>330.8</ele>
        <time>2011-12-18T11:05:51Z</time>
      </trkpt>
      <trkpt lat="43.74718" lon="3.54562">
        <ele>331.5</ele>
        <time>2011-12-18T11:05:57Z</time>
      </trkpt>
      <trkpt lat="43.74721" lon="3.54566">
        <ele>331.8</ele>
        <time>2011-12-18T11:06:03Z</time>
      </trkpt>
      <trkpt lat="43.74724" lon="3.5457">
        <ele>331.6</ele>
        <time>2011-12-18T11:06:08Z</time>
      </trkpt>
      <trkpt lat="43.74727" lon="3.54574">
        <ele>333.4</ele>
        <time>2011-12-18T11:06:13Z</time>
      </trkpt>
      <trkpt lat="43.74731" lon="3.54577">
        <ele>334.7</ele>
        <time>2011-12-18T11:06:18Z</time>
      </trkpt>
      <trkpt lat="43.74731" lon="3.54577">
        <ele>335</ele>
        <time>2011-12-18T11:06:19Z</time>
      </trkpt>
      <trkpt lat="43.74739" lon="3.54577">
        <ele>336.5</ele>
        <time>2011-12-18T11:06:37Z</time>
      </trkpt>
      <trkpt lat="43.74743" lon="3.54576">
        <ele>336.9</ele>
        <time>2011-12-18T11:06:44Z</time>
      </trkpt>
      <trkpt lat="43.74748" lon="3.54575">
        <ele>338.6</ele>
        <time>2011-12-18T11:06:51Z</time>
      </trkpt>
      <trkpt lat="43.74751" lon="3.54573">
        <ele>338.6</ele>
        <time>2011-12-18T11:06:56Z</time>
      </trkpt>
      <trkpt lat="43.74755" lon="3.54572">
        <ele>340.2</ele>
        <time>2011-12-18T11:07:01Z</time>
      </trkpt>
      <trkpt lat="43.74759" lon="3.54571">
        <ele>340.7</ele>
        <time>2011-12-18T11:07:05Z</time>
      </trkpt>
      <trkpt lat="43.74763" lon="3.54571">
        <ele>340.1</ele>
        <time>2011-12-18T11:07:10Z</time>
      </trkpt>
      <trkpt lat="43.74766" lon="3.54571">
        <ele>340.2</ele>
        <time>2011-12-18T11:07:15Z</time>
      </trkpt>
      <trkpt lat="43.7477" lon="3.5457">
        <ele>342.4</ele>
        <time>2011-12-18T11:07:19Z</time>
      </trkpt>
      <trkpt lat="43.74771" lon="3.5457">
        <ele>342.7</ele>
        <time>2011-12-18T11:07:20Z</time>
      </trkpt>
      <trkpt lat="43.74778" lon="3.54567">
        <ele>342.9</ele>
        <time>2011-12-18T11:07:30Z</time>
      </trkpt>
      <trkpt lat="43.74782" lon="3.54565">
        <ele>343.2</ele>
        <time>2011-12-18T11:07:36Z</time>
      </trkpt>
      <trkpt lat="43.74786" lon="3.54563">
        <ele>343.8</ele>
        <time>2011-12-18T11:07:41Z</time>
      </trkpt>
      <trkpt lat="43.7479" lon="3.54562">
        <ele>345.3</ele>
        <time>2011-12-18T11:07:46Z</time>
      </trkpt>
      <trkpt lat="43.74794" lon="3.54561">
        <ele>344.9</ele>
        <time>2011-12-18T11:07:50Z</time>
      </trkpt>
      <trkpt lat="43.74798" lon="3.54559">
        <ele>345.9</ele>
        <time>2011-12-18T11:07:54Z</time>
      </trkpt>
      <trkpt lat="43.74802" lon="3.54559">
        <ele>345.8</ele>
        <time>2011-12-18T11:07:58Z</time>
      </trkpt>
      <trkpt lat="43.74806" lon="3.54558">
        <ele>345.5</ele>
        <time>2011-12-18T11:08:02Z</time>
      </trkpt>
      <trkpt lat="43.74809" lon="3.54557">
        <ele>345.6</ele>
        <time>2011-12-18T11:08:06Z</time>
      </trkpt>
      <trkpt lat="43.74814" lon="3.54556">
        <ele>346.4</ele>
        <time>2011-12-18T11:08:11Z</time>
      </trkpt>
      <trkpt lat="43.74817" lon="3.54555">
        <ele>346</ele>
        <time>2011-12-18T11:08:16Z</time>
      </trkpt>
      <trkpt lat="43.74821" lon="3.54554">
        <ele>346.9</ele>
        <time>2011-12-18T11:08:20Z</time>
      </trkpt>
      <trkpt lat="43.74822" lon="3.54554">
        <ele>346.9</ele>
        <time>2011-12-18T11:08:21Z</time>
      </trkpt>
      <trkpt lat="43.74829" lon="3.54552">
        <ele>347</ele>
        <time>2011-12-18T11:08:28Z</time>
      </trkpt>
      <trkpt lat="43.74833" lon="3.54551">
        <ele>347.4</ele>
        <time>2011-12-18T11:08:32Z</time>
      </trkpt>
      <trkpt lat="43.74837" lon="3.5455">
        <ele>347.1</ele>
        <time>2011-12-18T11:08:36Z</time>
      </trkpt>
      <trkpt lat="43.7484" lon="3.54549">
        <ele>347.7</ele>
        <time>2011-12-18T11:08:40Z</time>
      </trkpt>
      <trkpt lat="43.74844" lon="3.54549">
        <ele>347.4</ele>
        <time>2011-12-18T11:08:43Z</time>
      </trkpt>
      <trkpt lat="43.74847" lon="3.54547">
        <ele>347.4</ele>
        <time>2011-12-18T11:08:46Z</time>
      </trkpt>
      <trkpt lat="43.74851" lon="3.54546">
        <ele>347.7</ele>
        <time>2011-12-18T11:08:50Z</time>
      </trkpt>
      <trkpt lat="43.74855" lon="3.54546">
        <ele>347.8</ele>
        <time>2011-12-18T11:08:54Z</time>
      </trkpt>
      <trkpt lat="43.74859" lon="3.54545">
        <ele>348.5</ele>
        <time>2011-12-18T11:08:58Z</time>
      </trkpt>
      <trkpt lat="43.74864" lon="3.54547">
        <ele>348</ele>
        <time>2011-12-18T11:09:02Z</time>
      </trkpt>
      <trkpt lat="43.74867" lon="3.54551">
        <ele>347.6</ele>
        <time>2011-12-18T11:09:06Z</time>
      </trkpt>
      <trkpt lat="43.74871" lon="3.54553">
        <ele>348.7</ele>
        <time>2011-12-18T11:09:10Z</time>
      </trkpt>
      <trkpt lat="43.74874" lon="3.54555">
        <ele>348.9</ele>
        <time>2011-12-18T11:09:14Z</time>
      </trkpt>
      <trkpt lat="43.74878" lon="3.54558">
        <ele>347.6</ele>
        <time>2011-12-18T11:09:18Z</time>
      </trkpt>
      <trkpt lat="43.74881" lon="3.54561">
        <ele>347.6</ele>
        <time>2011-12-18T11:09:22Z</time>
      </trkpt>
      <trkpt lat="43.74881" lon="3.54562">
        <ele>347.6</ele>
        <time>2011-12-18T11:09:23Z</time>
      </trkpt>
      <trkpt lat="43.74887" lon="3.54569">
        <ele>348.3</ele>
        <time>2011-12-18T11:09:32Z</time>
      </trkpt>
      <trkpt lat="43.7489" lon="3.54573">
        <ele>348.7</ele>
        <time>2011-12-18T11:09:37Z</time>
      </trkpt>
      <trkpt lat="43.74894" lon="3.54576">
        <ele>348.3</ele>
        <time>2011-12-18T11:09:42Z</time>
      </trkpt>
      <trkpt lat="43.74897" lon="3.5458">
        <ele>349.9</ele>
        <time>2011-12-18T11:09:47Z</time>
      </trkpt>
      <trkpt lat="43.749" lon="3.54583">
        <ele>352</ele>
        <time>2011-12-18T11:09:52Z</time>
      </trkpt>
      <trkpt lat="43.74903" lon="3.54586">
        <ele>351.4</ele>
        <time>2011-12-18T11:09:57Z</time>
      </trkpt>
      <trkpt lat="43.74906" lon="3.54591">
        <ele>352</ele>
        <time>2011-12-18T11:10:03Z</time>
      </trkpt>
      <trkpt lat="43.74909" lon="3.54595">
        <ele>352.5</ele>
        <time>2011-12-18T11:10:08Z</time>
      </trkpt>
      <trkpt lat="43.74911" lon="3.54599">
        <ele>354</ele>
        <time>2011-12-18T11:10:13Z</time>
      </trkpt>
      <trkpt lat="43.74914" lon="3.54603">
        <ele>355</ele>
        <time>2011-12-18T11:10:17Z</time>
      </trkpt>
      <trkpt lat="43.74916" lon="3.54607">
        <ele>356.3</ele>
        <time>2011-12-18T11:10:22Z</time>
      </trkpt>
      <trkpt lat="43.74919" lon="3.54612">
        <ele>356.3</ele>
        <time>2011-12-18T11:10:26Z</time>
      </trkpt>
      <trkpt lat="43.74919" lon="3.54613">
        <ele>356.3</ele>
        <time>2011-12-18T11:10:27Z</time>
      </trkpt>
      <trkpt lat="43.74924" lon="3.54619">
        <ele>357.4</ele>
        <time>2011-12-18T11:10:34Z</time>
      </trkpt>
      <trkpt lat="43.74927" lon="3.54622">
        <ele>356.9</ele>
        <time>2011-12-18T11:10:38Z</time>
      </trkpt>
      <trkpt lat="43.74929" lon="3.54626">
        <ele>357.5</ele>
        <time>2011-12-18T11:10:42Z</time>
      </trkpt>
      <trkpt lat="43.74932" lon="3.54629">
        <ele>357.4</ele>
        <time>2011-12-18T11:10:46Z</time>
      </trkpt>
      <trkpt lat="43.74935" lon="3.54633">
        <ele>358.7</ele>
        <time>2011-12-18T11:10:51Z</time>
      </trkpt>
      <trkpt lat="43.74939" lon="3.54637">
        <ele>359.4</ele>
        <time>2011-12-18T11:10:56Z</time>
      </trkpt>
      <trkpt lat="43.74942" lon="3.54641">
        <ele>358.7</ele>
        <time>2011-12-18T11:11:01Z</time>
      </trkpt>
      <trkpt lat="43.74945" lon="3.54645">
        <ele>358.7</ele>
        <time>2011-12-18T11:11:06Z</time>
      </trkpt>
      <trkpt lat="43.74947" lon="3.54648">
        <ele>361.2</ele>
        <time>2011-12-18T11:11:11Z</time>
      </trkpt>
      <trkpt lat="43.7495" lon="3.54653">
        <ele>363.5</ele>
        <time>2011-12-18T11:11:16Z</time>
      </trkpt>
      <trkpt lat="43.74952" lon="3.54657">
        <ele>363.2</ele>
        <time>2011-12-18T11:11:20Z</time>
      </trkpt>
      <trkpt lat="43.74956" lon="3.54659">
        <ele>363.9</ele>
        <time>2011-12-18T11:11:25Z</time>
      </trkpt>
      <trkpt lat="43.74961" lon="3.54659">
        <ele>364.3</ele>
        <time>2011-12-18T11:11:31Z</time>
      </trkpt>
      <trkpt lat="43.74961" lon="3.54658">
        <ele>364.3</ele>
        <time>2011-12-18T11:11:32Z</time>
      </trkpt>
      <trkpt lat="43.74967" lon="3.54654">
        <ele>366.5</ele>
        <time>2011-12-18T11:11:40Z</time>
      </trkpt>
      <trkpt lat="43.74971" lon="3.54651">
        <ele>366.6</ele>
        <time>2011-12-18T11:11:45Z</time>
      </trkpt>
      <trkpt lat="43.74973" lon="3.54646">
        <ele>366.9</ele>
        <time>2011-12-18T11:11:50Z</time>
      </trkpt>
      <trkpt lat="43.74976" lon="3.54643">
        <ele>366.8</ele>
        <time>2011-12-18T11:11:55Z</time>
      </trkpt>
      <trkpt lat="43.74979" lon="3.54638">
        <ele>367.3</ele>
        <time>2011-12-18T11:12:00Z</time>
      </trkpt>
      <trkpt lat="43.74981" lon="3.54633">
        <ele>368.6</ele>
        <time>2011-12-18T11:12:05Z</time>
      </trkpt>
      <trkpt lat="43.74984" lon="3.54629">
        <ele>370.1</ele>
        <time>2011-12-18T11:12:10Z</time>
      </trkpt>
      <trkpt lat="43.74986" lon="3.54623">
        <ele>370.3</ele>
        <time>2011-12-18T11:12:16Z</time>
      </trkpt>
      <trkpt lat="43.74988" lon="3.54619">
        <ele>368.7</ele>
        <time>2011-12-18T11:12:21Z</time>
      </trkpt>
      <trkpt lat="43.7499" lon="3.54614">
        <ele>368.5</ele>
        <time>2011-12-18T11:12:26Z</time>
      </trkpt>
      <trkpt lat="43.74992" lon="3.54608">
        <ele>368.4</ele>
        <time>2011-12-18T11:12:31Z</time>
      </trkpt>
      <trkpt lat="43.74994" lon="3.54603">
        <ele>368.3</ele>
        <time>2011-12-18T11:12:35Z</time>
      </trkpt>
      <trkpt lat="43.74994" lon="3.54602">
        <ele>368.6</ele>
        <time>2011-12-18T11:12:36Z</time>
      </trkpt>
      <trkpt lat="43.74997" lon="3.54592">
        <ele>367.7</ele>
        <time>2011-12-18T11:12:43Z</time>
      </trkpt>
      <trkpt lat="43.74999" lon="3.54588">
        <ele>368.1</ele>
        <time>2011-12-18T11:12:50Z</time>
      </trkpt>
      <trkpt lat="43.75001" lon="3.54583">
        <ele>365.4</ele>
        <time>2011-12-18T11:12:57Z</time>
      </trkpt>
      <trkpt lat="43.75002" lon="3.54578">
        <ele>365.9</ele>
        <time>2011-12-18T11:13:02Z</time>
      </trkpt>
      <trkpt lat="43.75005" lon="3.54574">
        <ele>365</ele>
        <time>2011-12-18T11:13:05Z</time>
      </trkpt>
      <trkpt lat="43.75007" lon="3.5457">
        <ele>364.3</ele>
        <time>2011-12-18T11:13:08Z</time>
      </trkpt>
      <trkpt lat="43.75009" lon="3.54566">
        <ele>365.1</ele>
        <time>2011-12-18T11:13:11Z</time>
      </trkpt>
      <trkpt lat="43.75012" lon="3.54561">
        <ele>366.6</ele>
        <time>2011-12-18T11:13:15Z</time>
      </trkpt>
      <trkpt lat="43.75014" lon="3.54557">
        <ele>367.8</ele>
        <time>2011-12-18T11:13:18Z</time>
      </trkpt>
      <trkpt lat="43.75015" lon="3.54552">
        <ele>369.3</ele>
        <time>2011-12-18T11:13:21Z</time>
      </trkpt>
      <trkpt lat="43.75016" lon="3.54547">
        <ele>370.1</ele>
        <time>2011-12-18T11:13:25Z</time>
      </trkpt>
      <trkpt lat="43.75017" lon="3.54542">
        <ele>370.7</ele>
        <time>2011-12-18T11:13:29Z</time>
      </trkpt>
      <trkpt lat="43.75018" lon="3.54537">
        <ele>369.2</ele>
        <time>2011-12-18T11:13:32Z</time>
      </trkpt>
      <trkpt lat="43.75018" lon="3.54531">
        <ele>368.9</ele>
        <time>2011-12-18T11:13:36Z</time>
      </trkpt>
      <trkpt lat="43.75018" lon="3.5453">
        <ele>368.9</ele>
        <time>2011-12-18T11:13:37Z</time>
      </trkpt>
      <trkpt lat="43.7502" lon="3.54522">
        <ele>369</ele>
        <time>2011-12-18T11:13:42Z</time>
      </trkpt>
      <trkpt lat="43.7502" lon="3.54516">
        <ele>368</ele>
        <time>2011-12-18T11:13:46Z</time>
      </trkpt>
      <trkpt lat="43.75021" lon="3.54511">
        <ele>368.4</ele>
        <time>2011-12-18T11:13:50Z</time>
      </trkpt>
      <trkpt lat="43.75023" lon="3.54506">
        <ele>369</ele>
        <time>2011-12-18T11:13:53Z</time>
      </trkpt>
      <trkpt lat="43.75025" lon="3.54501">
        <ele>369.7</ele>
        <time>2011-12-18T11:13:56Z</time>
      </trkpt>
      <trkpt lat="43.75027" lon="3.54498">
        <ele>370.2</ele>
        <time>2011-12-18T11:13:59Z</time>
      </trkpt>
      <trkpt lat="43.7503" lon="3.54493">
        <ele>370.8</ele>
        <time>2011-12-18T11:14:02Z</time>
      </trkpt>
      <trkpt lat="43.75033" lon="3.54489">
        <ele>370.6</ele>
        <time>2011-12-18T11:14:05Z</time>
      </trkpt>
      <trkpt lat="43.75035" lon="3.54484">
        <ele>370</ele>
        <time>2011-12-18T11:14:08Z</time>
      </trkpt>
      <trkpt lat="43.75037" lon="3.54481">
        <ele>369.5</ele>
        <time>2011-12-18T11:14:11Z</time>
      </trkpt>
      <trkpt lat="43.7504" lon="3.54477">
        <ele>369.6</ele>
        <time>2011-12-18T11:14:14Z</time>
      </trkpt>
      <trkpt lat="43.75042" lon="3.54472">
        <ele>369.7</ele>
        <time>2011-12-18T11:14:18Z</time>
      </trkpt>
      <trkpt lat="43.75045" lon="3.54468">
        <ele>369.5</ele>
        <time>2011-12-18T11:14:21Z</time>
      </trkpt>
      <trkpt lat="43.75048" lon="3.54464">
        <ele>369.3</ele>
        <time>2011-12-18T11:14:24Z</time>
      </trkpt>
      <trkpt lat="43.7505" lon="3.5446">
        <ele>369.7</ele>
        <time>2011-12-18T11:14:27Z</time>
      </trkpt>
      <trkpt lat="43.75052" lon="3.54457">
        <ele>369.7</ele>
        <time>2011-12-18T11:14:30Z</time>
      </trkpt>
      <trkpt lat="43.75055" lon="3.54454">
        <ele>370</ele>
        <time>2011-12-18T11:14:33Z</time>
      </trkpt>
      <trkpt lat="43.75058" lon="3.5445">
        <ele>369.6</ele>
        <time>2011-12-18T11:14:38Z</time>
      </trkpt>
      <trkpt lat="43.75059" lon="3.54449">
        <ele>369.7</ele>
        <time>2011-12-18T11:14:39Z</time>
      </trkpt>
      <trkpt lat="43.75064" lon="3.54443">
        <ele>370.3</ele>
        <time>2011-12-18T11:14:46Z</time>
      </trkpt>
      <trkpt lat="43.75067" lon="3.5444">
        <ele>369.7</ele>
        <time>2011-12-18T11:14:50Z</time>
      </trkpt>
      <trkpt lat="43.7507" lon="3.54436">
        <ele>370.4</ele>
        <time>2011-12-18T11:14:53Z</time>
      </trkpt>
      <trkpt lat="43.75073" lon="3.54433">
        <ele>372</ele>
        <time>2011-12-18T11:14:58Z</time>
      </trkpt>
      <trkpt lat="43.75078" lon="3.54431">
        <ele>372.7</ele>
        <time>2011-12-18T11:15:03Z</time>
      </trkpt>
      <trkpt lat="43.75082" lon="3.54431">
        <ele>373.9</ele>
        <time>2011-12-18T11:15:09Z</time>
      </trkpt>
      <trkpt lat="43.75086" lon="3.54431">
        <ele>374.4</ele>
        <time>2011-12-18T11:15:14Z</time>
      </trkpt>
      <trkpt lat="43.7509" lon="3.54431">
        <ele>375.4</ele>
        <time>2011-12-18T11:15:19Z</time>
      </trkpt>
      <trkpt lat="43.75094" lon="3.54431">
        <ele>376.6</ele>
        <time>2011-12-18T11:15:23Z</time>
      </trkpt>
      <trkpt lat="43.75097" lon="3.54432">
        <ele>377.4</ele>
        <time>2011-12-18T11:15:27Z</time>
      </trkpt>
      <trkpt lat="43.75101" lon="3.5443">
        <ele>377.6</ele>
        <time>2011-12-18T11:15:33Z</time>
      </trkpt>
      <trkpt lat="43.75106" lon="3.54429">
        <ele>378.8</ele>
        <time>2011-12-18T11:15:45Z</time>
      </trkpt>
      <trkpt lat="43.75106" lon="3.54428">
        <ele>378.8</ele>
        <time>2011-12-18T11:15:46Z</time>
      </trkpt>
      <trkpt lat="43.75114" lon="3.54426">
        <ele>380.5</ele>
        <time>2011-12-18T11:15:58Z</time>
      </trkpt>
      <trkpt lat="43.75118" lon="3.54428">
        <ele>380.5</ele>
        <time>2011-12-18T11:16:02Z</time>
      </trkpt>
      <trkpt lat="43.75121" lon="3.5443">
        <ele>381.2</ele>
        <time>2011-12-18T11:16:06Z</time>
      </trkpt>
      <trkpt lat="43.75125" lon="3.54432">
        <ele>380.4</ele>
        <time>2011-12-18T11:16:10Z</time>
      </trkpt>
      <trkpt lat="43.75129" lon="3.54434">
        <ele>379.8</ele>
        <time>2011-12-18T11:16:14Z</time>
      </trkpt>
      <trkpt lat="43.75133" lon="3.54436">
        <ele>380.6</ele>
        <time>2011-12-18T11:16:19Z</time>
      </trkpt>
      <trkpt lat="43.75136" lon="3.54438">
        <ele>382</ele>
        <time>2011-12-18T11:16:23Z</time>
      </trkpt>
      <trkpt lat="43.7514" lon="3.54439">
        <ele>381.7</ele>
        <time>2011-12-18T11:16:27Z</time>
      </trkpt>
      <trkpt lat="43.75143" lon="3.54441">
        <ele>381.6</ele>
        <time>2011-12-18T11:16:31Z</time>
      </trkpt>
      <trkpt lat="43.75147" lon="3.54443">
        <ele>382.9</ele>
        <time>2011-12-18T11:16:35Z</time>
      </trkpt>
      <trkpt lat="43.75151" lon="3.54446">
        <ele>382.7</ele>
        <time>2011-12-18T11:16:40Z</time>
      </trkpt>
      <trkpt lat="43.75155" lon="3.54449">
        <ele>382.3</ele>
        <time>2011-12-18T11:16:45Z</time>
      </trkpt>
      <trkpt lat="43.75159" lon="3.54451">
        <ele>382.1</ele>
        <time>2011-12-18T11:16:51Z</time>
      </trkpt>
      <trkpt lat="43.7516" lon="3.54451">
        <ele>382.1</ele>
        <time>2011-12-18T11:16:52Z</time>
      </trkpt>
      <trkpt lat="43.75166" lon="3.54457">
        <ele>383.7</ele>
        <time>2011-12-18T11:17:01Z</time>
      </trkpt>
      <trkpt lat="43.75169" lon="3.54461">
        <ele>385</ele>
        <time>2011-12-18T11:17:05Z</time>
      </trkpt>
      <trkpt lat="43.75172" lon="3.54463">
        <ele>385.4</ele>
        <time>2011-12-18T11:17:08Z</time>
      </trkpt>
      <trkpt lat="43.75175" lon="3.54465">
        <ele>385.5</ele>
        <time>2011-12-18T11:17:12Z</time>
      </trkpt>
      <trkpt lat="43.75179" lon="3.54465">
        <ele>385.5</ele>
        <time>2011-12-18T11:17:16Z</time>
      </trkpt>
      <trkpt lat="43.75183" lon="3.54465">
        <ele>385.6</ele>
        <time>2011-12-18T11:17:20Z</time>
      </trkpt>
      <trkpt lat="43.75187" lon="3.54466">
        <ele>386.2</ele>
        <time>2011-12-18T11:17:24Z</time>
      </trkpt>
      <trkpt lat="43.75191" lon="3.54465">
        <ele>385.9</ele>
        <time>2011-12-18T11:17:30Z</time>
      </trkpt>
      <trkpt lat="43.75194" lon="3.54463">
        <ele>385.3</ele>
        <time>2011-12-18T11:17:34Z</time>
      </trkpt>
      <trkpt lat="43.75198" lon="3.54461">
        <ele>384.7</ele>
        <time>2011-12-18T11:17:38Z</time>
      </trkpt>
      <trkpt lat="43.75201" lon="3.54458">
        <ele>383.4</ele>
        <time>2011-12-18T11:17:44Z</time>
      </trkpt>
      <trkpt lat="43.75205" lon="3.54456">
        <ele>383.4</ele>
        <time>2011-12-18T11:17:48Z</time>
      </trkpt>
      <trkpt lat="43.75208" lon="3.54453">
        <ele>383.7</ele>
        <time>2011-12-18T11:17:52Z</time>
      </trkpt>
      <trkpt lat="43.7521" lon="3.54452">
        <ele>383.5</ele>
        <time>2011-12-18T11:17:53Z</time>
      </trkpt>
      <trkpt lat="43.75215" lon="3.54448">
        <ele>384.6</ele>
        <time>2011-12-18T11:17:58Z</time>
      </trkpt>
      <trkpt lat="43.75218" lon="3.54445">
        <ele>384.9</ele>
        <time>2011-12-18T11:18:01Z</time>
      </trkpt>
      <trkpt lat="43.75222" lon="3.54442">
        <ele>382.3</ele>
        <time>2011-12-18T11:18:05Z</time>
      </trkpt>
      <trkpt lat="43.75225" lon="3.54437">
        <ele>381.9</ele>
        <time>2011-12-18T11:18:09Z</time>
      </trkpt>
      <trkpt lat="43.75228" lon="3.54434">
        <ele>381.5</ele>
        <time>2011-12-18T11:18:14Z</time>
      </trkpt>
      <trkpt lat="43.75231" lon="3.54431">
        <ele>381.4</ele>
        <time>2011-12-18T11:18:17Z</time>
      </trkpt>
      <trkpt lat="43.75234" lon="3.54428">
        <ele>382.4</ele>
        <time>2011-12-18T11:18:20Z</time>
      </trkpt>
      <trkpt lat="43.75237" lon="3.54425">
        <ele>383.5</ele>
        <time>2011-12-18T11:18:23Z</time>
      </trkpt>
      <trkpt lat="43.7524" lon="3.54421">
        <ele>384</ele>
        <time>2011-12-18T11:18:27Z</time>
      </trkpt>
      <trkpt lat="43.75243" lon="3.54418">
        <ele>383.4</ele>
        <time>2011-12-18T11:18:31Z</time>
      </trkpt>
      <trkpt lat="43.75246" lon="3.54417">
        <ele>382.9</ele>
        <time>2011-12-18T11:18:34Z</time>
      </trkpt>
      <trkpt lat="43.7525" lon="3.54414">
        <ele>381.9</ele>
        <time>2011-12-18T11:18:38Z</time>
      </trkpt>
      <trkpt lat="43.75253" lon="3.54411">
        <ele>381.8</ele>
        <time>2011-12-18T11:18:41Z</time>
      </trkpt>
      <trkpt lat="43.75256" lon="3.54408">
        <ele>382.5</ele>
        <time>2011-12-18T11:18:44Z</time>
      </trkpt>
      <trkpt lat="43.75259" lon="3.54405">
        <ele>382.7</ele>
        <time>2011-12-18T11:18:48Z</time>
      </trkpt>
      <trkpt lat="43.75262" lon="3.54403">
        <ele>383.3</ele>
        <time>2011-12-18T11:18:51Z</time>
      </trkpt>
      <trkpt lat="43.75266" lon="3.54401">
        <ele>383.5</ele>
        <time>2011-12-18T11:18:54Z</time>
      </trkpt>
      <trkpt lat="43.75267" lon="3.54401">
        <ele>383.5</ele>
        <time>2011-12-18T11:18:55Z</time>
      </trkpt>
      <trkpt lat="43.75273" lon="3.54397">
        <ele>383.5</ele>
        <time>2011-12-18T11:19:00Z</time>
      </trkpt>
      <trkpt lat="43.75277" lon="3.54394">
        <ele>384.1</ele>
        <time>2011-12-18T11:19:03Z</time>
      </trkpt>
      <trkpt lat="43.75281" lon="3.54392">
        <ele>385.2</ele>
        <time>2011-12-18T11:19:06Z</time>
      </trkpt>
      <trkpt lat="43.75285" lon="3.5439">
        <ele>385.3</ele>
        <time>2011-12-18T11:19:10Z</time>
      </trkpt>
      <trkpt lat="43.75288" lon="3.54388">
        <ele>385.5</ele>
        <time>2011-12-18T11:19:14Z</time>
      </trkpt>
      <trkpt lat="43.75292" lon="3.54386">
        <ele>384.4</ele>
        <time>2011-12-18T11:19:18Z</time>
      </trkpt>
      <trkpt lat="43.75295" lon="3.54383">
        <ele>383.5</ele>
        <time>2011-12-18T11:19:22Z</time>
      </trkpt>
      <trkpt lat="43.75298" lon="3.54382">
        <ele>383.1</ele>
        <time>2011-12-18T11:19:25Z</time>
      </trkpt>
      <trkpt lat="43.75301" lon="3.54379">
        <ele>382.1</ele>
        <time>2011-12-18T11:19:28Z</time>
      </trkpt>
      <trkpt lat="43.75305" lon="3.54377">
        <ele>381.3</ele>
        <time>2011-12-18T11:19:31Z</time>
      </trkpt>
      <trkpt lat="43.75308" lon="3.54373">
        <ele>380.5</ele>
        <time>2011-12-18T11:19:35Z</time>
      </trkpt>
      <trkpt lat="43.75311" lon="3.54369">
        <ele>380.8</ele>
        <time>2011-12-18T11:19:39Z</time>
      </trkpt>
      <trkpt lat="43.75315" lon="3.54367">
        <ele>380.3</ele>
        <time>2011-12-18T11:19:42Z</time>
      </trkpt>
      <trkpt lat="43.75319" lon="3.54364">
        <ele>378.6</ele>
        <time>2011-12-18T11:19:46Z</time>
      </trkpt>
      <trkpt lat="43.75323" lon="3.54362">
        <ele>379.6</ele>
        <time>2011-12-18T11:19:50Z</time>
      </trkpt>
      <trkpt lat="43.75325" lon="3.54359">
        <ele>379.4</ele>
        <time>2011-12-18T11:19:53Z</time>
      </trkpt>
      <trkpt lat="43.75328" lon="3.54356">
        <ele>378.3</ele>
        <time>2011-12-18T11:19:55Z</time>
      </trkpt>
      <trkpt lat="43.75329" lon="3.54356">
        <ele>377.9</ele>
        <time>2011-12-18T11:19:56Z</time>
      </trkpt>
      <trkpt lat="43.75334" lon="3.54353">
        <ele>377.1</ele>
        <time>2011-12-18T11:20:00Z</time>
      </trkpt>
      <trkpt lat="43.75338" lon="3.5435">
        <ele>378.9</ele>
        <time>2011-12-18T11:20:04Z</time>
      </trkpt>
      <trkpt lat="43.75341" lon="3.54346">
        <ele>379.8</ele>
        <time>2011-12-18T11:20:08Z</time>
      </trkpt>
      <trkpt lat="43.75344" lon="3.54343">
        <ele>379.4</ele>
        <time>2011-12-18T11:20:12Z</time>
      </trkpt>
      <trkpt lat="43.75347" lon="3.54341">
        <ele>380</ele>
        <time>2011-12-18T11:20:15Z</time>
      </trkpt>
      <trkpt lat="43.7535" lon="3.54338">
        <ele>379.9</ele>
        <time>2011-12-18T11:20:18Z</time>
      </trkpt>
      <trkpt lat="43.75353" lon="3.54334">
        <ele>377.9</ele>
        <time>2011-12-18T11:20:22Z</time>
      </trkpt>
      <trkpt lat="43.75356" lon="3.5433">
        <ele>376.9</ele>
        <time>2011-12-18T11:20:26Z</time>
      </trkpt>
      <trkpt lat="43.75359" lon="3.54327">
        <ele>377.7</ele>
        <time>2011-12-18T11:20:32Z</time>
      </trkpt>
      <trkpt lat="43.75363" lon="3.54325">
        <ele>379.2</ele>
        <time>2011-12-18T11:20:37Z</time>
      </trkpt>
      <trkpt lat="43.75367" lon="3.54325">
        <ele>379.9</ele>
        <time>2011-12-18T11:20:40Z</time>
      </trkpt>
      <trkpt lat="43.75371" lon="3.54324">
        <ele>381.4</ele>
        <time>2011-12-18T11:20:43Z</time>
      </trkpt>
      <trkpt lat="43.75374" lon="3.54324">
        <ele>381.3</ele>
        <time>2011-12-18T11:20:46Z</time>
      </trkpt>
      <trkpt lat="43.75379" lon="3.54324">
        <ele>380.2</ele>
        <time>2011-12-18T11:20:49Z</time>
      </trkpt>
      <trkpt lat="43.75382" lon="3.54324">
        <ele>379.2</ele>
        <time>2011-12-18T11:20:53Z</time>
      </trkpt>
      <trkpt lat="43.75386" lon="3.54324">
        <ele>379.7</ele>
        <time>2011-12-18T11:20:57Z</time>
      </trkpt>
      <trkpt lat="43.75387" lon="3.54324">
        <ele>380.2</ele>
        <time>2011-12-18T11:20:58Z</time>
      </trkpt>
      <trkpt lat="43.75394" lon="3.54324">
        <ele>380.6</ele>
        <time>2011-12-18T11:21:07Z</time>
      </trkpt>
      <trkpt lat="43.75398" lon="3.54323">
        <ele>381.2</ele>
        <time>2011-12-18T11:21:11Z</time>
      </trkpt>
      <trkpt lat="43.75402" lon="3.54322">
        <ele>382.4</ele>
        <time>2011-12-18T11:21:16Z</time>
      </trkpt>
      <trkpt lat="43.75406" lon="3.54321">
        <ele>383.5</ele>
        <time>2011-12-18T11:21:22Z</time>
      </trkpt>
      <trkpt lat="43.75405" lon="3.54315">
        <ele>384.3</ele>
        <time>2011-12-18T11:21:41Z</time>
      </trkpt>
      <trkpt lat="43.75403" lon="3.54311">
        <ele>386</ele>
        <time>2011-12-18T11:21:51Z</time>
      </trkpt>
      <trkpt lat="43.754" lon="3.54306">
        <ele>387.2</ele>
        <time>2011-12-18T11:21:58Z</time>
      </trkpt>
      <trkpt lat="43.75399" lon="3.54305">
        <ele>387.4</ele>
        <time>2011-12-18T11:21:59Z</time>
      </trkpt>
      <trkpt lat="43.75394" lon="3.54298">
        <ele>387.5</ele>
        <time>2011-12-18T11:22:07Z</time>
      </trkpt>
      <trkpt lat="43.75393" lon="3.54293">
        <ele>387.4</ele>
        <time>2011-12-18T11:22:11Z</time>
      </trkpt>
      <trkpt lat="43.75393" lon="3.54287">
        <ele>386.3</ele>
        <time>2011-12-18T11:22:15Z</time>
      </trkpt>
      <trkpt lat="43.75393" lon="3.54282">
        <ele>386.1</ele>
        <time>2011-12-18T11:22:19Z</time>
      </trkpt>
      <trkpt lat="43.75402" lon="3.54269">
        <ele>386</ele>
        <time>2011-12-18T11:22:39Z</time>
      </trkpt>
      <trkpt lat="43.75399" lon="3.54266">
        <ele>387.8</ele>
        <time>2011-12-18T11:22:44Z</time>
      </trkpt>
      <trkpt lat="43.75392" lon="3.54255">
        <ele>387.9</ele>
        <time>2011-12-18T11:22:56Z</time>
      </trkpt>
      <trkpt lat="43.7539" lon="3.54258">
        <ele>387.1</ele>
        <time>2011-12-18T11:22:59Z</time>
      </trkpt>
      <trkpt lat="43.7539" lon="3.54261">
        <ele>386.5</ele>
        <time>2011-12-18T11:23:05Z</time>
      </trkpt>
      <trkpt lat="43.75386" lon="3.54265">
        <ele>386.4</ele>
        <time>2011-12-18T11:23:11Z</time>
      </trkpt>
      <trkpt lat="43.75383" lon="3.54262">
        <ele>387.1</ele>
        <time>2011-12-18T11:23:14Z</time>
      </trkpt>
      <trkpt lat="43.75379" lon="3.5426">
        <ele>388.1</ele>
        <time>2011-12-18T11:23:18Z</time>
      </trkpt>
      <trkpt lat="43.75382" lon="3.54255">
        <ele>385.9</ele>
        <time>2011-12-18T11:23:37Z</time>
      </trkpt>
      <trkpt lat="43.75386" lon="3.54253">
        <ele>387.4</ele>
        <time>2011-12-18T11:23:50Z</time>
      </trkpt>
      <trkpt lat="43.7539" lon="3.5425">
        <ele>387.5</ele>
        <time>2011-12-18T11:24:09Z</time>
      </trkpt>
      <trkpt lat="43.7539" lon="3.5425">
        <ele>387.3</ele>
        <time>2011-12-18T11:24:10Z</time>
      </trkpt>
      <trkpt lat="43.75388" lon="3.54247">
        <ele>388.1</ele>
        <time>2011-12-18T11:25:04Z</time>
      </trkpt>
      <trkpt lat="43.7539" lon="3.54251">
        <ele>388.2</ele>
        <time>2011-12-18T11:25:13Z</time>
      </trkpt>
      <trkpt lat="43.75387" lon="3.54258">
        <ele>387.9</ele>
        <time>2011-12-18T11:25:17Z</time>
      </trkpt>
      <trkpt lat="43.75387" lon="3.54262">
        <ele>387.6</ele>
        <time>2011-12-18T11:25:19Z</time>
      </trkpt>
      <trkpt lat="43.75387" lon="3.54266">
        <ele>387.4</ele>
        <time>2011-12-18T11:25:21Z</time>
      </trkpt>
      <trkpt lat="43.75387" lon="3.54271">
        <ele>386.7</ele>
        <time>2011-12-18T11:25:23Z</time>
      </trkpt>
      <trkpt lat="43.75388" lon="3.54276">
        <ele>386.3</ele>
        <time>2011-12-18T11:25:25Z</time>
      </trkpt>
      <trkpt lat="43.75389" lon="3.54282">
        <ele>386.2</ele>
        <time>2011-12-18T11:25:28Z</time>
      </trkpt>
      <trkpt lat="43.75391" lon="3.54286">
        <ele>386.6</ele>
        <time>2011-12-18T11:25:31Z</time>
      </trkpt>
      <trkpt lat="43.75394" lon="3.5429">
        <ele>385.9</ele>
        <time>2011-12-18T11:25:35Z</time>
      </trkpt>
      <trkpt lat="43.75397" lon="3.54294">
        <ele>385.3</ele>
        <time>2011-12-18T11:25:39Z</time>
      </trkpt>
      <trkpt lat="43.754" lon="3.54298">
        <ele>384.6</ele>
        <time>2011-12-18T11:25:43Z</time>
      </trkpt>
      <trkpt lat="43.75402" lon="3.54303">
        <ele>385</ele>
        <time>2011-12-18T11:25:48Z</time>
      </trkpt>
      <trkpt lat="43.75405" lon="3.54307">
        <ele>385.6</ele>
        <time>2011-12-18T11:25:56Z</time>
      </trkpt>
      <trkpt lat="43.75408" lon="3.54311">
        <ele>384.5</ele>
        <time>2011-12-18T11:26:04Z</time>
      </trkpt>
      <trkpt lat="43.75411" lon="3.54314">
        <ele>386.2</ele>
        <time>2011-12-18T11:26:12Z</time>
      </trkpt>
      <trkpt lat="43.75415" lon="3.54315">
        <ele>387</ele>
        <time>2011-12-18T11:26:21Z</time>
      </trkpt>
      <trkpt lat="43.75416" lon="3.54315">
        <ele>387.1</ele>
        <time>2011-12-18T11:26:22Z</time>
      </trkpt>
      <trkpt lat="43.75424" lon="3.54316">
        <ele>385.6</ele>
        <time>2011-12-18T11:26:52Z</time>
      </trkpt>
      <trkpt lat="43.75427" lon="3.54311">
        <ele>388.5</ele>
        <time>2011-12-18T11:27:36Z</time>
      </trkpt>
      <trkpt lat="43.75427" lon="3.54311">
        <ele>388.9</ele>
        <time>2011-12-18T11:27:37Z</time>
      </trkpt>
      <trkpt lat="43.75429" lon="3.543">
        <ele>390.5</ele>
        <time>2011-12-18T11:29:11Z</time>
      </trkpt>
      <trkpt lat="43.7543" lon="3.543">
        <ele>390.3</ele>
        <time>2011-12-18T11:29:12Z</time>
      </trkpt>
      <trkpt lat="43.75433" lon="3.54303">
        <ele>391.1</ele>
        <time>2011-12-18T11:30:27Z</time>
      </trkpt>
      <trkpt lat="43.7543" lon="3.54306">
        <ele>391.4</ele>
        <time>2011-12-18T11:36:48Z</time>
      </trkpt>
      <trkpt lat="43.75433" lon="3.54301">
        <ele>391.1</ele>
        <time>2011-12-18T11:39:12Z</time>
      </trkpt>
      <trkpt lat="43.7543" lon="3.54307">
        <ele>391.4</ele>
        <time>2011-12-18T11:42:21Z</time>
      </trkpt>
      <trkpt lat="43.75429" lon="3.54301">
        <ele>394.6</ele>
        <time>2011-12-18T11:55:26Z</time>
      </trkpt>
      <trkpt lat="43.75434" lon="3.54304">
        <ele>392.9</ele>
        <time>2011-12-18T11:58:07Z</time>
      </trkpt>
      <trkpt lat="43.75431" lon="3.54308">
        <ele>393.8</ele>
        <time>2011-12-18T11:59:42Z</time>
      </trkpt>
      <trkpt lat="43.75426" lon="3.54308">
        <ele>393.1</ele>
        <time>2011-12-18T12:00:50Z</time>
      </trkpt>
      <trkpt lat="43.7543" lon="3.54312">
        <ele>389.7</ele>
        <time>2011-12-18T12:04:12Z</time>
      </trkpt>
      <trkpt lat="43.75438" lon="3.54314">
        <ele>390.2</ele>
        <time>2011-12-18T12:06:57Z</time>
      </trkpt>
      <trkpt lat="43.75438" lon="3.54314">
        <ele>390.4</ele>
        <time>2011-12-18T12:06:58Z</time>
      </trkpt>
      <trkpt lat="43.75446" lon="3.54315">
        <ele>391</ele>
        <time>2011-12-18T12:07:09Z</time>
      </trkpt>
      <trkpt lat="43.7545" lon="3.54317">
        <ele>390.6</ele>
        <time>2011-12-18T12:07:14Z</time>
      </trkpt>
      <trkpt lat="43.75454" lon="3.54319">
        <ele>389.8</ele>
        <time>2011-12-18T12:07:18Z</time>
      </trkpt>
      <trkpt lat="43.75457" lon="3.54321">
        <ele>390.4</ele>
        <time>2011-12-18T12:07:21Z</time>
      </trkpt>
      <trkpt lat="43.75461" lon="3.54323">
        <ele>392.2</ele>
        <time>2011-12-18T12:07:26Z</time>
      </trkpt>
      <trkpt lat="43.75464" lon="3.54323">
        <ele>391.2</ele>
        <time>2011-12-18T12:07:30Z</time>
      </trkpt>
      <trkpt lat="43.75468" lon="3.54321">
        <ele>392.4</ele>
        <time>2011-12-18T12:07:34Z</time>
      </trkpt>
      <trkpt lat="43.75472" lon="3.54321">
        <ele>391.6</ele>
        <time>2011-12-18T12:07:40Z</time>
      </trkpt>
      <trkpt lat="43.75476" lon="3.54321">
        <ele>393.4</ele>
        <time>2011-12-18T12:07:45Z</time>
      </trkpt>
      <trkpt lat="43.7548" lon="3.5432">
        <ele>392.4</ele>
        <time>2011-12-18T12:07:50Z</time>
      </trkpt>
      <trkpt lat="43.75484" lon="3.54321">
        <ele>391.8</ele>
        <time>2011-12-18T12:07:55Z</time>
      </trkpt>
      <trkpt lat="43.75488" lon="3.54319">
        <ele>390.7</ele>
        <time>2011-12-18T12:08:00Z</time>
      </trkpt>
      <trkpt lat="43.75489" lon="3.54319">
        <ele>390.6</ele>
        <time>2011-12-18T12:08:01Z</time>
      </trkpt>
      <trkpt lat="43.75497" lon="3.54318">
        <ele>389.9</ele>
        <time>2011-12-18T12:08:10Z</time>
      </trkpt>
      <trkpt lat="43.75501" lon="3.54317">
        <ele>391.3</ele>
        <time>2011-12-18T12:08:14Z</time>
      </trkpt>
      <trkpt lat="43.75505" lon="3.54317">
        <ele>391.8</ele>
        <time>2011-12-18T12:08:19Z</time>
      </trkpt>
      <trkpt lat="43.7551" lon="3.54317">
        <ele>392.1</ele>
        <time>2011-12-18T12:08:24Z</time>
      </trkpt>
      <trkpt lat="43.75514" lon="3.54318">
        <ele>391.4</ele>
        <time>2011-12-18T12:08:29Z</time>
      </trkpt>
      <trkpt lat="43.75517" lon="3.5432">
        <ele>391.7</ele>
        <time>2011-12-18T12:08:33Z</time>
      </trkpt>
      <trkpt lat="43.7552" lon="3.54322">
        <ele>392.2</ele>
        <time>2011-12-18T12:08:37Z</time>
      </trkpt>
      <trkpt lat="43.75524" lon="3.54324">
        <ele>393.2</ele>
        <time>2011-12-18T12:08:42Z</time>
      </trkpt>
      <trkpt lat="43.75528" lon="3.54326">
        <ele>394.8</ele>
        <time>2011-12-18T12:08:47Z</time>
      </trkpt>
      <trkpt lat="43.75532" lon="3.54324">
        <ele>393.5</ele>
        <time>2011-12-18T12:08:53Z</time>
      </trkpt>
      <trkpt lat="43.75536" lon="3.54322">
        <ele>393.5</ele>
        <time>2011-12-18T12:09:00Z</time>
      </trkpt>
      <trkpt lat="43.75539" lon="3.5432">
        <ele>393.9</ele>
        <time>2011-12-18T12:09:06Z</time>
      </trkpt>
      <trkpt lat="43.7554" lon="3.5432">
        <ele>394.2</ele>
        <time>2011-12-18T12:09:07Z</time>
      </trkpt>
      <trkpt lat="43.75547" lon="3.54316">
        <ele>395.8</ele>
        <time>2011-12-18T12:09:18Z</time>
      </trkpt>
      <trkpt lat="43.7555" lon="3.54312">
        <ele>397.9</ele>
        <time>2011-12-18T12:09:25Z</time>
      </trkpt>
      <trkpt lat="43.75553" lon="3.54307">
        <ele>398.3</ele>
        <time>2011-12-18T12:09:33Z</time>
      </trkpt>
      <trkpt lat="43.75555" lon="3.54303">
        <ele>398.1</ele>
        <time>2011-12-18T12:09:38Z</time>
      </trkpt>
      <trkpt lat="43.75557" lon="3.54298">
        <ele>399.3</ele>
        <time>2011-12-18T12:09:43Z</time>
      </trkpt>
      <trkpt lat="43.75559" lon="3.54293">
        <ele>399.1</ele>
        <time>2011-12-18T12:09:49Z</time>
      </trkpt>
      <trkpt lat="43.75561" lon="3.54288">
        <ele>400.3</ele>
        <time>2011-12-18T12:09:54Z</time>
      </trkpt>
      <trkpt lat="43.75563" lon="3.54283">
        <ele>401</ele>
        <time>2011-12-18T12:09:59Z</time>
      </trkpt>
      <trkpt lat="43.75565" lon="3.54278">
        <ele>401.7</ele>
        <time>2011-12-18T12:10:04Z</time>
      </trkpt>
      <trkpt lat="43.75566" lon="3.54273">
        <ele>404.3</ele>
        <time>2011-12-18T12:10:10Z</time>
      </trkpt>
      <trkpt lat="43.75567" lon="3.54272">
        <ele>404.3</ele>
        <time>2011-12-18T12:10:11Z</time>
      </trkpt>
      <trkpt lat="43.7557" lon="3.54262">
        <ele>403.5</ele>
        <time>2011-12-18T12:10:20Z</time>
      </trkpt>
      <trkpt lat="43.75571" lon="3.54256">
        <ele>403.7</ele>
        <time>2011-12-18T12:10:25Z</time>
      </trkpt>
      <trkpt lat="43.75572" lon="3.5425">
        <ele>403.6</ele>
        <time>2011-12-18T12:10:30Z</time>
      </trkpt>
      <trkpt lat="43.75574" lon="3.54244">
        <ele>403.4</ele>
        <time>2011-12-18T12:10:36Z</time>
      </trkpt>
      <trkpt lat="43.75574" lon="3.54238">
        <ele>403.8</ele>
        <time>2011-12-18T12:10:41Z</time>
      </trkpt>
      <trkpt lat="43.75573" lon="3.54233">
        <ele>404.9</ele>
        <time>2011-12-18T12:10:46Z</time>
      </trkpt>
      <trkpt lat="43.75573" lon="3.54227">
        <ele>405.9</ele>
        <time>2011-12-18T12:10:51Z</time>
      </trkpt>
      <trkpt lat="43.75573" lon="3.54221">
        <ele>405.8</ele>
        <time>2011-12-18T12:10:56Z</time>
      </trkpt>
      <trkpt lat="43.75574" lon="3.54215">
        <ele>406.7</ele>
        <time>2011-12-18T12:11:02Z</time>
      </trkpt>
      <trkpt lat="43.75575" lon="3.5421">
        <ele>407.5</ele>
        <time>2011-12-18T12:11:07Z</time>
      </trkpt>
      <trkpt lat="43.75577" lon="3.54204">
        <ele>407</ele>
        <time>2011-12-18T12:11:12Z</time>
      </trkpt>
      <trkpt lat="43.75577" lon="3.54203">
        <ele>407</ele>
        <time>2011-12-18T12:11:13Z</time>
      </trkpt>
      <trkpt lat="43.75581" lon="3.54195">
        <ele>408.1</ele>
        <time>2011-12-18T12:11:23Z</time>
      </trkpt>
      <trkpt lat="43.75583" lon="3.54189">
        <ele>408.8</ele>
        <time>2011-12-18T12:11:28Z</time>
      </trkpt>
      <trkpt lat="43.75583" lon="3.54184">
        <ele>409.2</ele>
        <time>2011-12-18T12:11:33Z</time>
      </trkpt>
      <trkpt lat="43.75584" lon="3.54178">
        <ele>409.6</ele>
        <time>2011-12-18T12:11:38Z</time>
      </trkpt>
      <trkpt lat="43.75583" lon="3.54173">
        <ele>409.4</ele>
        <time>2011-12-18T12:11:42Z</time>
      </trkpt>
      <trkpt lat="43.75584" lon="3.54167">
        <ele>409.1</ele>
        <time>2011-12-18T12:11:48Z</time>
      </trkpt>
      <trkpt lat="43.75585" lon="3.54161">
        <ele>410.4</ele>
        <time>2011-12-18T12:11:55Z</time>
      </trkpt>
      <trkpt lat="43.75586" lon="3.54156">
        <ele>409.8</ele>
        <time>2011-12-18T12:12:01Z</time>
      </trkpt>
      <trkpt lat="43.75588" lon="3.5415">
        <ele>410.4</ele>
        <time>2011-12-18T12:12:07Z</time>
      </trkpt>
      <trkpt lat="43.75591" lon="3.54145">
        <ele>412.6</ele>
        <time>2011-12-18T12:12:13Z</time>
      </trkpt>
      <trkpt lat="43.75591" lon="3.54144">
        <ele>412.8</ele>
        <time>2011-12-18T12:12:14Z</time>
      </trkpt>
      <trkpt lat="43.75597" lon="3.54137">
        <ele>413.3</ele>
        <time>2011-12-18T12:12:24Z</time>
      </trkpt>
      <trkpt lat="43.75599" lon="3.54132">
        <ele>414.9</ele>
        <time>2011-12-18T12:12:29Z</time>
      </trkpt>
      <trkpt lat="43.75601" lon="3.54126">
        <ele>416.1</ele>
        <time>2011-12-18T12:12:35Z</time>
      </trkpt>
      <trkpt lat="43.75602" lon="3.54121">
        <ele>416.2</ele>
        <time>2011-12-18T12:12:42Z</time>
      </trkpt>
      <trkpt lat="43.75604" lon="3.54115">
        <ele>416.2</ele>
        <time>2011-12-18T12:12:49Z</time>
      </trkpt>
      <trkpt lat="43.75605" lon="3.54109">
        <ele>416.1</ele>
        <time>2011-12-18T12:12:54Z</time>
      </trkpt>
      <trkpt lat="43.75608" lon="3.54105">
        <ele>416.8</ele>
        <time>2011-12-18T12:13:01Z</time>
      </trkpt>
      <trkpt lat="43.7561" lon="3.54099">
        <ele>418.8</ele>
        <time>2011-12-18T12:13:06Z</time>
      </trkpt>
      <trkpt lat="43.75611" lon="3.54094">
        <ele>419.2</ele>
        <time>2011-12-18T12:13:11Z</time>
      </trkpt>
      <trkpt lat="43.75613" lon="3.54089">
        <ele>420.5</ele>
        <time>2011-12-18T12:13:15Z</time>
      </trkpt>
      <trkpt lat="43.75613" lon="3.54088">
        <ele>420.2</ele>
        <time>2011-12-18T12:13:16Z</time>
      </trkpt>
      <trkpt lat="43.75615" lon="3.54078">
        <ele>420.3</ele>
        <time>2011-12-18T12:13:23Z</time>
      </trkpt>
      <trkpt lat="43.75617" lon="3.54074">
        <ele>420.8</ele>
        <time>2011-12-18T12:13:27Z</time>
      </trkpt>
      <trkpt lat="43.75618" lon="3.54068">
        <ele>421.4</ele>
        <time>2011-12-18T12:13:32Z</time>
      </trkpt>
      <trkpt lat="43.7562" lon="3.54063">
        <ele>421.3</ele>
        <time>2011-12-18T12:13:38Z</time>
      </trkpt>
      <trkpt lat="43.75617" lon="3.54059">
        <ele>421.6</ele>
        <time>2011-12-18T12:13:42Z</time>
      </trkpt>
      <trkpt lat="43.75613" lon="3.54058">
        <ele>423.2</ele>
        <time>2011-12-18T12:13:47Z</time>
      </trkpt>
      <trkpt lat="43.75609" lon="3.54055">
        <ele>423.6</ele>
        <time>2011-12-18T12:13:52Z</time>
      </trkpt>
      <trkpt lat="43.75605" lon="3.54054">
        <ele>425.5</ele>
        <time>2011-12-18T12:13:57Z</time>
      </trkpt>
      <trkpt lat="43.75601" lon="3.54053">
        <ele>425.3</ele>
        <time>2011-12-18T12:14:01Z</time>
      </trkpt>
      <trkpt lat="43.75598" lon="3.54052">
        <ele>425.8</ele>
        <time>2011-12-18T12:14:04Z</time>
      </trkpt>
      <trkpt lat="43.75594" lon="3.54053">
        <ele>425.6</ele>
        <time>2011-12-18T12:14:08Z</time>
      </trkpt>
      <trkpt lat="43.7559" lon="3.54053">
        <ele>426.5</ele>
        <time>2011-12-18T12:14:12Z</time>
      </trkpt>
      <trkpt lat="43.75586" lon="3.54053">
        <ele>426.4</ele>
        <time>2011-12-18T12:14:16Z</time>
      </trkpt>
      <trkpt lat="43.75585" lon="3.54053">
        <ele>426.6</ele>
        <time>2011-12-18T12:14:17Z</time>
      </trkpt>
      <trkpt lat="43.75578" lon="3.54056">
        <ele>426.3</ele>
        <time>2011-12-18T12:14:24Z</time>
      </trkpt>
      <trkpt lat="43.75574" lon="3.54057">
        <ele>426.4</ele>
        <time>2011-12-18T12:14:28Z</time>
      </trkpt>
      <trkpt lat="43.7557" lon="3.54058">
        <ele>427.3</ele>
        <time>2011-12-18T12:14:32Z</time>
      </trkpt>
      <trkpt lat="43.75567" lon="3.5406">
        <ele>428</ele>
        <time>2011-12-18T12:14:36Z</time>
      </trkpt>
      <trkpt lat="43.75563" lon="3.54062">
        <ele>428.4</ele>
        <time>2011-12-18T12:14:40Z</time>
      </trkpt>
      <trkpt lat="43.7556" lon="3.54065">
        <ele>429</ele>
        <time>2011-12-18T12:14:44Z</time>
      </trkpt>
      <trkpt lat="43.75557" lon="3.54068">
        <ele>428.7</ele>
        <time>2011-12-18T12:14:48Z</time>
      </trkpt>
      <trkpt lat="43.75553" lon="3.5407">
        <ele>428.8</ele>
        <time>2011-12-18T12:14:52Z</time>
      </trkpt>
      <trkpt lat="43.7555" lon="3.54074">
        <ele>428.8</ele>
        <time>2011-12-18T12:14:56Z</time>
      </trkpt>
      <trkpt lat="43.75547" lon="3.54077">
        <ele>428.7</ele>
        <time>2011-12-18T12:15:00Z</time>
      </trkpt>
      <trkpt lat="43.75543" lon="3.5408">
        <ele>428.1</ele>
        <time>2011-12-18T12:15:04Z</time>
      </trkpt>
      <trkpt lat="43.75539" lon="3.54083">
        <ele>427.4</ele>
        <time>2011-12-18T12:15:09Z</time>
      </trkpt>
      <trkpt lat="43.75535" lon="3.54085">
        <ele>427.4</ele>
        <time>2011-12-18T12:15:13Z</time>
      </trkpt>
      <trkpt lat="43.75531" lon="3.54086">
        <ele>428</ele>
        <time>2011-12-18T12:15:17Z</time>
      </trkpt>
      <trkpt lat="43.7553" lon="3.54086">
        <ele>428.2</ele>
        <time>2011-12-18T12:15:18Z</time>
      </trkpt>
      <trkpt lat="43.75523" lon="3.54086">
        <ele>427.9</ele>
        <time>2011-12-18T12:15:26Z</time>
      </trkpt>
      <trkpt lat="43.75519" lon="3.54088">
        <ele>428.8</ele>
        <time>2011-12-18T12:15:31Z</time>
      </trkpt>
      <trkpt lat="43.75515" lon="3.5409">
        <ele>429.6</ele>
        <time>2011-12-18T12:15:37Z</time>
      </trkpt>
      <trkpt lat="43.75512" lon="3.54093">
        <ele>431.6</ele>
        <time>2011-12-18T12:15:43Z</time>
      </trkpt>
      <trkpt lat="43.75508" lon="3.54097">
        <ele>432.6</ele>
        <time>2011-12-18T12:15:49Z</time>
      </trkpt>
      <trkpt lat="43.75506" lon="3.54101">
        <ele>434</ele>
        <time>2011-12-18T12:15:54Z</time>
      </trkpt>
      <trkpt lat="43.75504" lon="3.54105">
        <ele>433.8</ele>
        <time>2011-12-18T12:16:00Z</time>
      </trkpt>
      <trkpt lat="43.75502" lon="3.5411">
        <ele>432.7</ele>
        <time>2011-12-18T12:16:06Z</time>
      </trkpt>
      <trkpt lat="43.755" lon="3.54115">
        <ele>432.8</ele>
        <time>2011-12-18T12:16:10Z</time>
      </trkpt>
      <trkpt lat="43.75497" lon="3.54119">
        <ele>433.2</ele>
        <time>2011-12-18T12:16:14Z</time>
      </trkpt>
      <trkpt lat="43.75495" lon="3.54123">
        <ele>432</ele>
        <time>2011-12-18T12:16:18Z</time>
      </trkpt>
      <trkpt lat="43.75495" lon="3.54124">
        <ele>431.6</ele>
        <time>2011-12-18T12:16:19Z</time>
      </trkpt>
      <trkpt lat="43.75493" lon="3.54133">
        <ele>434.4</ele>
        <time>2011-12-18T12:16:26Z</time>
      </trkpt>
      <trkpt lat="43.75493" lon="3.54138">
        <ele>435</ele>
        <time>2011-12-18T12:16:30Z</time>
      </trkpt>
      <trkpt lat="43.75493" lon="3.54143">
        <ele>435.2</ele>
        <time>2011-12-18T12:16:33Z</time>
      </trkpt>
      <trkpt lat="43.75492" lon="3.54149">
        <ele>435.5</ele>
        <time>2011-12-18T12:16:38Z</time>
      </trkpt>
      <trkpt lat="43.75488" lon="3.54147">
        <ele>437.4</ele>
        <time>2011-12-18T12:16:49Z</time>
      </trkpt>
      <trkpt lat="43.75487" lon="3.54142">
        <ele>439.1</ele>
        <time>2011-12-18T12:16:57Z</time>
      </trkpt>
      <trkpt lat="43.75486" lon="3.54137">
        <ele>437.9</ele>
        <time>2011-12-18T12:17:04Z</time>
      </trkpt>
      <trkpt lat="43.75487" lon="3.54131">
        <ele>436.9</ele>
        <time>2011-12-18T12:17:11Z</time>
      </trkpt>
      <trkpt lat="43.75487" lon="3.54126">
        <ele>437.4</ele>
        <time>2011-12-18T12:17:16Z</time>
      </trkpt>
      <trkpt lat="43.75487" lon="3.5412">
        <ele>439.3</ele>
        <time>2011-12-18T12:17:26Z</time>
      </trkpt>
      <trkpt lat="43.75487" lon="3.5412">
        <ele>439.2</ele>
        <time>2011-12-18T12:17:27Z</time>
      </trkpt>
      <trkpt lat="43.75487" lon="3.5411">
        <ele>439.9</ele>
        <time>2011-12-18T12:17:39Z</time>
      </trkpt>
      <trkpt lat="43.75487" lon="3.54104">
        <ele>439.6</ele>
        <time>2011-12-18T12:17:44Z</time>
      </trkpt>
      <trkpt lat="43.75487" lon="3.54098">
        <ele>441.1</ele>
        <time>2011-12-18T12:17:49Z</time>
      </trkpt>
      <trkpt lat="43.75488" lon="3.54093">
        <ele>439.5</ele>
        <time>2011-12-18T12:17:54Z</time>
      </trkpt>
      <trkpt lat="43.75489" lon="3.54087">
        <ele>440.3</ele>
        <time>2011-12-18T12:18:00Z</time>
      </trkpt>
      <trkpt lat="43.75491" lon="3.54082">
        <ele>439.5</ele>
        <time>2011-12-18T12:18:05Z</time>
      </trkpt>
      <trkpt lat="43.75493" lon="3.54077">
        <ele>440.6</ele>
        <time>2011-12-18T12:18:09Z</time>
      </trkpt>
      <trkpt lat="43.75495" lon="3.54072">
        <ele>442.7</ele>
        <time>2011-12-18T12:18:14Z</time>
      </trkpt>
      <trkpt lat="43.75497" lon="3.54067">
        <ele>444.5</ele>
        <time>2011-12-18T12:18:18Z</time>
      </trkpt>
      <trkpt lat="43.75499" lon="3.54062">
        <ele>445.8</ele>
        <time>2011-12-18T12:18:22Z</time>
      </trkpt>
      <trkpt lat="43.75502" lon="3.54059">
        <ele>445.1</ele>
        <time>2011-12-18T12:18:25Z</time>
      </trkpt>
      <trkpt lat="43.75506" lon="3.54055">
        <ele>444.1</ele>
        <time>2011-12-18T12:18:29Z</time>
      </trkpt>
      <trkpt lat="43.75507" lon="3.54055">
        <ele>444</ele>
        <time>2011-12-18T12:18:30Z</time>
      </trkpt>
      <trkpt lat="43.75513" lon="3.54055">
        <ele>443.8</ele>
        <time>2011-12-18T12:18:37Z</time>
      </trkpt>
      <trkpt lat="43.75518" lon="3.54056">
        <ele>443</ele>
        <time>2011-12-18T12:18:42Z</time>
      </trkpt>
      <trkpt lat="43.75521" lon="3.54056">
        <ele>442.7</ele>
        <time>2011-12-18T12:18:46Z</time>
      </trkpt>
      <trkpt lat="43.75525" lon="3.54053">
        <ele>443.1</ele>
        <time>2011-12-18T12:18:50Z</time>
      </trkpt>
      <trkpt lat="43.75527" lon="3.54049">
        <ele>443.2</ele>
        <time>2011-12-18T12:18:55Z</time>
      </trkpt>
      <trkpt lat="43.75529" lon="3.54044">
        <ele>445.5</ele>
        <time>2011-12-18T12:19:01Z</time>
      </trkpt>
      <trkpt lat="43.75532" lon="3.5404">
        <ele>446.4</ele>
        <time>2011-12-18T12:19:08Z</time>
      </trkpt>
      <trkpt lat="43.75534" lon="3.54035">
        <ele>447</ele>
        <time>2011-12-18T12:19:13Z</time>
      </trkpt>
      <trkpt lat="43.75537" lon="3.54031">
        <ele>447.4</ele>
        <time>2011-12-18T12:19:17Z</time>
      </trkpt>
      <trkpt lat="43.75539" lon="3.54027">
        <ele>448.4</ele>
        <time>2011-12-18T12:19:21Z</time>
      </trkpt>
      <trkpt lat="43.75542" lon="3.54023">
        <ele>450.1</ele>
        <time>2011-12-18T12:19:26Z</time>
      </trkpt>
      <trkpt lat="43.75545" lon="3.54019">
        <ele>450.3</ele>
        <time>2011-12-18T12:19:30Z</time>
      </trkpt>
      <trkpt lat="43.75545" lon="3.54018">
        <ele>450.1</ele>
        <time>2011-12-18T12:19:31Z</time>
      </trkpt>
      <trkpt lat="43.75549" lon="3.54008">
        <ele>451.1</ele>
        <time>2011-12-18T12:19:40Z</time>
      </trkpt>
      <trkpt lat="43.75551" lon="3.54004">
        <ele>451.2</ele>
        <time>2011-12-18T12:19:44Z</time>
      </trkpt>
      <trkpt lat="43.75553" lon="3.54">
        <ele>451.8</ele>
        <time>2011-12-18T12:19:48Z</time>
      </trkpt>
      <trkpt lat="43.75555" lon="3.53995">
        <ele>453.4</ele>
        <time>2011-12-18T12:19:53Z</time>
      </trkpt>
      <trkpt lat="43.75558" lon="3.53991">
        <ele>455.3</ele>
        <time>2011-12-18T12:19:58Z</time>
      </trkpt>
      <trkpt lat="43.7556" lon="3.53986">
        <ele>456.7</ele>
        <time>2011-12-18T12:20:03Z</time>
      </trkpt>
      <trkpt lat="43.75562" lon="3.53981">
        <ele>458.3</ele>
        <time>2011-12-18T12:20:08Z</time>
      </trkpt>
      <trkpt lat="43.75564" lon="3.53976">
        <ele>459.2</ele>
        <time>2011-12-18T12:20:14Z</time>
      </trkpt>
      <trkpt lat="43.75565" lon="3.5397">
        <ele>460.7</ele>
        <time>2011-12-18T12:20:21Z</time>
      </trkpt>
      <trkpt lat="43.75567" lon="3.53965">
        <ele>461.6</ele>
        <time>2011-12-18T12:20:27Z</time>
      </trkpt>
      <trkpt lat="43.75569" lon="3.53961">
        <ele>463.2</ele>
        <time>2011-12-18T12:20:33Z</time>
      </trkpt>
      <trkpt lat="43.7557" lon="3.5396">
        <ele>463.6</ele>
        <time>2011-12-18T12:20:34Z</time>
      </trkpt>
      <trkpt lat="43.75571" lon="3.53953">
        <ele>465.2</ele>
        <time>2011-12-18T12:20:55Z</time>
      </trkpt>
      <trkpt lat="43.75574" lon="3.53949">
        <ele>466.4</ele>
        <time>2011-12-18T12:21:02Z</time>
      </trkpt>
      <trkpt lat="43.75578" lon="3.53946">
        <ele>468.7</ele>
        <time>2011-12-18T12:21:08Z</time>
      </trkpt>
      <trkpt lat="43.75582" lon="3.53946">
        <ele>470</ele>
        <time>2011-12-18T12:21:13Z</time>
      </trkpt>
      <trkpt lat="43.75586" lon="3.53945">
        <ele>471.6</ele>
        <time>2011-12-18T12:21:18Z</time>
      </trkpt>
      <trkpt lat="43.75589" lon="3.53942">
        <ele>471.3</ele>
        <time>2011-12-18T12:21:23Z</time>
      </trkpt>
      <trkpt lat="43.75592" lon="3.53938">
        <ele>470.4</ele>
        <time>2011-12-18T12:21:27Z</time>
      </trkpt>
      <trkpt lat="43.75595" lon="3.53933">
        <ele>470.4</ele>
        <time>2011-12-18T12:21:32Z</time>
      </trkpt>
      <trkpt lat="43.75597" lon="3.53928">
        <ele>470.7</ele>
        <time>2011-12-18T12:21:37Z</time>
      </trkpt>
      <trkpt lat="43.75597" lon="3.53926">
        <ele>470.8</ele>
        <time>2011-12-18T12:21:38Z</time>
      </trkpt>
      <trkpt lat="43.75602" lon="3.53919">
        <ele>472.4</ele>
        <time>2011-12-18T12:21:46Z</time>
      </trkpt>
      <trkpt lat="43.75606" lon="3.53916">
        <ele>473.6</ele>
        <time>2011-12-18T12:21:51Z</time>
      </trkpt>
      <trkpt lat="43.75608" lon="3.53912">
        <ele>475.4</ele>
        <time>2011-12-18T12:21:56Z</time>
      </trkpt>
      <trkpt lat="43.75611" lon="3.53909">
        <ele>476.4</ele>
        <time>2011-12-18T12:22:01Z</time>
      </trkpt>
      <trkpt lat="43.75615" lon="3.53907">
        <ele>477.6</ele>
        <time>2011-12-18T12:22:06Z</time>
      </trkpt>
      <trkpt lat="43.75618" lon="3.53906">
        <ele>478.5</ele>
        <time>2011-12-18T12:22:09Z</time>
      </trkpt>
      <trkpt lat="43.75622" lon="3.53905">
        <ele>479.6</ele>
        <time>2011-12-18T12:22:12Z</time>
      </trkpt>
      <trkpt lat="43.75625" lon="3.53904">
        <ele>479.6</ele>
        <time>2011-12-18T12:22:15Z</time>
      </trkpt>
      <trkpt lat="43.75628" lon="3.53902">
        <ele>478.6</ele>
        <time>2011-12-18T12:22:18Z</time>
      </trkpt>
      <trkpt lat="43.75631" lon="3.53898">
        <ele>478.6</ele>
        <time>2011-12-18T12:22:22Z</time>
      </trkpt>
      <trkpt lat="43.75635" lon="3.53895">
        <ele>479.3</ele>
        <time>2011-12-18T12:22:26Z</time>
      </trkpt>
      <trkpt lat="43.75638" lon="3.53891">
        <ele>480.7</ele>
        <time>2011-12-18T12:22:31Z</time>
      </trkpt>
      <trkpt lat="43.75641" lon="3.53887">
        <ele>482.1</ele>
        <time>2011-12-18T12:22:36Z</time>
      </trkpt>
      <trkpt lat="43.75643" lon="3.53883">
        <ele>481.9</ele>
        <time>2011-12-18T12:22:40Z</time>
      </trkpt>
      <trkpt lat="43.75644" lon="3.53882">
        <ele>481.3</ele>
        <time>2011-12-18T12:22:41Z</time>
      </trkpt>
      <trkpt lat="43.7565" lon="3.53876">
        <ele>480.2</ele>
        <time>2011-12-18T12:22:52Z</time>
      </trkpt>
      <trkpt lat="43.75652" lon="3.53871">
        <ele>479.7</ele>
        <time>2011-12-18T12:22:59Z</time>
      </trkpt>
      <trkpt lat="43.75656" lon="3.53868">
        <ele>478.8</ele>
        <time>2011-12-18T12:23:03Z</time>
      </trkpt>
      <trkpt lat="43.75659" lon="3.53868">
        <ele>479.1</ele>
        <time>2011-12-18T12:23:07Z</time>
      </trkpt>
      <trkpt lat="43.75664" lon="3.53866">
        <ele>479.9</ele>
        <time>2011-12-18T12:23:11Z</time>
      </trkpt>
      <trkpt lat="43.75668" lon="3.53865">
        <ele>479.6</ele>
        <time>2011-12-18T12:23:15Z</time>
      </trkpt>
      <trkpt lat="43.75671" lon="3.53864">
        <ele>479.8</ele>
        <time>2011-12-18T12:23:19Z</time>
      </trkpt>
      <trkpt lat="43.75675" lon="3.53863">
        <ele>480.5</ele>
        <time>2011-12-18T12:23:24Z</time>
      </trkpt>
      <trkpt lat="43.75679" lon="3.53861">
        <ele>482.7</ele>
        <time>2011-12-18T12:23:29Z</time>
      </trkpt>
      <trkpt lat="43.75683" lon="3.53858">
        <ele>483.4</ele>
        <time>2011-12-18T12:23:34Z</time>
      </trkpt>
      <trkpt lat="43.75687" lon="3.53857">
        <ele>484.1</ele>
        <time>2011-12-18T12:23:38Z</time>
      </trkpt>
      <trkpt lat="43.7569" lon="3.53853">
        <ele>485.3</ele>
        <time>2011-12-18T12:23:42Z</time>
      </trkpt>
      <trkpt lat="43.75691" lon="3.53853">
        <ele>485.6</ele>
        <time>2011-12-18T12:23:43Z</time>
      </trkpt>
      <trkpt lat="43.75699" lon="3.53853">
        <ele>486.2</ele>
        <time>2011-12-18T12:23:52Z</time>
      </trkpt>
      <trkpt lat="43.75702" lon="3.53851">
        <ele>487.1</ele>
        <time>2011-12-18T12:23:57Z</time>
      </trkpt>
      <trkpt lat="43.75702" lon="3.53845">
        <ele>489.3</ele>
        <time>2011-12-18T12:24:05Z</time>
      </trkpt>
      <trkpt lat="43.75702" lon="3.53839">
        <ele>489.8</ele>
        <time>2011-12-18T12:24:11Z</time>
      </trkpt>
      <trkpt lat="43.75706" lon="3.53836">
        <ele>490.8</ele>
        <time>2011-12-18T12:24:16Z</time>
      </trkpt>
      <trkpt lat="43.7571" lon="3.53836">
        <ele>491</ele>
        <time>2011-12-18T12:24:22Z</time>
      </trkpt>
      <trkpt lat="43.75714" lon="3.53836">
        <ele>492.8</ele>
        <time>2011-12-18T12:24:29Z</time>
      </trkpt>
      <trkpt lat="43.75713" lon="3.53829">
        <ele>493.2</ele>
        <time>2011-12-18T12:24:38Z</time>
      </trkpt>
      <trkpt lat="43.75712" lon="3.53824">
        <ele>495.8</ele>
        <time>2011-12-18T12:24:48Z</time>
      </trkpt>
      <trkpt lat="43.75712" lon="3.53823">
        <ele>495.9</ele>
        <time>2011-12-18T12:24:49Z</time>
      </trkpt>
      <trkpt lat="43.75719" lon="3.5382">
        <ele>497.2</ele>
        <time>2011-12-18T12:25:05Z</time>
      </trkpt>
      <trkpt lat="43.75719" lon="3.53815">
        <ele>498.9</ele>
        <time>2011-12-18T12:25:16Z</time>
      </trkpt>
      <trkpt lat="43.75715" lon="3.53811">
        <ele>500.2</ele>
        <time>2011-12-18T12:25:24Z</time>
      </trkpt>
      <trkpt lat="43.75719" lon="3.53809">
        <ele>502.3</ele>
        <time>2011-12-18T12:25:42Z</time>
      </trkpt>
      <trkpt lat="43.75717" lon="3.53803">
        <ele>504.2</ele>
        <time>2011-12-18T12:25:54Z</time>
      </trkpt>
      <trkpt lat="43.75717" lon="3.53803">
        <ele>504.3</ele>
        <time>2011-12-18T12:25:55Z</time>
      </trkpt>
      <trkpt lat="43.75714" lon="3.53797">
        <ele>507.2</ele>
        <time>2011-12-18T12:26:18Z</time>
      </trkpt>
      <trkpt lat="43.75712" lon="3.53793">
        <ele>509.1</ele>
        <time>2011-12-18T12:26:26Z</time>
      </trkpt>
      <trkpt lat="43.75712" lon="3.53787">
        <ele>508.9</ele>
        <time>2011-12-18T12:26:32Z</time>
      </trkpt>
      <trkpt lat="43.75714" lon="3.53782">
        <ele>510</ele>
        <time>2011-12-18T12:26:47Z</time>
      </trkpt>
      <trkpt lat="43.75714" lon="3.53776">
        <ele>511.9</ele>
        <time>2011-12-18T12:26:54Z</time>
      </trkpt>
      <trkpt lat="43.75713" lon="3.5377">
        <ele>513.8</ele>
        <time>2011-12-18T12:27:02Z</time>
      </trkpt>
      <trkpt lat="43.75712" lon="3.53769">
        <ele>514.1</ele>
        <time>2011-12-18T12:27:03Z</time>
      </trkpt>
      <trkpt lat="43.7572" lon="3.5377">
        <ele>516.9</ele>
        <time>2011-12-18T12:27:20Z</time>
      </trkpt>
      <trkpt lat="43.75723" lon="3.53767">
        <ele>518.6</ele>
        <time>2011-12-18T12:27:30Z</time>
      </trkpt>
      <trkpt lat="43.75723" lon="3.53761">
        <ele>518.2</ele>
        <time>2011-12-18T12:27:36Z</time>
      </trkpt>
      <trkpt lat="43.75721" lon="3.53756">
        <ele>518.5</ele>
        <time>2011-12-18T12:27:41Z</time>
      </trkpt>
      <trkpt lat="43.75718" lon="3.53751">
        <ele>519.4</ele>
        <time>2011-12-18T12:27:47Z</time>
      </trkpt>
      <trkpt lat="43.75715" lon="3.53748">
        <ele>519.9</ele>
        <time>2011-12-18T12:27:53Z</time>
      </trkpt>
      <trkpt lat="43.75716" lon="3.53742">
        <ele>520</ele>
        <time>2011-12-18T12:28:02Z</time>
      </trkpt>
      <trkpt lat="43.7572" lon="3.53741">
        <ele>521.4</ele>
        <time>2011-12-18T12:28:14Z</time>
      </trkpt>
      <trkpt lat="43.75721" lon="3.5374">
        <ele>521.6</ele>
        <time>2011-12-18T12:28:15Z</time>
      </trkpt>
      <trkpt lat="43.75729" lon="3.53741">
        <ele>523.3</ele>
        <time>2011-12-18T12:28:31Z</time>
      </trkpt>
      <trkpt lat="43.75733" lon="3.53744">
        <ele>524.3</ele>
        <time>2011-12-18T12:28:38Z</time>
      </trkpt>
      <trkpt lat="43.75736" lon="3.53749">
        <ele>525.3</ele>
        <time>2011-12-18T12:28:44Z</time>
      </trkpt>
      <trkpt lat="43.75739" lon="3.53753">
        <ele>526.3</ele>
        <time>2011-12-18T12:28:49Z</time>
      </trkpt>
      <trkpt lat="43.75741" lon="3.53757">
        <ele>527.6</ele>
        <time>2011-12-18T12:28:53Z</time>
      </trkpt>
      <trkpt lat="43.75744" lon="3.53762">
        <ele>527.9</ele>
        <time>2011-12-18T12:28:59Z</time>
      </trkpt>
      <trkpt lat="43.75747" lon="3.53767">
        <ele>527.9</ele>
        <time>2011-12-18T12:29:05Z</time>
      </trkpt>
      <trkpt lat="43.7575" lon="3.53771">
        <ele>529.6</ele>
        <time>2011-12-18T12:29:11Z</time>
      </trkpt>
      <trkpt lat="43.75753" lon="3.53774">
        <ele>530.5</ele>
        <time>2011-12-18T12:29:17Z</time>
      </trkpt>
      <trkpt lat="43.75753" lon="3.53775">
        <ele>530.5</ele>
        <time>2011-12-18T12:29:18Z</time>
      </trkpt>
      <trkpt lat="43.75754" lon="3.53763">
        <ele>534.2</ele>
        <time>2011-12-18T12:29:42Z</time>
      </trkpt>
      <trkpt lat="43.75754" lon="3.53757">
        <ele>535.9</ele>
        <time>2011-12-18T12:29:52Z</time>
      </trkpt>
      <trkpt lat="43.75758" lon="3.53758">
        <ele>538.2</ele>
        <time>2011-12-18T12:30:07Z</time>
      </trkpt>
      <trkpt lat="43.75762" lon="3.5376">
        <ele>539.9</ele>
        <time>2011-12-18T12:32:48Z</time>
      </trkpt>
      <trkpt lat="43.75763" lon="3.5376">
        <ele>540</ele>
        <time>2011-12-18T12:32:49Z</time>
      </trkpt>
      <trkpt lat="43.75767" lon="3.5376">
        <ele>542.7</ele>
        <time>2011-12-18T12:36:46Z</time>
      </trkpt>
      <trkpt lat="43.75771" lon="3.53751">
        <ele>541.3</ele>
        <time>2011-12-18T12:36:58Z</time>
      </trkpt>
      <trkpt lat="43.75771" lon="3.53746">
        <ele>540.5</ele>
        <time>2011-12-18T12:37:03Z</time>
      </trkpt>
      <trkpt lat="43.75772" lon="3.5374">
        <ele>538.9</ele>
        <time>2011-12-18T12:37:09Z</time>
      </trkpt>
      <trkpt lat="43.75772" lon="3.53735">
        <ele>536.2</ele>
        <time>2011-12-18T12:37:14Z</time>
      </trkpt>
      <trkpt lat="43.75773" lon="3.53729">
        <ele>533.9</ele>
        <time>2011-12-18T12:37:19Z</time>
      </trkpt>
      <trkpt lat="43.75774" lon="3.53724">
        <ele>533.5</ele>
        <time>2011-12-18T12:37:23Z</time>
      </trkpt>
      <trkpt lat="43.75773" lon="3.53718">
        <ele>530.5</ele>
        <time>2011-12-18T12:37:30Z</time>
      </trkpt>
      <trkpt lat="43.75773" lon="3.53713">
        <ele>530.7</ele>
        <time>2011-12-18T12:37:36Z</time>
      </trkpt>
      <trkpt lat="43.75772" lon="3.53707">
        <ele>529.9</ele>
        <time>2011-12-18T12:37:41Z</time>
      </trkpt>
      <trkpt lat="43.75771" lon="3.53701">
        <ele>527.8</ele>
        <time>2011-12-18T12:37:46Z</time>
      </trkpt>
      <trkpt lat="43.75771" lon="3.53701">
        <ele>527.8</ele>
        <time>2011-12-18T12:37:47Z</time>
      </trkpt>
      <trkpt lat="43.75778" lon="3.53699">
        <ele>522.9</ele>
        <time>2011-12-18T12:38:11Z</time>
      </trkpt>
      <trkpt lat="43.75779" lon="3.53694">
        <ele>522.3</ele>
        <time>2011-12-18T12:38:17Z</time>
      </trkpt>
      <trkpt lat="43.75779" lon="3.53689">
        <ele>521.8</ele>
        <time>2011-12-18T12:38:22Z</time>
      </trkpt>
      <trkpt lat="43.7578" lon="3.53684">
        <ele>520.4</ele>
        <time>2011-12-18T12:38:27Z</time>
      </trkpt>
      <trkpt lat="43.75779" lon="3.53678">
        <ele>520.3</ele>
        <time>2011-12-18T12:38:32Z</time>
      </trkpt>
      <trkpt lat="43.75778" lon="3.53673">
        <ele>521.9</ele>
        <time>2011-12-18T12:38:40Z</time>
      </trkpt>
      <trkpt lat="43.75782" lon="3.5367">
        <ele>515.9</ele>
        <time>2011-12-18T12:38:56Z</time>
      </trkpt>
      <trkpt lat="43.75782" lon="3.5367">
        <ele>516</ele>
        <time>2011-12-18T12:38:57Z</time>
      </trkpt>
      <trkpt lat="43.75786" lon="3.53681">
        <ele>514.6</ele>
        <time>2011-12-18T12:39:10Z</time>
      </trkpt>
      <trkpt lat="43.75788" lon="3.53685">
        <ele>514.9</ele>
        <time>2011-12-18T12:39:14Z</time>
      </trkpt>
      <trkpt lat="43.7579" lon="3.5369">
        <ele>514.3</ele>
        <time>2011-12-18T12:39:19Z</time>
      </trkpt>
      <trkpt lat="43.75792" lon="3.53695">
        <ele>513.5</ele>
        <time>2011-12-18T12:39:24Z</time>
      </trkpt>
      <trkpt lat="43.75794" lon="3.53699">
        <ele>512.9</ele>
        <time>2011-12-18T12:39:28Z</time>
      </trkpt>
      <trkpt lat="43.75796" lon="3.53704">
        <ele>514.2</ele>
        <time>2011-12-18T12:39:32Z</time>
      </trkpt>
      <trkpt lat="43.75798" lon="3.53709">
        <ele>514.8</ele>
        <time>2011-12-18T12:39:35Z</time>
      </trkpt>
      <trkpt lat="43.758" lon="3.53714">
        <ele>514.2</ele>
        <time>2011-12-18T12:39:40Z</time>
      </trkpt>
      <trkpt lat="43.75801" lon="3.53718">
        <ele>514.3</ele>
        <time>2011-12-18T12:39:44Z</time>
      </trkpt>
      <trkpt lat="43.75803" lon="3.53723">
        <ele>513.9</ele>
        <time>2011-12-18T12:39:49Z</time>
      </trkpt>
      <trkpt lat="43.75807" lon="3.53726">
        <ele>512.2</ele>
        <time>2011-12-18T12:39:55Z</time>
      </trkpt>
      <trkpt lat="43.7581" lon="3.53728">
        <ele>511.1</ele>
        <time>2011-12-18T12:40:00Z</time>
      </trkpt>
      <trkpt lat="43.75811" lon="3.53729">
        <ele>510.8</ele>
        <time>2011-12-18T12:40:01Z</time>
      </trkpt>
      <trkpt lat="43.75818" lon="3.53727">
        <ele>508.2</ele>
        <time>2011-12-18T12:40:13Z</time>
      </trkpt>
      <trkpt lat="43.75822" lon="3.53724">
        <ele>507.9</ele>
        <time>2011-12-18T12:40:18Z</time>
      </trkpt>
      <trkpt lat="43.75826" lon="3.53721">
        <ele>507.5</ele>
        <time>2011-12-18T12:40:22Z</time>
      </trkpt>
      <trkpt lat="43.75828" lon="3.53717">
        <ele>507.2</ele>
        <time>2011-12-18T12:40:27Z</time>
      </trkpt>
      <trkpt lat="43.75831" lon="3.53713">
        <ele>506.2</ele>
        <time>2011-12-18T12:40:31Z</time>
      </trkpt>
      <trkpt lat="43.75834" lon="3.53708">
        <ele>504.9</ele>
        <time>2011-12-18T12:40:37Z</time>
      </trkpt>
      <trkpt lat="43.75838" lon="3.53708">
        <ele>503.5</ele>
        <time>2011-12-18T12:40:44Z</time>
      </trkpt>
      <trkpt lat="43.75841" lon="3.53708">
        <ele>503</ele>
        <time>2011-12-18T12:40:49Z</time>
      </trkpt>
      <trkpt lat="43.75844" lon="3.53707">
        <ele>502.9</ele>
        <time>2011-12-18T12:40:53Z</time>
      </trkpt>
      <trkpt lat="43.75848" lon="3.53707">
        <ele>502.5</ele>
        <time>2011-12-18T12:40:55Z</time>
      </trkpt>
      <trkpt lat="43.75851" lon="3.53706">
        <ele>502</ele>
        <time>2011-12-18T12:40:57Z</time>
      </trkpt>
      <trkpt lat="43.75855" lon="3.53705">
        <ele>501.3</ele>
        <time>2011-12-18T12:41:00Z</time>
      </trkpt>
      <trkpt lat="43.75858" lon="3.53704">
        <ele>501.3</ele>
        <time>2011-12-18T12:41:02Z</time>
      </trkpt>
      <trkpt lat="43.7586" lon="3.53703">
        <ele>501.4</ele>
        <time>2011-12-18T12:41:03Z</time>
      </trkpt>
      <trkpt lat="43.75865" lon="3.53701">
        <ele>501.6</ele>
        <time>2011-12-18T12:41:06Z</time>
      </trkpt>
      <trkpt lat="43.75869" lon="3.53699">
        <ele>501.4</ele>
        <time>2011-12-18T12:41:08Z</time>
      </trkpt>
      <trkpt lat="43.75873" lon="3.53698">
        <ele>501.1</ele>
        <time>2011-12-18T12:41:10Z</time>
      </trkpt>
      <trkpt lat="43.75876" lon="3.53696">
        <ele>500.6</ele>
        <time>2011-12-18T12:41:12Z</time>
      </trkpt>
      <trkpt lat="43.7588" lon="3.53695">
        <ele>500.1</ele>
        <time>2011-12-18T12:41:15Z</time>
      </trkpt>
      <trkpt lat="43.75884" lon="3.53694">
        <ele>499.9</ele>
        <time>2011-12-18T12:41:18Z</time>
      </trkpt>
      <trkpt lat="43.75888" lon="3.53693">
        <ele>500.4</ele>
        <time>2011-12-18T12:41:24Z</time>
      </trkpt>
      <trkpt lat="43.75891" lon="3.53693">
        <ele>501.7</ele>
        <time>2011-12-18T12:41:30Z</time>
      </trkpt>
      <trkpt lat="43.75895" lon="3.53692">
        <ele>501.8</ele>
        <time>2011-12-18T12:41:34Z</time>
      </trkpt>
      <trkpt lat="43.75899" lon="3.53691">
        <ele>502.1</ele>
        <time>2011-12-18T12:41:38Z</time>
      </trkpt>
      <trkpt lat="43.75903" lon="3.53691">
        <ele>502.1</ele>
        <time>2011-12-18T12:41:43Z</time>
      </trkpt>
      <trkpt lat="43.75907" lon="3.5369">
        <ele>501.2</ele>
        <time>2011-12-18T12:41:51Z</time>
      </trkpt>
      <trkpt lat="43.75911" lon="3.53688">
        <ele>499.2</ele>
        <time>2011-12-18T12:41:59Z</time>
      </trkpt>
      <trkpt lat="43.75915" lon="3.53686">
        <ele>500.8</ele>
        <time>2011-12-18T12:42:09Z</time>
      </trkpt>
      <trkpt lat="43.75915" lon="3.53686">
        <ele>500.7</ele>
        <time>2011-12-18T12:42:10Z</time>
      </trkpt>
      <trkpt lat="43.75922" lon="3.53679">
        <ele>501.3</ele>
        <time>2011-12-18T12:42:45Z</time>
      </trkpt>
      <trkpt lat="43.75925" lon="3.53676">
        <ele>502.5</ele>
        <time>2011-12-18T12:42:58Z</time>
      </trkpt>
      <trkpt lat="43.75928" lon="3.53673">
        <ele>504</ele>
        <time>2011-12-18T12:43:43Z</time>
      </trkpt>
      <trkpt lat="43.75929" lon="3.53672">
        <ele>503.6</ele>
        <time>2011-12-18T12:43:44Z</time>
      </trkpt>
      <trkpt lat="43.75934" lon="3.53664">
        <ele>503.2</ele>
        <time>2011-12-18T12:44:11Z</time>
      </trkpt>
      <trkpt lat="43.75937" lon="3.5366">
        <ele>503.3</ele>
        <time>2011-12-18T12:44:17Z</time>
      </trkpt>
      <trkpt lat="43.75941" lon="3.53657">
        <ele>504.1</ele>
        <time>2011-12-18T12:44:21Z</time>
      </trkpt>
      <trkpt lat="43.75944" lon="3.53655">
        <ele>504.8</ele>
        <time>2011-12-18T12:44:25Z</time>
      </trkpt>
      <trkpt lat="43.75947" lon="3.53653">
        <ele>504.9</ele>
        <time>2011-12-18T12:44:28Z</time>
      </trkpt>
      <trkpt lat="43.75951" lon="3.5365">
        <ele>504.6</ele>
        <time>2011-12-18T12:44:32Z</time>
      </trkpt>
      <trkpt lat="43.75955" lon="3.53648">
        <ele>504.4</ele>
        <time>2011-12-18T12:44:36Z</time>
      </trkpt>
      <trkpt lat="43.75958" lon="3.53644">
        <ele>504.8</ele>
        <time>2011-12-18T12:44:40Z</time>
      </trkpt>
      <trkpt lat="43.75962" lon="3.53641">
        <ele>504.9</ele>
        <time>2011-12-18T12:44:44Z</time>
      </trkpt>
      <trkpt lat="43.75962" lon="3.5364">
        <ele>505.1</ele>
        <time>2011-12-18T12:44:45Z</time>
      </trkpt>
      <trkpt lat="43.75968" lon="3.53632">
        <ele>506.7</ele>
        <time>2011-12-18T12:44:52Z</time>
      </trkpt>
      <trkpt lat="43.75971" lon="3.53628">
        <ele>507</ele>
        <time>2011-12-18T12:44:56Z</time>
      </trkpt>
      <trkpt lat="43.75974" lon="3.53624">
        <ele>507.5</ele>
        <time>2011-12-18T12:45:00Z</time>
      </trkpt>
      <trkpt lat="43.75977" lon="3.5362">
        <ele>509.3</ele>
        <time>2011-12-18T12:45:04Z</time>
      </trkpt>
      <trkpt lat="43.75981" lon="3.53616">
        <ele>509.2</ele>
        <time>2011-12-18T12:45:08Z</time>
      </trkpt>
      <trkpt lat="43.75984" lon="3.53612">
        <ele>507.7</ele>
        <time>2011-12-18T12:45:12Z</time>
      </trkpt>
      <trkpt lat="43.75987" lon="3.53609">
        <ele>509.3</ele>
        <time>2011-12-18T12:45:19Z</time>
      </trkpt>
      <trkpt lat="43.75991" lon="3.53606">
        <ele>509.7</ele>
        <time>2011-12-18T12:45:31Z</time>
      </trkpt>
      <trkpt lat="43.75995" lon="3.53604">
        <ele>509.7</ele>
        <time>2011-12-18T12:45:41Z</time>
      </trkpt>
      <trkpt lat="43.75999" lon="3.53602">
        <ele>513</ele>
        <time>2011-12-18T12:45:51Z</time>
      </trkpt>
      <trkpt lat="43.75999" lon="3.53602">
        <ele>513.1</ele>
        <time>2011-12-18T12:45:52Z</time>
      </trkpt>
      <trkpt lat="43.76006" lon="3.53596">
        <ele>513.9</ele>
        <time>2011-12-18T12:46:03Z</time>
      </trkpt>
      <trkpt lat="43.7601" lon="3.53593">
        <ele>514.9</ele>
        <time>2011-12-18T12:46:09Z</time>
      </trkpt>
      <trkpt lat="43.76014" lon="3.53591">
        <ele>515.6</ele>
        <time>2011-12-18T12:46:15Z</time>
      </trkpt>
      <trkpt lat="43.76018" lon="3.53592">
        <ele>516.5</ele>
        <time>2011-12-18T12:46:22Z</time>
      </trkpt>
      <trkpt lat="43.76022" lon="3.53593">
        <ele>516.8</ele>
        <time>2011-12-18T12:46:30Z</time>
      </trkpt>
      <trkpt lat="43.76026" lon="3.53595">
        <ele>516.5</ele>
        <time>2011-12-18T12:46:41Z</time>
      </trkpt>
      <trkpt lat="43.7603" lon="3.53597">
        <ele>516.9</ele>
        <time>2011-12-18T12:46:47Z</time>
      </trkpt>
      <trkpt lat="43.76033" lon="3.536">
        <ele>517.9</ele>
        <time>2011-12-18T12:47:00Z</time>
      </trkpt>
      <trkpt lat="43.76034" lon="3.53601">
        <ele>518.1</ele>
        <time>2011-12-18T12:47:01Z</time>
      </trkpt>
      <trkpt lat="43.76041" lon="3.53606">
        <ele>519.4</ele>
        <time>2011-12-18T12:47:17Z</time>
      </trkpt>
      <trkpt lat="43.76044" lon="3.5361">
        <ele>519.9</ele>
        <time>2011-12-18T12:47:24Z</time>
      </trkpt>
      <trkpt lat="43.76048" lon="3.53611">
        <ele>519.5</ele>
        <time>2011-12-18T12:47:30Z</time>
      </trkpt>
      <trkpt lat="43.76052" lon="3.53613">
        <ele>520.7</ele>
        <time>2011-12-18T12:47:35Z</time>
      </trkpt>
      <trkpt lat="43.76055" lon="3.53617">
        <ele>521.5</ele>
        <time>2011-12-18T12:47:40Z</time>
      </trkpt>
      <trkpt lat="43.76059" lon="3.53619">
        <ele>522.2</ele>
        <time>2011-12-18T12:47:45Z</time>
      </trkpt>
      <trkpt lat="43.76062" lon="3.53622">
        <ele>522.1</ele>
        <time>2011-12-18T12:47:49Z</time>
      </trkpt>
      <trkpt lat="43.76065" lon="3.53625">
        <ele>522.1</ele>
        <time>2011-12-18T12:47:53Z</time>
      </trkpt>
      <trkpt lat="43.7607" lon="3.53627">
        <ele>523.1</ele>
        <time>2011-12-18T12:47:58Z</time>
      </trkpt>
      <trkpt lat="43.76073" lon="3.5363">
        <ele>524.2</ele>
        <time>2011-12-18T12:48:02Z</time>
      </trkpt>
      <trkpt lat="43.76074" lon="3.53631">
        <ele>524.3</ele>
        <time>2011-12-18T12:48:03Z</time>
      </trkpt>
      <trkpt lat="43.76078" lon="3.53638">
        <ele>524.3</ele>
        <time>2011-12-18T12:48:11Z</time>
      </trkpt>
      <trkpt lat="43.7608" lon="3.53644">
        <ele>525.5</ele>
        <time>2011-12-18T12:48:16Z</time>
      </trkpt>
      <trkpt lat="43.7608" lon="3.53649">
        <ele>526.8</ele>
        <time>2011-12-18T12:48:21Z</time>
      </trkpt>
      <trkpt lat="43.76079" lon="3.53655">
        <ele>526.8</ele>
        <time>2011-12-18T12:48:26Z</time>
      </trkpt>
      <trkpt lat="43.76077" lon="3.53661">
        <ele>527</ele>
        <time>2011-12-18T12:48:32Z</time>
      </trkpt>
      <trkpt lat="43.76074" lon="3.53664">
        <ele>527.3</ele>
        <time>2011-12-18T12:48:37Z</time>
      </trkpt>
      <trkpt lat="43.76073" lon="3.5367">
        <ele>527.3</ele>
        <time>2011-12-18T12:48:42Z</time>
      </trkpt>
      <trkpt lat="43.76072" lon="3.53675">
        <ele>527.5</ele>
        <time>2011-12-18T12:48:46Z</time>
      </trkpt>
      <trkpt lat="43.76071" lon="3.5368">
        <ele>527.9</ele>
        <time>2011-12-18T12:48:51Z</time>
      </trkpt>
      <trkpt lat="43.76069" lon="3.53686">
        <ele>529</ele>
        <time>2011-12-18T12:48:57Z</time>
      </trkpt>
      <trkpt lat="43.76067" lon="3.53691">
        <ele>529</ele>
        <time>2011-12-18T12:49:02Z</time>
      </trkpt>
      <trkpt lat="43.76064" lon="3.53695">
        <ele>529.7</ele>
        <time>2011-12-18T12:49:07Z</time>
      </trkpt>
      <trkpt lat="43.76064" lon="3.53697">
        <ele>529.7</ele>
        <time>2011-12-18T12:49:08Z</time>
      </trkpt>
      <trkpt lat="43.7606" lon="3.53705">
        <ele>530.7</ele>
        <time>2011-12-18T12:49:16Z</time>
      </trkpt>
      <trkpt lat="43.76058" lon="3.53709">
        <ele>530.7</ele>
        <time>2011-12-18T12:49:20Z</time>
      </trkpt>
      <trkpt lat="43.76056" lon="3.53714">
        <ele>530.6</ele>
        <time>2011-12-18T12:49:24Z</time>
      </trkpt>
      <trkpt lat="43.76054" lon="3.5372">
        <ele>531.7</ele>
        <time>2011-12-18T12:49:29Z</time>
      </trkpt>
      <trkpt lat="43.76053" lon="3.53725">
        <ele>532.1</ele>
        <time>2011-12-18T12:49:34Z</time>
      </trkpt>
      <trkpt lat="43.76051" lon="3.53731">
        <ele>532.4</ele>
        <time>2011-12-18T12:49:39Z</time>
      </trkpt>
      <trkpt lat="43.7605" lon="3.53735">
        <ele>533.7</ele>
        <time>2011-12-18T12:49:43Z</time>
      </trkpt>
      <trkpt lat="43.76049" lon="3.53741">
        <ele>534.2</ele>
        <time>2011-12-18T12:49:48Z</time>
      </trkpt>
      <trkpt lat="43.76048" lon="3.53747">
        <ele>534.6</ele>
        <time>2011-12-18T12:49:53Z</time>
      </trkpt>
      <trkpt lat="43.76048" lon="3.53752">
        <ele>534.4</ele>
        <time>2011-12-18T12:49:58Z</time>
      </trkpt>
      <trkpt lat="43.76047" lon="3.53757">
        <ele>534.7</ele>
        <time>2011-12-18T12:50:03Z</time>
      </trkpt>
      <trkpt lat="43.76045" lon="3.53762">
        <ele>535.4</ele>
        <time>2011-12-18T12:50:07Z</time>
      </trkpt>
      <trkpt lat="43.76045" lon="3.53768">
        <ele>536.1</ele>
        <time>2011-12-18T12:50:12Z</time>
      </trkpt>
      <trkpt lat="43.76044" lon="3.5377">
        <ele>536.2</ele>
        <time>2011-12-18T12:50:13Z</time>
      </trkpt>
      <trkpt lat="43.76043" lon="3.53778">
        <ele>537.5</ele>
        <time>2011-12-18T12:50:19Z</time>
      </trkpt>
      <trkpt lat="43.76042" lon="3.53783">
        <ele>537.3</ele>
        <time>2011-12-18T12:50:23Z</time>
      </trkpt>
      <trkpt lat="43.76041" lon="3.53789">
        <ele>537.4</ele>
        <time>2011-12-18T12:50:27Z</time>
      </trkpt>
      <trkpt lat="43.76041" lon="3.53794">
        <ele>537.8</ele>
        <time>2011-12-18T12:50:31Z</time>
      </trkpt>
      <trkpt lat="43.76041" lon="3.538">
        <ele>538.6</ele>
        <time>2011-12-18T12:50:35Z</time>
      </trkpt>
      <trkpt lat="43.76042" lon="3.53805">
        <ele>538.5</ele>
        <time>2011-12-18T12:50:39Z</time>
      </trkpt>
      <trkpt lat="43.76043" lon="3.53811">
        <ele>539</ele>
        <time>2011-12-18T12:50:45Z</time>
      </trkpt>
      <trkpt lat="43.76042" lon="3.53816">
        <ele>539.3</ele>
        <time>2011-12-18T12:50:50Z</time>
      </trkpt>
      <trkpt lat="43.76041" lon="3.53822">
        <ele>540.3</ele>
        <time>2011-12-18T12:50:54Z</time>
      </trkpt>
      <trkpt lat="43.7604" lon="3.53827">
        <ele>541</ele>
        <time>2011-12-18T12:50:59Z</time>
      </trkpt>
      <trkpt lat="43.76039" lon="3.53833">
        <ele>542</ele>
        <time>2011-12-18T12:51:03Z</time>
      </trkpt>
      <trkpt lat="43.76043" lon="3.53837">
        <ele>543.1</ele>
        <time>2011-12-18T12:51:13Z</time>
      </trkpt>
      <trkpt lat="43.76043" lon="3.53837">
        <ele>543.1</ele>
        <time>2011-12-18T12:51:14Z</time>
      </trkpt>
      <trkpt lat="43.76049" lon="3.53831">
        <ele>543.7</ele>
        <time>2011-12-18T12:51:31Z</time>
      </trkpt>
      <trkpt lat="43.76052" lon="3.53828">
        <ele>544.8</ele>
        <time>2011-12-18T12:51:37Z</time>
      </trkpt>
      <trkpt lat="43.76056" lon="3.53825">
        <ele>545.4</ele>
        <time>2011-12-18T12:51:42Z</time>
      </trkpt>
      <trkpt lat="43.7606" lon="3.53823">
        <ele>545</ele>
        <time>2011-12-18T12:51:46Z</time>
      </trkpt>
      <trkpt lat="43.76063" lon="3.5382">
        <ele>544.9</ele>
        <time>2011-12-18T12:51:51Z</time>
      </trkpt>
      <trkpt lat="43.76067" lon="3.53817">
        <ele>545.4</ele>
        <time>2011-12-18T12:51:56Z</time>
      </trkpt>
      <trkpt lat="43.7607" lon="3.53815">
        <ele>546.8</ele>
        <time>2011-12-18T12:52:01Z</time>
      </trkpt>
      <trkpt lat="43.76074" lon="3.53812">
        <ele>547.6</ele>
        <time>2011-12-18T12:52:06Z</time>
      </trkpt>
      <trkpt lat="43.76078" lon="3.5381">
        <ele>548.2</ele>
        <time>2011-12-18T12:52:13Z</time>
      </trkpt>
      <trkpt lat="43.76082" lon="3.53809">
        <ele>548.6</ele>
        <time>2011-12-18T12:52:20Z</time>
      </trkpt>
      <trkpt lat="43.76083" lon="3.53808">
        <ele>549.1</ele>
        <time>2011-12-18T12:52:21Z</time>
      </trkpt>
      <trkpt lat="43.7609" lon="3.53808">
        <ele>550</ele>
        <time>2011-12-18T12:52:28Z</time>
      </trkpt>
      <trkpt lat="43.76093" lon="3.53806">
        <ele>550.4</ele>
        <time>2011-12-18T12:52:31Z</time>
      </trkpt>
      <trkpt lat="43.76097" lon="3.53806">
        <ele>550.5</ele>
        <time>2011-12-18T12:52:34Z</time>
      </trkpt>
      <trkpt lat="43.76101" lon="3.53804">
        <ele>550.2</ele>
        <time>2011-12-18T12:52:38Z</time>
      </trkpt>
      <trkpt lat="43.76104" lon="3.53803">
        <ele>550.4</ele>
        <time>2011-12-18T12:52:42Z</time>
      </trkpt>
      <trkpt lat="43.76108" lon="3.53801">
        <ele>551.1</ele>
        <time>2011-12-18T12:52:46Z</time>
      </trkpt>
      <trkpt lat="43.76112" lon="3.538">
        <ele>551.9</ele>
        <time>2011-12-18T12:52:50Z</time>
      </trkpt>
      <trkpt lat="43.76115" lon="3.53799">
        <ele>552.3</ele>
        <time>2011-12-18T12:52:54Z</time>
      </trkpt>
      <trkpt lat="43.7612" lon="3.53798">
        <ele>552.4</ele>
        <time>2011-12-18T12:52:59Z</time>
      </trkpt>
      <trkpt lat="43.76124" lon="3.53798">
        <ele>553.6</ele>
        <time>2011-12-18T12:53:05Z</time>
      </trkpt>
      <trkpt lat="43.76128" lon="3.538">
        <ele>553</ele>
        <time>2011-12-18T12:53:11Z</time>
      </trkpt>
      <trkpt lat="43.76131" lon="3.53802">
        <ele>554.5</ele>
        <time>2011-12-18T12:53:15Z</time>
      </trkpt>
      <trkpt lat="43.76134" lon="3.53805">
        <ele>554.6</ele>
        <time>2011-12-18T12:53:19Z</time>
      </trkpt>
      <trkpt lat="43.76137" lon="3.53809">
        <ele>554.8</ele>
        <time>2011-12-18T12:53:24Z</time>
      </trkpt>
      <trkpt lat="43.76138" lon="3.5381">
        <ele>555</ele>
        <time>2011-12-18T12:53:25Z</time>
      </trkpt>
      <trkpt lat="43.76143" lon="3.53816">
        <ele>555.3</ele>
        <time>2011-12-18T12:53:32Z</time>
      </trkpt>
      <trkpt lat="43.76146" lon="3.53821">
        <ele>555.8</ele>
        <time>2011-12-18T12:53:37Z</time>
      </trkpt>
      <trkpt lat="43.76149" lon="3.53825">
        <ele>556.4</ele>
        <time>2011-12-18T12:53:41Z</time>
      </trkpt>
      <trkpt lat="43.7615" lon="3.53829">
        <ele>556</ele>
        <time>2011-12-18T12:53:45Z</time>
      </trkpt>
      <trkpt lat="43.76152" lon="3.53834">
        <ele>555.1</ele>
        <time>2011-12-18T12:53:49Z</time>
      </trkpt>
      <trkpt lat="43.76154" lon="3.53838">
        <ele>554.9</ele>
        <time>2011-12-18T12:53:53Z</time>
      </trkpt>
      <trkpt lat="43.76156" lon="3.53844">
        <ele>556.3</ele>
        <time>2011-12-18T12:53:58Z</time>
      </trkpt>
      <trkpt lat="43.76159" lon="3.53848">
        <ele>557.8</ele>
        <time>2011-12-18T12:54:03Z</time>
      </trkpt>
      <trkpt lat="43.76161" lon="3.53852">
        <ele>557.9</ele>
        <time>2011-12-18T12:54:07Z</time>
      </trkpt>
      <trkpt lat="43.76163" lon="3.53857">
        <ele>557.6</ele>
        <time>2011-12-18T12:54:11Z</time>
      </trkpt>
      <trkpt lat="43.76165" lon="3.53861">
        <ele>558</ele>
        <time>2011-12-18T12:54:15Z</time>
      </trkpt>
      <trkpt lat="43.76166" lon="3.53866">
        <ele>558</ele>
        <time>2011-12-18T12:54:19Z</time>
      </trkpt>
      <trkpt lat="43.76169" lon="3.53871">
        <ele>557.2</ele>
        <time>2011-12-18T12:54:23Z</time>
      </trkpt>
      <trkpt lat="43.7617" lon="3.53876">
        <ele>557</ele>
        <time>2011-12-18T12:54:27Z</time>
      </trkpt>
      <trkpt lat="43.76171" lon="3.53877">
        <ele>557.1</ele>
        <time>2011-12-18T12:54:28Z</time>
      </trkpt>
      <trkpt lat="43.76174" lon="3.53885">
        <ele>557.3</ele>
        <time>2011-12-18T12:54:36Z</time>
      </trkpt>
      <trkpt lat="43.76176" lon="3.53891">
        <ele>558.4</ele>
        <time>2011-12-18T12:54:41Z</time>
      </trkpt>
      <trkpt lat="43.76178" lon="3.53896">
        <ele>557.5</ele>
        <time>2011-12-18T12:54:47Z</time>
      </trkpt>
      <trkpt lat="43.7618" lon="3.53902">
        <ele>559.3</ele>
        <time>2011-12-18T12:54:53Z</time>
      </trkpt>
      <trkpt lat="43.76181" lon="3.53908">
        <ele>560.3</ele>
        <time>2011-12-18T12:54:59Z</time>
      </trkpt>
      <trkpt lat="43.76182" lon="3.53914">
        <ele>560.9</ele>
        <time>2011-12-18T12:55:04Z</time>
      </trkpt>
      <trkpt lat="43.76182" lon="3.53919">
        <ele>562.1</ele>
        <time>2011-12-18T12:55:10Z</time>
      </trkpt>
      <trkpt lat="43.76182" lon="3.53925">
        <ele>561.5</ele>
        <time>2011-12-18T12:55:16Z</time>
      </trkpt>
      <trkpt lat="43.76181" lon="3.5393">
        <ele>561.2</ele>
        <time>2011-12-18T12:55:20Z</time>
      </trkpt>
      <trkpt lat="43.7618" lon="3.53935">
        <ele>561.6</ele>
        <time>2011-12-18T12:55:24Z</time>
      </trkpt>
      <trkpt lat="43.76178" lon="3.5394">
        <ele>561.4</ele>
        <time>2011-12-18T12:55:28Z</time>
      </trkpt>
      <trkpt lat="43.76177" lon="3.53942">
        <ele>561.4</ele>
        <time>2011-12-18T12:55:29Z</time>
      </trkpt>
      <trkpt lat="43.76174" lon="3.5395">
        <ele>562.6</ele>
        <time>2011-12-18T12:55:37Z</time>
      </trkpt>
      <trkpt lat="43.76172" lon="3.53955">
        <ele>562.3</ele>
        <time>2011-12-18T12:55:43Z</time>
      </trkpt>
      <trkpt lat="43.76169" lon="3.53959">
        <ele>563.3</ele>
        <time>2011-12-18T12:55:48Z</time>
      </trkpt>
      <trkpt lat="43.76166" lon="3.53964">
        <ele>563.1</ele>
        <time>2011-12-18T12:55:52Z</time>
      </trkpt>
      <trkpt lat="43.76163" lon="3.53968">
        <ele>564.3</ele>
        <time>2011-12-18T12:55:56Z</time>
      </trkpt>
      <trkpt lat="43.76161" lon="3.53972">
        <ele>565.1</ele>
        <time>2011-12-18T12:56:00Z</time>
      </trkpt>
      <trkpt lat="43.76158" lon="3.53975">
        <ele>565.1</ele>
        <time>2011-12-18T12:56:05Z</time>
      </trkpt>
      <trkpt lat="43.76154" lon="3.5398">
        <ele>564.9</ele>
        <time>2011-12-18T12:56:10Z</time>
      </trkpt>
      <trkpt lat="43.76151" lon="3.53983">
        <ele>564.8</ele>
        <time>2011-12-18T12:56:14Z</time>
      </trkpt>
      <trkpt lat="43.76148" lon="3.53986">
        <ele>565.5</ele>
        <time>2011-12-18T12:56:18Z</time>
      </trkpt>
      <trkpt lat="43.76144" lon="3.53989">
        <ele>566</ele>
        <time>2011-12-18T12:56:22Z</time>
      </trkpt>
      <trkpt lat="43.76141" lon="3.53993">
        <ele>567.2</ele>
        <time>2011-12-18T12:56:27Z</time>
      </trkpt>
      <trkpt lat="43.76139" lon="3.53997">
        <ele>567.2</ele>
        <time>2011-12-18T12:56:31Z</time>
      </trkpt>
      <trkpt lat="43.76138" lon="3.53998">
        <ele>567.1</ele>
        <time>2011-12-18T12:56:32Z</time>
      </trkpt>
      <trkpt lat="43.76134" lon="3.54004">
        <ele>568.3</ele>
        <time>2011-12-18T12:56:39Z</time>
      </trkpt>
      <trkpt lat="43.76131" lon="3.54008">
        <ele>568.5</ele>
        <time>2011-12-18T12:56:43Z</time>
      </trkpt>
      <trkpt lat="43.76129" lon="3.54012">
        <ele>567.9</ele>
        <time>2011-12-18T12:56:47Z</time>
      </trkpt>
      <trkpt lat="43.76126" lon="3.54016">
        <ele>567.6</ele>
        <time>2011-12-18T12:56:51Z</time>
      </trkpt>
      <trkpt lat="43.76123" lon="3.5402">
        <ele>568.6</ele>
        <time>2011-12-18T12:56:55Z</time>
      </trkpt>
      <trkpt lat="43.7612" lon="3.54024">
        <ele>567.6</ele>
        <time>2011-12-18T12:56:59Z</time>
      </trkpt>
      <trkpt lat="43.76118" lon="3.54029">
        <ele>567</ele>
        <time>2011-12-18T12:57:04Z</time>
      </trkpt>
      <trkpt lat="43.76116" lon="3.54034">
        <ele>569</ele>
        <time>2011-12-18T12:57:10Z</time>
      </trkpt>
      <trkpt lat="43.76116" lon="3.54039">
        <ele>568.9</ele>
        <time>2011-12-18T12:57:14Z</time>
      </trkpt>
      <trkpt lat="43.76117" lon="3.54045">
        <ele>569.2</ele>
        <time>2011-12-18T12:57:19Z</time>
      </trkpt>
      <trkpt lat="43.76118" lon="3.5405">
        <ele>569.1</ele>
        <time>2011-12-18T12:57:25Z</time>
      </trkpt>
      <trkpt lat="43.76121" lon="3.54055">
        <ele>569.3</ele>
        <time>2011-12-18T12:57:30Z</time>
      </trkpt>
      <trkpt lat="43.76124" lon="3.54059">
        <ele>569.7</ele>
        <time>2011-12-18T12:57:35Z</time>
      </trkpt>
      <trkpt lat="43.76124" lon="3.5406">
        <ele>569.8</ele>
        <time>2011-12-18T12:57:36Z</time>
      </trkpt>
      <trkpt lat="43.76131" lon="3.54066">
        <ele>572.4</ele>
        <time>2011-12-18T12:57:47Z</time>
      </trkpt>
      <trkpt lat="43.76134" lon="3.54069">
        <ele>572.8</ele>
        <time>2011-12-18T12:57:52Z</time>
      </trkpt>
      <trkpt lat="43.76137" lon="3.54073">
        <ele>573.4</ele>
        <time>2011-12-18T12:57:58Z</time>
      </trkpt>
      <trkpt lat="43.76139" lon="3.54077">
        <ele>572.9</ele>
        <time>2011-12-18T12:58:05Z</time>
      </trkpt>
      <trkpt lat="43.7614" lon="3.54083">
        <ele>573.6</ele>
        <time>2011-12-18T12:58:13Z</time>
      </trkpt>
      <trkpt lat="43.76139" lon="3.54089">
        <ele>574.1</ele>
        <time>2011-12-18T12:58:19Z</time>
      </trkpt>
      <trkpt lat="43.76138" lon="3.54094">
        <ele>575.6</ele>
        <time>2011-12-18T12:58:25Z</time>
      </trkpt>
      <trkpt lat="43.76136" lon="3.54098">
        <ele>575.8</ele>
        <time>2011-12-18T12:58:30Z</time>
      </trkpt>
      <trkpt lat="43.76134" lon="3.54104">
        <ele>575.9</ele>
        <time>2011-12-18T12:58:35Z</time>
      </trkpt>
      <trkpt lat="43.76133" lon="3.54109">
        <ele>575.6</ele>
        <time>2011-12-18T12:58:41Z</time>
      </trkpt>
      <trkpt lat="43.76133" lon="3.5411">
        <ele>575.6</ele>
        <time>2011-12-18T12:58:42Z</time>
      </trkpt>
      <trkpt lat="43.76129" lon="3.54119">
        <ele>574.9</ele>
        <time>2011-12-18T12:58:52Z</time>
      </trkpt>
      <trkpt lat="43.76128" lon="3.54125">
        <ele>574.8</ele>
        <time>2011-12-18T12:58:57Z</time>
      </trkpt>
      <trkpt lat="43.76127" lon="3.54131">
        <ele>576.8</ele>
        <time>2011-12-18T12:59:02Z</time>
      </trkpt>
      <trkpt lat="43.76126" lon="3.54136">
        <ele>577.5</ele>
        <time>2011-12-18T12:59:06Z</time>
      </trkpt>
      <trkpt lat="43.76127" lon="3.54142">
        <ele>577.1</ele>
        <time>2011-12-18T12:59:12Z</time>
      </trkpt>
      <trkpt lat="43.76127" lon="3.54147">
        <ele>578.7</ele>
        <time>2011-12-18T12:59:17Z</time>
      </trkpt>
      <trkpt lat="43.76126" lon="3.54152">
        <ele>578.9</ele>
        <time>2011-12-18T12:59:21Z</time>
      </trkpt>
      <trkpt lat="43.76126" lon="3.54158">
        <ele>579.8</ele>
        <time>2011-12-18T12:59:26Z</time>
      </trkpt>
      <trkpt lat="43.76128" lon="3.54163">
        <ele>579.6</ele>
        <time>2011-12-18T12:59:30Z</time>
      </trkpt>
      <trkpt lat="43.7613" lon="3.54168">
        <ele>578.8</ele>
        <time>2011-12-18T12:59:34Z</time>
      </trkpt>
      <trkpt lat="43.76131" lon="3.54174">
        <ele>580.5</ele>
        <time>2011-12-18T12:59:39Z</time>
      </trkpt>
      <trkpt lat="43.76133" lon="3.54178">
        <ele>581</ele>
        <time>2011-12-18T12:59:45Z</time>
      </trkpt>
      <trkpt lat="43.76134" lon="3.5418">
        <ele>581</ele>
        <time>2011-12-18T12:59:46Z</time>
      </trkpt>
      <trkpt lat="43.76138" lon="3.54187">
        <ele>580.4</ele>
        <time>2011-12-18T12:59:56Z</time>
      </trkpt>
      <trkpt lat="43.76142" lon="3.54189">
        <ele>580.2</ele>
        <time>2011-12-18T13:00:01Z</time>
      </trkpt>
      <trkpt lat="43.76145" lon="3.54192">
        <ele>581.3</ele>
        <time>2011-12-18T13:00:07Z</time>
      </trkpt>
      <trkpt lat="43.76149" lon="3.54194">
        <ele>582</ele>
        <time>2011-12-18T13:00:13Z</time>
      </trkpt>
      <trkpt lat="43.76153" lon="3.54196">
        <ele>582.2</ele>
        <time>2011-12-18T13:00:17Z</time>
      </trkpt>
      <trkpt lat="43.76156" lon="3.54198">
        <ele>583.1</ele>
        <time>2011-12-18T13:00:21Z</time>
      </trkpt>
      <trkpt lat="43.76161" lon="3.54199">
        <ele>582.8</ele>
        <time>2011-12-18T13:00:26Z</time>
      </trkpt>
      <trkpt lat="43.76165" lon="3.542">
        <ele>582.9</ele>
        <time>2011-12-18T13:00:30Z</time>
      </trkpt>
      <trkpt lat="43.76168" lon="3.54199">
        <ele>583.7</ele>
        <time>2011-12-18T13:00:34Z</time>
      </trkpt>
      <trkpt lat="43.76172" lon="3.542">
        <ele>584</ele>
        <time>2011-12-18T13:00:38Z</time>
      </trkpt>
      <trkpt lat="43.76176" lon="3.54202">
        <ele>584.4</ele>
        <time>2011-12-18T13:00:42Z</time>
      </trkpt>
      <trkpt lat="43.7618" lon="3.54206">
        <ele>583.2</ele>
        <time>2011-12-18T13:00:46Z</time>
      </trkpt>
      <trkpt lat="43.76181" lon="3.54207">
        <ele>582.5</ele>
        <time>2011-12-18T13:00:47Z</time>
      </trkpt>
      <trkpt lat="43.76186" lon="3.54214">
        <ele>581.8</ele>
        <time>2011-12-18T13:00:55Z</time>
      </trkpt>
      <trkpt lat="43.76189" lon="3.54219">
        <ele>582.5</ele>
        <time>2011-12-18T13:01:00Z</time>
      </trkpt>
      <trkpt lat="43.76191" lon="3.54223">
        <ele>583.5</ele>
        <time>2011-12-18T13:01:07Z</time>
      </trkpt>
      <trkpt lat="43.76193" lon="3.54228">
        <ele>583.6</ele>
        <time>2011-12-18T13:01:13Z</time>
      </trkpt>
      <trkpt lat="43.76194" lon="3.54233">
        <ele>584.6</ele>
        <time>2011-12-18T13:01:18Z</time>
      </trkpt>
      <trkpt lat="43.76194" lon="3.54238">
        <ele>585.4</ele>
        <time>2011-12-18T13:01:23Z</time>
      </trkpt>
      <trkpt lat="43.76194" lon="3.54244">
        <ele>585.7</ele>
        <time>2011-12-18T13:01:28Z</time>
      </trkpt>
      <trkpt lat="43.76194" lon="3.54249">
        <ele>585.3</ele>
        <time>2011-12-18T13:01:32Z</time>
      </trkpt>
      <trkpt lat="43.76194" lon="3.54255">
        <ele>587.1</ele>
        <time>2011-12-18T13:01:36Z</time>
      </trkpt>
      <trkpt lat="43.76194" lon="3.54261">
        <ele>586.2</ele>
        <time>2011-12-18T13:01:40Z</time>
      </trkpt>
      <trkpt lat="43.76195" lon="3.54267">
        <ele>585.4</ele>
        <time>2011-12-18T13:01:45Z</time>
      </trkpt>
      <trkpt lat="43.76197" lon="3.54273">
        <ele>586.2</ele>
        <time>2011-12-18T13:01:50Z</time>
      </trkpt>
      <trkpt lat="43.76197" lon="3.54274">
        <ele>586.3</ele>
        <time>2011-12-18T13:01:51Z</time>
      </trkpt>
      <trkpt lat="43.762" lon="3.54283">
        <ele>587.1</ele>
        <time>2011-12-18T13:01:58Z</time>
      </trkpt>
      <trkpt lat="43.76202" lon="3.54287">
        <ele>589</ele>
        <time>2011-12-18T13:02:02Z</time>
      </trkpt>
      <trkpt lat="43.76202" lon="3.54293">
        <ele>587.8</ele>
        <time>2011-12-18T13:02:07Z</time>
      </trkpt>
      <trkpt lat="43.76203" lon="3.54298">
        <ele>587.8</ele>
        <time>2011-12-18T13:02:11Z</time>
      </trkpt>
      <trkpt lat="43.76203" lon="3.54303">
        <ele>589.1</ele>
        <time>2011-12-18T13:02:14Z</time>
      </trkpt>
      <trkpt lat="43.76205" lon="3.54308">
        <ele>589.2</ele>
        <time>2011-12-18T13:02:18Z</time>
      </trkpt>
      <trkpt lat="43.76206" lon="3.54313">
        <ele>588.7</ele>
        <time>2011-12-18T13:02:22Z</time>
      </trkpt>
      <trkpt lat="43.76208" lon="3.54318">
        <ele>589</ele>
        <time>2011-12-18T13:02:26Z</time>
      </trkpt>
      <trkpt lat="43.7621" lon="3.54323">
        <ele>589.6</ele>
        <time>2011-12-18T13:02:32Z</time>
      </trkpt>
      <trkpt lat="43.76214" lon="3.54325">
        <ele>589.6</ele>
        <time>2011-12-18T13:02:36Z</time>
      </trkpt>
      <trkpt lat="43.76217" lon="3.54329">
        <ele>591.1</ele>
        <time>2011-12-18T13:02:40Z</time>
      </trkpt>
      <trkpt lat="43.7622" lon="3.54332">
        <ele>590.8</ele>
        <time>2011-12-18T13:02:44Z</time>
      </trkpt>
      <trkpt lat="43.76223" lon="3.54334">
        <ele>590.1</ele>
        <time>2011-12-18T13:02:48Z</time>
      </trkpt>
      <trkpt lat="43.76227" lon="3.54337">
        <ele>591.3</ele>
        <time>2011-12-18T13:02:53Z</time>
      </trkpt>
      <trkpt lat="43.76228" lon="3.54337">
        <ele>591.2</ele>
        <time>2011-12-18T13:02:54Z</time>
      </trkpt>
      <trkpt lat="43.76234" lon="3.54344">
        <ele>591.4</ele>
        <time>2011-12-18T13:03:02Z</time>
      </trkpt>
      <trkpt lat="43.76237" lon="3.54348">
        <ele>592.5</ele>
        <time>2011-12-18T13:03:07Z</time>
      </trkpt>
      <trkpt lat="43.76237" lon="3.54354">
        <ele>592.7</ele>
        <time>2011-12-18T13:03:13Z</time>
      </trkpt>
      <trkpt lat="43.76237" lon="3.54359">
        <ele>593.2</ele>
        <time>2011-12-18T13:03:18Z</time>
      </trkpt>
      <trkpt lat="43.76238" lon="3.54364">
        <ele>594.3</ele>
        <time>2011-12-18T13:03:23Z</time>
      </trkpt>
      <trkpt lat="43.7624" lon="3.54369">
        <ele>594.8</ele>
        <time>2011-12-18T13:03:27Z</time>
      </trkpt>
      <trkpt lat="43.76242" lon="3.54374">
        <ele>594.5</ele>
        <time>2011-12-18T13:03:31Z</time>
      </trkpt>
      <trkpt lat="43.76245" lon="3.54378">
        <ele>595.3</ele>
        <time>2011-12-18T13:03:35Z</time>
      </trkpt>
      <trkpt lat="43.76246" lon="3.54383">
        <ele>595.5</ele>
        <time>2011-12-18T13:03:39Z</time>
      </trkpt>
      <trkpt lat="43.76248" lon="3.54389">
        <ele>595.1</ele>
        <time>2011-12-18T13:03:44Z</time>
      </trkpt>
      <trkpt lat="43.76251" lon="3.54392">
        <ele>594.3</ele>
        <time>2011-12-18T13:03:52Z</time>
      </trkpt>
      <trkpt lat="43.76255" lon="3.54394">
        <ele>593.4</ele>
        <time>2011-12-18T13:03:57Z</time>
      </trkpt>
      <trkpt lat="43.76256" lon="3.54395">
        <ele>593.7</ele>
        <time>2011-12-18T13:03:58Z</time>
      </trkpt>
      <trkpt lat="43.76262" lon="3.54396">
        <ele>593.9</ele>
        <time>2011-12-18T13:04:04Z</time>
      </trkpt>
      <trkpt lat="43.76266" lon="3.54399">
        <ele>593.6</ele>
        <time>2011-12-18T13:04:09Z</time>
      </trkpt>
      <trkpt lat="43.76269" lon="3.54402">
        <ele>594.9</ele>
        <time>2011-12-18T13:04:13Z</time>
      </trkpt>
      <trkpt lat="43.76273" lon="3.54406">
        <ele>595.5</ele>
        <time>2011-12-18T13:04:17Z</time>
      </trkpt>
      <trkpt lat="43.76275" lon="3.5441">
        <ele>595.8</ele>
        <time>2011-12-18T13:04:21Z</time>
      </trkpt>
      <trkpt lat="43.76278" lon="3.54414">
        <ele>595.6</ele>
        <time>2011-12-18T13:04:25Z</time>
      </trkpt>
      <trkpt lat="43.76281" lon="3.54417">
        <ele>596.1</ele>
        <time>2011-12-18T13:04:28Z</time>
      </trkpt>
      <trkpt lat="43.76284" lon="3.54419">
        <ele>597.3</ele>
        <time>2011-12-18T13:04:31Z</time>
      </trkpt>
      <trkpt lat="43.76288" lon="3.54423">
        <ele>596.7</ele>
        <time>2011-12-18T13:04:36Z</time>
      </trkpt>
      <trkpt lat="43.76289" lon="3.54428">
        <ele>596.3</ele>
        <time>2011-12-18T13:04:42Z</time>
      </trkpt>
      <trkpt lat="43.7629" lon="3.54433">
        <ele>595.4</ele>
        <time>2011-12-18T13:04:47Z</time>
      </trkpt>
      <trkpt lat="43.76291" lon="3.54439">
        <ele>596.2</ele>
        <time>2011-12-18T13:04:52Z</time>
      </trkpt>
      <trkpt lat="43.76292" lon="3.54444">
        <ele>595.3</ele>
        <time>2011-12-18T13:04:57Z</time>
      </trkpt>
      <trkpt lat="43.76293" lon="3.5445">
        <ele>595.6</ele>
        <time>2011-12-18T13:05:02Z</time>
      </trkpt>
      <trkpt lat="43.76293" lon="3.54451">
        <ele>595.8</ele>
        <time>2011-12-18T13:05:03Z</time>
      </trkpt>
      <trkpt lat="43.76292" lon="3.54462">
        <ele>595.6</ele>
        <time>2011-12-18T13:05:10Z</time>
      </trkpt>
      <trkpt lat="43.76292" lon="3.54466">
        <ele>594.8</ele>
        <time>2011-12-18T13:05:13Z</time>
      </trkpt>
      <trkpt lat="43.76291" lon="3.54472">
        <ele>594.6</ele>
        <time>2011-12-18T13:05:17Z</time>
      </trkpt>
      <trkpt lat="43.7629" lon="3.54477">
        <ele>595</ele>
        <time>2011-12-18T13:05:21Z</time>
      </trkpt>
      <trkpt lat="43.76289" lon="3.54483">
        <ele>595.1</ele>
        <time>2011-12-18T13:05:26Z</time>
      </trkpt>
      <trkpt lat="43.7629" lon="3.54488">
        <ele>595.1</ele>
        <time>2011-12-18T13:05:30Z</time>
      </trkpt>
      <trkpt lat="43.7629" lon="3.54494">
        <ele>594.7</ele>
        <time>2011-12-18T13:05:35Z</time>
      </trkpt>
      <trkpt lat="43.76289" lon="3.545">
        <ele>594.6</ele>
        <time>2011-12-18T13:05:39Z</time>
      </trkpt>
      <trkpt lat="43.7629" lon="3.54505">
        <ele>594.6</ele>
        <time>2011-12-18T13:05:43Z</time>
      </trkpt>
      <trkpt lat="43.7629" lon="3.54511">
        <ele>594.8</ele>
        <time>2011-12-18T13:05:47Z</time>
      </trkpt>
      <trkpt lat="43.76289" lon="3.54516">
        <ele>594.7</ele>
        <time>2011-12-18T13:05:50Z</time>
      </trkpt>
      <trkpt lat="43.76289" lon="3.54521">
        <ele>594.9</ele>
        <time>2011-12-18T13:05:54Z</time>
      </trkpt>
      <trkpt lat="43.76288" lon="3.54527">
        <ele>594.6</ele>
        <time>2011-12-18T13:05:58Z</time>
      </trkpt>
      <trkpt lat="43.76287" lon="3.54533">
        <ele>594.8</ele>
        <time>2011-12-18T13:06:02Z</time>
      </trkpt>
      <trkpt lat="43.76284" lon="3.54538">
        <ele>594.5</ele>
        <time>2011-12-18T13:06:06Z</time>
      </trkpt>
      <trkpt lat="43.76284" lon="3.54539">
        <ele>594.4</ele>
        <time>2011-12-18T13:06:07Z</time>
      </trkpt>
      <trkpt lat="43.76282" lon="3.54549">
        <ele>595.1</ele>
        <time>2011-12-18T13:06:14Z</time>
      </trkpt>
      <trkpt lat="43.76282" lon="3.54555">
        <ele>595.2</ele>
        <time>2011-12-18T13:06:17Z</time>
      </trkpt>
      <trkpt lat="43.76284" lon="3.5456">
        <ele>595.6</ele>
        <time>2011-12-18T13:06:21Z</time>
      </trkpt>
      <trkpt lat="43.76285" lon="3.54566">
        <ele>595.8</ele>
        <time>2011-12-18T13:06:25Z</time>
      </trkpt>
      <trkpt lat="43.76287" lon="3.5457">
        <ele>596.8</ele>
        <time>2011-12-18T13:06:29Z</time>
      </trkpt>
      <trkpt lat="43.76289" lon="3.54576">
        <ele>596.3</ele>
        <time>2011-12-18T13:06:34Z</time>
      </trkpt>
      <trkpt lat="43.76289" lon="3.54581">
        <ele>594.9</ele>
        <time>2011-12-18T13:06:38Z</time>
      </trkpt>
      <trkpt lat="43.76289" lon="3.54587">
        <ele>593.7</ele>
        <time>2011-12-18T13:06:42Z</time>
      </trkpt>
      <trkpt lat="43.76289" lon="3.54591">
        <ele>593.4</ele>
        <time>2011-12-18T13:06:45Z</time>
      </trkpt>
      <trkpt lat="43.76289" lon="3.54596">
        <ele>594.9</ele>
        <time>2011-12-18T13:06:48Z</time>
      </trkpt>
      <trkpt lat="43.7629" lon="3.54602">
        <ele>596.3</ele>
        <time>2011-12-18T13:06:53Z</time>
      </trkpt>
      <trkpt lat="43.76292" lon="3.54608">
        <ele>596.5</ele>
        <time>2011-12-18T13:06:58Z</time>
      </trkpt>
      <trkpt lat="43.76296" lon="3.5461">
        <ele>596</ele>
        <time>2011-12-18T13:07:04Z</time>
      </trkpt>
      <trkpt lat="43.763" lon="3.54612">
        <ele>596.6</ele>
        <time>2011-12-18T13:07:09Z</time>
      </trkpt>
      <trkpt lat="43.76301" lon="3.54612">
        <ele>596.5</ele>
        <time>2011-12-18T13:07:10Z</time>
      </trkpt>
      <trkpt lat="43.76308" lon="3.54611">
        <ele>597.2</ele>
        <time>2011-12-18T13:07:19Z</time>
      </trkpt>
      <trkpt lat="43.76313" lon="3.5461">
        <ele>598.2</ele>
        <time>2011-12-18T13:07:24Z</time>
      </trkpt>
      <trkpt lat="43.76316" lon="3.5461">
        <ele>598.2</ele>
        <time>2011-12-18T13:07:29Z</time>
      </trkpt>
      <trkpt lat="43.7632" lon="3.54612">
        <ele>598.5</ele>
        <time>2011-12-18T13:07:34Z</time>
      </trkpt>
      <trkpt lat="43.76323" lon="3.54616">
        <ele>597.8</ele>
        <time>2011-12-18T13:07:39Z</time>
      </trkpt>
      <trkpt lat="43.76322" lon="3.54621">
        <ele>598.3</ele>
        <time>2011-12-18T13:07:44Z</time>
      </trkpt>
      <trkpt lat="43.76321" lon="3.54626">
        <ele>598.9</ele>
        <time>2011-12-18T13:07:50Z</time>
      </trkpt>
      <trkpt lat="43.76321" lon="3.54631">
        <ele>597</ele>
        <time>2011-12-18T13:07:57Z</time>
      </trkpt>
      <trkpt lat="43.76321" lon="3.54637">
        <ele>597.3</ele>
        <time>2011-12-18T13:08:03Z</time>
      </trkpt>
      <trkpt lat="43.76323" lon="3.54643">
        <ele>596.7</ele>
        <time>2011-12-18T13:08:08Z</time>
      </trkpt>
      <trkpt lat="43.76325" lon="3.54648">
        <ele>599.3</ele>
        <time>2011-12-18T13:08:13Z</time>
      </trkpt>
      <trkpt lat="43.76326" lon="3.54649">
        <ele>599.8</ele>
        <time>2011-12-18T13:08:14Z</time>
      </trkpt>
      <trkpt lat="43.76328" lon="3.54659">
        <ele>600</ele>
        <time>2011-12-18T13:08:21Z</time>
      </trkpt>
      <trkpt lat="43.7633" lon="3.54664">
        <ele>599</ele>
        <time>2011-12-18T13:08:25Z</time>
      </trkpt>
      <trkpt lat="43.76332" lon="3.54668">
        <ele>598.6</ele>
        <time>2011-12-18T13:08:28Z</time>
      </trkpt>
      <trkpt lat="43.76333" lon="3.54673">
        <ele>598.3</ele>
        <time>2011-12-18T13:08:31Z</time>
      </trkpt>
      <trkpt lat="43.76335" lon="3.54679">
        <ele>598.1</ele>
        <time>2011-12-18T13:08:36Z</time>
      </trkpt>
      <trkpt lat="43.76335" lon="3.54685">
        <ele>598.6</ele>
        <time>2011-12-18T13:08:41Z</time>
      </trkpt>
      <trkpt lat="43.76335" lon="3.5469">
        <ele>599</ele>
        <time>2011-12-18T13:08:45Z</time>
      </trkpt>
      <trkpt lat="43.76334" lon="3.54695">
        <ele>599</ele>
        <time>2011-12-18T13:08:50Z</time>
      </trkpt>
      <trkpt lat="43.76333" lon="3.54701">
        <ele>599.2</ele>
        <time>2011-12-18T13:08:55Z</time>
      </trkpt>
      <trkpt lat="43.76333" lon="3.54707">
        <ele>598.2</ele>
        <time>2011-12-18T13:09:00Z</time>
      </trkpt>
      <trkpt lat="43.76334" lon="3.54713">
        <ele>598.1</ele>
        <time>2011-12-18T13:09:04Z</time>
      </trkpt>
      <trkpt lat="43.76336" lon="3.54718">
        <ele>598.5</ele>
        <time>2011-12-18T13:09:09Z</time>
      </trkpt>
      <trkpt lat="43.76338" lon="3.54722">
        <ele>598</ele>
        <time>2011-12-18T13:09:13Z</time>
      </trkpt>
      <trkpt lat="43.7634" lon="3.54726">
        <ele>598.6</ele>
        <time>2011-12-18T13:09:17Z</time>
      </trkpt>
      <trkpt lat="43.76341" lon="3.54728">
        <ele>598.7</ele>
        <time>2011-12-18T13:09:18Z</time>
      </trkpt>
      <trkpt lat="43.76344" lon="3.54735">
        <ele>599.6</ele>
        <time>2011-12-18T13:09:26Z</time>
      </trkpt>
      <trkpt lat="43.76348" lon="3.54739">
        <ele>599.4</ele>
        <time>2011-12-18T13:09:30Z</time>
      </trkpt>
      <trkpt lat="43.76351" lon="3.54742">
        <ele>600</ele>
        <time>2011-12-18T13:09:34Z</time>
      </trkpt>
      <trkpt lat="43.76355" lon="3.54745">
        <ele>600.1</ele>
        <time>2011-12-18T13:09:38Z</time>
      </trkpt>
      <trkpt lat="43.76358" lon="3.54749">
        <ele>600.4</ele>
        <time>2011-12-18T13:09:42Z</time>
      </trkpt>
      <trkpt lat="43.7636" lon="3.54753">
        <ele>600.4</ele>
        <time>2011-12-18T13:09:46Z</time>
      </trkpt>
      <trkpt lat="43.76363" lon="3.54758">
        <ele>600.3</ele>
        <time>2011-12-18T13:09:51Z</time>
      </trkpt>
      <trkpt lat="43.76364" lon="3.54762">
        <ele>601.5</ele>
        <time>2011-12-18T13:09:55Z</time>
      </trkpt>
      <trkpt lat="43.76366" lon="3.54768">
        <ele>602.5</ele>
        <time>2011-12-18T13:10:00Z</time>
      </trkpt>
      <trkpt lat="43.76365" lon="3.54773">
        <ele>602.7</ele>
        <time>2011-12-18T13:10:05Z</time>
      </trkpt>
      <trkpt lat="43.76364" lon="3.54779">
        <ele>603.1</ele>
        <time>2011-12-18T13:10:09Z</time>
      </trkpt>
      <trkpt lat="43.76364" lon="3.54784">
        <ele>601.9</ele>
        <time>2011-12-18T13:10:13Z</time>
      </trkpt>
      <trkpt lat="43.76364" lon="3.5479">
        <ele>601.3</ele>
        <time>2011-12-18T13:10:18Z</time>
      </trkpt>
      <trkpt lat="43.76363" lon="3.54791">
        <ele>601.4</ele>
        <time>2011-12-18T13:10:19Z</time>
      </trkpt>
      <trkpt lat="43.76361" lon="3.54802">
        <ele>600.2</ele>
        <time>2011-12-18T13:10:28Z</time>
      </trkpt>
      <trkpt lat="43.76359" lon="3.54807">
        <ele>600</ele>
        <time>2011-12-18T13:10:33Z</time>
      </trkpt>
      <trkpt lat="43.76357" lon="3.54811">
        <ele>599.2</ele>
        <time>2011-12-18T13:10:38Z</time>
      </trkpt>
      <trkpt lat="43.76356" lon="3.54817">
        <ele>599.4</ele>
        <time>2011-12-18T13:10:43Z</time>
      </trkpt>
      <trkpt lat="43.76354" lon="3.54822">
        <ele>598.3</ele>
        <time>2011-12-18T13:10:48Z</time>
      </trkpt>
      <trkpt lat="43.76353" lon="3.54827">
        <ele>599.3</ele>
        <time>2011-12-18T13:10:52Z</time>
      </trkpt>
      <trkpt lat="43.76351" lon="3.54832">
        <ele>599.1</ele>
        <time>2011-12-18T13:10:56Z</time>
      </trkpt>
      <trkpt lat="43.7635" lon="3.54838">
        <ele>598.3</ele>
        <time>2011-12-18T13:11:02Z</time>
      </trkpt>
      <trkpt lat="43.76349" lon="3.54843">
        <ele>598.3</ele>
        <time>2011-12-18T13:11:06Z</time>
      </trkpt>
      <trkpt lat="43.76348" lon="3.54848">
        <ele>597.4</ele>
        <time>2011-12-18T13:11:10Z</time>
      </trkpt>
      <trkpt lat="43.76346" lon="3.54852">
        <ele>596.9</ele>
        <time>2011-12-18T13:11:14Z</time>
      </trkpt>
      <trkpt lat="43.76344" lon="3.54857">
        <ele>595.7</ele>
        <time>2011-12-18T13:11:19Z</time>
      </trkpt>
      <trkpt lat="43.76344" lon="3.54859">
        <ele>595.5</ele>
        <time>2011-12-18T13:11:20Z</time>
      </trkpt>
      <trkpt lat="43.76341" lon="3.54868">
        <ele>595.8</ele>
        <time>2011-12-18T13:11:30Z</time>
      </trkpt>
      <trkpt lat="43.7634" lon="3.54873">
        <ele>595.5</ele>
        <time>2011-12-18T13:11:34Z</time>
      </trkpt>
      <trkpt lat="43.76338" lon="3.54879">
        <ele>594.8</ele>
        <time>2011-12-18T13:11:39Z</time>
      </trkpt>
      <trkpt lat="43.76336" lon="3.54884">
        <ele>594.4</ele>
        <time>2011-12-18T13:11:43Z</time>
      </trkpt>
      <trkpt lat="43.76334" lon="3.54889">
        <ele>593.5</ele>
        <time>2011-12-18T13:11:47Z</time>
      </trkpt>
      <trkpt lat="43.76332" lon="3.54893">
        <ele>593</ele>
        <time>2011-12-18T13:11:50Z</time>
      </trkpt>
      <trkpt lat="43.7633" lon="3.54898">
        <ele>593</ele>
        <time>2011-12-18T13:11:53Z</time>
      </trkpt>
      <trkpt lat="43.76328" lon="3.54902">
        <ele>593.1</ele>
        <time>2011-12-18T13:11:56Z</time>
      </trkpt>
      <trkpt lat="43.76324" lon="3.54906">
        <ele>592.4</ele>
        <time>2011-12-18T13:12:00Z</time>
      </trkpt>
      <trkpt lat="43.76322" lon="3.54911">
        <ele>592</ele>
        <time>2011-12-18T13:12:04Z</time>
      </trkpt>
      <trkpt lat="43.7632" lon="3.54914">
        <ele>592.2</ele>
        <time>2011-12-18T13:12:07Z</time>
      </trkpt>
      <trkpt lat="43.76318" lon="3.54919">
        <ele>591.6</ele>
        <time>2011-12-18T13:12:10Z</time>
      </trkpt>
      <trkpt lat="43.76316" lon="3.54923">
        <ele>591.5</ele>
        <time>2011-12-18T13:12:14Z</time>
      </trkpt>
      <trkpt lat="43.76314" lon="3.54928">
        <ele>590.9</ele>
        <time>2011-12-18T13:12:18Z</time>
      </trkpt>
      <trkpt lat="43.76311" lon="3.54932">
        <ele>591.2</ele>
        <time>2011-12-18T13:12:22Z</time>
      </trkpt>
      <trkpt lat="43.7631" lon="3.54933">
        <ele>591.5</ele>
        <time>2011-12-18T13:12:23Z</time>
      </trkpt>
      <trkpt lat="43.76305" lon="3.54939">
        <ele>591.7</ele>
        <time>2011-12-18T13:12:30Z</time>
      </trkpt>
      <trkpt lat="43.76302" lon="3.54943">
        <ele>591</ele>
        <time>2011-12-18T13:12:34Z</time>
      </trkpt>
      <trkpt lat="43.76298" lon="3.54946">
        <ele>591.9</ele>
        <time>2011-12-18T13:12:38Z</time>
      </trkpt>
      <trkpt lat="43.76295" lon="3.54949">
        <ele>591.8</ele>
        <time>2011-12-18T13:12:41Z</time>
      </trkpt>
      <trkpt lat="43.76291" lon="3.54952">
        <ele>591.2</ele>
        <time>2011-12-18T13:12:45Z</time>
      </trkpt>
      <trkpt lat="43.76287" lon="3.54955">
        <ele>590.6</ele>
        <time>2011-12-18T13:12:49Z</time>
      </trkpt>
      <trkpt lat="43.76284" lon="3.54957">
        <ele>589.8</ele>
        <time>2011-12-18T13:12:52Z</time>
      </trkpt>
      <trkpt lat="43.76281" lon="3.54959">
        <ele>590.4</ele>
        <time>2011-12-18T13:12:55Z</time>
      </trkpt>
      <trkpt lat="43.76278" lon="3.54962">
        <ele>590.5</ele>
        <time>2011-12-18T13:12:58Z</time>
      </trkpt>
      <trkpt lat="43.76275" lon="3.54965">
        <ele>590.3</ele>
        <time>2011-12-18T13:13:01Z</time>
      </trkpt>
      <trkpt lat="43.76272" lon="3.54969">
        <ele>590.4</ele>
        <time>2011-12-18T13:13:05Z</time>
      </trkpt>
      <trkpt lat="43.76269" lon="3.54972">
        <ele>589.6</ele>
        <time>2011-12-18T13:13:09Z</time>
      </trkpt>
      <trkpt lat="43.76265" lon="3.54976">
        <ele>589.8</ele>
        <time>2011-12-18T13:13:13Z</time>
      </trkpt>
      <trkpt lat="43.76263" lon="3.54979">
        <ele>589.8</ele>
        <time>2011-12-18T13:13:17Z</time>
      </trkpt>
      <trkpt lat="43.7626" lon="3.54984">
        <ele>589.9</ele>
        <time>2011-12-18T13:13:21Z</time>
      </trkpt>
      <trkpt lat="43.76258" lon="3.54989">
        <ele>590</ele>
        <time>2011-12-18T13:13:25Z</time>
      </trkpt>
      <trkpt lat="43.76257" lon="3.5499">
        <ele>590.1</ele>
        <time>2011-12-18T13:13:26Z</time>
      </trkpt>
      <trkpt lat="43.76252" lon="3.54997">
        <ele>590.1</ele>
        <time>2011-12-18T13:13:32Z</time>
      </trkpt>
      <trkpt lat="43.76249" lon="3.55001">
        <ele>590</ele>
        <time>2011-12-18T13:13:36Z</time>
      </trkpt>
      <trkpt lat="43.76246" lon="3.55005">
        <ele>590</ele>
        <time>2011-12-18T13:13:39Z</time>
      </trkpt>
      <trkpt lat="43.76244" lon="3.55007">
        <ele>590.2</ele>
        <time>2011-12-18T13:13:41Z</time>
      </trkpt>
      <trkpt lat="43.76241" lon="3.55011">
        <ele>590.7</ele>
        <time>2011-12-18T13:13:44Z</time>
      </trkpt>
      <trkpt lat="43.76238" lon="3.55016">
        <ele>590.9</ele>
        <time>2011-12-18T13:13:47Z</time>
      </trkpt>
      <trkpt lat="43.76235" lon="3.5502">
        <ele>591.4</ele>
        <time>2011-12-18T13:13:50Z</time>
      </trkpt>
      <trkpt lat="43.76234" lon="3.55024">
        <ele>591.9</ele>
        <time>2011-12-18T13:13:52Z</time>
      </trkpt>
      <trkpt lat="43.76231" lon="3.55029">
        <ele>592</ele>
        <time>2011-12-18T13:13:55Z</time>
      </trkpt>
      <trkpt lat="43.76229" lon="3.55033">
        <ele>591.4</ele>
        <time>2011-12-18T13:13:58Z</time>
      </trkpt>
      <trkpt lat="43.76227" lon="3.55037">
        <ele>591.3</ele>
        <time>2011-12-18T13:14:02Z</time>
      </trkpt>
      <trkpt lat="43.76224" lon="3.55041">
        <ele>590</ele>
        <time>2011-12-18T13:14:06Z</time>
      </trkpt>
      <trkpt lat="43.76222" lon="3.55045">
        <ele>591.6</ele>
        <time>2011-12-18T13:14:10Z</time>
      </trkpt>
      <trkpt lat="43.76219" lon="3.5505">
        <ele>593</ele>
        <time>2011-12-18T13:14:15Z</time>
      </trkpt>
      <trkpt lat="43.76217" lon="3.55055">
        <ele>593.5</ele>
        <time>2011-12-18T13:14:21Z</time>
      </trkpt>
      <trkpt lat="43.76215" lon="3.5506">
        <ele>594.6</ele>
        <time>2011-12-18T13:14:26Z</time>
      </trkpt>
      <trkpt lat="43.76215" lon="3.55061">
        <ele>594.6</ele>
        <time>2011-12-18T13:14:27Z</time>
      </trkpt>
      <trkpt lat="43.76209" lon="3.55066">
        <ele>594.6</ele>
        <time>2011-12-18T13:14:33Z</time>
      </trkpt>
      <trkpt lat="43.76206" lon="3.55069">
        <ele>595.2</ele>
        <time>2011-12-18T13:14:37Z</time>
      </trkpt>
      <trkpt lat="43.76202" lon="3.55071">
        <ele>596.5</ele>
        <time>2011-12-18T13:14:41Z</time>
      </trkpt>
      <trkpt lat="43.76198" lon="3.55074">
        <ele>596.1</ele>
        <time>2011-12-18T13:14:47Z</time>
      </trkpt>
      <trkpt lat="43.76194" lon="3.55074">
        <ele>596.1</ele>
        <time>2011-12-18T13:14:51Z</time>
      </trkpt>
      <trkpt lat="43.7619" lon="3.55076">
        <ele>596.6</ele>
        <time>2011-12-18T13:14:55Z</time>
      </trkpt>
      <trkpt lat="43.76187" lon="3.55079">
        <ele>596.6</ele>
        <time>2011-12-18T13:15:00Z</time>
      </trkpt>
      <trkpt lat="43.76184" lon="3.55084">
        <ele>597.4</ele>
        <time>2011-12-18T13:15:05Z</time>
      </trkpt>
      <trkpt lat="43.76182" lon="3.55089">
        <ele>598.8</ele>
        <time>2011-12-18T13:15:15Z</time>
      </trkpt>
      <trkpt lat="43.76181" lon="3.55095">
        <ele>599</ele>
        <time>2011-12-18T13:15:22Z</time>
      </trkpt>
      <trkpt lat="43.76178" lon="3.55099">
        <ele>600.4</ele>
        <time>2011-12-18T13:15:30Z</time>
      </trkpt>
      <trkpt lat="43.76177" lon="3.55099">
        <ele>600.5</ele>
        <time>2011-12-18T13:15:31Z</time>
      </trkpt>
      <trkpt lat="43.76175" lon="3.55108">
        <ele>599.4</ele>
        <time>2011-12-18T13:16:41Z</time>
      </trkpt>
      <trkpt lat="43.76175" lon="3.55108">
        <ele>599.3</ele>
        <time>2011-12-18T13:16:42Z</time>
      </trkpt>
      <trkpt lat="43.76179" lon="3.55104">
        <ele>597.4</ele>
        <time>2011-12-18T13:18:33Z</time>
      </trkpt>
      <trkpt lat="43.7618" lon="3.55111">
        <ele>598.4</ele>
        <time>2011-12-18T13:22:40Z</time>
      </trkpt>
      <trkpt lat="43.76184" lon="3.55121">
        <ele>597.2</ele>
        <time>2011-12-18T13:22:51Z</time>
      </trkpt>
      <trkpt lat="43.76187" lon="3.55125">
        <ele>597.5</ele>
        <time>2011-12-18T13:22:58Z</time>
      </trkpt>
      <trkpt lat="43.76189" lon="3.5513">
        <ele>597.8</ele>
        <time>2011-12-18T13:23:06Z</time>
      </trkpt>
      <trkpt lat="43.76191" lon="3.55135">
        <ele>597.4</ele>
        <time>2011-12-18T13:23:11Z</time>
      </trkpt>
      <trkpt lat="43.76194" lon="3.55139">
        <ele>597.5</ele>
        <time>2011-12-18T13:23:16Z</time>
      </trkpt>
      <trkpt lat="43.76196" lon="3.55145">
        <ele>597.9</ele>
        <time>2011-12-18T13:23:22Z</time>
      </trkpt>
      <trkpt lat="43.76198" lon="3.5515">
        <ele>598.7</ele>
        <time>2011-12-18T13:23:28Z</time>
      </trkpt>
      <trkpt lat="43.762" lon="3.55155">
        <ele>598.2</ele>
        <time>2011-12-18T13:23:33Z</time>
      </trkpt>
      <trkpt lat="43.76202" lon="3.55159">
        <ele>598.5</ele>
        <time>2011-12-18T13:23:37Z</time>
      </trkpt>
      <trkpt lat="43.76203" lon="3.55163">
        <ele>598.5</ele>
        <time>2011-12-18T13:23:40Z</time>
      </trkpt>
      <trkpt lat="43.76204" lon="3.55164">
        <ele>598.3</ele>
        <time>2011-12-18T13:23:41Z</time>
      </trkpt>
      <trkpt lat="43.76208" lon="3.55173">
        <ele>599</ele>
        <time>2011-12-18T13:23:47Z</time>
      </trkpt>
      <trkpt lat="43.76208" lon="3.55178">
        <ele>598.4</ele>
        <time>2011-12-18T13:23:50Z</time>
      </trkpt>
      <trkpt lat="43.7621" lon="3.55182">
        <ele>598.7</ele>
        <time>2011-12-18T13:23:53Z</time>
      </trkpt>
      <trkpt lat="43.76213" lon="3.55187">
        <ele>598.6</ele>
        <time>2011-12-18T13:23:57Z</time>
      </trkpt>
      <trkpt lat="43.76217" lon="3.55191">
        <ele>598.6</ele>
        <time>2011-12-18T13:24:02Z</time>
      </trkpt>
      <trkpt lat="43.76219" lon="3.55196">
        <ele>598.9</ele>
        <time>2011-12-18T13:24:12Z</time>
      </trkpt>
      <trkpt lat="43.76222" lon="3.552">
        <ele>598.7</ele>
        <time>2011-12-18T13:24:27Z</time>
      </trkpt>
      <trkpt lat="43.76227" lon="3.552">
        <ele>600</ele>
        <time>2011-12-18T13:24:44Z</time>
      </trkpt>
      <trkpt lat="43.76227" lon="3.552">
        <ele>599.7</ele>
        <time>2011-12-18T13:24:45Z</time>
      </trkpt>
      <trkpt lat="43.76234" lon="3.55201">
        <ele>599.5</ele>
        <time>2011-12-18T13:25:11Z</time>
      </trkpt>
      <trkpt lat="43.76238" lon="3.552">
        <ele>599.4</ele>
        <time>2011-12-18T13:25:14Z</time>
      </trkpt>
      <trkpt lat="43.76241" lon="3.55196">
        <ele>599.7</ele>
        <time>2011-12-18T13:25:18Z</time>
      </trkpt>
      <trkpt lat="43.76243" lon="3.55192">
        <ele>599.8</ele>
        <time>2011-12-18T13:25:22Z</time>
      </trkpt>
      <trkpt lat="43.76246" lon="3.55188">
        <ele>599</ele>
        <time>2011-12-18T13:25:27Z</time>
      </trkpt>
      <trkpt lat="43.76249" lon="3.55185">
        <ele>598.1</ele>
        <time>2011-12-18T13:25:32Z</time>
      </trkpt>
      <trkpt lat="43.76253" lon="3.55182">
        <ele>598.7</ele>
        <time>2011-12-18T13:25:36Z</time>
      </trkpt>
      <trkpt lat="43.76256" lon="3.55179">
        <ele>598.9</ele>
        <time>2011-12-18T13:25:39Z</time>
      </trkpt>
      <trkpt lat="43.76259" lon="3.55177">
        <ele>597.5</ele>
        <time>2011-12-18T13:25:42Z</time>
      </trkpt>
      <trkpt lat="43.76263" lon="3.55174">
        <ele>598.3</ele>
        <time>2011-12-18T13:25:45Z</time>
      </trkpt>
      <trkpt lat="43.76263" lon="3.55172">
        <ele>598.5</ele>
        <time>2011-12-18T13:25:46Z</time>
      </trkpt>
      <trkpt lat="43.76268" lon="3.55166">
        <ele>598.7</ele>
        <time>2011-12-18T13:25:51Z</time>
      </trkpt>
      <trkpt lat="43.7627" lon="3.55163">
        <ele>598.7</ele>
        <time>2011-12-18T13:25:55Z</time>
      </trkpt>
      <trkpt lat="43.76274" lon="3.5516">
        <ele>598.3</ele>
        <time>2011-12-18T13:26:01Z</time>
      </trkpt>
      <trkpt lat="43.76277" lon="3.55156">
        <ele>598.8</ele>
        <time>2011-12-18T13:26:05Z</time>
      </trkpt>
      <trkpt lat="43.7628" lon="3.55153">
        <ele>599</ele>
        <time>2011-12-18T13:26:10Z</time>
      </trkpt>
      <trkpt lat="43.76284" lon="3.55149">
        <ele>599.4</ele>
        <time>2011-12-18T13:26:14Z</time>
      </trkpt>
      <trkpt lat="43.76287" lon="3.55146">
        <ele>598.9</ele>
        <time>2011-12-18T13:26:18Z</time>
      </trkpt>
      <trkpt lat="43.7629" lon="3.55144">
        <ele>598.8</ele>
        <time>2011-12-18T13:26:21Z</time>
      </trkpt>
      <trkpt lat="43.76294" lon="3.55142">
        <ele>599</ele>
        <time>2011-12-18T13:26:25Z</time>
      </trkpt>
      <trkpt lat="43.76297" lon="3.55139">
        <ele>599</ele>
        <time>2011-12-18T13:26:29Z</time>
      </trkpt>
      <trkpt lat="43.763" lon="3.55136">
        <ele>599.2</ele>
        <time>2011-12-18T13:26:33Z</time>
      </trkpt>
      <trkpt lat="43.76304" lon="3.55134">
        <ele>599</ele>
        <time>2011-12-18T13:26:37Z</time>
      </trkpt>
      <trkpt lat="43.76307" lon="3.55132">
        <ele>599.2</ele>
        <time>2011-12-18T13:26:40Z</time>
      </trkpt>
      <trkpt lat="43.7631" lon="3.5513">
        <ele>598.8</ele>
        <time>2011-12-18T13:26:43Z</time>
      </trkpt>
      <trkpt lat="43.76314" lon="3.55128">
        <ele>598.2</ele>
        <time>2011-12-18T13:26:46Z</time>
      </trkpt>
      <trkpt lat="43.76315" lon="3.55127">
        <ele>598.5</ele>
        <time>2011-12-18T13:26:47Z</time>
      </trkpt>
      <trkpt lat="43.7632" lon="3.55124">
        <ele>598.8</ele>
        <time>2011-12-18T13:26:53Z</time>
      </trkpt>
      <trkpt lat="43.76323" lon="3.55121">
        <ele>598.5</ele>
        <time>2011-12-18T13:26:56Z</time>
      </trkpt>
      <trkpt lat="43.76327" lon="3.55119">
        <ele>599.4</ele>
        <time>2011-12-18T13:27:00Z</time>
      </trkpt>
      <trkpt lat="43.7633" lon="3.55116">
        <ele>600.4</ele>
        <time>2011-12-18T13:27:04Z</time>
      </trkpt>
      <trkpt lat="43.76334" lon="3.55114">
        <ele>600.2</ele>
        <time>2011-12-18T13:27:08Z</time>
      </trkpt>
      <trkpt lat="43.76338" lon="3.55112">
        <ele>600.1</ele>
        <time>2011-12-18T13:27:13Z</time>
      </trkpt>
      <trkpt lat="43.76341" lon="3.55108">
        <ele>601.1</ele>
        <time>2011-12-18T13:27:18Z</time>
      </trkpt>
      <trkpt lat="43.76344" lon="3.55106">
        <ele>601.5</ele>
        <time>2011-12-18T13:27:22Z</time>
      </trkpt>
      <trkpt lat="43.76348" lon="3.55103">
        <ele>600.8</ele>
        <time>2011-12-18T13:27:27Z</time>
      </trkpt>
      <trkpt lat="43.76352" lon="3.55101">
        <ele>600.1</ele>
        <time>2011-12-18T13:27:32Z</time>
      </trkpt>
      <trkpt lat="43.76356" lon="3.55101">
        <ele>600</ele>
        <time>2011-12-18T13:27:36Z</time>
      </trkpt>
      <trkpt lat="43.7636" lon="3.55102">
        <ele>600.3</ele>
        <time>2011-12-18T13:27:42Z</time>
      </trkpt>
      <trkpt lat="43.76363" lon="3.55102">
        <ele>600</ele>
        <time>2011-12-18T13:27:45Z</time>
      </trkpt>
      <trkpt lat="43.76368" lon="3.55102">
        <ele>600.6</ele>
        <time>2011-12-18T13:27:49Z</time>
      </trkpt>
      <trkpt lat="43.76369" lon="3.55102">
        <ele>600.5</ele>
        <time>2011-12-18T13:27:50Z</time>
      </trkpt>
      <trkpt lat="43.76375" lon="3.55106">
        <ele>599.9</ele>
        <time>2011-12-18T13:27:57Z</time>
      </trkpt>
      <trkpt lat="43.76378" lon="3.55108">
        <ele>600.1</ele>
        <time>2011-12-18T13:28:02Z</time>
      </trkpt>
      <trkpt lat="43.76382" lon="3.5511">
        <ele>599.6</ele>
        <time>2011-12-18T13:28:06Z</time>
      </trkpt>
      <trkpt lat="43.76385" lon="3.5511">
        <ele>599.2</ele>
        <time>2011-12-18T13:28:10Z</time>
      </trkpt>
      <trkpt lat="43.76389" lon="3.5511">
        <ele>599.2</ele>
        <time>2011-12-18T13:28:14Z</time>
      </trkpt>
      <trkpt lat="43.76393" lon="3.55109">
        <ele>599.2</ele>
        <time>2011-12-18T13:28:18Z</time>
      </trkpt>
      <trkpt lat="43.76397" lon="3.55111">
        <ele>599</ele>
        <time>2011-12-18T13:28:23Z</time>
      </trkpt>
      <trkpt lat="43.764" lon="3.55114">
        <ele>597.6</ele>
        <time>2011-12-18T13:28:28Z</time>
      </trkpt>
      <trkpt lat="43.76403" lon="3.55118">
        <ele>598</ele>
        <time>2011-12-18T13:28:32Z</time>
      </trkpt>
      <trkpt lat="43.76405" lon="3.55124">
        <ele>597.7</ele>
        <time>2011-12-18T13:28:38Z</time>
      </trkpt>
      <trkpt lat="43.76406" lon="3.55129">
        <ele>596.7</ele>
        <time>2011-12-18T13:28:43Z</time>
      </trkpt>
      <trkpt lat="43.76406" lon="3.55135">
        <ele>596.3</ele>
        <time>2011-12-18T13:28:47Z</time>
      </trkpt>
      <trkpt lat="43.76408" lon="3.55139">
        <ele>596.5</ele>
        <time>2011-12-18T13:28:52Z</time>
      </trkpt>
      <trkpt lat="43.76408" lon="3.55141">
        <ele>596.5</ele>
        <time>2011-12-18T13:28:53Z</time>
      </trkpt>
      <trkpt lat="43.76411" lon="3.5515">
        <ele>595.5</ele>
        <time>2011-12-18T13:29:00Z</time>
      </trkpt>
      <trkpt lat="43.76414" lon="3.55154">
        <ele>595.6</ele>
        <time>2011-12-18T13:29:04Z</time>
      </trkpt>
      <trkpt lat="43.76417" lon="3.55158">
        <ele>595.6</ele>
        <time>2011-12-18T13:29:09Z</time>
      </trkpt>
      <trkpt lat="43.76419" lon="3.55163">
        <ele>595.3</ele>
        <time>2011-12-18T13:29:13Z</time>
      </trkpt>
      <trkpt lat="43.76421" lon="3.55168">
        <ele>594</ele>
        <time>2011-12-18T13:29:18Z</time>
      </trkpt>
      <trkpt lat="43.76425" lon="3.55172">
        <ele>592.8</ele>
        <time>2011-12-18T13:29:24Z</time>
      </trkpt>
      <trkpt lat="43.76429" lon="3.55174">
        <ele>592.8</ele>
        <time>2011-12-18T13:29:31Z</time>
      </trkpt>
      <trkpt lat="43.76432" lon="3.55178">
        <ele>593.1</ele>
        <time>2011-12-18T13:29:36Z</time>
      </trkpt>
      <trkpt lat="43.76435" lon="3.55183">
        <ele>592.3</ele>
        <time>2011-12-18T13:29:41Z</time>
      </trkpt>
      <trkpt lat="43.76437" lon="3.55187">
        <ele>592.2</ele>
        <time>2011-12-18T13:29:45Z</time>
      </trkpt>
      <trkpt lat="43.76441" lon="3.55191">
        <ele>592.8</ele>
        <time>2011-12-18T13:29:49Z</time>
      </trkpt>
      <trkpt lat="43.76445" lon="3.55193">
        <ele>593</ele>
        <time>2011-12-18T13:29:54Z</time>
      </trkpt>
      <trkpt lat="43.76445" lon="3.55193">
        <ele>592.5</ele>
        <time>2011-12-18T13:29:55Z</time>
      </trkpt>
      <trkpt lat="43.76453" lon="3.55194">
        <ele>592.2</ele>
        <time>2011-12-18T13:30:08Z</time>
      </trkpt>
      <trkpt lat="43.76457" lon="3.55193">
        <ele>592</ele>
        <time>2011-12-18T13:30:11Z</time>
      </trkpt>
      <trkpt lat="43.7646" lon="3.5519">
        <ele>592.4</ele>
        <time>2011-12-18T13:30:15Z</time>
      </trkpt>
      <trkpt lat="43.76464" lon="3.55193">
        <ele>592</ele>
        <time>2011-12-18T13:30:21Z</time>
      </trkpt>
      <trkpt lat="43.76465" lon="3.55198">
        <ele>592.2</ele>
        <time>2011-12-18T13:30:25Z</time>
      </trkpt>
      <trkpt lat="43.76467" lon="3.55203">
        <ele>592.4</ele>
        <time>2011-12-18T13:30:29Z</time>
      </trkpt>
      <trkpt lat="43.7647" lon="3.55207">
        <ele>592.9</ele>
        <time>2011-12-18T13:30:34Z</time>
      </trkpt>
      <trkpt lat="43.76472" lon="3.55212">
        <ele>593</ele>
        <time>2011-12-18T13:30:39Z</time>
      </trkpt>
      <trkpt lat="43.76474" lon="3.55216">
        <ele>593.1</ele>
        <time>2011-12-18T13:30:42Z</time>
      </trkpt>
      <trkpt lat="43.76477" lon="3.5522">
        <ele>593.5</ele>
        <time>2011-12-18T13:30:46Z</time>
      </trkpt>
      <trkpt lat="43.76478" lon="3.55224">
        <ele>594.1</ele>
        <time>2011-12-18T13:30:51Z</time>
      </trkpt>
      <trkpt lat="43.76479" lon="3.5523">
        <ele>593.9</ele>
        <time>2011-12-18T13:30:55Z</time>
      </trkpt>
      <trkpt lat="43.7648" lon="3.55231">
        <ele>594</ele>
        <time>2011-12-18T13:30:56Z</time>
      </trkpt>
      <trkpt lat="43.76484" lon="3.55238">
        <ele>594.1</ele>
        <time>2011-12-18T13:31:03Z</time>
      </trkpt>
      <trkpt lat="43.76487" lon="3.55242">
        <ele>592.5</ele>
        <time>2011-12-18T13:31:08Z</time>
      </trkpt>
      <trkpt lat="43.7649" lon="3.55246">
        <ele>592.5</ele>
        <time>2011-12-18T13:31:13Z</time>
      </trkpt>
      <trkpt lat="43.76493" lon="3.5525">
        <ele>593.1</ele>
        <time>2011-12-18T13:31:18Z</time>
      </trkpt>
      <trkpt lat="43.76495" lon="3.55255">
        <ele>592.7</ele>
        <time>2011-12-18T13:31:22Z</time>
      </trkpt>
      <trkpt lat="43.76498" lon="3.5526">
        <ele>594.1</ele>
        <time>2011-12-18T13:31:28Z</time>
      </trkpt>
      <trkpt lat="43.76501" lon="3.55262">
        <ele>594.5</ele>
        <time>2011-12-18T13:31:32Z</time>
      </trkpt>
      <trkpt lat="43.76504" lon="3.55266">
        <ele>595.2</ele>
        <time>2011-12-18T13:31:36Z</time>
      </trkpt>
      <trkpt lat="43.76507" lon="3.55269">
        <ele>595.5</ele>
        <time>2011-12-18T13:31:40Z</time>
      </trkpt>
      <trkpt lat="43.7651" lon="3.55273">
        <ele>595.3</ele>
        <time>2011-12-18T13:31:44Z</time>
      </trkpt>
      <trkpt lat="43.76513" lon="3.55278">
        <ele>595.8</ele>
        <time>2011-12-18T13:31:49Z</time>
      </trkpt>
      <trkpt lat="43.76515" lon="3.55282">
        <ele>596</ele>
        <time>2011-12-18T13:31:53Z</time>
      </trkpt>
      <trkpt lat="43.76518" lon="3.55286">
        <ele>596</ele>
        <time>2011-12-18T13:31:58Z</time>
      </trkpt>
      <trkpt lat="43.76518" lon="3.55287">
        <ele>596.1</ele>
        <time>2011-12-18T13:31:59Z</time>
      </trkpt>
      <trkpt lat="43.76525" lon="3.55292">
        <ele>596.5</ele>
        <time>2011-12-18T13:32:08Z</time>
      </trkpt>
      <trkpt lat="43.76528" lon="3.55293">
        <ele>596.8</ele>
        <time>2011-12-18T13:32:12Z</time>
      </trkpt>
      <trkpt lat="43.76532" lon="3.55297">
        <ele>596.8</ele>
        <time>2011-12-18T13:32:16Z</time>
      </trkpt>
      <trkpt lat="43.76535" lon="3.553">
        <ele>597</ele>
        <time>2011-12-18T13:32:21Z</time>
      </trkpt>
      <trkpt lat="43.76539" lon="3.55302">
        <ele>596.3</ele>
        <time>2011-12-18T13:32:26Z</time>
      </trkpt>
      <trkpt lat="43.76543" lon="3.55304">
        <ele>596.7</ele>
        <time>2011-12-18T13:32:31Z</time>
      </trkpt>
      <trkpt lat="43.76547" lon="3.55305">
        <ele>596.8</ele>
        <time>2011-12-18T13:32:35Z</time>
      </trkpt>
      <trkpt lat="43.7655" lon="3.55308">
        <ele>596.5</ele>
        <time>2011-12-18T13:32:40Z</time>
      </trkpt>
      <trkpt lat="43.76553" lon="3.55311">
        <ele>596</ele>
        <time>2011-12-18T13:32:44Z</time>
      </trkpt>
      <trkpt lat="43.76557" lon="3.55314">
        <ele>596</ele>
        <time>2011-12-18T13:32:48Z</time>
      </trkpt>
      <trkpt lat="43.76561" lon="3.55315">
        <ele>596.1</ele>
        <time>2011-12-18T13:32:51Z</time>
      </trkpt>
      <trkpt lat="43.76564" lon="3.55317">
        <ele>595.9</ele>
        <time>2011-12-18T13:32:54Z</time>
      </trkpt>
      <trkpt lat="43.76567" lon="3.55319">
        <ele>595.6</ele>
        <time>2011-12-18T13:32:57Z</time>
      </trkpt>
      <trkpt lat="43.76571" lon="3.55321">
        <ele>595.6</ele>
        <time>2011-12-18T13:33:01Z</time>
      </trkpt>
      <trkpt lat="43.76572" lon="3.55322">
        <ele>595.6</ele>
        <time>2011-12-18T13:33:02Z</time>
      </trkpt>
      <trkpt lat="43.76577" lon="3.55328">
        <ele>596</ele>
        <time>2011-12-18T13:33:08Z</time>
      </trkpt>
      <trkpt lat="43.7658" lon="3.5533">
        <ele>596.4</ele>
        <time>2011-12-18T13:33:11Z</time>
      </trkpt>
      <trkpt lat="43.76583" lon="3.55334">
        <ele>597.3</ele>
        <time>2011-12-18T13:33:15Z</time>
      </trkpt>
      <trkpt lat="43.76586" lon="3.55338">
        <ele>597.3</ele>
        <time>2011-12-18T13:33:19Z</time>
      </trkpt>
      <trkpt lat="43.7659" lon="3.5534">
        <ele>595.9</ele>
        <time>2011-12-18T13:33:24Z</time>
      </trkpt>
      <trkpt lat="43.76594" lon="3.55343">
        <ele>596.1</ele>
        <time>2011-12-18T13:33:29Z</time>
      </trkpt>
      <trkpt lat="43.76597" lon="3.55347">
        <ele>595.7</ele>
        <time>2011-12-18T13:33:34Z</time>
      </trkpt>
      <trkpt lat="43.76601" lon="3.55348">
        <ele>595.9</ele>
        <time>2011-12-18T13:33:38Z</time>
      </trkpt>
      <trkpt lat="43.76603" lon="3.55351">
        <ele>596</ele>
        <time>2011-12-18T13:33:41Z</time>
      </trkpt>
      <trkpt lat="43.76606" lon="3.55355">
        <ele>595.7</ele>
        <time>2011-12-18T13:33:45Z</time>
      </trkpt>
      <trkpt lat="43.76609" lon="3.55358">
        <ele>595.4</ele>
        <time>2011-12-18T13:33:49Z</time>
      </trkpt>
      <trkpt lat="43.76613" lon="3.55359">
        <ele>595.8</ele>
        <time>2011-12-18T13:33:54Z</time>
      </trkpt>
      <trkpt lat="43.76617" lon="3.55361">
        <ele>596.3</ele>
        <time>2011-12-18T13:33:59Z</time>
      </trkpt>
      <trkpt lat="43.76621" lon="3.55363">
        <ele>595.5</ele>
        <time>2011-12-18T13:34:04Z</time>
      </trkpt>
      <trkpt lat="43.76622" lon="3.55364">
        <ele>595.5</ele>
        <time>2011-12-18T13:34:05Z</time>
      </trkpt>
      <trkpt lat="43.76628" lon="3.55367">
        <ele>595.1</ele>
        <time>2011-12-18T13:34:12Z</time>
      </trkpt>
      <trkpt lat="43.76632" lon="3.55368">
        <ele>595.4</ele>
        <time>2011-12-18T13:34:16Z</time>
      </trkpt>
      <trkpt lat="43.76636" lon="3.5537">
        <ele>594.8</ele>
        <time>2011-12-18T13:34:20Z</time>
      </trkpt>
      <trkpt lat="43.7664" lon="3.55373">
        <ele>594.6</ele>
        <time>2011-12-18T13:34:25Z</time>
      </trkpt>
      <trkpt lat="43.76643" lon="3.55375">
        <ele>595.1</ele>
        <time>2011-12-18T13:34:29Z</time>
      </trkpt>
      <trkpt lat="43.76647" lon="3.55377">
        <ele>596.2</ele>
        <time>2011-12-18T13:34:33Z</time>
      </trkpt>
      <trkpt lat="43.7665" lon="3.5538">
        <ele>597.1</ele>
        <time>2011-12-18T13:34:37Z</time>
      </trkpt>
      <trkpt lat="43.76652" lon="3.55384">
        <ele>597.1</ele>
        <time>2011-12-18T13:34:40Z</time>
      </trkpt>
      <trkpt lat="43.76656" lon="3.55386">
        <ele>596.8</ele>
        <time>2011-12-18T13:34:44Z</time>
      </trkpt>
      <trkpt lat="43.7666" lon="3.55389">
        <ele>596.4</ele>
        <time>2011-12-18T13:34:48Z</time>
      </trkpt>
      <trkpt lat="43.76663" lon="3.55394">
        <ele>596.4</ele>
        <time>2011-12-18T13:34:52Z</time>
      </trkpt>
      <trkpt lat="43.76666" lon="3.55398">
        <ele>597</ele>
        <time>2011-12-18T13:34:57Z</time>
      </trkpt>
      <trkpt lat="43.7667" lon="3.55399">
        <ele>596.7</ele>
        <time>2011-12-18T13:35:01Z</time>
      </trkpt>
      <trkpt lat="43.76674" lon="3.55402">
        <ele>596.3</ele>
        <time>2011-12-18T13:35:06Z</time>
      </trkpt>
      <trkpt lat="43.76675" lon="3.55402">
        <ele>596.2</ele>
        <time>2011-12-18T13:35:07Z</time>
      </trkpt>
      <trkpt lat="43.76681" lon="3.55408">
        <ele>598.4</ele>
        <time>2011-12-18T13:35:16Z</time>
      </trkpt>
      <trkpt lat="43.76683" lon="3.55412">
        <ele>598.7</ele>
        <time>2011-12-18T13:35:20Z</time>
      </trkpt>
      <trkpt lat="43.76686" lon="3.55417">
        <ele>598.7</ele>
        <time>2011-12-18T13:35:26Z</time>
      </trkpt>
      <trkpt lat="43.76688" lon="3.55421">
        <ele>598.2</ele>
        <time>2011-12-18T13:35:31Z</time>
      </trkpt>
      <trkpt lat="43.7669" lon="3.55427">
        <ele>598.4</ele>
        <time>2011-12-18T13:35:35Z</time>
      </trkpt>
      <trkpt lat="43.76692" lon="3.55431">
        <ele>598.2</ele>
        <time>2011-12-18T13:35:39Z</time>
      </trkpt>
      <trkpt lat="43.76694" lon="3.55436">
        <ele>597.6</ele>
        <time>2011-12-18T13:35:43Z</time>
      </trkpt>
      <trkpt lat="43.76695" lon="3.5544">
        <ele>597.6</ele>
        <time>2011-12-18T13:35:46Z</time>
      </trkpt>
      <trkpt lat="43.76697" lon="3.55444">
        <ele>597.6</ele>
        <time>2011-12-18T13:35:49Z</time>
      </trkpt>
      <trkpt lat="43.767" lon="3.55449">
        <ele>597.4</ele>
        <time>2011-12-18T13:35:53Z</time>
      </trkpt>
      <trkpt lat="43.76701" lon="3.55454">
        <ele>597.6</ele>
        <time>2011-12-18T13:35:58Z</time>
      </trkpt>
      <trkpt lat="43.76702" lon="3.55458">
        <ele>596.6</ele>
        <time>2011-12-18T13:36:03Z</time>
      </trkpt>
      <trkpt lat="43.76703" lon="3.55464">
        <ele>596.6</ele>
        <time>2011-12-18T13:36:07Z</time>
      </trkpt>
      <trkpt lat="43.76703" lon="3.55465">
        <ele>596.5</ele>
        <time>2011-12-18T13:36:08Z</time>
      </trkpt>
      <trkpt lat="43.76705" lon="3.55473">
        <ele>597.2</ele>
        <time>2011-12-18T13:36:14Z</time>
      </trkpt>
      <trkpt lat="43.76705" lon="3.55478">
        <ele>596.4</ele>
        <time>2011-12-18T13:36:18Z</time>
      </trkpt>
      <trkpt lat="43.76704" lon="3.55485">
        <ele>596.6</ele>
        <time>2011-12-18T13:36:25Z</time>
      </trkpt>
      <trkpt lat="43.76705" lon="3.55491">
        <ele>597.2</ele>
        <time>2011-12-18T13:36:32Z</time>
      </trkpt>
      <trkpt lat="43.76703" lon="3.55496">
        <ele>596.6</ele>
        <time>2011-12-18T13:36:44Z</time>
      </trkpt>
      <trkpt lat="43.76704" lon="3.55502">
        <ele>597.8</ele>
        <time>2011-12-18T13:37:11Z</time>
      </trkpt>
      <trkpt lat="43.76704" lon="3.55503">
        <ele>597.7</ele>
        <time>2011-12-18T13:37:12Z</time>
      </trkpt>
      <trkpt lat="43.76706" lon="3.55514">
        <ele>595.5</ele>
        <time>2011-12-18T13:37:34Z</time>
      </trkpt>
      <trkpt lat="43.76704" lon="3.55519">
        <ele>595</ele>
        <time>2011-12-18T13:37:48Z</time>
      </trkpt>
      <trkpt lat="43.76702" lon="3.55524">
        <ele>594.6</ele>
        <time>2011-12-18T13:37:57Z</time>
      </trkpt>
      <trkpt lat="43.76702" lon="3.5553">
        <ele>595.3</ele>
        <time>2011-12-18T13:38:03Z</time>
      </trkpt>
      <trkpt lat="43.76703" lon="3.55536">
        <ele>595.4</ele>
        <time>2011-12-18T13:38:07Z</time>
      </trkpt>
      <trkpt lat="43.76703" lon="3.55541">
        <ele>595.6</ele>
        <time>2011-12-18T13:38:11Z</time>
      </trkpt>
      <trkpt lat="43.76703" lon="3.55546">
        <ele>594.9</ele>
        <time>2011-12-18T13:38:15Z</time>
      </trkpt>
      <trkpt lat="43.76703" lon="3.55548">
        <ele>594.7</ele>
        <time>2011-12-18T13:38:16Z</time>
      </trkpt>
      <trkpt lat="43.767" lon="3.55557">
        <ele>593.2</ele>
        <time>2011-12-18T13:38:24Z</time>
      </trkpt>
      <trkpt lat="43.76698" lon="3.55562">
        <ele>592.7</ele>
        <time>2011-12-18T13:38:28Z</time>
      </trkpt>
      <trkpt lat="43.76696" lon="3.55567">
        <ele>591.8</ele>
        <time>2011-12-18T13:38:33Z</time>
      </trkpt>
      <trkpt lat="43.76693" lon="3.55571">
        <ele>591.9</ele>
        <time>2011-12-18T13:38:38Z</time>
      </trkpt>
      <trkpt lat="43.7669" lon="3.55575">
        <ele>591.2</ele>
        <time>2011-12-18T13:38:42Z</time>
      </trkpt>
      <trkpt lat="43.76688" lon="3.5558">
        <ele>590.7</ele>
        <time>2011-12-18T13:38:47Z</time>
      </trkpt>
      <trkpt lat="43.76685" lon="3.55586">
        <ele>589.9</ele>
        <time>2011-12-18T13:38:52Z</time>
      </trkpt>
      <trkpt lat="43.76684" lon="3.5559">
        <ele>590.1</ele>
        <time>2011-12-18T13:38:55Z</time>
      </trkpt>
      <trkpt lat="43.76682" lon="3.55596">
        <ele>589.5</ele>
        <time>2011-12-18T13:39:01Z</time>
      </trkpt>
      <trkpt lat="43.76679" lon="3.556">
        <ele>588.3</ele>
        <time>2011-12-18T13:39:05Z</time>
      </trkpt>
      <trkpt lat="43.76676" lon="3.55604">
        <ele>587.4</ele>
        <time>2011-12-18T13:39:09Z</time>
      </trkpt>
      <trkpt lat="43.76674" lon="3.55608">
        <ele>587.2</ele>
        <time>2011-12-18T13:39:14Z</time>
      </trkpt>
      <trkpt lat="43.76671" lon="3.55612">
        <ele>587.3</ele>
        <time>2011-12-18T13:39:19Z</time>
      </trkpt>
      <trkpt lat="43.76671" lon="3.55613">
        <ele>587.1</ele>
        <time>2011-12-18T13:39:20Z</time>
      </trkpt>
      <trkpt lat="43.76666" lon="3.5562">
        <ele>586.9</ele>
        <time>2011-12-18T13:39:27Z</time>
      </trkpt>
      <trkpt lat="43.76666" lon="3.55626">
        <ele>586.6</ele>
        <time>2011-12-18T13:39:32Z</time>
      </trkpt>
      <trkpt lat="43.76665" lon="3.55633">
        <ele>585.8</ele>
        <time>2011-12-18T13:39:38Z</time>
      </trkpt>
      <trkpt lat="43.76665" lon="3.55639">
        <ele>585.6</ele>
        <time>2011-12-18T13:39:43Z</time>
      </trkpt>
      <trkpt lat="43.76665" lon="3.55644">
        <ele>586.4</ele>
        <time>2011-12-18T13:39:48Z</time>
      </trkpt>
      <trkpt lat="43.76665" lon="3.5565">
        <ele>585.7</ele>
        <time>2011-12-18T13:39:52Z</time>
      </trkpt>
      <trkpt lat="43.76665" lon="3.55654">
        <ele>586.1</ele>
        <time>2011-12-18T13:39:55Z</time>
      </trkpt>
      <trkpt lat="43.76665" lon="3.55659">
        <ele>585.9</ele>
        <time>2011-12-18T13:39:59Z</time>
      </trkpt>
      <trkpt lat="43.76665" lon="3.55666">
        <ele>585.9</ele>
        <time>2011-12-18T13:40:03Z</time>
      </trkpt>
      <trkpt lat="43.76665" lon="3.55671">
        <ele>585</ele>
        <time>2011-12-18T13:40:07Z</time>
      </trkpt>
      <trkpt lat="43.76664" lon="3.55677">
        <ele>585.6</ele>
        <time>2011-12-18T13:40:13Z</time>
      </trkpt>
      <trkpt lat="43.76666" lon="3.55682">
        <ele>584.1</ele>
        <time>2011-12-18T13:40:20Z</time>
      </trkpt>
      <trkpt lat="43.76666" lon="3.55683">
        <ele>583.6</ele>
        <time>2011-12-18T13:40:21Z</time>
      </trkpt>
      <trkpt lat="43.76668" lon="3.55694">
        <ele>582.2</ele>
        <time>2011-12-18T13:40:30Z</time>
      </trkpt>
      <trkpt lat="43.76668" lon="3.557">
        <ele>582</ele>
        <time>2011-12-18T13:40:42Z</time>
      </trkpt>
      <trkpt lat="43.76664" lon="3.557">
        <ele>578.3</ele>
        <time>2011-12-18T13:40:53Z</time>
      </trkpt>
      <trkpt lat="43.7666" lon="3.55699">
        <ele>577.4</ele>
        <time>2011-12-18T13:41:00Z</time>
      </trkpt>
      <trkpt lat="43.76656" lon="3.55696">
        <ele>575.5</ele>
        <time>2011-12-18T13:41:07Z</time>
      </trkpt>
      <trkpt lat="43.76652" lon="3.55693">
        <ele>574.9</ele>
        <time>2011-12-18T13:41:14Z</time>
      </trkpt>
      <trkpt lat="43.76649" lon="3.5569">
        <ele>573.1</ele>
        <time>2011-12-18T13:41:22Z</time>
      </trkpt>
      <trkpt lat="43.76648" lon="3.55689">
        <ele>572.9</ele>
        <time>2011-12-18T13:41:23Z</time>
      </trkpt>
      <trkpt lat="43.76643" lon="3.55682">
        <ele>569.7</ele>
        <time>2011-12-18T13:41:37Z</time>
      </trkpt>
      <trkpt lat="43.76641" lon="3.55677">
        <ele>568.3</ele>
        <time>2011-12-18T13:41:43Z</time>
      </trkpt>
      <trkpt lat="43.76638" lon="3.55674">
        <ele>567.1</ele>
        <time>2011-12-18T13:41:47Z</time>
      </trkpt>
      <trkpt lat="43.76635" lon="3.55669">
        <ele>566.1</ele>
        <time>2011-12-18T13:41:54Z</time>
      </trkpt>
      <trkpt lat="43.76632" lon="3.55664">
        <ele>564.8</ele>
        <time>2011-12-18T13:42:00Z</time>
      </trkpt>
      <trkpt lat="43.76631" lon="3.55659">
        <ele>564</ele>
        <time>2011-12-18T13:42:06Z</time>
      </trkpt>
      <trkpt lat="43.76629" lon="3.55654">
        <ele>563.3</ele>
        <time>2011-12-18T13:42:11Z</time>
      </trkpt>
      <trkpt lat="43.76626" lon="3.5565">
        <ele>561.9</ele>
        <time>2011-12-18T13:42:14Z</time>
      </trkpt>
      <trkpt lat="43.76625" lon="3.55644">
        <ele>562.3</ele>
        <time>2011-12-18T13:42:17Z</time>
      </trkpt>
      <trkpt lat="43.76623" lon="3.55639">
        <ele>561.9</ele>
        <time>2011-12-18T13:42:21Z</time>
      </trkpt>
      <trkpt lat="43.76623" lon="3.55634">
        <ele>561.5</ele>
        <time>2011-12-18T13:42:28Z</time>
      </trkpt>
      <trkpt lat="43.76622" lon="3.55633">
        <ele>561.1</ele>
        <time>2011-12-18T13:42:29Z</time>
      </trkpt>
      <trkpt lat="43.76622" lon="3.55624">
        <ele>560.3</ele>
        <time>2011-12-18T13:42:37Z</time>
      </trkpt>
      <trkpt lat="43.76622" lon="3.55618">
        <ele>558.7</ele>
        <time>2011-12-18T13:42:42Z</time>
      </trkpt>
      <trkpt lat="43.76622" lon="3.55612">
        <ele>557.4</ele>
        <time>2011-12-18T13:42:48Z</time>
      </trkpt>
      <trkpt lat="43.76622" lon="3.55607">
        <ele>556.7</ele>
        <time>2011-12-18T13:42:54Z</time>
      </trkpt>
      <trkpt lat="43.76621" lon="3.55601">
        <ele>555.2</ele>
        <time>2011-12-18T13:42:59Z</time>
      </trkpt>
      <trkpt lat="43.76621" lon="3.55596">
        <ele>553.6</ele>
        <time>2011-12-18T13:43:03Z</time>
      </trkpt>
      <trkpt lat="43.76619" lon="3.55591">
        <ele>553.6</ele>
        <time>2011-12-18T13:43:07Z</time>
      </trkpt>
      <trkpt lat="43.76617" lon="3.55586">
        <ele>552.9</ele>
        <time>2011-12-18T13:43:12Z</time>
      </trkpt>
      <trkpt lat="43.76616" lon="3.55581">
        <ele>553.3</ele>
        <time>2011-12-18T13:43:16Z</time>
      </trkpt>
      <trkpt lat="43.76614" lon="3.55577">
        <ele>553</ele>
        <time>2011-12-18T13:43:20Z</time>
      </trkpt>
      <trkpt lat="43.7661" lon="3.55573">
        <ele>552.3</ele>
        <time>2011-12-18T13:43:23Z</time>
      </trkpt>
      <trkpt lat="43.76609" lon="3.55569">
        <ele>551.9</ele>
        <time>2011-12-18T13:43:25Z</time>
      </trkpt>
      <trkpt lat="43.76607" lon="3.55564">
        <ele>550.4</ele>
        <time>2011-12-18T13:43:28Z</time>
      </trkpt>
      <trkpt lat="43.76606" lon="3.5556">
        <ele>549.9</ele>
        <time>2011-12-18T13:43:31Z</time>
      </trkpt>
      <trkpt lat="43.76606" lon="3.55558">
        <ele>550.1</ele>
        <time>2011-12-18T13:43:32Z</time>
      </trkpt>
      <trkpt lat="43.76606" lon="3.55548">
        <ele>549.5</ele>
        <time>2011-12-18T13:43:39Z</time>
      </trkpt>
      <trkpt lat="43.76607" lon="3.55542">
        <ele>548.6</ele>
        <time>2011-12-18T13:43:44Z</time>
      </trkpt>
      <trkpt lat="43.76608" lon="3.55537">
        <ele>548.7</ele>
        <time>2011-12-18T13:43:48Z</time>
      </trkpt>
      <trkpt lat="43.76609" lon="3.55532">
        <ele>549</ele>
        <time>2011-12-18T13:43:52Z</time>
      </trkpt>
      <trkpt lat="43.7661" lon="3.55528">
        <ele>548.6</ele>
        <time>2011-12-18T13:43:55Z</time>
      </trkpt>
      <trkpt lat="43.76611" lon="3.55523">
        <ele>548.2</ele>
        <time>2011-12-18T13:43:58Z</time>
      </trkpt>
      <trkpt lat="43.76612" lon="3.55517">
        <ele>547.7</ele>
        <time>2011-12-18T13:44:02Z</time>
      </trkpt>
      <trkpt lat="43.76613" lon="3.55507">
        <ele>547.4</ele>
        <time>2011-12-18T13:44:08Z</time>
      </trkpt>
      <trkpt lat="43.76614" lon="3.55502">
        <ele>546</ele>
        <time>2011-12-18T13:44:13Z</time>
      </trkpt>
      <trkpt lat="43.76612" lon="3.55498">
        <ele>546.4</ele>
        <time>2011-12-18T13:44:18Z</time>
      </trkpt>
      <trkpt lat="43.76609" lon="3.55493">
        <ele>547</ele>
        <time>2011-12-18T13:44:22Z</time>
      </trkpt>
      <trkpt lat="43.76606" lon="3.5549">
        <ele>546.8</ele>
        <time>2011-12-18T13:44:26Z</time>
      </trkpt>
      <trkpt lat="43.76603" lon="3.55486">
        <ele>545.6</ele>
        <time>2011-12-18T13:44:30Z</time>
      </trkpt>
      <trkpt lat="43.76599" lon="3.55484">
        <ele>544.5</ele>
        <time>2011-12-18T13:44:33Z</time>
      </trkpt>
      <trkpt lat="43.76598" lon="3.55484">
        <ele>544.1</ele>
        <time>2011-12-18T13:44:34Z</time>
      </trkpt>
      <trkpt lat="43.76591" lon="3.55481">
        <ele>541.8</ele>
        <time>2011-12-18T13:44:41Z</time>
      </trkpt>
      <trkpt lat="43.76587" lon="3.55479">
        <ele>541.8</ele>
        <time>2011-12-18T13:44:45Z</time>
      </trkpt>
      <trkpt lat="43.76584" lon="3.5548">
        <ele>541.3</ele>
        <time>2011-12-18T13:44:49Z</time>
      </trkpt>
      <trkpt lat="43.7658" lon="3.5548">
        <ele>540.2</ele>
        <time>2011-12-18T13:44:53Z</time>
      </trkpt>
      <trkpt lat="43.76576" lon="3.5548">
        <ele>539.2</ele>
        <time>2011-12-18T13:44:56Z</time>
      </trkpt>
      <trkpt lat="43.76572" lon="3.55478">
        <ele>538.2</ele>
        <time>2011-12-18T13:45:01Z</time>
      </trkpt>
      <trkpt lat="43.76568" lon="3.55477">
        <ele>537.9</ele>
        <time>2011-12-18T13:45:06Z</time>
      </trkpt>
      <trkpt lat="43.76565" lon="3.55475">
        <ele>537.1</ele>
        <time>2011-12-18T13:45:10Z</time>
      </trkpt>
      <trkpt lat="43.76561" lon="3.55473">
        <ele>536.2</ele>
        <time>2011-12-18T13:45:15Z</time>
      </trkpt>
      <trkpt lat="43.76558" lon="3.55471">
        <ele>535.4</ele>
        <time>2011-12-18T13:45:20Z</time>
      </trkpt>
      <trkpt lat="43.76554" lon="3.55469">
        <ele>535.5</ele>
        <time>2011-12-18T13:45:24Z</time>
      </trkpt>
      <trkpt lat="43.76551" lon="3.55466">
        <ele>535.3</ele>
        <time>2011-12-18T13:45:28Z</time>
      </trkpt>
      <trkpt lat="43.76548" lon="3.55463">
        <ele>534.2</ele>
        <time>2011-12-18T13:45:32Z</time>
      </trkpt>
      <trkpt lat="43.76544" lon="3.55461">
        <ele>533.6</ele>
        <time>2011-12-18T13:45:38Z</time>
      </trkpt>
      <trkpt lat="43.76544" lon="3.5546">
        <ele>533.5</ele>
        <time>2011-12-18T13:45:39Z</time>
      </trkpt>
      <trkpt lat="43.76538" lon="3.55453">
        <ele>531.4</ele>
        <time>2011-12-18T13:45:49Z</time>
      </trkpt>
      <trkpt lat="43.76535" lon="3.5545">
        <ele>530.8</ele>
        <time>2011-12-18T13:45:54Z</time>
      </trkpt>
      <trkpt lat="43.76531" lon="3.55448">
        <ele>530.3</ele>
        <time>2011-12-18T13:46:00Z</time>
      </trkpt>
      <trkpt lat="43.76527" lon="3.55447">
        <ele>529.9</ele>
        <time>2011-12-18T13:46:05Z</time>
      </trkpt>
      <trkpt lat="43.76523" lon="3.55446">
        <ele>529.5</ele>
        <time>2011-12-18T13:46:11Z</time>
      </trkpt>
      <trkpt lat="43.76519" lon="3.55446">
        <ele>528.8</ele>
        <time>2011-12-18T13:46:17Z</time>
      </trkpt>
      <trkpt lat="43.76515" lon="3.55445">
        <ele>528.3</ele>
        <time>2011-12-18T13:46:23Z</time>
      </trkpt>
      <trkpt lat="43.76511" lon="3.55444">
        <ele>527.8</ele>
        <time>2011-12-18T13:46:29Z</time>
      </trkpt>
      <trkpt lat="43.76507" lon="3.55444">
        <ele>527.3</ele>
        <time>2011-12-18T13:46:34Z</time>
      </trkpt>
      <trkpt lat="43.76503" lon="3.55443">
        <ele>526.5</ele>
        <time>2011-12-18T13:46:39Z</time>
      </trkpt>
      <trkpt lat="43.76502" lon="3.55443">
        <ele>526</ele>
        <time>2011-12-18T13:46:40Z</time>
      </trkpt>
      <trkpt lat="43.76495" lon="3.55442">
        <ele>524.3</ele>
        <time>2011-12-18T13:46:50Z</time>
      </trkpt>
      <trkpt lat="43.76491" lon="3.55442">
        <ele>523.5</ele>
        <time>2011-12-18T13:46:55Z</time>
      </trkpt>
      <trkpt lat="43.76487" lon="3.55443">
        <ele>523.3</ele>
        <time>2011-12-18T13:47:00Z</time>
      </trkpt>
      <trkpt lat="43.76483" lon="3.55444">
        <ele>522.7</ele>
        <time>2011-12-18T13:47:05Z</time>
      </trkpt>
      <trkpt lat="43.76479" lon="3.55445">
        <ele>520.5</ele>
        <time>2011-12-18T13:47:10Z</time>
      </trkpt>
      <trkpt lat="43.76475" lon="3.55447">
        <ele>519</ele>
        <time>2011-12-18T13:47:14Z</time>
      </trkpt>
      <trkpt lat="43.76471" lon="3.55448">
        <ele>518.8</ele>
        <time>2011-12-18T13:47:19Z</time>
      </trkpt>
      <trkpt lat="43.76467" lon="3.55449">
        <ele>517.2</ele>
        <time>2011-12-18T13:47:25Z</time>
      </trkpt>
      <trkpt lat="43.76463" lon="3.55451">
        <ele>517.4</ele>
        <time>2011-12-18T13:47:29Z</time>
      </trkpt>
      <trkpt lat="43.76459" lon="3.55452">
        <ele>517.2</ele>
        <time>2011-12-18T13:47:34Z</time>
      </trkpt>
      <trkpt lat="43.76455" lon="3.55453">
        <ele>516.2</ele>
        <time>2011-12-18T13:47:38Z</time>
      </trkpt>
      <trkpt lat="43.76451" lon="3.55456">
        <ele>515.7</ele>
        <time>2011-12-18T13:47:41Z</time>
      </trkpt>
      <trkpt lat="43.7645" lon="3.55457">
        <ele>515.7</ele>
        <time>2011-12-18T13:47:42Z</time>
      </trkpt>
      <trkpt lat="43.76444" lon="3.55461">
        <ele>514.1</ele>
        <time>2011-12-18T13:47:48Z</time>
      </trkpt>
      <trkpt lat="43.7644" lon="3.55461">
        <ele>513.5</ele>
        <time>2011-12-18T13:47:53Z</time>
      </trkpt>
      <trkpt lat="43.76436" lon="3.55463">
        <ele>512.3</ele>
        <time>2011-12-18T13:47:59Z</time>
      </trkpt>
      <trkpt lat="43.76432" lon="3.55464">
        <ele>512.4</ele>
        <time>2011-12-18T13:48:04Z</time>
      </trkpt>
      <trkpt lat="43.76428" lon="3.55465">
        <ele>511.8</ele>
        <time>2011-12-18T13:48:08Z</time>
      </trkpt>
      <trkpt lat="43.76424" lon="3.55467">
        <ele>512.4</ele>
        <time>2011-12-18T13:48:21Z</time>
      </trkpt>
      <trkpt lat="43.76421" lon="3.55472">
        <ele>511.9</ele>
        <time>2011-12-18T13:48:44Z</time>
      </trkpt>
      <trkpt lat="43.76421" lon="3.55472">
        <ele>512</ele>
        <time>2011-12-18T13:48:45Z</time>
      </trkpt>
      <trkpt lat="43.76423" lon="3.55461">
        <ele>510.9</ele>
        <time>2011-12-18T13:49:23Z</time>
      </trkpt>
      <trkpt lat="43.76423" lon="3.55455">
        <ele>509.9</ele>
        <time>2011-12-18T13:49:29Z</time>
      </trkpt>
      <trkpt lat="43.76424" lon="3.5545">
        <ele>507.9</ele>
        <time>2011-12-18T13:49:38Z</time>
      </trkpt>
      <trkpt lat="43.76424" lon="3.55444">
        <ele>508.7</ele>
        <time>2011-12-18T13:49:59Z</time>
      </trkpt>
      <trkpt lat="43.76424" lon="3.55443">
        <ele>508.9</ele>
        <time>2011-12-18T13:50:00Z</time>
      </trkpt>
      <trkpt lat="43.76419" lon="3.55434">
        <ele>508.2</ele>
        <time>2011-12-18T13:50:23Z</time>
      </trkpt>
      <trkpt lat="43.76415" lon="3.55437">
        <ele>507.2</ele>
        <time>2011-12-18T13:50:57Z</time>
      </trkpt>
      <trkpt lat="43.76416" lon="3.55431">
        <ele>507.2</ele>
        <time>2011-12-18T13:51:36Z</time>
      </trkpt>
      <trkpt lat="43.76416" lon="3.5543">
        <ele>507.7</ele>
        <time>2011-12-18T13:51:37Z</time>
      </trkpt>
      <trkpt lat="43.7642" lon="3.55426">
        <ele>509.9</ele>
        <time>2011-12-18T13:52:37Z</time>
      </trkpt>
      <trkpt lat="43.76421" lon="3.55426">
        <ele>509.7</ele>
        <time>2011-12-18T13:52:38Z</time>
      </trkpt>
      <trkpt lat="43.76427" lon="3.55427">
        <ele>508.5</ele>
        <time>2011-12-18T13:53:47Z</time>
      </trkpt>
      <trkpt lat="43.76424" lon="3.5543">
        <ele>507.9</ele>
        <time>2011-12-18T13:54:11Z</time>
      </trkpt>
      <trkpt lat="43.7642" lon="3.55429">
        <ele>508.9</ele>
        <time>2011-12-18T13:54:39Z</time>
      </trkpt>
      <trkpt lat="43.76416" lon="3.5543">
        <ele>506.6</ele>
        <time>2011-12-18T13:55:02Z</time>
      </trkpt>
      <trkpt lat="43.76415" lon="3.5543">
        <ele>506.5</ele>
        <time>2011-12-18T13:55:03Z</time>
      </trkpt>
      <trkpt lat="43.76409" lon="3.55421">
        <ele>507.6</ele>
        <time>2011-12-18T13:55:22Z</time>
      </trkpt>
      <trkpt lat="43.76407" lon="3.55417">
        <ele>506.8</ele>
        <time>2011-12-18T13:55:28Z</time>
      </trkpt>
      <trkpt lat="43.76404" lon="3.55413">
        <ele>504.7</ele>
        <time>2011-12-18T13:55:34Z</time>
      </trkpt>
      <trkpt lat="43.76401" lon="3.5541">
        <ele>504</ele>
        <time>2011-12-18T13:55:40Z</time>
      </trkpt>
      <trkpt lat="43.76397" lon="3.55407">
        <ele>504.1</ele>
        <time>2011-12-18T13:55:45Z</time>
      </trkpt>
      <trkpt lat="43.76394" lon="3.55403">
        <ele>504.7</ele>
        <time>2011-12-18T13:55:50Z</time>
      </trkpt>
      <trkpt lat="43.76391" lon="3.55399">
        <ele>504.3</ele>
        <time>2011-12-18T13:55:56Z</time>
      </trkpt>
      <trkpt lat="43.76387" lon="3.55396">
        <ele>503.4</ele>
        <time>2011-12-18T13:56:02Z</time>
      </trkpt>
      <trkpt lat="43.76383" lon="3.55393">
        <ele>502</ele>
        <time>2011-12-18T13:56:08Z</time>
      </trkpt>
      <trkpt lat="43.76383" lon="3.55393">
        <ele>501.8</ele>
        <time>2011-12-18T13:56:09Z</time>
      </trkpt>
      <trkpt lat="43.76376" lon="3.5539">
        <ele>498.9</ele>
        <time>2011-12-18T13:56:17Z</time>
      </trkpt>
      <trkpt lat="43.76372" lon="3.55388">
        <ele>497.9</ele>
        <time>2011-12-18T13:56:21Z</time>
      </trkpt>
      <trkpt lat="43.76369" lon="3.55386">
        <ele>497.5</ele>
        <time>2011-12-18T13:56:25Z</time>
      </trkpt>
      <trkpt lat="43.76365" lon="3.55385">
        <ele>497.2</ele>
        <time>2011-12-18T13:56:29Z</time>
      </trkpt>
      <trkpt lat="43.76361" lon="3.55384">
        <ele>496.8</ele>
        <time>2011-12-18T13:56:33Z</time>
      </trkpt>
      <trkpt lat="43.76357" lon="3.55383">
        <ele>496</ele>
        <time>2011-12-18T13:56:37Z</time>
      </trkpt>
      <trkpt lat="43.76353" lon="3.55383">
        <ele>495.3</ele>
        <time>2011-12-18T13:56:41Z</time>
      </trkpt>
      <trkpt lat="43.76357" lon="3.55386">
        <ele>493.3</ele>
        <time>2011-12-18T13:56:54Z</time>
      </trkpt>
      <trkpt lat="43.7636" lon="3.55389">
        <ele>491</ele>
        <time>2011-12-18T13:57:05Z</time>
      </trkpt>
      <trkpt lat="43.76362" lon="3.55394">
        <ele>490.3</ele>
        <time>2011-12-18T13:57:14Z</time>
      </trkpt>
      <trkpt lat="43.76362" lon="3.55395">
        <ele>490.4</ele>
        <time>2011-12-18T13:57:15Z</time>
      </trkpt>
      <trkpt lat="43.76368" lon="3.554">
        <ele>488.8</ele>
        <time>2011-12-18T13:57:27Z</time>
      </trkpt>
      <trkpt lat="43.76371" lon="3.55404">
        <ele>488.4</ele>
        <time>2011-12-18T13:57:33Z</time>
      </trkpt>
      <trkpt lat="43.76372" lon="3.55409">
        <ele>488.3</ele>
        <time>2011-12-18T13:57:38Z</time>
      </trkpt>
      <trkpt lat="43.76375" lon="3.55414">
        <ele>488.1</ele>
        <time>2011-12-18T13:57:42Z</time>
      </trkpt>
      <trkpt lat="43.76378" lon="3.55418">
        <ele>487.6</ele>
        <time>2011-12-18T13:57:48Z</time>
      </trkpt>
      <trkpt lat="43.76381" lon="3.55422">
        <ele>485.9</ele>
        <time>2011-12-18T13:57:55Z</time>
      </trkpt>
      <trkpt lat="43.7638" lon="3.55428">
        <ele>485.7</ele>
        <time>2011-12-18T13:58:00Z</time>
      </trkpt>
      <trkpt lat="43.76377" lon="3.55433">
        <ele>484.9</ele>
        <time>2011-12-18T13:58:14Z</time>
      </trkpt>
      <trkpt lat="43.76372" lon="3.55433">
        <ele>481.8</ele>
        <time>2011-12-18T13:58:29Z</time>
      </trkpt>
      <trkpt lat="43.76372" lon="3.55433">
        <ele>481.7</ele>
        <time>2011-12-18T13:58:30Z</time>
      </trkpt>
      <trkpt lat="43.76364" lon="3.5543">
        <ele>479</ele>
        <time>2011-12-18T13:58:49Z</time>
      </trkpt>
      <trkpt lat="43.7636" lon="3.55427">
        <ele>478.6</ele>
        <time>2011-12-18T13:58:56Z</time>
      </trkpt>
      <trkpt lat="43.76356" lon="3.55426">
        <ele>477.9</ele>
        <time>2011-12-18T13:59:04Z</time>
      </trkpt>
      <trkpt lat="43.76352" lon="3.55424">
        <ele>476.2</ele>
        <time>2011-12-18T13:59:11Z</time>
      </trkpt>
      <trkpt lat="43.76347" lon="3.55423">
        <ele>474.4</ele>
        <time>2011-12-18T13:59:19Z</time>
      </trkpt>
      <trkpt lat="43.76344" lon="3.55424">
        <ele>473.8</ele>
        <time>2011-12-18T13:59:23Z</time>
      </trkpt>
      <trkpt lat="43.7634" lon="3.55426">
        <ele>473.2</ele>
        <time>2011-12-18T13:59:27Z</time>
      </trkpt>
      <trkpt lat="43.76336" lon="3.55425">
        <ele>473.3</ele>
        <time>2011-12-18T13:59:31Z</time>
      </trkpt>
      <trkpt lat="43.76335" lon="3.55425">
        <ele>473.4</ele>
        <time>2011-12-18T13:59:32Z</time>
      </trkpt>
      <trkpt lat="43.7633" lon="3.55417">
        <ele>470.1</ele>
        <time>2011-12-18T13:59:49Z</time>
      </trkpt>
      <trkpt lat="43.76326" lon="3.55414">
        <ele>469.6</ele>
        <time>2011-12-18T13:59:55Z</time>
      </trkpt>
      <trkpt lat="43.76323" lon="3.5541">
        <ele>467.9</ele>
        <time>2011-12-18T14:00:00Z</time>
      </trkpt>
      <trkpt lat="43.76319" lon="3.55407">
        <ele>467.3</ele>
        <time>2011-12-18T14:00:05Z</time>
      </trkpt>
      <trkpt lat="43.76316" lon="3.55404">
        <ele>466.5</ele>
        <time>2011-12-18T14:00:09Z</time>
      </trkpt>
      <trkpt lat="43.76313" lon="3.55402">
        <ele>465.9</ele>
        <time>2011-12-18T14:00:13Z</time>
      </trkpt>
      <trkpt lat="43.7631" lon="3.554">
        <ele>465</ele>
        <time>2011-12-18T14:00:16Z</time>
      </trkpt>
      <trkpt lat="43.76306" lon="3.55401">
        <ele>464.2</ele>
        <time>2011-12-18T14:00:21Z</time>
      </trkpt>
      <trkpt lat="43.76302" lon="3.554">
        <ele>464.7</ele>
        <time>2011-12-18T14:00:26Z</time>
      </trkpt>
      <trkpt lat="43.76298" lon="3.55402">
        <ele>464.5</ele>
        <time>2011-12-18T14:00:31Z</time>
      </trkpt>
      <trkpt lat="43.76294" lon="3.55404">
        <ele>463.9</ele>
        <time>2011-12-18T14:00:36Z</time>
      </trkpt>
      <trkpt lat="43.76293" lon="3.55404">
        <ele>463.9</ele>
        <time>2011-12-18T14:00:37Z</time>
      </trkpt>
      <trkpt lat="43.76286" lon="3.55406">
        <ele>462.7</ele>
        <time>2011-12-18T14:00:45Z</time>
      </trkpt>
      <trkpt lat="43.76282" lon="3.55408">
        <ele>461.5</ele>
        <time>2011-12-18T14:00:49Z</time>
      </trkpt>
      <trkpt lat="43.76279" lon="3.55411">
        <ele>460</ele>
        <time>2011-12-18T14:00:53Z</time>
      </trkpt>
      <trkpt lat="43.76276" lon="3.55415">
        <ele>459.1</ele>
        <time>2011-12-18T14:00:57Z</time>
      </trkpt>
      <trkpt lat="43.76273" lon="3.55418">
        <ele>459.3</ele>
        <time>2011-12-18T14:01:00Z</time>
      </trkpt>
      <trkpt lat="43.76271" lon="3.55422">
        <ele>458.9</ele>
        <time>2011-12-18T14:01:03Z</time>
      </trkpt>
      <trkpt lat="43.76267" lon="3.55425">
        <ele>458.6</ele>
        <time>2011-12-18T14:01:06Z</time>
      </trkpt>
      <trkpt lat="43.76264" lon="3.55428">
        <ele>458</ele>
        <time>2011-12-18T14:01:11Z</time>
      </trkpt>
      <trkpt lat="43.7626" lon="3.55429">
        <ele>456.7</ele>
        <time>2011-12-18T14:01:15Z</time>
      </trkpt>
      <trkpt lat="43.76256" lon="3.55429">
        <ele>455.3</ele>
        <time>2011-12-18T14:01:19Z</time>
      </trkpt>
      <trkpt lat="43.76252" lon="3.5543">
        <ele>454.9</ele>
        <time>2011-12-18T14:01:24Z</time>
      </trkpt>
      <trkpt lat="43.76248" lon="3.5543">
        <ele>454</ele>
        <time>2011-12-18T14:01:28Z</time>
      </trkpt>
      <trkpt lat="43.76244" lon="3.55432">
        <ele>454.2</ele>
        <time>2011-12-18T14:01:33Z</time>
      </trkpt>
      <trkpt lat="43.7624" lon="3.55434">
        <ele>452.4</ele>
        <time>2011-12-18T14:01:40Z</time>
      </trkpt>
      <trkpt lat="43.76239" lon="3.55435">
        <ele>452</ele>
        <time>2011-12-18T14:01:41Z</time>
      </trkpt>
      <trkpt lat="43.76232" lon="3.5544">
        <ele>449.1</ele>
        <time>2011-12-18T14:01:53Z</time>
      </trkpt>
      <trkpt lat="43.76229" lon="3.55443">
        <ele>447.6</ele>
        <time>2011-12-18T14:01:59Z</time>
      </trkpt>
      <trkpt lat="43.76225" lon="3.55446">
        <ele>446.8</ele>
        <time>2011-12-18T14:02:03Z</time>
      </trkpt>
      <trkpt lat="43.76222" lon="3.55449">
        <ele>446.2</ele>
        <time>2011-12-18T14:02:08Z</time>
      </trkpt>
      <trkpt lat="43.76219" lon="3.55452">
        <ele>444.2</ele>
        <time>2011-12-18T14:02:13Z</time>
      </trkpt>
      <trkpt lat="43.76215" lon="3.55454">
        <ele>444.3</ele>
        <time>2011-12-18T14:02:19Z</time>
      </trkpt>
      <trkpt lat="43.76211" lon="3.55457">
        <ele>444.1</ele>
        <time>2011-12-18T14:02:26Z</time>
      </trkpt>
      <trkpt lat="43.76208" lon="3.55461">
        <ele>442.6</ele>
        <time>2011-12-18T14:02:31Z</time>
      </trkpt>
      <trkpt lat="43.76206" lon="3.55465">
        <ele>441.8</ele>
        <time>2011-12-18T14:02:36Z</time>
      </trkpt>
      <trkpt lat="43.76202" lon="3.55468">
        <ele>440.5</ele>
        <time>2011-12-18T14:02:41Z</time>
      </trkpt>
      <trkpt lat="43.76201" lon="3.55469">
        <ele>440.2</ele>
        <time>2011-12-18T14:02:42Z</time>
      </trkpt>
      <trkpt lat="43.76195" lon="3.55475">
        <ele>439.5</ele>
        <time>2011-12-18T14:02:51Z</time>
      </trkpt>
      <trkpt lat="43.76192" lon="3.55479">
        <ele>438.8</ele>
        <time>2011-12-18T14:02:56Z</time>
      </trkpt>
      <trkpt lat="43.7619" lon="3.55483">
        <ele>438.7</ele>
        <time>2011-12-18T14:03:00Z</time>
      </trkpt>
      <trkpt lat="43.76187" lon="3.55487">
        <ele>438.5</ele>
        <time>2011-12-18T14:03:04Z</time>
      </trkpt>
      <trkpt lat="43.76184" lon="3.5549">
        <ele>437.7</ele>
        <time>2011-12-18T14:03:08Z</time>
      </trkpt>
      <trkpt lat="43.7618" lon="3.55491">
        <ele>436.6</ele>
        <time>2011-12-18T14:03:12Z</time>
      </trkpt>
      <trkpt lat="43.76176" lon="3.55494">
        <ele>436.1</ele>
        <time>2011-12-18T14:03:17Z</time>
      </trkpt>
      <trkpt lat="43.76173" lon="3.55496">
        <ele>435.7</ele>
        <time>2011-12-18T14:03:23Z</time>
      </trkpt>
      <trkpt lat="43.76169" lon="3.555">
        <ele>434.2</ele>
        <time>2011-12-18T14:03:28Z</time>
      </trkpt>
      <trkpt lat="43.76167" lon="3.55503">
        <ele>433</ele>
        <time>2011-12-18T14:03:32Z</time>
      </trkpt>
      <trkpt lat="43.76163" lon="3.55507">
        <ele>432.9</ele>
        <time>2011-12-18T14:03:36Z</time>
      </trkpt>
      <trkpt lat="43.76161" lon="3.55511">
        <ele>432.2</ele>
        <time>2011-12-18T14:03:40Z</time>
      </trkpt>
      <trkpt lat="43.76159" lon="3.55515">
        <ele>431.8</ele>
        <time>2011-12-18T14:03:43Z</time>
      </trkpt>
      <trkpt lat="43.76159" lon="3.55516">
        <ele>431.8</ele>
        <time>2011-12-18T14:03:44Z</time>
      </trkpt>
      <trkpt lat="43.76155" lon="3.55525">
        <ele>431.1</ele>
        <time>2011-12-18T14:03:51Z</time>
      </trkpt>
      <trkpt lat="43.76153" lon="3.5553">
        <ele>431.6</ele>
        <time>2011-12-18T14:03:56Z</time>
      </trkpt>
      <trkpt lat="43.76151" lon="3.55535">
        <ele>429.8</ele>
        <time>2011-12-18T14:04:01Z</time>
      </trkpt>
      <trkpt lat="43.76148" lon="3.55537">
        <ele>428.8</ele>
        <time>2011-12-18T14:04:06Z</time>
      </trkpt>
      <trkpt lat="43.76144" lon="3.55536">
        <ele>426.4</ele>
        <time>2011-12-18T14:04:11Z</time>
      </trkpt>
      <trkpt lat="43.7614" lon="3.55536">
        <ele>425.5</ele>
        <time>2011-12-18T14:04:16Z</time>
      </trkpt>
      <trkpt lat="43.76136" lon="3.55536">
        <ele>424.1</ele>
        <time>2011-12-18T14:04:20Z</time>
      </trkpt>
      <trkpt lat="43.76133" lon="3.55537">
        <ele>422.1</ele>
        <time>2011-12-18T14:04:25Z</time>
      </trkpt>
      <trkpt lat="43.76129" lon="3.5554">
        <ele>421.3</ele>
        <time>2011-12-18T14:04:32Z</time>
      </trkpt>
      <trkpt lat="43.76125" lon="3.55542">
        <ele>421</ele>
        <time>2011-12-18T14:04:36Z</time>
      </trkpt>
      <trkpt lat="43.76122" lon="3.55545">
        <ele>420.6</ele>
        <time>2011-12-18T14:04:39Z</time>
      </trkpt>
      <trkpt lat="43.76119" lon="3.55548">
        <ele>420.2</ele>
        <time>2011-12-18T14:04:42Z</time>
      </trkpt>
      <trkpt lat="43.76116" lon="3.55552">
        <ele>419.9</ele>
        <time>2011-12-18T14:04:45Z</time>
      </trkpt>
      <trkpt lat="43.76115" lon="3.55552">
        <ele>419.6</ele>
        <time>2011-12-18T14:04:46Z</time>
      </trkpt>
      <trkpt lat="43.7611" lon="3.55557">
        <ele>419.9</ele>
        <time>2011-12-18T14:04:51Z</time>
      </trkpt>
      <trkpt lat="43.76107" lon="3.55559">
        <ele>419.7</ele>
        <time>2011-12-18T14:04:54Z</time>
      </trkpt>
      <trkpt lat="43.76104" lon="3.55562">
        <ele>419.6</ele>
        <time>2011-12-18T14:04:57Z</time>
      </trkpt>
      <trkpt lat="43.76101" lon="3.55564">
        <ele>418.9</ele>
        <time>2011-12-18T14:05:00Z</time>
      </trkpt>
      <trkpt lat="43.76097" lon="3.55567">
        <ele>417.8</ele>
        <time>2011-12-18T14:05:03Z</time>
      </trkpt>
      <trkpt lat="43.76094" lon="3.5557">
        <ele>416.5</ele>
        <time>2011-12-18T14:05:06Z</time>
      </trkpt>
      <trkpt lat="43.76091" lon="3.55573">
        <ele>415.7</ele>
        <time>2011-12-18T14:05:09Z</time>
      </trkpt>
      <trkpt lat="43.76087" lon="3.55575">
        <ele>413.9</ele>
        <time>2011-12-18T14:05:13Z</time>
      </trkpt>
      <trkpt lat="43.76083" lon="3.55577">
        <ele>413.5</ele>
        <time>2011-12-18T14:05:17Z</time>
      </trkpt>
      <trkpt lat="43.76079" lon="3.5558">
        <ele>411.7</ele>
        <time>2011-12-18T14:05:21Z</time>
      </trkpt>
      <trkpt lat="43.76075" lon="3.55581">
        <ele>410.2</ele>
        <time>2011-12-18T14:05:25Z</time>
      </trkpt>
      <trkpt lat="43.76072" lon="3.55584">
        <ele>409.4</ele>
        <time>2011-12-18T14:05:30Z</time>
      </trkpt>
      <trkpt lat="43.76068" lon="3.55588">
        <ele>409.1</ele>
        <time>2011-12-18T14:05:37Z</time>
      </trkpt>
      <trkpt lat="43.76065" lon="3.55591">
        <ele>409.2</ele>
        <time>2011-12-18T14:05:41Z</time>
      </trkpt>
      <trkpt lat="43.76063" lon="3.55595">
        <ele>408</ele>
        <time>2011-12-18T14:05:45Z</time>
      </trkpt>
      <trkpt lat="43.7606" lon="3.55598">
        <ele>407.5</ele>
        <time>2011-12-18T14:05:48Z</time>
      </trkpt>
      <trkpt lat="43.76059" lon="3.55599">
        <ele>407.6</ele>
        <time>2011-12-18T14:05:49Z</time>
      </trkpt>
      <trkpt lat="43.76054" lon="3.55604">
        <ele>406.4</ele>
        <time>2011-12-18T14:05:56Z</time>
      </trkpt>
      <trkpt lat="43.76052" lon="3.55609">
        <ele>405.9</ele>
        <time>2011-12-18T14:06:00Z</time>
      </trkpt>
      <trkpt lat="43.76048" lon="3.55612">
        <ele>405</ele>
        <time>2011-12-18T14:06:04Z</time>
      </trkpt>
      <trkpt lat="43.76046" lon="3.55616">
        <ele>405.5</ele>
        <time>2011-12-18T14:06:08Z</time>
      </trkpt>
      <trkpt lat="43.76044" lon="3.55621">
        <ele>404.9</ele>
        <time>2011-12-18T14:06:12Z</time>
      </trkpt>
      <trkpt lat="43.76042" lon="3.55626">
        <ele>404.5</ele>
        <time>2011-12-18T14:06:16Z</time>
      </trkpt>
      <trkpt lat="43.7604" lon="3.55631">
        <ele>403.8</ele>
        <time>2011-12-18T14:06:20Z</time>
      </trkpt>
      <trkpt lat="43.76037" lon="3.55635">
        <ele>404.1</ele>
        <time>2011-12-18T14:06:24Z</time>
      </trkpt>
      <trkpt lat="43.76036" lon="3.5564">
        <ele>401.3</ele>
        <time>2011-12-18T14:06:29Z</time>
      </trkpt>
      <trkpt lat="43.76034" lon="3.55646">
        <ele>398.3</ele>
        <time>2011-12-18T14:06:34Z</time>
      </trkpt>
      <trkpt lat="43.76032" lon="3.55651">
        <ele>396.5</ele>
        <time>2011-12-18T14:06:38Z</time>
      </trkpt>
      <trkpt lat="43.76031" lon="3.55656">
        <ele>396.3</ele>
        <time>2011-12-18T14:06:42Z</time>
      </trkpt>
      <trkpt lat="43.7603" lon="3.55661">
        <ele>397.1</ele>
        <time>2011-12-18T14:06:45Z</time>
      </trkpt>
      <trkpt lat="43.76029" lon="3.55667">
        <ele>397.5</ele>
        <time>2011-12-18T14:06:49Z</time>
      </trkpt>
      <trkpt lat="43.76028" lon="3.55668">
        <ele>397.4</ele>
        <time>2011-12-18T14:06:50Z</time>
      </trkpt>
      <trkpt lat="43.76028" lon="3.55679">
        <ele>397.4</ele>
        <time>2011-12-18T14:06:57Z</time>
      </trkpt>
      <trkpt lat="43.76028" lon="3.55685">
        <ele>396.2</ele>
        <time>2011-12-18T14:07:01Z</time>
      </trkpt>
      <trkpt lat="43.76028" lon="3.55691">
        <ele>395.3</ele>
        <time>2011-12-18T14:07:06Z</time>
      </trkpt>
      <trkpt lat="43.76029" lon="3.55696">
        <ele>394.2</ele>
        <time>2011-12-18T14:07:11Z</time>
      </trkpt>
      <trkpt lat="43.7603" lon="3.55702">
        <ele>393.5</ele>
        <time>2011-12-18T14:07:15Z</time>
      </trkpt>
      <trkpt lat="43.76032" lon="3.55707">
        <ele>392.9</ele>
        <time>2011-12-18T14:07:20Z</time>
      </trkpt>
      <trkpt lat="43.76032" lon="3.55712">
        <ele>391.7</ele>
        <time>2011-12-18T14:07:24Z</time>
      </trkpt>
      <trkpt lat="43.76033" lon="3.55717">
        <ele>390</ele>
        <time>2011-12-18T14:07:28Z</time>
      </trkpt>
      <trkpt lat="43.76034" lon="3.55722">
        <ele>388.9</ele>
        <time>2011-12-18T14:07:32Z</time>
      </trkpt>
      <trkpt lat="43.76036" lon="3.55727">
        <ele>389.1</ele>
        <time>2011-12-18T14:07:37Z</time>
      </trkpt>
      <trkpt lat="43.76037" lon="3.55732">
        <ele>389</ele>
        <time>2011-12-18T14:07:41Z</time>
      </trkpt>
      <trkpt lat="43.76038" lon="3.55738">
        <ele>389.1</ele>
        <time>2011-12-18T14:07:45Z</time>
      </trkpt>
      <trkpt lat="43.76039" lon="3.55744">
        <ele>388.9</ele>
        <time>2011-12-18T14:07:49Z</time>
      </trkpt>
      <trkpt lat="43.7604" lon="3.55749">
        <ele>388.4</ele>
        <time>2011-12-18T14:07:53Z</time>
      </trkpt>
      <trkpt lat="43.7604" lon="3.55751">
        <ele>388</ele>
        <time>2011-12-18T14:07:54Z</time>
      </trkpt>
      <trkpt lat="43.76036" lon="3.55761">
        <ele>387</ele>
        <time>2011-12-18T14:08:01Z</time>
      </trkpt>
      <trkpt lat="43.76037" lon="3.55767">
        <ele>386.7</ele>
        <time>2011-12-18T14:08:05Z</time>
      </trkpt>
      <trkpt lat="43.76037" lon="3.55772">
        <ele>386.4</ele>
        <time>2011-12-18T14:08:09Z</time>
      </trkpt>
      <trkpt lat="43.76037" lon="3.55778">
        <ele>386</ele>
        <time>2011-12-18T14:08:13Z</time>
      </trkpt>
      <trkpt lat="43.76037" lon="3.55784">
        <ele>385.7</ele>
        <time>2011-12-18T14:08:18Z</time>
      </trkpt>
      <trkpt lat="43.76036" lon="3.5579">
        <ele>384.5</ele>
        <time>2011-12-18T14:08:23Z</time>
      </trkpt>
      <trkpt lat="43.76035" lon="3.55795">
        <ele>383.8</ele>
        <time>2011-12-18T14:08:27Z</time>
      </trkpt>
      <trkpt lat="43.76035" lon="3.55801">
        <ele>383.3</ele>
        <time>2011-12-18T14:08:32Z</time>
      </trkpt>
      <trkpt lat="43.76035" lon="3.55806">
        <ele>381.4</ele>
        <time>2011-12-18T14:08:36Z</time>
      </trkpt>
      <trkpt lat="43.76034" lon="3.55812">
        <ele>380.2</ele>
        <time>2011-12-18T14:08:41Z</time>
      </trkpt>
      <trkpt lat="43.76033" lon="3.55817">
        <ele>379.7</ele>
        <time>2011-12-18T14:08:45Z</time>
      </trkpt>
      <trkpt lat="43.76033" lon="3.55823">
        <ele>378</ele>
        <time>2011-12-18T14:08:50Z</time>
      </trkpt>
      <trkpt lat="43.7603" lon="3.55827">
        <ele>377.9</ele>
        <time>2011-12-18T14:08:55Z</time>
      </trkpt>
      <trkpt lat="43.7603" lon="3.55828">
        <ele>378.5</ele>
        <time>2011-12-18T14:08:56Z</time>
      </trkpt>
      <trkpt lat="43.76027" lon="3.55838">
        <ele>379.1</ele>
        <time>2011-12-18T14:09:03Z</time>
      </trkpt>
      <trkpt lat="43.76026" lon="3.55843">
        <ele>378.1</ele>
        <time>2011-12-18T14:09:07Z</time>
      </trkpt>
      <trkpt lat="43.76025" lon="3.55849">
        <ele>377.3</ele>
        <time>2011-12-18T14:09:11Z</time>
      </trkpt>
      <trkpt lat="43.76024" lon="3.55854">
        <ele>376.5</ele>
        <time>2011-12-18T14:09:15Z</time>
      </trkpt>
      <trkpt lat="43.76023" lon="3.55859">
        <ele>375.9</ele>
        <time>2011-12-18T14:09:19Z</time>
      </trkpt>
      <trkpt lat="43.76022" lon="3.55865">
        <ele>374.5</ele>
        <time>2011-12-18T14:09:23Z</time>
      </trkpt>
      <trkpt lat="43.7602" lon="3.5587">
        <ele>372.9</ele>
        <time>2011-12-18T14:09:29Z</time>
      </trkpt>
      <trkpt lat="43.76017" lon="3.55874">
        <ele>373.1</ele>
        <time>2011-12-18T14:09:34Z</time>
      </trkpt>
      <trkpt lat="43.76016" lon="3.5588">
        <ele>371.7</ele>
        <time>2011-12-18T14:09:39Z</time>
      </trkpt>
      <trkpt lat="43.76017" lon="3.55884">
        <ele>370.7</ele>
        <time>2011-12-18T14:09:43Z</time>
      </trkpt>
      <trkpt lat="43.76018" lon="3.5589">
        <ele>370.2</ele>
        <time>2011-12-18T14:09:47Z</time>
      </trkpt>
      <trkpt lat="43.76018" lon="3.55896">
        <ele>369.4</ele>
        <time>2011-12-18T14:09:51Z</time>
      </trkpt>
      <trkpt lat="43.76016" lon="3.55901">
        <ele>367.4</ele>
        <time>2011-12-18T14:09:55Z</time>
      </trkpt>
      <trkpt lat="43.76014" lon="3.55906">
        <ele>367.1</ele>
        <time>2011-12-18T14:10:00Z</time>
      </trkpt>
      <trkpt lat="43.76014" lon="3.55907">
        <ele>367.2</ele>
        <time>2011-12-18T14:10:01Z</time>
      </trkpt>
      <trkpt lat="43.76014" lon="3.55918">
        <ele>365.5</ele>
        <time>2011-12-18T14:10:09Z</time>
      </trkpt>
      <trkpt lat="43.76013" lon="3.55923">
        <ele>364.2</ele>
        <time>2011-12-18T14:10:13Z</time>
      </trkpt>
      <trkpt lat="43.76012" lon="3.55928">
        <ele>364</ele>
        <time>2011-12-18T14:10:17Z</time>
      </trkpt>
      <trkpt lat="43.7601" lon="3.55934">
        <ele>362.9</ele>
        <time>2011-12-18T14:10:22Z</time>
      </trkpt>
      <trkpt lat="43.76008" lon="3.55938">
        <ele>362.1</ele>
        <time>2011-12-18T14:10:26Z</time>
      </trkpt>
      <trkpt lat="43.76006" lon="3.55943">
        <ele>362.3</ele>
        <time>2011-12-18T14:10:31Z</time>
      </trkpt>
      <trkpt lat="43.76005" lon="3.55948">
        <ele>361.6</ele>
        <time>2011-12-18T14:10:35Z</time>
      </trkpt>
      <trkpt lat="43.76002" lon="3.55952">
        <ele>360.9</ele>
        <time>2011-12-18T14:10:39Z</time>
      </trkpt>
      <trkpt lat="43.76001" lon="3.55957">
        <ele>359.6</ele>
        <time>2011-12-18T14:10:43Z</time>
      </trkpt>
      <trkpt lat="43.75999" lon="3.55963">
        <ele>359.1</ele>
        <time>2011-12-18T14:10:47Z</time>
      </trkpt>
      <trkpt lat="43.75997" lon="3.55968">
        <ele>358.3</ele>
        <time>2011-12-18T14:10:51Z</time>
      </trkpt>
      <trkpt lat="43.75996" lon="3.55974">
        <ele>358.2</ele>
        <time>2011-12-18T14:10:55Z</time>
      </trkpt>
      <trkpt lat="43.75994" lon="3.5598">
        <ele>357.7</ele>
        <time>2011-12-18T14:11:00Z</time>
      </trkpt>
      <trkpt lat="43.75993" lon="3.55985">
        <ele>356.8</ele>
        <time>2011-12-18T14:11:04Z</time>
      </trkpt>
      <trkpt lat="43.75992" lon="3.55986">
        <ele>356.8</ele>
        <time>2011-12-18T14:11:05Z</time>
      </trkpt>
      <trkpt lat="43.75989" lon="3.55996">
        <ele>354.9</ele>
        <time>2011-12-18T14:11:13Z</time>
      </trkpt>
      <trkpt lat="43.75988" lon="3.56002">
        <ele>354.5</ele>
        <time>2011-12-18T14:11:17Z</time>
      </trkpt>
      <trkpt lat="43.75988" lon="3.56007">
        <ele>353.4</ele>
        <time>2011-12-18T14:11:21Z</time>
      </trkpt>
      <trkpt lat="43.75986" lon="3.56013">
        <ele>353</ele>
        <time>2011-12-18T14:11:26Z</time>
      </trkpt>
      <trkpt lat="43.75984" lon="3.56018">
        <ele>352.9</ele>
        <time>2011-12-18T14:11:30Z</time>
      </trkpt>
      <trkpt lat="43.75981" lon="3.56022">
        <ele>351.8</ele>
        <time>2011-12-18T14:11:34Z</time>
      </trkpt>
      <trkpt lat="43.75977" lon="3.56025">
        <ele>352</ele>
        <time>2011-12-18T14:11:38Z</time>
      </trkpt>
      <trkpt lat="43.75974" lon="3.56028">
        <ele>351.2</ele>
        <time>2011-12-18T14:11:42Z</time>
      </trkpt>
      <trkpt lat="43.7597" lon="3.56031">
        <ele>350.2</ele>
        <time>2011-12-18T14:11:46Z</time>
      </trkpt>
      <trkpt lat="43.75967" lon="3.56035">
        <ele>349.7</ele>
        <time>2011-12-18T14:11:50Z</time>
      </trkpt>
      <trkpt lat="43.75964" lon="3.56039">
        <ele>349.6</ele>
        <time>2011-12-18T14:11:55Z</time>
      </trkpt>
      <trkpt lat="43.75962" lon="3.56042">
        <ele>349.2</ele>
        <time>2011-12-18T14:11:59Z</time>
      </trkpt>
      <trkpt lat="43.75959" lon="3.56047">
        <ele>349.4</ele>
        <time>2011-12-18T14:12:03Z</time>
      </trkpt>
      <trkpt lat="43.75957" lon="3.56052">
        <ele>348.9</ele>
        <time>2011-12-18T14:12:07Z</time>
      </trkpt>
      <trkpt lat="43.75957" lon="3.56053">
        <ele>348.8</ele>
        <time>2011-12-18T14:12:08Z</time>
      </trkpt>
      <trkpt lat="43.75953" lon="3.56061">
        <ele>347.8</ele>
        <time>2011-12-18T14:12:15Z</time>
      </trkpt>
      <trkpt lat="43.75952" lon="3.56066">
        <ele>347.4</ele>
        <time>2011-12-18T14:12:18Z</time>
      </trkpt>
      <trkpt lat="43.7595" lon="3.56071">
        <ele>346.3</ele>
        <time>2011-12-18T14:12:22Z</time>
      </trkpt>
      <trkpt lat="43.75948" lon="3.56076">
        <ele>346</ele>
        <time>2011-12-18T14:12:25Z</time>
      </trkpt>
      <trkpt lat="43.75946" lon="3.56081">
        <ele>345.2</ele>
        <time>2011-12-18T14:12:29Z</time>
      </trkpt>
      <trkpt lat="43.75944" lon="3.56085">
        <ele>344.7</ele>
        <time>2011-12-18T14:12:33Z</time>
      </trkpt>
      <trkpt lat="43.75942" lon="3.56089">
        <ele>344.3</ele>
        <time>2011-12-18T14:12:36Z</time>
      </trkpt>
      <trkpt lat="43.75939" lon="3.56093">
        <ele>343.9</ele>
        <time>2011-12-18T14:12:39Z</time>
      </trkpt>
      <trkpt lat="43.75937" lon="3.56097">
        <ele>343.4</ele>
        <time>2011-12-18T14:12:42Z</time>
      </trkpt>
      <trkpt lat="43.75935" lon="3.56101">
        <ele>342.2</ele>
        <time>2011-12-18T14:12:46Z</time>
      </trkpt>
      <trkpt lat="43.75932" lon="3.56106">
        <ele>341.8</ele>
        <time>2011-12-18T14:12:50Z</time>
      </trkpt>
      <trkpt lat="43.7593" lon="3.5611">
        <ele>342.2</ele>
        <time>2011-12-18T14:12:54Z</time>
      </trkpt>
      <trkpt lat="43.75928" lon="3.56115">
        <ele>341.9</ele>
        <time>2011-12-18T14:12:57Z</time>
      </trkpt>
      <trkpt lat="43.75926" lon="3.5612">
        <ele>340.9</ele>
        <time>2011-12-18T14:13:00Z</time>
      </trkpt>
      <trkpt lat="43.75923" lon="3.56125">
        <ele>340.5</ele>
        <time>2011-12-18T14:13:04Z</time>
      </trkpt>
      <trkpt lat="43.75921" lon="3.56129">
        <ele>339.9</ele>
        <time>2011-12-18T14:13:08Z</time>
      </trkpt>
      <trkpt lat="43.75921" lon="3.5613">
        <ele>339.7</ele>
        <time>2011-12-18T14:13:09Z</time>
      </trkpt>
      <trkpt lat="43.75917" lon="3.56137">
        <ele>338.7</ele>
        <time>2011-12-18T14:13:16Z</time>
      </trkpt>
      <trkpt lat="43.75915" lon="3.56142">
        <ele>338.3</ele>
        <time>2011-12-18T14:13:21Z</time>
      </trkpt>
      <trkpt lat="43.75913" lon="3.56147">
        <ele>337.8</ele>
        <time>2011-12-18T14:13:25Z</time>
      </trkpt>
      <trkpt lat="43.75911" lon="3.56152">
        <ele>337.2</ele>
        <time>2011-12-18T14:13:30Z</time>
      </trkpt>
      <trkpt lat="43.75909" lon="3.56156">
        <ele>336.2</ele>
        <time>2011-12-18T14:13:34Z</time>
      </trkpt>
      <trkpt lat="43.75907" lon="3.56161">
        <ele>336.3</ele>
        <time>2011-12-18T14:13:38Z</time>
      </trkpt>
      <trkpt lat="43.75905" lon="3.56165">
        <ele>335.4</ele>
        <time>2011-12-18T14:13:42Z</time>
      </trkpt>
      <trkpt lat="43.75904" lon="3.5617">
        <ele>334.9</ele>
        <time>2011-12-18T14:13:46Z</time>
      </trkpt>
      <trkpt lat="43.75902" lon="3.56175">
        <ele>333.9</ele>
        <time>2011-12-18T14:13:50Z</time>
      </trkpt>
      <trkpt lat="43.759" lon="3.56179">
        <ele>333.4</ele>
        <time>2011-12-18T14:13:54Z</time>
      </trkpt>
      <trkpt lat="43.75898" lon="3.56184">
        <ele>332.5</ele>
        <time>2011-12-18T14:13:59Z</time>
      </trkpt>
      <trkpt lat="43.75895" lon="3.56187">
        <ele>331.4</ele>
        <time>2011-12-18T14:14:03Z</time>
      </trkpt>
      <trkpt lat="43.75893" lon="3.56191">
        <ele>331.3</ele>
        <time>2011-12-18T14:14:08Z</time>
      </trkpt>
      <trkpt lat="43.75889" lon="3.56194">
        <ele>331.2</ele>
        <time>2011-12-18T14:14:16Z</time>
      </trkpt>
      <trkpt lat="43.75889" lon="3.56194">
        <ele>331.3</ele>
        <time>2011-12-18T14:14:17Z</time>
      </trkpt>
      <trkpt lat="43.75884" lon="3.56203">
        <ele>330.9</ele>
        <time>2011-12-18T14:14:52Z</time>
      </trkpt>
      <trkpt lat="43.7588" lon="3.56203">
        <ele>329.1</ele>
        <time>2011-12-18T14:16:35Z</time>
      </trkpt>
      <trkpt lat="43.75879" lon="3.56203">
        <ele>328.9</ele>
        <time>2011-12-18T14:16:36Z</time>
      </trkpt>
      <trkpt lat="43.75873" lon="3.56198">
        <ele>328.8</ele>
        <time>2011-12-18T14:16:46Z</time>
      </trkpt>
      <trkpt lat="43.75869" lon="3.56194">
        <ele>327.6</ele>
        <time>2011-12-18T14:16:52Z</time>
      </trkpt>
      <trkpt lat="43.75866" lon="3.5619">
        <ele>327.2</ele>
        <time>2011-12-18T14:16:58Z</time>
      </trkpt>
      <trkpt lat="43.75863" lon="3.56186">
        <ele>326.6</ele>
        <time>2011-12-18T14:17:05Z</time>
      </trkpt>
      <trkpt lat="43.7586" lon="3.56183">
        <ele>325.4</ele>
        <time>2011-12-18T14:17:11Z</time>
      </trkpt>
      <trkpt lat="43.75856" lon="3.56181">
        <ele>325.6</ele>
        <time>2011-12-18T14:17:17Z</time>
      </trkpt>
      <trkpt lat="43.75852" lon="3.56183">
        <ele>325.6</ele>
        <time>2011-12-18T14:17:24Z</time>
      </trkpt>
      <trkpt lat="43.75849" lon="3.56186">
        <ele>325.1</ele>
        <time>2011-12-18T14:17:30Z</time>
      </trkpt>
      <trkpt lat="43.75846" lon="3.5619">
        <ele>323.8</ele>
        <time>2011-12-18T14:17:35Z</time>
      </trkpt>
      <trkpt lat="43.75842" lon="3.56194">
        <ele>323</ele>
        <time>2011-12-18T14:17:41Z</time>
      </trkpt>
      <trkpt lat="43.75842" lon="3.56194">
        <ele>323</ele>
        <time>2011-12-18T14:17:42Z</time>
      </trkpt>
      <trkpt lat="43.75836" lon="3.56201">
        <ele>322.8</ele>
        <time>2011-12-18T14:17:51Z</time>
      </trkpt>
      <trkpt lat="43.75833" lon="3.56205">
        <ele>322.9</ele>
        <time>2011-12-18T14:17:54Z</time>
      </trkpt>
      <trkpt lat="43.7583" lon="3.56209">
        <ele>322.6</ele>
        <time>2011-12-18T14:17:57Z</time>
      </trkpt>
      <trkpt lat="43.75828" lon="3.56212">
        <ele>322.3</ele>
        <time>2011-12-18T14:17:59Z</time>
      </trkpt>
      <trkpt lat="43.75826" lon="3.56217">
        <ele>322</ele>
        <time>2011-12-18T14:18:02Z</time>
      </trkpt>
      <trkpt lat="43.75823" lon="3.56221">
        <ele>321.5</ele>
        <time>2011-12-18T14:18:05Z</time>
      </trkpt>
      <trkpt lat="43.75821" lon="3.56226">
        <ele>321.6</ele>
        <time>2011-12-18T14:18:08Z</time>
      </trkpt>
      <trkpt lat="43.75818" lon="3.56229">
        <ele>320.8</ele>
        <time>2011-12-18T14:18:11Z</time>
      </trkpt>
      <trkpt lat="43.75816" lon="3.56233">
        <ele>319.9</ele>
        <time>2011-12-18T14:18:14Z</time>
      </trkpt>
      <trkpt lat="43.75813" lon="3.56237">
        <ele>318.8</ele>
        <time>2011-12-18T14:18:17Z</time>
      </trkpt>
      <trkpt lat="43.7581" lon="3.5624">
        <ele>317.9</ele>
        <time>2011-12-18T14:18:20Z</time>
      </trkpt>
      <trkpt lat="43.75807" lon="3.56244">
        <ele>316.7</ele>
        <time>2011-12-18T14:18:23Z</time>
      </trkpt>
      <trkpt lat="43.75804" lon="3.56246">
        <ele>315.5</ele>
        <time>2011-12-18T14:18:26Z</time>
      </trkpt>
      <trkpt lat="43.758" lon="3.56249">
        <ele>314.4</ele>
        <time>2011-12-18T14:18:30Z</time>
      </trkpt>
      <trkpt lat="43.75797" lon="3.56252">
        <ele>313.8</ele>
        <time>2011-12-18T14:18:33Z</time>
      </trkpt>
      <trkpt lat="43.75794" lon="3.56255">
        <ele>313.2</ele>
        <time>2011-12-18T14:18:36Z</time>
      </trkpt>
      <trkpt lat="43.7579" lon="3.56257">
        <ele>312.8</ele>
        <time>2011-12-18T14:18:39Z</time>
      </trkpt>
      <trkpt lat="43.75787" lon="3.56259">
        <ele>312.8</ele>
        <time>2011-12-18T14:18:42Z</time>
      </trkpt>
      <trkpt lat="43.75785" lon="3.5626">
        <ele>312.7</ele>
        <time>2011-12-18T14:18:43Z</time>
      </trkpt>
      <trkpt lat="43.75779" lon="3.56261">
        <ele>311.6</ele>
        <time>2011-12-18T14:18:49Z</time>
      </trkpt>
      <trkpt lat="43.75775" lon="3.5626">
        <ele>311.2</ele>
        <time>2011-12-18T14:18:52Z</time>
      </trkpt>
      <trkpt lat="43.75771" lon="3.5626">
        <ele>310.5</ele>
        <time>2011-12-18T14:18:57Z</time>
      </trkpt>
      <trkpt lat="43.75767" lon="3.5626">
        <ele>310.4</ele>
        <time>2011-12-18T14:19:03Z</time>
      </trkpt>
      <trkpt lat="43.75763" lon="3.5626">
        <ele>309.1</ele>
        <time>2011-12-18T14:19:08Z</time>
      </trkpt>
      <trkpt lat="43.75759" lon="3.56259">
        <ele>308.4</ele>
        <time>2011-12-18T14:19:13Z</time>
      </trkpt>
      <trkpt lat="43.75755" lon="3.56261">
        <ele>307.6</ele>
        <time>2011-12-18T14:19:18Z</time>
      </trkpt>
      <trkpt lat="43.75752" lon="3.56264">
        <ele>306.9</ele>
        <time>2011-12-18T14:19:22Z</time>
      </trkpt>
      <trkpt lat="43.75749" lon="3.56268">
        <ele>306.9</ele>
        <time>2011-12-18T14:19:27Z</time>
      </trkpt>
      <trkpt lat="43.75747" lon="3.56272">
        <ele>307</ele>
        <time>2011-12-18T14:19:32Z</time>
      </trkpt>
      <trkpt lat="43.75743" lon="3.56275">
        <ele>305.7</ele>
        <time>2011-12-18T14:19:37Z</time>
      </trkpt>
      <trkpt lat="43.7574" lon="3.56276">
        <ele>305.2</ele>
        <time>2011-12-18T14:19:41Z</time>
      </trkpt>
      <trkpt lat="43.75736" lon="3.56278">
        <ele>304.2</ele>
        <time>2011-12-18T14:19:48Z</time>
      </trkpt>
      <trkpt lat="43.75735" lon="3.56278">
        <ele>303.9</ele>
        <time>2011-12-18T14:19:49Z</time>
      </trkpt>
      <trkpt lat="43.75729" lon="3.56271">
        <ele>301.5</ele>
        <time>2011-12-18T14:20:10Z</time>
      </trkpt>
      <trkpt lat="43.75728" lon="3.56266">
        <ele>301.2</ele>
        <time>2011-12-18T14:20:15Z</time>
      </trkpt>
      <trkpt lat="43.75728" lon="3.56259">
        <ele>300.7</ele>
        <time>2011-12-18T14:20:21Z</time>
      </trkpt>
      <trkpt lat="43.75725" lon="3.56254">
        <ele>300.4</ele>
        <time>2011-12-18T14:20:26Z</time>
      </trkpt>
      <trkpt lat="43.75723" lon="3.5625">
        <ele>300.8</ele>
        <time>2011-12-18T14:20:29Z</time>
      </trkpt>
      <trkpt lat="43.75721" lon="3.56246">
        <ele>301.2</ele>
        <time>2011-12-18T14:20:32Z</time>
      </trkpt>
      <trkpt lat="43.75718" lon="3.56243">
        <ele>301.1</ele>
        <time>2011-12-18T14:20:35Z</time>
      </trkpt>
      <trkpt lat="43.75714" lon="3.56239">
        <ele>301.1</ele>
        <time>2011-12-18T14:20:38Z</time>
      </trkpt>
      <trkpt lat="43.75711" lon="3.56236">
        <ele>300.5</ele>
        <time>2011-12-18T14:20:41Z</time>
      </trkpt>
      <trkpt lat="43.75708" lon="3.56232">
        <ele>300.1</ele>
        <time>2011-12-18T14:20:44Z</time>
      </trkpt>
      <trkpt lat="43.75704" lon="3.56229">
        <ele>300.2</ele>
        <time>2011-12-18T14:20:47Z</time>
      </trkpt>
      <trkpt lat="43.757" lon="3.56227">
        <ele>300.4</ele>
        <time>2011-12-18T14:20:51Z</time>
      </trkpt>
      <trkpt lat="43.75699" lon="3.56227">
        <ele>300.4</ele>
        <time>2011-12-18T14:20:52Z</time>
      </trkpt>
      <trkpt lat="43.75692" lon="3.56224">
        <ele>299.1</ele>
        <time>2011-12-18T14:20:59Z</time>
      </trkpt>
      <trkpt lat="43.75689" lon="3.56224">
        <ele>298.5</ele>
        <time>2011-12-18T14:21:03Z</time>
      </trkpt>
      <trkpt lat="43.75684" lon="3.56225">
        <ele>297.5</ele>
        <time>2011-12-18T14:21:08Z</time>
      </trkpt>
      <trkpt lat="43.7568" lon="3.56226">
        <ele>296.7</ele>
        <time>2011-12-18T14:21:12Z</time>
      </trkpt>
      <trkpt lat="43.75677" lon="3.56226">
        <ele>297</ele>
        <time>2011-12-18T14:21:16Z</time>
      </trkpt>
      <trkpt lat="43.75672" lon="3.56226">
        <ele>296.9</ele>
        <time>2011-12-18T14:21:21Z</time>
      </trkpt>
      <trkpt lat="43.75668" lon="3.56225">
        <ele>296.2</ele>
        <time>2011-12-18T14:21:25Z</time>
      </trkpt>
      <trkpt lat="43.75665" lon="3.56225">
        <ele>295.3</ele>
        <time>2011-12-18T14:21:29Z</time>
      </trkpt>
      <trkpt lat="43.7566" lon="3.56226">
        <ele>294.4</ele>
        <time>2011-12-18T14:21:34Z</time>
      </trkpt>
      <trkpt lat="43.75657" lon="3.56227">
        <ele>293.4</ele>
        <time>2011-12-18T14:21:38Z</time>
      </trkpt>
      <trkpt lat="43.75653" lon="3.56229">
        <ele>293</ele>
        <time>2011-12-18T14:21:42Z</time>
      </trkpt>
      <trkpt lat="43.7565" lon="3.56228">
        <ele>292.8</ele>
        <time>2011-12-18T14:21:45Z</time>
      </trkpt>
      <trkpt lat="43.75646" lon="3.56229">
        <ele>291.7</ele>
        <time>2011-12-18T14:21:49Z</time>
      </trkpt>
      <trkpt lat="43.75642" lon="3.56231">
        <ele>291.7</ele>
        <time>2011-12-18T14:21:52Z</time>
      </trkpt>
      <trkpt lat="43.75641" lon="3.56232">
        <ele>291.3</ele>
        <time>2011-12-18T14:21:53Z</time>
      </trkpt>
      <trkpt lat="43.75639" lon="3.56241">
        <ele>289.2</ele>
        <time>2011-12-18T14:22:03Z</time>
      </trkpt>
      <trkpt lat="43.7564" lon="3.56247">
        <ele>288.3</ele>
        <time>2011-12-18T14:22:10Z</time>
      </trkpt>
      <trkpt lat="43.7564" lon="3.56252">
        <ele>286</ele>
        <time>2011-12-18T14:22:20Z</time>
      </trkpt>
      <trkpt lat="43.75643" lon="3.56258">
        <ele>286.2</ele>
        <time>2011-12-18T14:22:30Z</time>
      </trkpt>
      <trkpt lat="43.75645" lon="3.56263">
        <ele>284.3</ele>
        <time>2011-12-18T14:22:37Z</time>
      </trkpt>
      <trkpt lat="43.75646" lon="3.56268">
        <ele>283.4</ele>
        <time>2011-12-18T14:22:41Z</time>
      </trkpt>
      <trkpt lat="43.75645" lon="3.56273">
        <ele>283.3</ele>
        <time>2011-12-18T14:22:44Z</time>
      </trkpt>
      <trkpt lat="43.75644" lon="3.56278">
        <ele>283.3</ele>
        <time>2011-12-18T14:22:47Z</time>
      </trkpt>
      <trkpt lat="43.75642" lon="3.56283">
        <ele>281.3</ele>
        <time>2011-12-18T14:22:52Z</time>
      </trkpt>
      <trkpt lat="43.75643" lon="3.56289">
        <ele>281.2</ele>
        <time>2011-12-18T14:23:03Z</time>
      </trkpt>
      <trkpt lat="43.75643" lon="3.5629">
        <ele>281.3</ele>
        <time>2011-12-18T14:23:04Z</time>
      </trkpt>
      <trkpt lat="43.75642" lon="3.56301">
        <ele>282.8</ele>
        <time>2011-12-18T14:23:31Z</time>
      </trkpt>
      <trkpt lat="43.7564" lon="3.56305">
        <ele>281.9</ele>
        <time>2011-12-18T14:23:40Z</time>
      </trkpt>
      <trkpt lat="43.75637" lon="3.56309">
        <ele>281.6</ele>
        <time>2011-12-18T14:23:46Z</time>
      </trkpt>
      <trkpt lat="43.75634" lon="3.56313">
        <ele>280.5</ele>
        <time>2011-12-18T14:23:52Z</time>
      </trkpt>
      <trkpt lat="43.75631" lon="3.56317">
        <ele>281.4</ele>
        <time>2011-12-18T14:23:56Z</time>
      </trkpt>
      <trkpt lat="43.75629" lon="3.56322">
        <ele>281.6</ele>
        <time>2011-12-18T14:24:00Z</time>
      </trkpt>
      <trkpt lat="43.75627" lon="3.56326">
        <ele>280.6</ele>
        <time>2011-12-18T14:24:04Z</time>
      </trkpt>
      <trkpt lat="43.75627" lon="3.56327">
        <ele>280.4</ele>
        <time>2011-12-18T14:24:05Z</time>
      </trkpt>
      <trkpt lat="43.75625" lon="3.56337">
        <ele>280.9</ele>
        <time>2011-12-18T14:24:13Z</time>
      </trkpt>
      <trkpt lat="43.75623" lon="3.56341">
        <ele>280.4</ele>
        <time>2011-12-18T14:24:17Z</time>
      </trkpt>
      <trkpt lat="43.75622" lon="3.56346">
        <ele>279.9</ele>
        <time>2011-12-18T14:24:21Z</time>
      </trkpt>
      <trkpt lat="43.7562" lon="3.5635">
        <ele>279.4</ele>
        <time>2011-12-18T14:24:25Z</time>
      </trkpt>
      <trkpt lat="43.75617" lon="3.56354">
        <ele>278.9</ele>
        <time>2011-12-18T14:24:30Z</time>
      </trkpt>
      <trkpt lat="43.75617" lon="3.5636">
        <ele>277.9</ele>
        <time>2011-12-18T14:24:38Z</time>
      </trkpt>
      <trkpt lat="43.75617" lon="3.56366">
        <ele>277.1</ele>
        <time>2011-12-18T14:24:44Z</time>
      </trkpt>
      <trkpt lat="43.75618" lon="3.56372">
        <ele>276.5</ele>
        <time>2011-12-18T14:24:49Z</time>
      </trkpt>
      <trkpt lat="43.75619" lon="3.56377">
        <ele>275.2</ele>
        <time>2011-12-18T14:24:53Z</time>
      </trkpt>
      <trkpt lat="43.75619" lon="3.56383">
        <ele>274.2</ele>
        <time>2011-12-18T14:24:59Z</time>
      </trkpt>
      <trkpt lat="43.75615" lon="3.56383">
        <ele>274</ele>
        <time>2011-12-18T14:25:06Z</time>
      </trkpt>
      <trkpt lat="43.75614" lon="3.56382">
        <ele>273.9</ele>
        <time>2011-12-18T14:25:07Z</time>
      </trkpt>
      <trkpt lat="43.75607" lon="3.56379">
        <ele>271.7</ele>
        <time>2011-12-18T14:25:24Z</time>
      </trkpt>
      <trkpt lat="43.75603" lon="3.56377">
        <ele>270.2</ele>
        <time>2011-12-18T14:25:31Z</time>
      </trkpt>
      <trkpt lat="43.756" lon="3.56373">
        <ele>269.7</ele>
        <time>2011-12-18T14:25:36Z</time>
      </trkpt>
      <trkpt lat="43.75597" lon="3.5637">
        <ele>267.8</ele>
        <time>2011-12-18T14:25:43Z</time>
      </trkpt>
      <trkpt lat="43.75593" lon="3.56366">
        <ele>265.9</ele>
        <time>2011-12-18T14:25:50Z</time>
      </trkpt>
      <trkpt lat="43.7559" lon="3.56363">
        <ele>265.5</ele>
        <time>2011-12-18T14:25:57Z</time>
      </trkpt>
      <trkpt lat="43.75586" lon="3.56365">
        <ele>264.5</ele>
        <time>2011-12-18T14:26:04Z</time>
      </trkpt>
      <trkpt lat="43.75585" lon="3.5637">
        <ele>263.4</ele>
        <time>2011-12-18T14:26:09Z</time>
      </trkpt>
      <trkpt lat="43.75584" lon="3.56371">
        <ele>263.2</ele>
        <time>2011-12-18T14:26:10Z</time>
      </trkpt>
      <trkpt lat="43.75579" lon="3.56376">
        <ele>261.2</ele>
        <time>2011-12-18T14:26:18Z</time>
      </trkpt>
      <trkpt lat="43.75576" lon="3.56373">
        <ele>260.4</ele>
        <time>2011-12-18T14:26:22Z</time>
      </trkpt>
      <trkpt lat="43.75573" lon="3.56376">
        <ele>257.8</ele>
        <time>2011-12-18T14:26:31Z</time>
      </trkpt>
      <trkpt lat="43.75574" lon="3.56381">
        <ele>256.6</ele>
        <time>2011-12-18T14:26:36Z</time>
      </trkpt>
      <trkpt lat="43.75578" lon="3.56385">
        <ele>255.7</ele>
        <time>2011-12-18T14:26:41Z</time>
      </trkpt>
      <trkpt lat="43.7558" lon="3.56389">
        <ele>255.3</ele>
        <time>2011-12-18T14:26:46Z</time>
      </trkpt>
      <trkpt lat="43.75583" lon="3.56394">
        <ele>254.7</ele>
        <time>2011-12-18T14:26:52Z</time>
      </trkpt>
      <trkpt lat="43.75586" lon="3.56398">
        <ele>253.5</ele>
        <time>2011-12-18T14:26:57Z</time>
      </trkpt>
      <trkpt lat="43.75588" lon="3.56402">
        <ele>253.3</ele>
        <time>2011-12-18T14:27:01Z</time>
      </trkpt>
      <trkpt lat="43.75591" lon="3.56407">
        <ele>252.6</ele>
        <time>2011-12-18T14:27:05Z</time>
      </trkpt>
      <trkpt lat="43.75594" lon="3.56412">
        <ele>252.4</ele>
        <time>2011-12-18T14:27:09Z</time>
      </trkpt>
      <trkpt lat="43.75596" lon="3.56417">
        <ele>252.4</ele>
        <time>2011-12-18T14:27:13Z</time>
      </trkpt>
      <trkpt lat="43.75597" lon="3.56418">
        <ele>252.4</ele>
        <time>2011-12-18T14:27:14Z</time>
      </trkpt>
      <trkpt lat="43.756" lon="3.56428">
        <ele>252.2</ele>
        <time>2011-12-18T14:27:22Z</time>
      </trkpt>
      <trkpt lat="43.75601" lon="3.56433">
        <ele>251.4</ele>
        <time>2011-12-18T14:27:26Z</time>
      </trkpt>
      <trkpt lat="43.756" lon="3.56439">
        <ele>250</ele>
        <time>2011-12-18T14:27:30Z</time>
      </trkpt>
      <trkpt lat="43.75596" lon="3.56436">
        <ele>248.9</ele>
        <time>2011-12-18T14:27:39Z</time>
      </trkpt>
      <trkpt lat="43.75593" lon="3.56431">
        <ele>247.5</ele>
        <time>2011-12-18T14:27:45Z</time>
      </trkpt>
      <trkpt lat="43.7559" lon="3.56428">
        <ele>245.5</ele>
        <time>2011-12-18T14:27:51Z</time>
      </trkpt>
      <trkpt lat="43.75586" lon="3.56425">
        <ele>245.3</ele>
        <time>2011-12-18T14:27:56Z</time>
      </trkpt>
      <trkpt lat="43.75582" lon="3.56422">
        <ele>245</ele>
        <time>2011-12-18T14:28:01Z</time>
      </trkpt>
      <trkpt lat="43.75578" lon="3.5642">
        <ele>244.1</ele>
        <time>2011-12-18T14:28:06Z</time>
      </trkpt>
      <trkpt lat="43.75574" lon="3.56418">
        <ele>243.2</ele>
        <time>2011-12-18T14:28:11Z</time>
      </trkpt>
      <trkpt lat="43.75572" lon="3.56424">
        <ele>240.4</ele>
        <time>2011-12-18T14:28:24Z</time>
      </trkpt>
      <trkpt lat="43.75573" lon="3.56425">
        <ele>240.2</ele>
        <time>2011-12-18T14:28:25Z</time>
      </trkpt>
      <trkpt lat="43.75576" lon="3.56433">
        <ele>239</ele>
        <time>2011-12-18T14:28:32Z</time>
      </trkpt>
      <trkpt lat="43.75579" lon="3.56438">
        <ele>237.9</ele>
        <time>2011-12-18T14:28:37Z</time>
      </trkpt>
      <trkpt lat="43.7558" lon="3.56444">
        <ele>237.5</ele>
        <time>2011-12-18T14:28:42Z</time>
      </trkpt>
      <trkpt lat="43.75581" lon="3.5645">
        <ele>234.5</ele>
        <time>2011-12-18T14:28:51Z</time>
      </trkpt>
      <trkpt lat="43.75577" lon="3.56449">
        <ele>231.2</ele>
        <time>2011-12-18T14:29:05Z</time>
      </trkpt>
      <trkpt lat="43.75573" lon="3.56447">
        <ele>230.2</ele>
        <time>2011-12-18T14:29:10Z</time>
      </trkpt>
      <trkpt lat="43.75569" lon="3.56449">
        <ele>229</ele>
        <time>2011-12-18T14:29:21Z</time>
      </trkpt>
      <trkpt lat="43.7557" lon="3.56455">
        <ele>227.5</ele>
        <time>2011-12-18T14:29:29Z</time>
      </trkpt>
      <trkpt lat="43.7557" lon="3.56456">
        <ele>227.1</ele>
        <time>2011-12-18T14:29:30Z</time>
      </trkpt>
      <trkpt lat="43.75569" lon="3.56466">
        <ele>224.1</ele>
        <time>2011-12-18T14:29:43Z</time>
      </trkpt>
      <trkpt lat="43.75568" lon="3.56471">
        <ele>223</ele>
        <time>2011-12-18T14:29:48Z</time>
      </trkpt>
      <trkpt lat="43.75568" lon="3.56476">
        <ele>221.4</ele>
        <time>2011-12-18T14:29:52Z</time>
      </trkpt>
      <trkpt lat="43.75566" lon="3.56482">
        <ele>220.2</ele>
        <time>2011-12-18T14:29:57Z</time>
      </trkpt>
      <trkpt lat="43.75565" lon="3.56488">
        <ele>220.1</ele>
        <time>2011-12-18T14:30:02Z</time>
      </trkpt>
      <trkpt lat="43.75562" lon="3.56483">
        <ele>217.6</ele>
        <time>2011-12-18T14:30:17Z</time>
      </trkpt>
      <trkpt lat="43.7556" lon="3.56477">
        <ele>216.3</ele>
        <time>2011-12-18T14:30:26Z</time>
      </trkpt>
      <trkpt lat="43.75558" lon="3.56472">
        <ele>214.6</ele>
        <time>2011-12-18T14:30:32Z</time>
      </trkpt>
      <trkpt lat="43.75557" lon="3.56472">
        <ele>214.5</ele>
        <time>2011-12-18T14:30:33Z</time>
      </trkpt>
      <trkpt lat="43.7555" lon="3.56469">
        <ele>212.3</ele>
        <time>2011-12-18T14:30:44Z</time>
      </trkpt>
      <trkpt lat="43.75549" lon="3.56474">
        <ele>210</ele>
        <time>2011-12-18T14:30:59Z</time>
      </trkpt>
      <trkpt lat="43.75545" lon="3.56471">
        <ele>208</ele>
        <time>2011-12-18T14:31:10Z</time>
      </trkpt>
      <trkpt lat="43.75544" lon="3.56477">
        <ele>206.2</ele>
        <time>2011-12-18T14:31:20Z</time>
      </trkpt>
      <trkpt lat="43.75543" lon="3.56483">
        <ele>204.8</ele>
        <time>2011-12-18T14:31:26Z</time>
      </trkpt>
      <trkpt lat="43.75543" lon="3.56488">
        <ele>203.7</ele>
        <time>2011-12-18T14:31:30Z</time>
      </trkpt>
      <trkpt lat="43.75542" lon="3.56494">
        <ele>203.2</ele>
        <time>2011-12-18T14:31:34Z</time>
      </trkpt>
      <trkpt lat="43.75542" lon="3.56495">
        <ele>203.1</ele>
        <time>2011-12-18T14:31:35Z</time>
      </trkpt>
      <trkpt lat="43.75542" lon="3.56505">
        <ele>203</ele>
        <time>2011-12-18T14:31:43Z</time>
      </trkpt>
      <trkpt lat="43.75542" lon="3.56511">
        <ele>202.1</ele>
        <time>2011-12-18T14:31:49Z</time>
      </trkpt>
      <trkpt lat="43.75541" lon="3.56516">
        <ele>201.2</ele>
        <time>2011-12-18T14:31:54Z</time>
      </trkpt>
      <trkpt lat="43.75541" lon="3.56522">
        <ele>199.8</ele>
        <time>2011-12-18T14:32:01Z</time>
      </trkpt>
      <trkpt lat="43.75537" lon="3.56522">
        <ele>197.7</ele>
        <time>2011-12-18T14:32:20Z</time>
      </trkpt>
      <trkpt lat="43.75533" lon="3.56519">
        <ele>195.6</ele>
        <time>2011-12-18T14:32:29Z</time>
      </trkpt>
      <trkpt lat="43.7553" lon="3.56515">
        <ele>194.1</ele>
        <time>2011-12-18T14:32:37Z</time>
      </trkpt>
      <trkpt lat="43.75529" lon="3.56515">
        <ele>193.6</ele>
        <time>2011-12-18T14:32:38Z</time>
      </trkpt>
      <trkpt lat="43.75523" lon="3.56508">
        <ele>191.7</ele>
        <time>2011-12-18T14:32:47Z</time>
      </trkpt>
      <trkpt lat="43.7552" lon="3.56504">
        <ele>190.2</ele>
        <time>2011-12-18T14:32:51Z</time>
      </trkpt>
      <trkpt lat="43.75517" lon="3.565">
        <ele>189.5</ele>
        <time>2011-12-18T14:32:55Z</time>
      </trkpt>
      <trkpt lat="43.75515" lon="3.56496">
        <ele>189.1</ele>
        <time>2011-12-18T14:33:00Z</time>
      </trkpt>
      <trkpt lat="43.75512" lon="3.56493">
        <ele>188.5</ele>
        <time>2011-12-18T14:33:03Z</time>
      </trkpt>
      <trkpt lat="43.75509" lon="3.56489">
        <ele>187.2</ele>
        <time>2011-12-18T14:33:06Z</time>
      </trkpt>
      <trkpt lat="43.75506" lon="3.56485">
        <ele>187.4</ele>
        <time>2011-12-18T14:33:09Z</time>
      </trkpt>
      <trkpt lat="43.75502" lon="3.56482">
        <ele>187</ele>
        <time>2011-12-18T14:33:13Z</time>
      </trkpt>
      <trkpt lat="43.75499" lon="3.56477">
        <ele>185.7</ele>
        <time>2011-12-18T14:33:17Z</time>
      </trkpt>
      <trkpt lat="43.75496" lon="3.56473">
        <ele>185.2</ele>
        <time>2011-12-18T14:33:20Z</time>
      </trkpt>
      <trkpt lat="43.75493" lon="3.56469">
        <ele>185.3</ele>
        <time>2011-12-18T14:33:24Z</time>
      </trkpt>
      <trkpt lat="43.75491" lon="3.56467">
        <ele>185.6</ele>
        <time>2011-12-18T14:33:27Z</time>
      </trkpt>
      <trkpt lat="43.75487" lon="3.56464">
        <ele>185.6</ele>
        <time>2011-12-18T14:33:30Z</time>
      </trkpt>
      <trkpt lat="43.75484" lon="3.56461">
        <ele>185.3</ele>
        <time>2011-12-18T14:33:33Z</time>
      </trkpt>
      <trkpt lat="43.75481" lon="3.56458">
        <ele>184.8</ele>
        <time>2011-12-18T14:33:36Z</time>
      </trkpt>
      <trkpt lat="43.75478" lon="3.56455">
        <ele>184.5</ele>
        <time>2011-12-18T14:33:39Z</time>
      </trkpt>
      <trkpt lat="43.75477" lon="3.56454">
        <ele>184.5</ele>
        <time>2011-12-18T14:33:40Z</time>
      </trkpt>
      <trkpt lat="43.75471" lon="3.5645">
        <ele>183.4</ele>
        <time>2011-12-18T14:33:46Z</time>
      </trkpt>
      <trkpt lat="43.75468" lon="3.56447">
        <ele>183.7</ele>
        <time>2011-12-18T14:33:50Z</time>
      </trkpt>
      <trkpt lat="43.75465" lon="3.56444">
        <ele>182.4</ele>
        <time>2011-12-18T14:33:56Z</time>
      </trkpt>
      <trkpt lat="43.75463" lon="3.56438">
        <ele>181.7</ele>
        <time>2011-12-18T14:34:02Z</time>
      </trkpt>
      <trkpt lat="43.75461" lon="3.56434">
        <ele>181.6</ele>
        <time>2011-12-18T14:34:06Z</time>
      </trkpt>
      <trkpt lat="43.75459" lon="3.5643">
        <ele>181.4</ele>
        <time>2011-12-18T14:34:09Z</time>
      </trkpt>
      <trkpt lat="43.75457" lon="3.56426">
        <ele>180.4</ele>
        <time>2011-12-18T14:34:13Z</time>
      </trkpt>
      <trkpt lat="43.75454" lon="3.56423">
        <ele>179.6</ele>
        <time>2011-12-18T14:34:16Z</time>
      </trkpt>
      <trkpt lat="43.75452" lon="3.5642">
        <ele>179.7</ele>
        <time>2011-12-18T14:34:18Z</time>
      </trkpt>
      <trkpt lat="43.75449" lon="3.56416">
        <ele>179.6</ele>
        <time>2011-12-18T14:34:20Z</time>
      </trkpt>
      <trkpt lat="43.75447" lon="3.56411">
        <ele>179.2</ele>
        <time>2011-12-18T14:34:24Z</time>
      </trkpt>
      <trkpt lat="43.75445" lon="3.56408">
        <ele>179</ele>
        <time>2011-12-18T14:34:26Z</time>
      </trkpt>
      <trkpt lat="43.75443" lon="3.56405">
        <ele>179.4</ele>
        <time>2011-12-18T14:34:28Z</time>
      </trkpt>
      <trkpt lat="43.7544" lon="3.56401">
        <ele>179.5</ele>
        <time>2011-12-18T14:34:31Z</time>
      </trkpt>
      <trkpt lat="43.75436" lon="3.56398">
        <ele>179</ele>
        <time>2011-12-18T14:34:34Z</time>
      </trkpt>
      <trkpt lat="43.75434" lon="3.56394">
        <ele>179.3</ele>
        <time>2011-12-18T14:34:37Z</time>
      </trkpt>
      <trkpt lat="43.75431" lon="3.56391">
        <ele>180.2</ele>
        <time>2011-12-18T14:34:41Z</time>
      </trkpt>
      <trkpt lat="43.7543" lon="3.5639">
        <ele>180.3</ele>
        <time>2011-12-18T14:34:42Z</time>
      </trkpt>
      <trkpt lat="43.75425" lon="3.56384">
        <ele>180.6</ele>
        <time>2011-12-18T14:34:47Z</time>
      </trkpt>
      <trkpt lat="43.75422" lon="3.56382">
        <ele>180.8</ele>
        <time>2011-12-18T14:34:50Z</time>
      </trkpt>
      <trkpt lat="43.75418" lon="3.5638">
        <ele>181.5</ele>
        <time>2011-12-18T14:34:53Z</time>
      </trkpt>
      <trkpt lat="43.75414" lon="3.56377">
        <ele>181.6</ele>
        <time>2011-12-18T14:34:57Z</time>
      </trkpt>
      <trkpt lat="43.75411" lon="3.56373">
        <ele>180.7</ele>
        <time>2011-12-18T14:35:00Z</time>
      </trkpt>
      <trkpt lat="43.75408" lon="3.56369">
        <ele>180.2</ele>
        <time>2011-12-18T14:35:03Z</time>
      </trkpt>
      <trkpt lat="43.75405" lon="3.56366">
        <ele>179.2</ele>
        <time>2011-12-18T14:35:06Z</time>
      </trkpt>
      <trkpt lat="43.75401" lon="3.56365">
        <ele>178.4</ele>
        <time>2011-12-18T14:35:09Z</time>
      </trkpt>
      <trkpt lat="43.75398" lon="3.56363">
        <ele>177.6</ele>
        <time>2011-12-18T14:35:12Z</time>
      </trkpt>
      <trkpt lat="43.75394" lon="3.56361">
        <ele>176.2</ele>
        <time>2011-12-18T14:35:16Z</time>
      </trkpt>
      <trkpt lat="43.75389" lon="3.56361">
        <ele>176.1</ele>
        <time>2011-12-18T14:35:20Z</time>
      </trkpt>
      <trkpt lat="43.75386" lon="3.56361">
        <ele>176.6</ele>
        <time>2011-12-18T14:35:23Z</time>
      </trkpt>
      <trkpt lat="43.75382" lon="3.56361">
        <ele>175.9</ele>
        <time>2011-12-18T14:35:26Z</time>
      </trkpt>
      <trkpt lat="43.75379" lon="3.56359">
        <ele>176.7</ele>
        <time>2011-12-18T14:35:29Z</time>
      </trkpt>
      <trkpt lat="43.75376" lon="3.56358">
        <ele>176.8</ele>
        <time>2011-12-18T14:35:32Z</time>
      </trkpt>
      <trkpt lat="43.75373" lon="3.56356">
        <ele>176.5</ele>
        <time>2011-12-18T14:35:34Z</time>
      </trkpt>
      <trkpt lat="43.7537" lon="3.56353">
        <ele>175.2</ele>
        <time>2011-12-18T14:35:38Z</time>
      </trkpt>
      <trkpt lat="43.75366" lon="3.5635">
        <ele>174.3</ele>
        <time>2011-12-18T14:35:43Z</time>
      </trkpt>
      <trkpt lat="43.75365" lon="3.56349">
        <ele>174.3</ele>
        <time>2011-12-18T14:35:44Z</time>
      </trkpt>
      <trkpt lat="43.75361" lon="3.56342">
        <ele>173.9</ele>
        <time>2011-12-18T14:35:50Z</time>
      </trkpt>
      <trkpt lat="43.7536" lon="3.56337">
        <ele>174</ele>
        <time>2011-12-18T14:35:53Z</time>
      </trkpt>
      <trkpt lat="43.75358" lon="3.56333">
        <ele>174</ele>
        <time>2011-12-18T14:35:56Z</time>
      </trkpt>
      <trkpt lat="43.75355" lon="3.56328">
        <ele>175.1</ele>
        <time>2011-12-18T14:36:00Z</time>
      </trkpt>
      <trkpt lat="43.75353" lon="3.56324">
        <ele>174.9</ele>
        <time>2011-12-18T14:36:04Z</time>
      </trkpt>
      <trkpt lat="43.75351" lon="3.56318">
        <ele>176.2</ele>
        <time>2011-12-18T14:36:09Z</time>
      </trkpt>
      <trkpt lat="43.7535" lon="3.56313">
        <ele>176</ele>
        <time>2011-12-18T14:36:14Z</time>
      </trkpt>
      <trkpt lat="43.7535" lon="3.56308">
        <ele>175.9</ele>
        <time>2011-12-18T14:36:19Z</time>
      </trkpt>
      <trkpt lat="43.75348" lon="3.56303">
        <ele>175.1</ele>
        <time>2011-12-18T14:36:23Z</time>
      </trkpt>
      <trkpt lat="43.75346" lon="3.563">
        <ele>174.7</ele>
        <time>2011-12-18T14:36:26Z</time>
      </trkpt>
      <trkpt lat="43.75343" lon="3.56296">
        <ele>174.2</ele>
        <time>2011-12-18T14:36:29Z</time>
      </trkpt>
      <trkpt lat="43.75339" lon="3.56294">
        <ele>173.5</ele>
        <time>2011-12-18T14:36:32Z</time>
      </trkpt>
      <trkpt lat="43.75336" lon="3.56291">
        <ele>173.1</ele>
        <time>2011-12-18T14:36:35Z</time>
      </trkpt>
      <trkpt lat="43.75332" lon="3.56291">
        <ele>172.3</ele>
        <time>2011-12-18T14:36:39Z</time>
      </trkpt>
      <trkpt lat="43.75329" lon="3.5629">
        <ele>171.8</ele>
        <time>2011-12-18T14:36:44Z</time>
      </trkpt>
      <trkpt lat="43.75328" lon="3.5629">
        <ele>171.8</ele>
        <time>2011-12-18T14:36:45Z</time>
      </trkpt>
      <trkpt lat="43.75321" lon="3.56289">
        <ele>170.3</ele>
        <time>2011-12-18T14:36:54Z</time>
      </trkpt>
      <trkpt lat="43.75317" lon="3.56288">
        <ele>169.9</ele>
        <time>2011-12-18T14:36:58Z</time>
      </trkpt>
      <trkpt lat="43.75312" lon="3.56286">
        <ele>169.3</ele>
        <time>2011-12-18T14:37:02Z</time>
      </trkpt>
      <trkpt lat="43.75308" lon="3.56287">
        <ele>168.1</ele>
        <time>2011-12-18T14:37:10Z</time>
      </trkpt>
      <trkpt lat="43.75303" lon="3.56288">
        <ele>167.2</ele>
        <time>2011-12-18T14:37:17Z</time>
      </trkpt>
      <trkpt lat="43.75299" lon="3.56288">
        <ele>165.5</ele>
        <time>2011-12-18T14:37:23Z</time>
      </trkpt>
      <trkpt lat="43.75295" lon="3.56287">
        <ele>163.6</ele>
        <time>2011-12-18T14:37:29Z</time>
      </trkpt>
      <trkpt lat="43.75291" lon="3.56287">
        <ele>162.7</ele>
        <time>2011-12-18T14:37:34Z</time>
      </trkpt>
      <trkpt lat="43.75286" lon="3.56287">
        <ele>160.7</ele>
        <time>2011-12-18T14:37:40Z</time>
      </trkpt>
      <trkpt lat="43.75282" lon="3.56286">
        <ele>158.2</ele>
        <time>2011-12-18T14:37:45Z</time>
      </trkpt>
      <trkpt lat="43.75281" lon="3.56285">
        <ele>158</ele>
        <time>2011-12-18T14:37:46Z</time>
      </trkpt>
      <trkpt lat="43.75274" lon="3.56284">
        <ele>156.1</ele>
        <time>2011-12-18T14:37:57Z</time>
      </trkpt>
      <trkpt lat="43.75271" lon="3.56279">
        <ele>154.8</ele>
        <time>2011-12-18T14:38:03Z</time>
      </trkpt>
      <trkpt lat="43.75268" lon="3.56275">
        <ele>153.3</ele>
        <time>2011-12-18T14:38:09Z</time>
      </trkpt>
      <trkpt lat="43.75268" lon="3.56275">
        <ele>153.3</ele>
        <time>2011-12-18T14:38:10Z</time>
      </trkpt>
      <trkpt lat="43.75244" lon="3.56254">
        <ele>152</ele>
        <time>2011-12-18T14:38:40Z</time>
      </trkpt>
      <trkpt lat="43.75241" lon="3.5625">
        <ele>150.6</ele>
        <time>2011-12-18T14:38:45Z</time>
      </trkpt>
      <trkpt lat="43.75237" lon="3.56248">
        <ele>149.9</ele>
        <time>2011-12-18T14:38:49Z</time>
      </trkpt>
      <trkpt lat="43.75236" lon="3.56247">
        <ele>149.7</ele>
        <time>2011-12-18T14:38:50Z</time>
      </trkpt>
      <trkpt lat="43.7523" lon="3.56242">
        <ele>147.5</ele>
        <time>2011-12-18T14:38:58Z</time>
      </trkpt>
      <trkpt lat="43.75226" lon="3.56239">
        <ele>146.8</ele>
        <time>2011-12-18T14:39:02Z</time>
      </trkpt>
      <trkpt lat="43.75225" lon="3.56239">
        <ele>146.6</ele>
        <time>2011-12-18T14:39:03Z</time>
      </trkpt>
      <trkpt lat="43.75218" lon="3.56227">
        <ele>145.6</ele>
        <time>2011-12-18T14:39:17Z</time>
      </trkpt>
      <trkpt lat="43.75215" lon="3.56223">
        <ele>143.4</ele>
        <time>2011-12-18T14:39:21Z</time>
      </trkpt>
      <trkpt lat="43.75212" lon="3.5622">
        <ele>142.6</ele>
        <time>2011-12-18T14:39:25Z</time>
      </trkpt>
      <trkpt lat="43.75209" lon="3.56216">
        <ele>143.3</ele>
        <time>2011-12-18T14:39:29Z</time>
      </trkpt>
      <trkpt lat="43.75206" lon="3.56212">
        <ele>141.3</ele>
        <time>2011-12-18T14:39:33Z</time>
      </trkpt>
      <trkpt lat="43.75204" lon="3.56209">
        <ele>140.8</ele>
        <time>2011-12-18T14:39:36Z</time>
      </trkpt>
      <trkpt lat="43.75201" lon="3.56206">
        <ele>140.1</ele>
        <time>2011-12-18T14:39:40Z</time>
      </trkpt>
      <trkpt lat="43.75198" lon="3.56203">
        <ele>138.9</ele>
        <time>2011-12-18T14:39:44Z</time>
      </trkpt>
      <trkpt lat="43.75195" lon="3.56201">
        <ele>138.2</ele>
        <time>2011-12-18T14:39:47Z</time>
      </trkpt>
      <trkpt lat="43.75191" lon="3.56197">
        <ele>137.1</ele>
        <time>2011-12-18T14:39:51Z</time>
      </trkpt>
      <trkpt lat="43.7519" lon="3.56197">
        <ele>136.6</ele>
        <time>2011-12-18T14:39:52Z</time>
      </trkpt>
      <trkpt lat="43.75184" lon="3.56191">
        <ele>134.5</ele>
        <time>2011-12-18T14:40:00Z</time>
      </trkpt>
      <trkpt lat="43.75181" lon="3.56189">
        <ele>133.4</ele>
        <time>2011-12-18T14:40:04Z</time>
      </trkpt>
      <trkpt lat="43.75178" lon="3.56185">
        <ele>131.8</ele>
        <time>2011-12-18T14:40:09Z</time>
      </trkpt>
      <trkpt lat="43.75175" lon="3.56181">
        <ele>132.2</ele>
        <time>2011-12-18T14:40:13Z</time>
      </trkpt>
      <trkpt lat="43.75172" lon="3.56178">
        <ele>132.2</ele>
        <time>2011-12-18T14:40:16Z</time>
      </trkpt>
      <trkpt lat="43.75169" lon="3.56175">
        <ele>132.3</ele>
        <time>2011-12-18T14:40:19Z</time>
      </trkpt>
      <trkpt lat="43.75167" lon="3.56172">
        <ele>131.6</ele>
        <time>2011-12-18T14:40:22Z</time>
      </trkpt>
      <trkpt lat="43.75164" lon="3.56169">
        <ele>130.2</ele>
        <time>2011-12-18T14:40:25Z</time>
      </trkpt>
      <trkpt lat="43.7516" lon="3.56166">
        <ele>129.6</ele>
        <time>2011-12-18T14:40:28Z</time>
      </trkpt>
      <trkpt lat="43.75157" lon="3.56164">
        <ele>129.6</ele>
        <time>2011-12-18T14:40:31Z</time>
      </trkpt>
      <trkpt lat="43.75154" lon="3.56161">
        <ele>129.4</ele>
        <time>2011-12-18T14:40:34Z</time>
      </trkpt>
      <trkpt lat="43.7515" lon="3.56158">
        <ele>128.9</ele>
        <time>2011-12-18T14:40:37Z</time>
      </trkpt>
      <trkpt lat="43.75147" lon="3.56158">
        <ele>128.9</ele>
        <time>2011-12-18T14:40:40Z</time>
      </trkpt>
      <trkpt lat="43.75143" lon="3.56157">
        <ele>129</ele>
        <time>2011-12-18T14:40:43Z</time>
      </trkpt>
      <trkpt lat="43.75139" lon="3.56156">
        <ele>128.9</ele>
        <time>2011-12-18T14:40:47Z</time>
      </trkpt>
      <trkpt lat="43.75135" lon="3.56155">
        <ele>128.7</ele>
        <time>2011-12-18T14:40:50Z</time>
      </trkpt>
      <trkpt lat="43.75132" lon="3.56155">
        <ele>128.6</ele>
        <time>2011-12-18T14:40:53Z</time>
      </trkpt>
      <trkpt lat="43.75131" lon="3.56155">
        <ele>128.6</ele>
        <time>2011-12-18T14:40:54Z</time>
      </trkpt>
      <trkpt lat="43.75124" lon="3.56152">
        <ele>127.9</ele>
        <time>2011-12-18T14:40:59Z</time>
      </trkpt>
      <trkpt lat="43.75121" lon="3.5615">
        <ele>127.5</ele>
        <time>2011-12-18T14:41:02Z</time>
      </trkpt>
      <trkpt lat="43.75118" lon="3.56149">
        <ele>127</ele>
        <time>2011-12-18T14:41:05Z</time>
      </trkpt>
      <trkpt lat="43.75114" lon="3.56147">
        <ele>126.7</ele>
        <time>2011-12-18T14:41:09Z</time>
      </trkpt>
      <trkpt lat="43.7511" lon="3.56145">
        <ele>126</ele>
        <time>2011-12-18T14:41:13Z</time>
      </trkpt>
      <trkpt lat="43.75106" lon="3.56143">
        <ele>125</ele>
        <time>2011-12-18T14:41:17Z</time>
      </trkpt>
      <trkpt lat="43.75102" lon="3.56141">
        <ele>124.7</ele>
        <time>2011-12-18T14:41:21Z</time>
      </trkpt>
      <trkpt lat="43.75099" lon="3.5614">
        <ele>123.3</ele>
        <time>2011-12-18T14:41:24Z</time>
      </trkpt>
      <trkpt lat="43.75095" lon="3.56138">
        <ele>122.9</ele>
        <time>2011-12-18T14:41:27Z</time>
      </trkpt>
      <trkpt lat="43.75092" lon="3.56136">
        <ele>121.9</ele>
        <time>2011-12-18T14:41:30Z</time>
      </trkpt>
      <trkpt lat="43.75088" lon="3.56134">
        <ele>121.3</ele>
        <time>2011-12-18T14:41:34Z</time>
      </trkpt>
      <trkpt lat="43.75084" lon="3.56132">
        <ele>120.8</ele>
        <time>2011-12-18T14:41:38Z</time>
      </trkpt>
      <trkpt lat="43.7508" lon="3.5613">
        <ele>120</ele>
        <time>2011-12-18T14:41:42Z</time>
      </trkpt>
      <trkpt lat="43.75076" lon="3.5613">
        <ele>119.4</ele>
        <time>2011-12-18T14:41:46Z</time>
      </trkpt>
      <trkpt lat="43.75073" lon="3.56132">
        <ele>118.2</ele>
        <time>2011-12-18T14:41:50Z</time>
      </trkpt>
      <trkpt lat="43.75069" lon="3.56135">
        <ele>117.1</ele>
        <time>2011-12-18T14:41:55Z</time>
      </trkpt>
      <trkpt lat="43.75068" lon="3.56136">
        <ele>116.8</ele>
        <time>2011-12-18T14:41:56Z</time>
      </trkpt>
      <trkpt lat="43.75064" lon="3.56142">
        <ele>115.9</ele>
        <time>2011-12-18T14:42:04Z</time>
      </trkpt>
      <trkpt lat="43.75059" lon="3.56142">
        <ele>114.8</ele>
        <time>2011-12-18T14:42:15Z</time>
      </trkpt>
      <trkpt lat="43.75058" lon="3.56137">
        <ele>112.4</ele>
        <time>2011-12-18T14:42:26Z</time>
      </trkpt>
      <trkpt lat="43.75059" lon="3.56132">
        <ele>111</ele>
        <time>2011-12-18T14:42:34Z</time>
      </trkpt>
      <trkpt lat="43.75059" lon="3.56126">
        <ele>110.2</ele>
        <time>2011-12-18T14:42:40Z</time>
      </trkpt>
      <trkpt lat="43.7506" lon="3.56121">
        <ele>108.4</ele>
        <time>2011-12-18T14:42:46Z</time>
      </trkpt>
      <trkpt lat="43.75059" lon="3.56115">
        <ele>106.2</ele>
        <time>2011-12-18T14:42:53Z</time>
      </trkpt>
      <trkpt lat="43.75055" lon="3.56114">
        <ele>106.5</ele>
        <time>2011-12-18T14:42:58Z</time>
      </trkpt>
      <trkpt lat="43.75054" lon="3.56114">
        <ele>106.6</ele>
        <time>2011-12-18T14:42:59Z</time>
      </trkpt>
      <trkpt lat="43.75049" lon="3.5611">
        <ele>103.9</ele>
        <time>2011-12-18T14:43:13Z</time>
      </trkpt>
      <trkpt lat="43.7505" lon="3.56105">
        <ele>102.9</ele>
        <time>2011-12-18T14:43:20Z</time>
      </trkpt>
      <trkpt lat="43.7505" lon="3.56099">
        <ele>101.6</ele>
        <time>2011-12-18T14:43:28Z</time>
      </trkpt>
      <trkpt lat="43.75046" lon="3.56099">
        <ele>99.3</ele>
        <time>2011-12-18T14:43:36Z</time>
      </trkpt>
      <trkpt lat="43.75042" lon="3.56101">
        <ele>98.2</ele>
        <time>2011-12-18T14:43:43Z</time>
      </trkpt>
      <trkpt lat="43.75038" lon="3.56102">
        <ele>96.4</ele>
        <time>2011-12-18T14:43:49Z</time>
      </trkpt>
      <trkpt lat="43.75035" lon="3.56106">
        <ele>95.2</ele>
        <time>2011-12-18T14:43:56Z</time>
      </trkpt>
      <trkpt lat="43.75032" lon="3.5611">
        <ele>93.5</ele>
        <time>2011-12-18T14:44:01Z</time>
      </trkpt>
      <trkpt lat="43.75032" lon="3.56111">
        <ele>93.3</ele>
        <time>2011-12-18T14:44:02Z</time>
      </trkpt>
      <trkpt lat="43.75027" lon="3.56119">
        <ele>92.1</ele>
        <time>2011-12-18T14:44:11Z</time>
      </trkpt>
      <trkpt lat="43.75024" lon="3.56123">
        <ele>91.6</ele>
        <time>2011-12-18T14:44:16Z</time>
      </trkpt>
      <trkpt lat="43.75023" lon="3.56128">
        <ele>91.2</ele>
        <time>2011-12-18T14:44:20Z</time>
      </trkpt>
      <trkpt lat="43.75022" lon="3.56133">
        <ele>90.7</ele>
        <time>2011-12-18T14:44:24Z</time>
      </trkpt>
      <trkpt lat="43.75022" lon="3.56138">
        <ele>90.2</ele>
        <time>2011-12-18T14:44:28Z</time>
      </trkpt>
      <trkpt lat="43.75022" lon="3.56144">
        <ele>90.4</ele>
        <time>2011-12-18T14:44:32Z</time>
      </trkpt>
      <trkpt lat="43.75022" lon="3.5615">
        <ele>89.5</ele>
        <time>2011-12-18T14:44:37Z</time>
      </trkpt>
      <trkpt lat="43.75021" lon="3.56156">
        <ele>89.8</ele>
        <time>2011-12-18T14:44:42Z</time>
      </trkpt>
      <trkpt lat="43.7502" lon="3.56161">
        <ele>89</ele>
        <time>2011-12-18T14:44:46Z</time>
      </trkpt>
      <trkpt lat="43.75017" lon="3.56166">
        <ele>88.6</ele>
        <time>2011-12-18T14:44:51Z</time>
      </trkpt>
      <trkpt lat="43.75015" lon="3.56171">
        <ele>87.5</ele>
        <time>2011-12-18T14:44:57Z</time>
      </trkpt>
      <trkpt lat="43.75012" lon="3.56176">
        <ele>86.9</ele>
        <time>2011-12-18T14:45:02Z</time>
      </trkpt>
      <trkpt lat="43.75009" lon="3.5618">
        <ele>86.7</ele>
        <time>2011-12-18T14:45:07Z</time>
      </trkpt>
      <trkpt lat="43.75009" lon="3.56181">
        <ele>86.5</ele>
        <time>2011-12-18T14:45:08Z</time>
      </trkpt>
      <trkpt lat="43.75003" lon="3.56187">
        <ele>86</ele>
        <time>2011-12-18T14:45:17Z</time>
      </trkpt>
      <trkpt lat="43.75" lon="3.56189">
        <ele>84.7</ele>
        <time>2011-12-18T14:45:22Z</time>
      </trkpt>
      <trkpt lat="43.74996" lon="3.56191">
        <ele>84.9</ele>
        <time>2011-12-18T14:45:26Z</time>
      </trkpt>
      <trkpt lat="43.74993" lon="3.56193">
        <ele>84.7</ele>
        <time>2011-12-18T14:45:29Z</time>
      </trkpt>
      <trkpt lat="43.7499" lon="3.56196">
        <ele>85</ele>
        <time>2011-12-18T14:45:32Z</time>
      </trkpt>
      <trkpt lat="43.74986" lon="3.56197">
        <ele>85.2</ele>
        <time>2011-12-18T14:45:35Z</time>
      </trkpt>
      <trkpt lat="43.74983" lon="3.56199">
        <ele>85.8</ele>
        <time>2011-12-18T14:45:38Z</time>
      </trkpt>
      <trkpt lat="43.74979" lon="3.562">
        <ele>85.8</ele>
        <time>2011-12-18T14:45:41Z</time>
      </trkpt>
      <trkpt lat="43.74975" lon="3.56201">
        <ele>85.9</ele>
        <time>2011-12-18T14:45:44Z</time>
      </trkpt>
      <trkpt lat="43.74972" lon="3.56201">
        <ele>85.7</ele>
        <time>2011-12-18T14:45:47Z</time>
      </trkpt>
      <trkpt lat="43.74967" lon="3.56201">
        <ele>85</ele>
        <time>2011-12-18T14:45:51Z</time>
      </trkpt>
      <trkpt lat="43.74963" lon="3.562">
        <ele>84.7</ele>
        <time>2011-12-18T14:45:55Z</time>
      </trkpt>
      <trkpt lat="43.74959" lon="3.56198">
        <ele>83.2</ele>
        <time>2011-12-18T14:45:59Z</time>
      </trkpt>
      <trkpt lat="43.74955" lon="3.56197">
        <ele>82.7</ele>
        <time>2011-12-18T14:46:03Z</time>
      </trkpt>
      <trkpt lat="43.74951" lon="3.56195">
        <ele>82.7</ele>
        <time>2011-12-18T14:46:07Z</time>
      </trkpt>
      <trkpt lat="43.74947" lon="3.56193">
        <ele>82.5</ele>
        <time>2011-12-18T14:46:11Z</time>
      </trkpt>
      <trkpt lat="43.74946" lon="3.56193">
        <ele>82.6</ele>
        <time>2011-12-18T14:46:12Z</time>
      </trkpt>
      <trkpt lat="43.74939" lon="3.5619">
        <ele>82</ele>
        <time>2011-12-18T14:46:19Z</time>
      </trkpt>
      <trkpt lat="43.74936" lon="3.56189">
        <ele>81.9</ele>
        <time>2011-12-18T14:46:22Z</time>
      </trkpt>
      <trkpt lat="43.74932" lon="3.56188">
        <ele>82</ele>
        <time>2011-12-18T14:46:25Z</time>
      </trkpt>
      <trkpt lat="43.74929" lon="3.56186">
        <ele>81.9</ele>
        <time>2011-12-18T14:46:28Z</time>
      </trkpt>
      <trkpt lat="43.74925" lon="3.56185">
        <ele>81.7</ele>
        <time>2011-12-18T14:46:31Z</time>
      </trkpt>
      <trkpt lat="43.74922" lon="3.56184">
        <ele>81.3</ele>
        <time>2011-12-18T14:46:34Z</time>
      </trkpt>
      <trkpt lat="43.74918" lon="3.56183">
        <ele>80.8</ele>
        <time>2011-12-18T14:46:37Z</time>
      </trkpt>
      <trkpt lat="43.74915" lon="3.5618">
        <ele>80.6</ele>
        <time>2011-12-18T14:46:40Z</time>
      </trkpt>
      <trkpt lat="43.74911" lon="3.56178">
        <ele>79.6</ele>
        <time>2011-12-18T14:46:44Z</time>
      </trkpt>
      <trkpt lat="43.74907" lon="3.56175">
        <ele>79.1</ele>
        <time>2011-12-18T14:46:48Z</time>
      </trkpt>
      <trkpt lat="43.74904" lon="3.56172">
        <ele>79.2</ele>
        <time>2011-12-18T14:46:52Z</time>
      </trkpt>
      <trkpt lat="43.749" lon="3.5617">
        <ele>78.1</ele>
        <time>2011-12-18T14:46:56Z</time>
      </trkpt>
      <trkpt lat="43.74897" lon="3.56166">
        <ele>77.7</ele>
        <time>2011-12-18T14:47:00Z</time>
      </trkpt>
      <trkpt lat="43.74893" lon="3.56163">
        <ele>76.8</ele>
        <time>2011-12-18T14:47:05Z</time>
      </trkpt>
      <trkpt lat="43.7489" lon="3.5616">
        <ele>77.3</ele>
        <time>2011-12-18T14:47:09Z</time>
      </trkpt>
      <trkpt lat="43.74887" lon="3.56157">
        <ele>76.5</ele>
        <time>2011-12-18T14:47:13Z</time>
      </trkpt>
      <trkpt lat="43.74886" lon="3.56157">
        <ele>76.4</ele>
        <time>2011-12-18T14:47:14Z</time>
      </trkpt>
      <trkpt lat="43.74881" lon="3.56149">
        <ele>76.1</ele>
        <time>2011-12-18T14:47:25Z</time>
      </trkpt>
      <trkpt lat="43.74877" lon="3.56146">
        <ele>76.6</ele>
        <time>2011-12-18T14:47:34Z</time>
      </trkpt>
      <trkpt lat="43.74874" lon="3.56142">
        <ele>74.5</ele>
        <time>2011-12-18T14:48:11Z</time>
      </trkpt>
      <trkpt lat="43.7487" lon="3.5614">
        <ele>77.2</ele>
        <time>2011-12-18T14:48:57Z</time>
      </trkpt>
      <trkpt lat="43.7487" lon="3.5614">
        <ele>76.7</ele>
        <time>2011-12-18T14:48:58Z</time>
      </trkpt>
      <trkpt lat="43.74871" lon="3.5614">
        <ele>74.8</ele>
        <time>2011-12-18T14:50:23Z</time>
      </trkpt>
      <trkpt lat="43.74871" lon="3.5614">
        <ele>75.1</ele>
        <time>2011-12-18T14:50:24Z</time>
      </trkpt>
      <trkpt lat="43.74871" lon="3.56138">
        <ele>75.1</ele>
        <time>2011-12-18T14:52:03Z</time>
      </trkpt>
      <trkpt lat="43.74871" lon="3.56138">
        <ele>75.2</ele>
        <time>2011-12-18T14:52:04Z</time>
      </trkpt>
      <trkpt lat="43.74864" lon="3.56132">
        <ele>75.8</ele>
        <time>2011-12-18T14:53:01Z</time>
      </trkpt>
      <trkpt lat="43.74861" lon="3.56128">
        <ele>74.8</ele>
        <time>2011-12-18T14:53:05Z</time>
      </trkpt>
      <trkpt lat="43.74861" lon="3.56127">
        <ele>74.7</ele>
        <time>2011-12-18T14:53:06Z</time>
      </trkpt>
      <trkpt lat="43.74856" lon="3.56121">
        <ele>74</ele>
        <time>2011-12-18T14:53:12Z</time>
      </trkpt>
      <trkpt lat="43.74853" lon="3.56119">
        <ele>74.1</ele>
        <time>2011-12-18T14:53:15Z</time>
      </trkpt>
      <trkpt lat="43.74849" lon="3.56116">
        <ele>74.4</ele>
        <time>2011-12-18T14:53:18Z</time>
      </trkpt>
      <trkpt lat="43.74846" lon="3.56112">
        <ele>74.1</ele>
        <time>2011-12-18T14:53:21Z</time>
      </trkpt>
      <trkpt lat="43.74842" lon="3.56109">
        <ele>73.8</ele>
        <time>2011-12-18T14:53:24Z</time>
      </trkpt>
      <trkpt lat="43.74838" lon="3.56106">
        <ele>73.6</ele>
        <time>2011-12-18T14:53:27Z</time>
      </trkpt>
      <trkpt lat="43.74834" lon="3.56104">
        <ele>73.8</ele>
        <time>2011-12-18T14:53:30Z</time>
      </trkpt>
      <trkpt lat="43.74831" lon="3.56102">
        <ele>73.9</ele>
        <time>2011-12-18T14:53:32Z</time>
      </trkpt>
      <trkpt lat="43.74828" lon="3.56099">
        <ele>73.6</ele>
        <time>2011-12-18T14:53:35Z</time>
      </trkpt>
      <trkpt lat="43.74824" lon="3.56097">
        <ele>72.8</ele>
        <time>2011-12-18T14:53:38Z</time>
      </trkpt>
      <trkpt lat="43.7482" lon="3.56094">
        <ele>72.1</ele>
        <time>2011-12-18T14:53:41Z</time>
      </trkpt>
      <trkpt lat="43.74816" lon="3.56091">
        <ele>72.1</ele>
        <time>2011-12-18T14:53:44Z</time>
      </trkpt>
      <trkpt lat="43.74812" lon="3.56089">
        <ele>71.9</ele>
        <time>2011-12-18T14:53:47Z</time>
      </trkpt>
      <trkpt lat="43.74808" lon="3.56087">
        <ele>71.4</ele>
        <time>2011-12-18T14:53:50Z</time>
      </trkpt>
      <trkpt lat="43.74804" lon="3.56085">
        <ele>71.6</ele>
        <time>2011-12-18T14:53:53Z</time>
      </trkpt>
      <trkpt lat="43.748" lon="3.56083">
        <ele>71</ele>
        <time>2011-12-18T14:53:56Z</time>
      </trkpt>
      <trkpt lat="43.74796" lon="3.56082">
        <ele>70.2</ele>
        <time>2011-12-18T14:53:59Z</time>
      </trkpt>
      <trkpt lat="43.74791" lon="3.56082">
        <ele>70.3</ele>
        <time>2011-12-18T14:54:02Z</time>
      </trkpt>
      <trkpt lat="43.74787" lon="3.56084">
        <ele>70.3</ele>
        <time>2011-12-18T14:54:05Z</time>
      </trkpt>
      <trkpt lat="43.74784" lon="3.56085">
        <ele>69.8</ele>
        <time>2011-12-18T14:54:08Z</time>
      </trkpt>
      <trkpt lat="43.74783" lon="3.56086">
        <ele>69.6</ele>
        <time>2011-12-18T14:54:09Z</time>
      </trkpt>
      <trkpt lat="43.74776" lon="3.56089">
        <ele>69.2</ele>
        <time>2011-12-18T14:54:14Z</time>
      </trkpt>
      <trkpt lat="43.74772" lon="3.56091">
        <ele>69</ele>
        <time>2011-12-18T14:54:17Z</time>
      </trkpt>
      <trkpt lat="43.74768" lon="3.56092">
        <ele>69</ele>
        <time>2011-12-18T14:54:20Z</time>
      </trkpt>
      <trkpt lat="43.74764" lon="3.56093">
        <ele>69.3</ele>
        <time>2011-12-18T14:54:23Z</time>
      </trkpt>
      <trkpt lat="43.7476" lon="3.56094">
        <ele>69</ele>
        <time>2011-12-18T14:54:26Z</time>
      </trkpt>
      <trkpt lat="43.74756" lon="3.56097">
        <ele>69.3</ele>
        <time>2011-12-18T14:54:29Z</time>
      </trkpt>
      <trkpt lat="43.74753" lon="3.56099">
        <ele>69.9</ele>
        <time>2011-12-18T14:54:32Z</time>
      </trkpt>
      <trkpt lat="43.74749" lon="3.561">
        <ele>69.5</ele>
        <time>2011-12-18T14:54:35Z</time>
      </trkpt>
      <trkpt lat="43.74745" lon="3.56102">
        <ele>69.4</ele>
        <time>2011-12-18T14:54:38Z</time>
      </trkpt>
      <trkpt lat="43.74741" lon="3.56104">
        <ele>68.8</ele>
        <time>2011-12-18T14:54:41Z</time>
      </trkpt>
      <trkpt lat="43.74738" lon="3.56106">
        <ele>69</ele>
        <time>2011-12-18T14:54:44Z</time>
      </trkpt>
      <trkpt lat="43.74734" lon="3.56109">
        <ele>69.1</ele>
        <time>2011-12-18T14:54:47Z</time>
      </trkpt>
      <trkpt lat="43.74731" lon="3.56111">
        <ele>68.9</ele>
        <time>2011-12-18T14:54:50Z</time>
      </trkpt>
      <trkpt lat="43.74728" lon="3.56114">
        <ele>69.1</ele>
        <time>2011-12-18T14:54:53Z</time>
      </trkpt>
      <trkpt lat="43.74725" lon="3.56116">
        <ele>69.1</ele>
        <time>2011-12-18T14:54:56Z</time>
      </trkpt>
      <trkpt lat="43.74722" lon="3.56119">
        <ele>68.9</ele>
        <time>2011-12-18T14:54:59Z</time>
      </trkpt>
      <trkpt lat="43.74718" lon="3.56122">
        <ele>68.6</ele>
        <time>2011-12-18T14:55:02Z</time>
      </trkpt>
      <trkpt lat="43.74716" lon="3.56125">
        <ele>68.5</ele>
        <time>2011-12-18T14:55:05Z</time>
      </trkpt>
      <trkpt lat="43.74713" lon="3.56128">
        <ele>68</ele>
        <time>2011-12-18T14:55:08Z</time>
      </trkpt>
      <trkpt lat="43.7471" lon="3.56131">
        <ele>66.9</ele>
        <time>2011-12-18T14:55:11Z</time>
      </trkpt>
      <trkpt lat="43.74709" lon="3.56132">
        <ele>67.1</ele>
        <time>2011-12-18T14:55:12Z</time>
      </trkpt>
      <trkpt lat="43.74705" lon="3.56139">
        <ele>67.2</ele>
        <time>2011-12-18T14:55:18Z</time>
      </trkpt>
      <trkpt lat="43.74703" lon="3.56143">
        <ele>66.6</ele>
        <time>2011-12-18T14:55:21Z</time>
      </trkpt>
      <trkpt lat="43.747" lon="3.56147">
        <ele>66.9</ele>
        <time>2011-12-18T14:55:24Z</time>
      </trkpt>
      <trkpt lat="43.74697" lon="3.56151">
        <ele>66.9</ele>
        <time>2011-12-18T14:55:28Z</time>
      </trkpt>
      <trkpt lat="43.74694" lon="3.56154">
        <ele>66.7</ele>
        <time>2011-12-18T14:55:31Z</time>
      </trkpt>
      <trkpt lat="43.74692" lon="3.56157">
        <ele>66.7</ele>
        <time>2011-12-18T14:55:34Z</time>
      </trkpt>
      <trkpt lat="43.74689" lon="3.5616">
        <ele>66.4</ele>
        <time>2011-12-18T14:55:37Z</time>
      </trkpt>
      <trkpt lat="43.74686" lon="3.56164">
        <ele>66.1</ele>
        <time>2011-12-18T14:55:40Z</time>
      </trkpt>
      <trkpt lat="43.74684" lon="3.56168">
        <ele>66.2</ele>
        <time>2011-12-18T14:55:43Z</time>
      </trkpt>
      <trkpt lat="43.74681" lon="3.56172">
        <ele>66.1</ele>
        <time>2011-12-18T14:55:46Z</time>
      </trkpt>
      <trkpt lat="43.74678" lon="3.56175">
        <ele>65.8</ele>
        <time>2011-12-18T14:55:49Z</time>
      </trkpt>
      <trkpt lat="43.74675" lon="3.56178">
        <ele>65.1</ele>
        <time>2011-12-18T14:55:52Z</time>
      </trkpt>
      <trkpt lat="43.74672" lon="3.56181">
        <ele>64.9</ele>
        <time>2011-12-18T14:55:55Z</time>
      </trkpt>
      <trkpt lat="43.74668" lon="3.56184">
        <ele>65.3</ele>
        <time>2011-12-18T14:55:59Z</time>
      </trkpt>
      <trkpt lat="43.74665" lon="3.56187">
        <ele>65.1</ele>
        <time>2011-12-18T14:56:02Z</time>
      </trkpt>
      <trkpt lat="43.74663" lon="3.5619">
        <ele>64.7</ele>
        <time>2011-12-18T14:56:05Z</time>
      </trkpt>
      <trkpt lat="43.7466" lon="3.56193">
        <ele>64.6</ele>
        <time>2011-12-18T14:56:08Z</time>
      </trkpt>
      <trkpt lat="43.74656" lon="3.56196">
        <ele>64.6</ele>
        <time>2011-12-18T14:56:11Z</time>
      </trkpt>
      <trkpt lat="43.74654" lon="3.56199">
        <ele>65.3</ele>
        <time>2011-12-18T14:56:14Z</time>
      </trkpt>
      <trkpt lat="43.74653" lon="3.562">
        <ele>64.9</ele>
        <time>2011-12-18T14:56:15Z</time>
      </trkpt>
      <trkpt lat="43.74648" lon="3.56205">
        <ele>63.9</ele>
        <time>2011-12-18T14:56:20Z</time>
      </trkpt>
      <trkpt lat="43.74645" lon="3.56208">
        <ele>63.7</ele>
        <time>2011-12-18T14:56:23Z</time>
      </trkpt>
      <trkpt lat="43.74642" lon="3.56212">
        <ele>63</ele>
        <time>2011-12-18T14:56:26Z</time>
      </trkpt>
      <trkpt lat="43.74641" lon="3.56217">
        <ele>63</ele>
        <time>2011-12-18T14:56:29Z</time>
      </trkpt>
      <trkpt lat="43.7464" lon="3.56223">
        <ele>64.3</ele>
        <time>2011-12-18T14:56:33Z</time>
      </trkpt>
      <trkpt lat="43.74639" lon="3.56228">
        <ele>63.6</ele>
        <time>2011-12-18T14:56:36Z</time>
      </trkpt>
      <trkpt lat="43.74639" lon="3.56233">
        <ele>63</ele>
        <time>2011-12-18T14:56:40Z</time>
      </trkpt>
      <trkpt lat="43.74639" lon="3.56239">
        <ele>62.5</ele>
        <time>2011-12-18T14:56:44Z</time>
      </trkpt>
      <trkpt lat="43.7464" lon="3.56244">
        <ele>63.3</ele>
        <time>2011-12-18T14:56:48Z</time>
      </trkpt>
      <trkpt lat="43.7464" lon="3.5625">
        <ele>63.1</ele>
        <time>2011-12-18T14:56:52Z</time>
      </trkpt>
      <trkpt lat="43.7464" lon="3.56256">
        <ele>63.4</ele>
        <time>2011-12-18T14:57:07Z</time>
      </trkpt>
      <trkpt lat="43.7464" lon="3.56262">
        <ele>62.4</ele>
        <time>2011-12-18T14:57:17Z</time>
      </trkpt>
      <trkpt lat="43.7464" lon="3.56263">
        <ele>62.1</ele>
        <time>2011-12-18T14:57:18Z</time>
      </trkpt>
      <trkpt lat="43.74643" lon="3.56272">
        <ele>62.6</ele>
        <time>2011-12-18T14:57:25Z</time>
      </trkpt>
      <trkpt lat="43.74645" lon="3.56276">
        <ele>63</ele>
        <time>2011-12-18T14:57:28Z</time>
      </trkpt>
      <trkpt lat="43.74647" lon="3.5628">
        <ele>62.8</ele>
        <time>2011-12-18T14:57:31Z</time>
      </trkpt>
      <trkpt lat="43.74649" lon="3.56285">
        <ele>62.6</ele>
        <time>2011-12-18T14:57:34Z</time>
      </trkpt>
      <trkpt lat="43.74651" lon="3.5629">
        <ele>62.6</ele>
        <time>2011-12-18T14:57:38Z</time>
      </trkpt>
      <trkpt lat="43.74653" lon="3.56296">
        <ele>62.3</ele>
        <time>2011-12-18T14:57:42Z</time>
      </trkpt>
      <trkpt lat="43.74655" lon="3.563">
        <ele>62.3</ele>
        <time>2011-12-18T14:57:46Z</time>
      </trkpt>
      <trkpt lat="43.74656" lon="3.56306">
        <ele>62.3</ele>
        <time>2011-12-18T14:57:50Z</time>
      </trkpt>
      <trkpt lat="43.74656" lon="3.56311">
        <ele>62.6</ele>
        <time>2011-12-18T14:57:54Z</time>
      </trkpt>
      <trkpt lat="43.74654" lon="3.56316">
        <ele>62.8</ele>
        <time>2011-12-18T14:57:57Z</time>
      </trkpt>
      <trkpt lat="43.74652" lon="3.56321">
        <ele>62.2</ele>
        <time>2011-12-18T14:58:00Z</time>
      </trkpt>
      <trkpt lat="43.74649" lon="3.56325">
        <ele>61.6</ele>
        <time>2011-12-18T14:58:03Z</time>
      </trkpt>
      <trkpt lat="43.74645" lon="3.56328">
        <ele>61.4</ele>
        <time>2011-12-18T14:58:06Z</time>
      </trkpt>
      <trkpt lat="43.74641" lon="3.5633">
        <ele>60.7</ele>
        <time>2011-12-18T14:58:09Z</time>
      </trkpt>
      <trkpt lat="43.74637" lon="3.56331">
        <ele>61.4</ele>
        <time>2011-12-18T14:58:12Z</time>
      </trkpt>
      <trkpt lat="43.74634" lon="3.56331">
        <ele>61.3</ele>
        <time>2011-12-18T14:58:15Z</time>
      </trkpt>
      <trkpt lat="43.7463" lon="3.56331">
        <ele>60.6</ele>
        <time>2011-12-18T14:58:18Z</time>
      </trkpt>
      <trkpt lat="43.74629" lon="3.56331">
        <ele>60.4</ele>
        <time>2011-12-18T14:58:19Z</time>
      </trkpt>
      <trkpt lat="43.74622" lon="3.56329">
        <ele>60.2</ele>
        <time>2011-12-18T14:58:24Z</time>
      </trkpt>
      <trkpt lat="43.74618" lon="3.56327">
        <ele>59.9</ele>
        <time>2011-12-18T14:58:28Z</time>
      </trkpt>
      <trkpt lat="43.74615" lon="3.56325">
        <ele>60.1</ele>
        <time>2011-12-18T14:58:31Z</time>
      </trkpt>
      <trkpt lat="43.74611" lon="3.56323">
        <ele>60.6</ele>
        <time>2011-12-18T14:58:35Z</time>
      </trkpt>
      <trkpt lat="43.74608" lon="3.56321">
        <ele>60.6</ele>
        <time>2011-12-18T14:58:38Z</time>
      </trkpt>
      <trkpt lat="43.74604" lon="3.56317">
        <ele>59</ele>
        <time>2011-12-18T14:58:42Z</time>
      </trkpt>
      <trkpt lat="43.74601" lon="3.56315">
        <ele>59.1</ele>
        <time>2011-12-18T14:58:45Z</time>
      </trkpt>
      <trkpt lat="43.74597" lon="3.56313">
        <ele>59.4</ele>
        <time>2011-12-18T14:58:48Z</time>
      </trkpt>
      <trkpt lat="43.74593" lon="3.56311">
        <ele>59.6</ele>
        <time>2011-12-18T14:58:51Z</time>
      </trkpt>
      <trkpt lat="43.74589" lon="3.56309">
        <ele>59.2</ele>
        <time>2011-12-18T14:58:54Z</time>
      </trkpt>
      <trkpt lat="43.74585" lon="3.56309">
        <ele>59.2</ele>
        <time>2011-12-18T14:58:57Z</time>
      </trkpt>
      <trkpt lat="43.74581" lon="3.56309">
        <ele>59.3</ele>
        <time>2011-12-18T14:59:00Z</time>
      </trkpt>
      <trkpt lat="43.74577" lon="3.5631">
        <ele>59.7</ele>
        <time>2011-12-18T14:59:03Z</time>
      </trkpt>
      <trkpt lat="43.74573" lon="3.5631">
        <ele>60</ele>
        <time>2011-12-18T14:59:06Z</time>
      </trkpt>
      <trkpt lat="43.74569" lon="3.5631">
        <ele>59.6</ele>
        <time>2011-12-18T14:59:09Z</time>
      </trkpt>
      <trkpt lat="43.74564" lon="3.56311">
        <ele>59.2</ele>
        <time>2011-12-18T14:59:12Z</time>
      </trkpt>
      <trkpt lat="43.74561" lon="3.56312">
        <ele>59</ele>
        <time>2011-12-18T14:59:15Z</time>
      </trkpt>
      <trkpt lat="43.74556" lon="3.56312">
        <ele>59.1</ele>
        <time>2011-12-18T14:59:18Z</time>
      </trkpt>
      <trkpt lat="43.74552" lon="3.56312">
        <ele>59.3</ele>
        <time>2011-12-18T14:59:21Z</time>
      </trkpt>
      <trkpt lat="43.74551" lon="3.56313">
        <ele>59.4</ele>
        <time>2011-12-18T14:59:22Z</time>
      </trkpt>
      <trkpt lat="43.74545" lon="3.56314">
        <ele>58.2</ele>
        <time>2011-12-18T14:59:27Z</time>
      </trkpt>
      <trkpt lat="43.74541" lon="3.56314">
        <ele>58.5</ele>
        <time>2011-12-18T14:59:30Z</time>
      </trkpt>
      <trkpt lat="43.74537" lon="3.56315">
        <ele>59</ele>
        <time>2011-12-18T14:59:33Z</time>
      </trkpt>
      <trkpt lat="43.74533" lon="3.56315">
        <ele>59.2</ele>
        <time>2011-12-18T14:59:36Z</time>
      </trkpt>
      <trkpt lat="43.7453" lon="3.56316">
        <ele>57.7</ele>
        <time>2011-12-18T14:59:39Z</time>
      </trkpt>
      <trkpt lat="43.74526" lon="3.56316">
        <ele>57.7</ele>
        <time>2011-12-18T14:59:42Z</time>
      </trkpt>
      <trkpt lat="43.74523" lon="3.56317">
        <ele>57.9</ele>
        <time>2011-12-18T14:59:45Z</time>
      </trkpt>
      <trkpt lat="43.74519" lon="3.56317">
        <ele>57.2</ele>
        <time>2011-12-18T14:59:48Z</time>
      </trkpt>
      <trkpt lat="43.74515" lon="3.56317">
        <ele>57.2</ele>
        <time>2011-12-18T14:59:51Z</time>
      </trkpt>
      <trkpt lat="43.74512" lon="3.56318">
        <ele>57</ele>
        <time>2011-12-18T14:59:54Z</time>
      </trkpt>
      <trkpt lat="43.74508" lon="3.56318">
        <ele>55.2</ele>
        <time>2011-12-18T14:59:58Z</time>
      </trkpt>
      <trkpt lat="43.74503" lon="3.56318">
        <ele>55.1</ele>
        <time>2011-12-18T15:00:02Z</time>
      </trkpt>
      <trkpt lat="43.74499" lon="3.56318">
        <ele>55.2</ele>
        <time>2011-12-18T15:00:05Z</time>
      </trkpt>
      <trkpt lat="43.74495" lon="3.56319">
        <ele>55.1</ele>
        <time>2011-12-18T15:00:08Z</time>
      </trkpt>
      <trkpt lat="43.74492" lon="3.56319">
        <ele>55</ele>
        <time>2011-12-18T15:00:11Z</time>
      </trkpt>
      <trkpt lat="43.74488" lon="3.5632">
        <ele>55.1</ele>
        <time>2011-12-18T15:00:14Z</time>
      </trkpt>
      <trkpt lat="43.74484" lon="3.56319">
        <ele>55.7</ele>
        <time>2011-12-18T15:00:17Z</time>
      </trkpt>
      <trkpt lat="43.74481" lon="3.56319">
        <ele>54.3</ele>
        <time>2011-12-18T15:00:20Z</time>
      </trkpt>
      <trkpt lat="43.74477" lon="3.56319">
        <ele>54.1</ele>
        <time>2011-12-18T15:00:23Z</time>
      </trkpt>
      <trkpt lat="43.74476" lon="3.56319">
        <ele>54</ele>
        <time>2011-12-18T15:00:24Z</time>
      </trkpt>
      <trkpt lat="43.7447" lon="3.56319">
        <ele>54</ele>
        <time>2011-12-18T15:00:39Z</time>
      </trkpt>
      <trkpt lat="43.74466" lon="3.56319">
        <ele>53.5</ele>
        <time>2011-12-18T15:00:50Z</time>
      </trkpt>
      <trkpt lat="43.74461" lon="3.56319">
        <ele>53.2</ele>
        <time>2011-12-18T15:00:54Z</time>
      </trkpt>
      <trkpt lat="43.74458" lon="3.56317">
        <ele>52.9</ele>
        <time>2011-12-18T15:00:57Z</time>
      </trkpt>
      <trkpt lat="43.74455" lon="3.56316">
        <ele>53</ele>
        <time>2011-12-18T15:01:00Z</time>
      </trkpt>
      <trkpt lat="43.74451" lon="3.56316">
        <ele>53.1</ele>
        <time>2011-12-18T15:01:03Z</time>
      </trkpt>
      <trkpt lat="43.74447" lon="3.56316">
        <ele>52.8</ele>
        <time>2011-12-18T15:01:06Z</time>
      </trkpt>
      <trkpt lat="43.74443" lon="3.56316">
        <ele>53.2</ele>
        <time>2011-12-18T15:01:11Z</time>
      </trkpt>
      <trkpt lat="43.74439" lon="3.56316">
        <ele>54.5</ele>
        <time>2011-12-18T15:01:47Z</time>
      </trkpt>
      <trkpt lat="43.74438" lon="3.56316">
        <ele>54.8</ele>
        <time>2011-12-18T15:01:48Z</time>
      </trkpt>
      <trkpt lat="43.74434" lon="3.56324">
        <ele>54.5</ele>
        <time>2011-12-18T15:03:45Z</time>
      </trkpt>
      <trkpt lat="43.74434" lon="3.56325">
        <ele>54.7</ele>
        <time>2011-12-18T15:03:46Z</time>
      </trkpt>
      <trkpt lat="43.74433" lon="3.56336">
        <ele>55.6</ele>
        <time>2011-12-18T15:03:57Z</time>
      </trkpt>
      <trkpt lat="43.74432" lon="3.56342">
        <ele>55.1</ele>
        <time>2011-12-18T15:04:01Z</time>
      </trkpt>
      <trkpt lat="43.74432" lon="3.56346">
        <ele>55.3</ele>
        <time>2011-12-18T15:04:04Z</time>
      </trkpt>
      <trkpt lat="43.74431" lon="3.56352">
        <ele>55.7</ele>
        <time>2011-12-18T15:04:08Z</time>
      </trkpt>
      <trkpt lat="43.7443" lon="3.56358">
        <ele>55.6</ele>
        <time>2011-12-18T15:04:13Z</time>
      </trkpt>
      <trkpt lat="43.7443" lon="3.56363">
        <ele>55.6</ele>
        <time>2011-12-18T15:04:17Z</time>
      </trkpt>
      <trkpt lat="43.7443" lon="3.56368">
        <ele>56.3</ele>
        <time>2011-12-18T15:04:20Z</time>
      </trkpt>
      <trkpt lat="43.74429" lon="3.56374">
        <ele>55.2</ele>
        <time>2011-12-18T15:04:24Z</time>
      </trkpt>
      <trkpt lat="43.74429" lon="3.56379">
        <ele>55.3</ele>
        <time>2011-12-18T15:04:27Z</time>
      </trkpt>
      <trkpt lat="43.74429" lon="3.56384">
        <ele>55.6</ele>
        <time>2011-12-18T15:04:30Z</time>
      </trkpt>
      <trkpt lat="43.74428" lon="3.5639">
        <ele>55.5</ele>
        <time>2011-12-18T15:04:34Z</time>
      </trkpt>
      <trkpt lat="43.74428" lon="3.56395">
        <ele>55.8</ele>
        <time>2011-12-18T15:04:37Z</time>
      </trkpt>
      <trkpt lat="43.74427" lon="3.56399">
        <ele>56.1</ele>
        <time>2011-12-18T15:04:40Z</time>
      </trkpt>
      <trkpt lat="43.74427" lon="3.56405">
        <ele>56.3</ele>
        <time>2011-12-18T15:04:43Z</time>
      </trkpt>
      <trkpt lat="43.74426" lon="3.5641">
        <ele>56.7</ele>
        <time>2011-12-18T15:04:46Z</time>
      </trkpt>
      <trkpt lat="43.74426" lon="3.56411">
        <ele>56.7</ele>
        <time>2011-12-18T15:04:47Z</time>
      </trkpt>
      <trkpt lat="43.74424" lon="3.5642">
        <ele>57.3</ele>
        <time>2011-12-18T15:04:53Z</time>
      </trkpt>
      <trkpt lat="43.74424" lon="3.56425">
        <ele>57.4</ele>
        <time>2011-12-18T15:04:56Z</time>
      </trkpt>
      <trkpt lat="43.74422" lon="3.56429">
        <ele>57.4</ele>
        <time>2011-12-18T15:04:59Z</time>
      </trkpt>
      <trkpt lat="43.74421" lon="3.56434">
        <ele>57</ele>
        <time>2011-12-18T15:05:02Z</time>
      </trkpt>
      <trkpt lat="43.74419" lon="3.56438">
        <ele>56.7</ele>
        <time>2011-12-18T15:05:05Z</time>
      </trkpt>
      <trkpt lat="43.74418" lon="3.56443">
        <ele>56.4</ele>
        <time>2011-12-18T15:05:08Z</time>
      </trkpt>
      <trkpt lat="43.74416" lon="3.56447">
        <ele>56.4</ele>
        <time>2011-12-18T15:05:11Z</time>
      </trkpt>
      <trkpt lat="43.74413" lon="3.56451">
        <ele>56.4</ele>
        <time>2011-12-18T15:05:14Z</time>
      </trkpt>
      <trkpt lat="43.74411" lon="3.56455">
        <ele>56.3</ele>
        <time>2011-12-18T15:05:17Z</time>
      </trkpt>
      <trkpt lat="43.74408" lon="3.56459">
        <ele>56.3</ele>
        <time>2011-12-18T15:05:20Z</time>
      </trkpt>
      <trkpt lat="43.74405" lon="3.56463">
        <ele>56.9</ele>
        <time>2011-12-18T15:05:23Z</time>
      </trkpt>
      <trkpt lat="43.74403" lon="3.56467">
        <ele>56.2</ele>
        <time>2011-12-18T15:05:26Z</time>
      </trkpt>
      <trkpt lat="43.744" lon="3.5647">
        <ele>56.3</ele>
        <time>2011-12-18T15:05:29Z</time>
      </trkpt>
      <trkpt lat="43.74396" lon="3.56473">
        <ele>56.6</ele>
        <time>2011-12-18T15:05:32Z</time>
      </trkpt>
      <trkpt lat="43.74393" lon="3.56476">
        <ele>56.9</ele>
        <time>2011-12-18T15:05:35Z</time>
      </trkpt>
      <trkpt lat="43.7439" lon="3.56478">
        <ele>57.3</ele>
        <time>2011-12-18T15:05:38Z</time>
      </trkpt>
      <trkpt lat="43.74387" lon="3.56481">
        <ele>57.7</ele>
        <time>2011-12-18T15:05:41Z</time>
      </trkpt>
      <trkpt lat="43.74384" lon="3.56484">
        <ele>57.6</ele>
        <time>2011-12-18T15:05:44Z</time>
      </trkpt>
      <trkpt lat="43.74381" lon="3.56486">
        <ele>57.3</ele>
        <time>2011-12-18T15:05:47Z</time>
      </trkpt>
      <trkpt lat="43.74379" lon="3.56487">
        <ele>57.2</ele>
        <time>2011-12-18T15:05:48Z</time>
      </trkpt>
      <trkpt lat="43.74373" lon="3.56493">
        <ele>56.8</ele>
        <time>2011-12-18T15:05:53Z</time>
      </trkpt>
      <trkpt lat="43.7437" lon="3.56496">
        <ele>56.8</ele>
        <time>2011-12-18T15:05:56Z</time>
      </trkpt>
      <trkpt lat="43.74367" lon="3.56499">
        <ele>57.1</ele>
        <time>2011-12-18T15:05:59Z</time>
      </trkpt>
      <trkpt lat="43.74364" lon="3.56502">
        <ele>57.4</ele>
        <time>2011-12-18T15:06:02Z</time>
      </trkpt>
      <trkpt lat="43.7436" lon="3.56505">
        <ele>57.1</ele>
        <time>2011-12-18T15:06:05Z</time>
      </trkpt>
      <trkpt lat="43.74357" lon="3.56508">
        <ele>57.7</ele>
        <time>2011-12-18T15:06:08Z</time>
      </trkpt>
      <trkpt lat="43.74355" lon="3.56512">
        <ele>57.8</ele>
        <time>2011-12-18T15:06:11Z</time>
      </trkpt>
      <trkpt lat="43.74353" lon="3.56516">
        <ele>57.1</ele>
        <time>2011-12-18T15:06:14Z</time>
      </trkpt>
      <trkpt lat="43.74351" lon="3.56521">
        <ele>57.8</ele>
        <time>2011-12-18T15:06:17Z</time>
      </trkpt>
      <trkpt lat="43.74349" lon="3.56526">
        <ele>58</ele>
        <time>2011-12-18T15:06:20Z</time>
      </trkpt>
      <trkpt lat="43.74348" lon="3.56531">
        <ele>57.8</ele>
        <time>2011-12-18T15:06:23Z</time>
      </trkpt>
      <trkpt lat="43.74348" lon="3.56537">
        <ele>58.1</ele>
        <time>2011-12-18T15:06:26Z</time>
      </trkpt>
      <trkpt lat="43.74348" lon="3.56542">
        <ele>58.3</ele>
        <time>2011-12-18T15:06:29Z</time>
      </trkpt>
      <trkpt lat="43.74349" lon="3.56547">
        <ele>58.3</ele>
        <time>2011-12-18T15:06:32Z</time>
      </trkpt>
      <trkpt lat="43.7435" lon="3.56552">
        <ele>57.9</ele>
        <time>2011-12-18T15:06:35Z</time>
      </trkpt>
      <trkpt lat="43.74352" lon="3.56557">
        <ele>57.8</ele>
        <time>2011-12-18T15:06:38Z</time>
      </trkpt>
      <trkpt lat="43.74353" lon="3.56562">
        <ele>58</ele>
        <time>2011-12-18T15:06:41Z</time>
      </trkpt>
      <trkpt lat="43.74354" lon="3.56566">
        <ele>58</ele>
        <time>2011-12-18T15:06:44Z</time>
      </trkpt>
      <trkpt lat="43.74354" lon="3.56571">
        <ele>57.8</ele>
        <time>2011-12-18T15:06:47Z</time>
      </trkpt>
      <trkpt lat="43.74355" lon="3.56576">
        <ele>57.4</ele>
        <time>2011-12-18T15:06:50Z</time>
      </trkpt>
      <trkpt lat="43.74355" lon="3.56578">
        <ele>57.8</ele>
        <time>2011-12-18T15:06:51Z</time>
      </trkpt>
      <trkpt lat="43.74355" lon="3.56588">
        <ele>57.7</ele>
        <time>2011-12-18T15:06:58Z</time>
      </trkpt>
      <trkpt lat="43.74353" lon="3.56593">
        <ele>57.7</ele>
        <time>2011-12-18T15:07:03Z</time>
      </trkpt>
      <trkpt lat="43.74353" lon="3.56599">
        <ele>57.6</ele>
        <time>2011-12-18T15:07:11Z</time>
      </trkpt>
      <trkpt lat="43.74356" lon="3.56603">
        <ele>58.3</ele>
        <time>2011-12-18T15:07:28Z</time>
      </trkpt>
      <trkpt lat="43.74355" lon="3.56609">
        <ele>57.7</ele>
        <time>2011-12-18T15:07:50Z</time>
      </trkpt>
      <trkpt lat="43.74356" lon="3.56614">
        <ele>56.2</ele>
        <time>2011-12-18T15:08:06Z</time>
      </trkpt>
      <trkpt lat="43.74356" lon="3.56615">
        <ele>56.2</ele>
        <time>2011-12-18T15:08:07Z</time>
      </trkpt>
      <trkpt lat="43.7436" lon="3.56622">
        <ele>56.1</ele>
        <time>2011-12-18T15:08:12Z</time>
      </trkpt>
      <trkpt lat="43.74362" lon="3.56626">
        <ele>56.1</ele>
        <time>2011-12-18T15:08:16Z</time>
      </trkpt>
      <trkpt lat="43.74364" lon="3.56631">
        <ele>55.4</ele>
        <time>2011-12-18T15:08:20Z</time>
      </trkpt>
      <trkpt lat="43.74367" lon="3.56636">
        <ele>56</ele>
        <time>2011-12-18T15:08:26Z</time>
      </trkpt>
      <trkpt lat="43.74366" lon="3.56641">
        <ele>55.6</ele>
        <time>2011-12-18T15:08:31Z</time>
      </trkpt>
      <trkpt lat="43.74364" lon="3.56647">
        <ele>55.3</ele>
        <time>2011-12-18T15:08:48Z</time>
      </trkpt>
      <trkpt lat="43.74362" lon="3.56652">
        <ele>57.2</ele>
        <time>2011-12-18T15:09:26Z</time>
      </trkpt>
      <trkpt lat="43.74362" lon="3.56653">
        <ele>56.9</ele>
        <time>2011-12-18T15:09:27Z</time>
      </trkpt>
      <trkpt lat="43.74359" lon="3.56659">
        <ele>56.9</ele>
        <time>2011-12-18T15:11:46Z</time>
      </trkpt>
      <trkpt lat="43.74359" lon="3.56659">
        <ele>56.9</ele>
        <time>2011-12-18T15:11:46Z</time>
      </trkpt>
    </trkseg>
  </trk>
</gpx>